<?xml version="1.0" encoding="UTF-8" standalone="no" ?>
<gpx xmlns="http://www.topografix.com/GPX/1/1" xmlns:xsi="http://www.w3.org/2001/XMLSchema-instance" xsi:schemaLocation="http://www.topografix.com/GPX/1/1 http://www.topografix.com/GPX/1/1/gpx.xsd" version="1.1" creator="VisuGPX - https://www.visugpx.com">
  <metadata>
    <name>Combe Malaterre- Baume olivier</name>
    <desc><![CDATA[2019-01 - Massif de Saint-Guilhem - Barrage Belbezet - Mas de l'Arbousier - Puech Bouissou - Baume Olivier

[b]album[/b] : [url]https://photos.app.goo.gl/mCckWBvDrhQ4mi3y8[/url]
[img]https://blogger.googleusercontent.com/img/b/R29vZ2xl/AVvXsEhPdoPKJmuo9BEN2UK1_Ke8VznbvE2yAC5MZ5thX5cVvqa59IPj_lfTaV-J_sIA_FE5s_7kupnXbEdw_UEQQd_6x8xaf_bueWDhxVl8dO40WPnhcAFmVYZwrCY5qLNiqmfmPE_YGjo1EEKi_FUJawZLfCvPPbQ21Tphq3yA3EC3vOYrdNkT7trjTV466_I-/s600/2019-1-10%20-%20Saint-Guilhem.JPG[/img]
[b]Idées de randonnées dans la même région[/b]
Parcours : [url]https://www.visugpx.com/membres/24856/causses/saint-guilhem/[/url]
Photos : [url]https://jcvertygo.blogspot.com/p/saint-guilhem.html[/url]]]></desc>
  </metadata>
  <trk>
    <name><![CDATA[2019-01-10_16h29m33_combe malaterre- crête-plaisant-baume olivier]]></name>
    <extensions>
      <line xmlns="http://www.topografix.com/GPX/gpx_style/0/2">
        <color>0000FF</color>
        <width>4</width>
      </line>
    </extensions>
    <trkseg>
      <trkpt lat="43.74351" lon="3.56591">
        <ele>78</ele>
        <time>2019-01-10T11:04:04Z</time>
      </trkpt>
      <trkpt lat="43.74353" lon="3.56589">
        <ele>78</ele>
        <time>2019-01-10T11:04:04Z</time>
      </trkpt>
      <trkpt lat="43.74355" lon="3.56585">
        <ele>78</ele>
        <time>2019-01-10T11:04:04Z</time>
      </trkpt>
      <trkpt lat="43.74352" lon="3.56579">
        <ele>78</ele>
        <time>2019-01-10T11:04:04Z</time>
      </trkpt>
      <trkpt lat="43.74349" lon="3.56576">
        <ele>78</ele>
        <time>2019-01-10T11:04:04Z</time>
      </trkpt>
      <trkpt lat="43.74348" lon="3.56571">
        <ele>78</ele>
        <time>2019-01-10T11:04:20Z</time>
      </trkpt>
      <trkpt lat="43.74346" lon="3.56566">
        <ele>78</ele>
        <time>2019-01-10T11:04:20Z</time>
      </trkpt>
      <trkpt lat="43.74344" lon="3.5656">
        <ele>78</ele>
        <time>2019-01-10T11:04:20Z</time>
      </trkpt>
      <trkpt lat="43.74343" lon="3.56555">
        <ele>78</ele>
        <time>2019-01-10T11:04:20Z</time>
      </trkpt>
      <trkpt lat="43.74342" lon="3.56549">
        <ele>78</ele>
        <time>2019-01-10T11:04:40Z</time>
      </trkpt>
      <trkpt lat="43.74342" lon="3.56544">
        <ele>78</ele>
        <time>2019-01-10T11:04:40Z</time>
      </trkpt>
      <trkpt lat="43.74343" lon="3.56541">
        <ele>77</ele>
        <time>2019-01-10T11:04:40Z</time>
      </trkpt>
      <trkpt lat="43.74348" lon="3.5654">
        <ele>77</ele>
        <time>2019-01-10T11:04:40Z</time>
      </trkpt>
      <trkpt lat="43.74351" lon="3.56534">
        <ele>77</ele>
        <time>2019-01-10T11:04:40Z</time>
      </trkpt>
      <trkpt lat="43.74352" lon="3.56529">
        <ele>77</ele>
        <time>2019-01-10T11:04:56Z</time>
      </trkpt>
      <trkpt lat="43.74354" lon="3.56525">
        <ele>77</ele>
        <time>2019-01-10T11:04:56Z</time>
      </trkpt>
      <trkpt lat="43.74355" lon="3.56521">
        <ele>77</ele>
        <time>2019-01-10T11:04:56Z</time>
      </trkpt>
      <trkpt lat="43.74358" lon="3.56517">
        <ele>77</ele>
        <time>2019-01-10T11:04:56Z</time>
      </trkpt>
      <trkpt lat="43.74362" lon="3.56515">
        <ele>77</ele>
        <time>2019-01-10T11:05:12Z</time>
      </trkpt>
      <trkpt lat="43.74365" lon="3.5651">
        <ele>77</ele>
        <time>2019-01-10T11:05:12Z</time>
      </trkpt>
      <trkpt lat="43.74368" lon="3.56508">
        <ele>77</ele>
        <time>2019-01-10T11:05:12Z</time>
      </trkpt>
      <trkpt lat="43.74372" lon="3.56505">
        <ele>77</ele>
        <time>2019-01-10T11:05:12Z</time>
      </trkpt>
      <trkpt lat="43.74375" lon="3.56501">
        <ele>87</ele>
        <time>2019-01-10T11:05:28Z</time>
      </trkpt>
      <trkpt lat="43.74379" lon="3.56498">
        <ele>87</ele>
        <time>2019-01-10T11:05:28Z</time>
      </trkpt>
      <trkpt lat="43.74383" lon="3.56496">
        <ele>87</ele>
        <time>2019-01-10T11:05:28Z</time>
      </trkpt>
      <trkpt lat="43.74387" lon="3.56492">
        <ele>87</ele>
        <time>2019-01-10T11:05:28Z</time>
      </trkpt>
      <trkpt lat="43.74392" lon="3.56489">
        <ele>87</ele>
        <time>2019-01-10T11:05:44Z</time>
      </trkpt>
      <trkpt lat="43.74396" lon="3.56485">
        <ele>87</ele>
        <time>2019-01-10T11:05:44Z</time>
      </trkpt>
      <trkpt lat="43.744" lon="3.5648">
        <ele>87</ele>
        <time>2019-01-10T11:05:44Z</time>
      </trkpt>
      <trkpt lat="43.74403" lon="3.56477">
        <ele>87</ele>
        <time>2019-01-10T11:05:44Z</time>
      </trkpt>
      <trkpt lat="43.74407" lon="3.56473">
        <ele>87</ele>
        <time>2019-01-10T11:06:00Z</time>
      </trkpt>
      <trkpt lat="43.7441" lon="3.56469">
        <ele>87</ele>
        <time>2019-01-10T11:06:00Z</time>
      </trkpt>
      <trkpt lat="43.74413" lon="3.56466">
        <ele>87</ele>
        <time>2019-01-10T11:06:00Z</time>
      </trkpt>
      <trkpt lat="43.74415" lon="3.5646">
        <ele>87</ele>
        <time>2019-01-10T11:06:00Z</time>
      </trkpt>
      <trkpt lat="43.74416" lon="3.56456">
        <ele>78</ele>
        <time>2019-01-10T11:06:16Z</time>
      </trkpt>
      <trkpt lat="43.74418" lon="3.5645">
        <ele>78</ele>
        <time>2019-01-10T11:06:16Z</time>
      </trkpt>
      <trkpt lat="43.7442" lon="3.56446">
        <ele>78</ele>
        <time>2019-01-10T11:06:16Z</time>
      </trkpt>
      <trkpt lat="43.74423" lon="3.5644">
        <ele>78</ele>
        <time>2019-01-10T11:06:16Z</time>
      </trkpt>
      <trkpt lat="43.74425" lon="3.56433">
        <ele>78</ele>
        <time>2019-01-10T11:06:32Z</time>
      </trkpt>
      <trkpt lat="43.74427" lon="3.56425">
        <ele>78</ele>
        <time>2019-01-10T11:06:32Z</time>
      </trkpt>
      <trkpt lat="43.74428" lon="3.56419">
        <ele>78</ele>
        <time>2019-01-10T11:06:32Z</time>
      </trkpt>
      <trkpt lat="43.74428" lon="3.56412">
        <ele>78</ele>
        <time>2019-01-10T11:06:32Z</time>
      </trkpt>
      <trkpt lat="43.74428" lon="3.56405">
        <ele>78</ele>
        <time>2019-01-10T11:06:48Z</time>
      </trkpt>
      <trkpt lat="43.74429" lon="3.56397">
        <ele>78</ele>
        <time>2019-01-10T11:06:48Z</time>
      </trkpt>
      <trkpt lat="43.74429" lon="3.56391">
        <ele>78</ele>
        <time>2019-01-10T11:06:48Z</time>
      </trkpt>
      <trkpt lat="43.7443" lon="3.56384">
        <ele>78</ele>
        <time>2019-01-10T11:06:48Z</time>
      </trkpt>
      <trkpt lat="43.7443" lon="3.56377">
        <ele>78</ele>
        <time>2019-01-10T11:07:04Z</time>
      </trkpt>
      <trkpt lat="43.7443" lon="3.56372">
        <ele>70</ele>
        <time>2019-01-10T11:07:04Z</time>
      </trkpt>
      <trkpt lat="43.74431" lon="3.56364">
        <ele>70</ele>
        <time>2019-01-10T11:07:04Z</time>
      </trkpt>
      <trkpt lat="43.74432" lon="3.56357">
        <ele>70</ele>
        <time>2019-01-10T11:07:04Z</time>
      </trkpt>
      <trkpt lat="43.74432" lon="3.56349">
        <ele>70</ele>
        <time>2019-01-10T11:07:32Z</time>
      </trkpt>
      <trkpt lat="43.74431" lon="3.56355">
        <ele>70</ele>
        <time>2019-01-10T11:07:32Z</time>
      </trkpt>
      <trkpt lat="43.74431" lon="3.56358">
        <ele>70</ele>
        <time>2019-01-10T11:07:32Z</time>
      </trkpt>
      <trkpt lat="43.7443" lon="3.56364">
        <ele>70</ele>
        <time>2019-01-10T11:07:32Z</time>
      </trkpt>
      <trkpt lat="43.74429" lon="3.56369">
        <ele>70</ele>
        <time>2019-01-10T11:07:32Z</time>
      </trkpt>
      <trkpt lat="43.74427" lon="3.56376">
        <ele>78</ele>
        <time>2019-01-10T11:07:48Z</time>
      </trkpt>
      <trkpt lat="43.74426" lon="3.56382">
        <ele>78</ele>
        <time>2019-01-10T11:07:48Z</time>
      </trkpt>
      <trkpt lat="43.74427" lon="3.56389">
        <ele>78</ele>
        <time>2019-01-10T11:07:48Z</time>
      </trkpt>
      <trkpt lat="43.74425" lon="3.56396">
        <ele>78</ele>
        <time>2019-01-10T11:07:48Z</time>
      </trkpt>
      <trkpt lat="43.74424" lon="3.56402">
        <ele>78</ele>
        <time>2019-01-10T11:08:04Z</time>
      </trkpt>
      <trkpt lat="43.74423" lon="3.56408">
        <ele>78</ele>
        <time>2019-01-10T11:08:04Z</time>
      </trkpt>
      <trkpt lat="43.74422" lon="3.56415">
        <ele>78</ele>
        <time>2019-01-10T11:08:04Z</time>
      </trkpt>
      <trkpt lat="43.7442" lon="3.56421">
        <ele>78</ele>
        <time>2019-01-10T11:08:04Z</time>
      </trkpt>
      <trkpt lat="43.7442" lon="3.56428">
        <ele>78</ele>
        <time>2019-01-10T11:08:20Z</time>
      </trkpt>
      <trkpt lat="43.74418" lon="3.56434">
        <ele>78</ele>
        <time>2019-01-10T11:08:20Z</time>
      </trkpt>
      <trkpt lat="43.74416" lon="3.56438">
        <ele>78</ele>
        <time>2019-01-10T11:08:20Z</time>
      </trkpt>
      <trkpt lat="43.74415" lon="3.56441">
        <ele>78</ele>
        <time>2019-01-10T11:08:20Z</time>
      </trkpt>
      <trkpt lat="43.74414" lon="3.56448">
        <ele>78</ele>
        <time>2019-01-10T11:08:36Z</time>
      </trkpt>
      <trkpt lat="43.74412" lon="3.56454">
        <ele>78</ele>
        <time>2019-01-10T11:08:36Z</time>
      </trkpt>
      <trkpt lat="43.74409" lon="3.56459">
        <ele>87</ele>
        <time>2019-01-10T11:08:36Z</time>
      </trkpt>
      <trkpt lat="43.74405" lon="3.56459">
        <ele>87</ele>
        <time>2019-01-10T11:08:36Z</time>
      </trkpt>
      <trkpt lat="43.74402" lon="3.56463">
        <ele>87</ele>
        <time>2019-01-10T11:08:52Z</time>
      </trkpt>
      <trkpt lat="43.74397" lon="3.56465">
        <ele>87</ele>
        <time>2019-01-10T11:08:52Z</time>
      </trkpt>
      <trkpt lat="43.74393" lon="3.5647">
        <ele>87</ele>
        <time>2019-01-10T11:08:52Z</time>
      </trkpt>
      <trkpt lat="43.74389" lon="3.56474">
        <ele>87</ele>
        <time>2019-01-10T11:08:52Z</time>
      </trkpt>
      <trkpt lat="43.74386" lon="3.56478">
        <ele>87</ele>
        <time>2019-01-10T11:09:08Z</time>
      </trkpt>
      <trkpt lat="43.74382" lon="3.56482">
        <ele>87</ele>
        <time>2019-01-10T11:09:08Z</time>
      </trkpt>
      <trkpt lat="43.74377" lon="3.56486">
        <ele>87</ele>
        <time>2019-01-10T11:09:08Z</time>
      </trkpt>
      <trkpt lat="43.74372" lon="3.5649">
        <ele>77</ele>
        <time>2019-01-10T11:09:08Z</time>
      </trkpt>
      <trkpt lat="43.74365" lon="3.56496">
        <ele>77</ele>
        <time>2019-01-10T11:09:24Z</time>
      </trkpt>
      <trkpt lat="43.7436" lon="3.56499">
        <ele>77</ele>
        <time>2019-01-10T11:09:24Z</time>
      </trkpt>
      <trkpt lat="43.74356" lon="3.56504">
        <ele>77</ele>
        <time>2019-01-10T11:09:24Z</time>
      </trkpt>
      <trkpt lat="43.7435" lon="3.56509">
        <ele>77</ele>
        <time>2019-01-10T11:09:24Z</time>
      </trkpt>
      <trkpt lat="43.74346" lon="3.56514">
        <ele>77</ele>
        <time>2019-01-10T11:09:40Z</time>
      </trkpt>
      <trkpt lat="43.74343" lon="3.5652">
        <ele>77</ele>
        <time>2019-01-10T11:09:40Z</time>
      </trkpt>
      <trkpt lat="43.74342" lon="3.56528">
        <ele>77</ele>
        <time>2019-01-10T11:09:40Z</time>
      </trkpt>
      <trkpt lat="43.74342" lon="3.56536">
        <ele>77</ele>
        <time>2019-01-10T11:09:40Z</time>
      </trkpt>
      <trkpt lat="43.74342" lon="3.56545">
        <ele>78</ele>
        <time>2019-01-10T11:09:56Z</time>
      </trkpt>
      <trkpt lat="43.74344" lon="3.56553">
        <ele>78</ele>
        <time>2019-01-10T11:09:56Z</time>
      </trkpt>
      <trkpt lat="43.74345" lon="3.56561">
        <ele>78</ele>
        <time>2019-01-10T11:09:56Z</time>
      </trkpt>
      <trkpt lat="43.74347" lon="3.56568">
        <ele>78</ele>
        <time>2019-01-10T11:09:56Z</time>
      </trkpt>
      <trkpt lat="43.74349" lon="3.56575">
        <ele>78</ele>
        <time>2019-01-10T11:10:12Z</time>
      </trkpt>
      <trkpt lat="43.74352" lon="3.56581">
        <ele>78</ele>
        <time>2019-01-10T11:10:12Z</time>
      </trkpt>
      <trkpt lat="43.74353" lon="3.56588">
        <ele>78</ele>
        <time>2019-01-10T11:10:12Z</time>
      </trkpt>
      <trkpt lat="43.74351" lon="3.56594">
        <ele>78</ele>
        <time>2019-01-10T11:10:12Z</time>
      </trkpt>
      <trkpt lat="43.74348" lon="3.566">
        <ele>78</ele>
        <time>2019-01-10T11:14:28Z</time>
      </trkpt>
      <trkpt lat="43.74351" lon="3.56597">
        <ele>78</ele>
        <time>2019-01-10T11:14:28Z</time>
      </trkpt>
      <trkpt lat="43.74352" lon="3.56592">
        <ele>78</ele>
        <time>2019-01-10T11:14:28Z</time>
      </trkpt>
      <trkpt lat="43.74355" lon="3.56586">
        <ele>78</ele>
        <time>2019-01-10T11:14:28Z</time>
      </trkpt>
      <trkpt lat="43.74353" lon="3.56581">
        <ele>78</ele>
        <time>2019-01-10T11:14:28Z</time>
      </trkpt>
      <trkpt lat="43.74351" lon="3.56576">
        <ele>78</ele>
        <time>2019-01-10T11:14:44Z</time>
      </trkpt>
      <trkpt lat="43.74349" lon="3.5657">
        <ele>78</ele>
        <time>2019-01-10T11:14:44Z</time>
      </trkpt>
      <trkpt lat="43.74348" lon="3.56564">
        <ele>78</ele>
        <time>2019-01-10T11:14:44Z</time>
      </trkpt>
      <trkpt lat="43.74347" lon="3.56558">
        <ele>78</ele>
        <time>2019-01-10T11:14:44Z</time>
      </trkpt>
      <trkpt lat="43.74348" lon="3.56553">
        <ele>78</ele>
        <time>2019-01-10T11:15:00Z</time>
      </trkpt>
      <trkpt lat="43.74351" lon="3.56548">
        <ele>78</ele>
        <time>2019-01-10T11:15:00Z</time>
      </trkpt>
      <trkpt lat="43.7435" lon="3.56542">
        <ele>78</ele>
        <time>2019-01-10T11:15:00Z</time>
      </trkpt>
      <trkpt lat="43.74348" lon="3.56537">
        <ele>77</ele>
        <time>2019-01-10T11:15:00Z</time>
      </trkpt>
      <trkpt lat="43.74349" lon="3.56531">
        <ele>77</ele>
        <time>2019-01-10T11:15:16Z</time>
      </trkpt>
      <trkpt lat="43.74351" lon="3.56525">
        <ele>77</ele>
        <time>2019-01-10T11:15:16Z</time>
      </trkpt>
      <trkpt lat="43.74354" lon="3.56519">
        <ele>77</ele>
        <time>2019-01-10T11:15:16Z</time>
      </trkpt>
      <trkpt lat="43.74358" lon="3.56513">
        <ele>77</ele>
        <time>2019-01-10T11:15:16Z</time>
      </trkpt>
      <trkpt lat="43.74361" lon="3.56509">
        <ele>77</ele>
        <time>2019-01-10T11:15:32Z</time>
      </trkpt>
      <trkpt lat="43.74365" lon="3.56507">
        <ele>77</ele>
        <time>2019-01-10T11:15:32Z</time>
      </trkpt>
      <trkpt lat="43.7437" lon="3.56505">
        <ele>77</ele>
        <time>2019-01-10T11:15:32Z</time>
      </trkpt>
      <trkpt lat="43.74375" lon="3.56502">
        <ele>77</ele>
        <time>2019-01-10T11:15:32Z</time>
      </trkpt>
      <trkpt lat="43.74379" lon="3.56499">
        <ele>87</ele>
        <time>2019-01-10T11:15:48Z</time>
      </trkpt>
      <trkpt lat="43.74382" lon="3.56495">
        <ele>87</ele>
        <time>2019-01-10T11:15:48Z</time>
      </trkpt>
      <trkpt lat="43.74387" lon="3.56489">
        <ele>87</ele>
        <time>2019-01-10T11:15:48Z</time>
      </trkpt>
      <trkpt lat="43.74392" lon="3.56484">
        <ele>87</ele>
        <time>2019-01-10T11:15:48Z</time>
      </trkpt>
      <trkpt lat="43.74397" lon="3.5648">
        <ele>87</ele>
        <time>2019-01-10T11:16:04Z</time>
      </trkpt>
      <trkpt lat="43.74401" lon="3.56475">
        <ele>87</ele>
        <time>2019-01-10T11:16:04Z</time>
      </trkpt>
      <trkpt lat="43.74405" lon="3.56471">
        <ele>87</ele>
        <time>2019-01-10T11:16:04Z</time>
      </trkpt>
      <trkpt lat="43.74408" lon="3.56468">
        <ele>87</ele>
        <time>2019-01-10T11:16:04Z</time>
      </trkpt>
      <trkpt lat="43.74411" lon="3.56463">
        <ele>87</ele>
        <time>2019-01-10T11:16:20Z</time>
      </trkpt>
      <trkpt lat="43.74414" lon="3.56458">
        <ele>78</ele>
        <time>2019-01-10T11:16:20Z</time>
      </trkpt>
      <trkpt lat="43.74417" lon="3.56453">
        <ele>78</ele>
        <time>2019-01-10T11:16:20Z</time>
      </trkpt>
      <trkpt lat="43.74418" lon="3.56447">
        <ele>78</ele>
        <time>2019-01-10T11:16:20Z</time>
      </trkpt>
      <trkpt lat="43.74419" lon="3.5644">
        <ele>78</ele>
        <time>2019-01-10T11:16:36Z</time>
      </trkpt>
      <trkpt lat="43.74421" lon="3.56433">
        <ele>78</ele>
        <time>2019-01-10T11:16:36Z</time>
      </trkpt>
      <trkpt lat="43.74424" lon="3.56424">
        <ele>78</ele>
        <time>2019-01-10T11:16:36Z</time>
      </trkpt>
      <trkpt lat="43.74425" lon="3.56418">
        <ele>78</ele>
        <time>2019-01-10T11:16:36Z</time>
      </trkpt>
      <trkpt lat="43.74426" lon="3.56412">
        <ele>78</ele>
        <time>2019-01-10T11:16:52Z</time>
      </trkpt>
      <trkpt lat="43.74425" lon="3.56406">
        <ele>78</ele>
        <time>2019-01-10T11:16:52Z</time>
      </trkpt>
      <trkpt lat="43.74426" lon="3.56399">
        <ele>78</ele>
        <time>2019-01-10T11:16:52Z</time>
      </trkpt>
      <trkpt lat="43.74427" lon="3.56392">
        <ele>78</ele>
        <time>2019-01-10T11:16:52Z</time>
      </trkpt>
      <trkpt lat="43.74429" lon="3.56386">
        <ele>78</ele>
        <time>2019-01-10T11:17:08Z</time>
      </trkpt>
      <trkpt lat="43.74431" lon="3.56379">
        <ele>78</ele>
        <time>2019-01-10T11:17:08Z</time>
      </trkpt>
      <trkpt lat="43.74431" lon="3.56372">
        <ele>70</ele>
        <time>2019-01-10T11:17:08Z</time>
      </trkpt>
      <trkpt lat="43.74433" lon="3.56365">
        <ele>70</ele>
        <time>2019-01-10T11:17:08Z</time>
      </trkpt>
      <trkpt lat="43.74434" lon="3.56356">
        <ele>70</ele>
        <time>2019-01-10T11:17:24Z</time>
      </trkpt>
      <trkpt lat="43.74434" lon="3.56349">
        <ele>70</ele>
        <time>2019-01-10T11:17:24Z</time>
      </trkpt>
      <trkpt lat="43.74435" lon="3.5634">
        <ele>70</ele>
        <time>2019-01-10T11:17:24Z</time>
      </trkpt>
      <trkpt lat="43.74436" lon="3.56333">
        <ele>70</ele>
        <time>2019-01-10T11:17:24Z</time>
      </trkpt>
      <trkpt lat="43.7444" lon="3.56324">
        <ele>70</ele>
        <time>2019-01-10T11:19:56Z</time>
      </trkpt>
      <trkpt lat="43.74443" lon="3.56324">
        <ele>70</ele>
        <time>2019-01-10T11:19:56Z</time>
      </trkpt>
      <trkpt lat="43.74444" lon="3.56324">
        <ele>70</ele>
        <time>2019-01-10T11:19:56Z</time>
      </trkpt>
      <trkpt lat="43.74448" lon="3.56324">
        <ele>70</ele>
        <time>2019-01-10T11:19:56Z</time>
      </trkpt>
      <trkpt lat="43.74452" lon="3.56323">
        <ele>70</ele>
        <time>2019-01-10T11:19:56Z</time>
      </trkpt>
      <trkpt lat="43.74456" lon="3.56324">
        <ele>70</ele>
        <time>2019-01-10T11:20:16Z</time>
      </trkpt>
      <trkpt lat="43.74459" lon="3.56324">
        <ele>86</ele>
        <time>2019-01-10T11:20:16Z</time>
      </trkpt>
      <trkpt lat="43.7446" lon="3.56324">
        <ele>86</ele>
        <time>2019-01-10T11:20:16Z</time>
      </trkpt>
      <trkpt lat="43.74462" lon="3.56325">
        <ele>86</ele>
        <time>2019-01-10T11:20:16Z</time>
      </trkpt>
      <trkpt lat="43.74466" lon="3.56325">
        <ele>86</ele>
        <time>2019-01-10T11:20:16Z</time>
      </trkpt>
      <trkpt lat="43.7447" lon="3.56327">
        <ele>86</ele>
        <time>2019-01-10T11:20:32Z</time>
      </trkpt>
      <trkpt lat="43.74474" lon="3.56327">
        <ele>86</ele>
        <time>2019-01-10T11:20:32Z</time>
      </trkpt>
      <trkpt lat="43.74479" lon="3.56327">
        <ele>86</ele>
        <time>2019-01-10T11:20:32Z</time>
      </trkpt>
      <trkpt lat="43.74484" lon="3.56326">
        <ele>86</ele>
        <time>2019-01-10T11:20:32Z</time>
      </trkpt>
      <trkpt lat="43.74488" lon="3.56326">
        <ele>86</ele>
        <time>2019-01-10T11:20:48Z</time>
      </trkpt>
      <trkpt lat="43.74493" lon="3.56327">
        <ele>86</ele>
        <time>2019-01-10T11:20:48Z</time>
      </trkpt>
      <trkpt lat="43.74497" lon="3.56327">
        <ele>86</ele>
        <time>2019-01-10T11:20:48Z</time>
      </trkpt>
      <trkpt lat="43.74503" lon="3.56326">
        <ele>86</ele>
        <time>2019-01-10T11:20:48Z</time>
      </trkpt>
      <trkpt lat="43.74508" lon="3.56326">
        <ele>86</ele>
        <time>2019-01-10T11:21:04Z</time>
      </trkpt>
      <trkpt lat="43.74514" lon="3.56325">
        <ele>86</ele>
        <time>2019-01-10T11:21:04Z</time>
      </trkpt>
      <trkpt lat="43.74519" lon="3.56323">
        <ele>86</ele>
        <time>2019-01-10T11:21:04Z</time>
      </trkpt>
      <trkpt lat="43.74524" lon="3.56322">
        <ele>86</ele>
        <time>2019-01-10T11:21:04Z</time>
      </trkpt>
      <trkpt lat="43.74529" lon="3.56321">
        <ele>86</ele>
        <time>2019-01-10T11:21:20Z</time>
      </trkpt>
      <trkpt lat="43.74533" lon="3.5632">
        <ele>86</ele>
        <time>2019-01-10T11:21:20Z</time>
      </trkpt>
      <trkpt lat="43.74537" lon="3.56319">
        <ele>86</ele>
        <time>2019-01-10T11:21:20Z</time>
      </trkpt>
      <trkpt lat="43.74542" lon="3.56318">
        <ele>95</ele>
        <time>2019-01-10T11:21:20Z</time>
      </trkpt>
      <trkpt lat="43.74546" lon="3.56318">
        <ele>95</ele>
        <time>2019-01-10T11:21:36Z</time>
      </trkpt>
      <trkpt lat="43.74551" lon="3.56317">
        <ele>95</ele>
        <time>2019-01-10T11:21:36Z</time>
      </trkpt>
      <trkpt lat="43.74555" lon="3.56317">
        <ele>95</ele>
        <time>2019-01-10T11:21:36Z</time>
      </trkpt>
      <trkpt lat="43.74559" lon="3.56317">
        <ele>95</ele>
        <time>2019-01-10T11:21:36Z</time>
      </trkpt>
      <trkpt lat="43.74564" lon="3.56314">
        <ele>95</ele>
        <time>2019-01-10T11:21:52Z</time>
      </trkpt>
      <trkpt lat="43.74569" lon="3.56314">
        <ele>95</ele>
        <time>2019-01-10T11:21:52Z</time>
      </trkpt>
      <trkpt lat="43.74573" lon="3.56313">
        <ele>95</ele>
        <time>2019-01-10T11:21:52Z</time>
      </trkpt>
      <trkpt lat="43.74578" lon="3.56314">
        <ele>95</ele>
        <time>2019-01-10T11:21:52Z</time>
      </trkpt>
      <trkpt lat="43.74582" lon="3.56315">
        <ele>95</ele>
        <time>2019-01-10T11:22:08Z</time>
      </trkpt>
      <trkpt lat="43.74587" lon="3.56318">
        <ele>95</ele>
        <time>2019-01-10T11:22:08Z</time>
      </trkpt>
      <trkpt lat="43.74591" lon="3.56321">
        <ele>95</ele>
        <time>2019-01-10T11:22:08Z</time>
      </trkpt>
      <trkpt lat="43.74595" lon="3.56324">
        <ele>95</ele>
        <time>2019-01-10T11:22:08Z</time>
      </trkpt>
      <trkpt lat="43.74598" lon="3.56327">
        <ele>95</ele>
        <time>2019-01-10T11:22:24Z</time>
      </trkpt>
      <trkpt lat="43.74602" lon="3.56329">
        <ele>95</ele>
        <time>2019-01-10T11:22:24Z</time>
      </trkpt>
      <trkpt lat="43.74607" lon="3.56332">
        <ele>95</ele>
        <time>2019-01-10T11:22:24Z</time>
      </trkpt>
      <trkpt lat="43.74611" lon="3.56336">
        <ele>95</ele>
        <time>2019-01-10T11:22:24Z</time>
      </trkpt>
      <trkpt lat="43.74615" lon="3.5634">
        <ele>95</ele>
        <time>2019-01-10T11:22:40Z</time>
      </trkpt>
      <trkpt lat="43.7462" lon="3.56343">
        <ele>95</ele>
        <time>2019-01-10T11:22:40Z</time>
      </trkpt>
      <trkpt lat="43.74625" lon="3.56345">
        <ele>104</ele>
        <time>2019-01-10T11:22:40Z</time>
      </trkpt>
      <trkpt lat="43.7463" lon="3.56345">
        <ele>104</ele>
        <time>2019-01-10T11:22:40Z</time>
      </trkpt>
      <trkpt lat="43.74634" lon="3.56343">
        <ele>104</ele>
        <time>2019-01-10T11:22:56Z</time>
      </trkpt>
      <trkpt lat="43.7464" lon="3.56341">
        <ele>104</ele>
        <time>2019-01-10T11:22:56Z</time>
      </trkpt>
      <trkpt lat="43.74644" lon="3.56337">
        <ele>104</ele>
        <time>2019-01-10T11:22:56Z</time>
      </trkpt>
      <trkpt lat="43.74649" lon="3.56332">
        <ele>104</ele>
        <time>2019-01-10T11:22:56Z</time>
      </trkpt>
      <trkpt lat="43.74653" lon="3.56324">
        <ele>104</ele>
        <time>2019-01-10T11:23:12Z</time>
      </trkpt>
      <trkpt lat="43.74655" lon="3.56317">
        <ele>104</ele>
        <time>2019-01-10T11:23:12Z</time>
      </trkpt>
      <trkpt lat="43.74655" lon="3.56309">
        <ele>104</ele>
        <time>2019-01-10T11:23:12Z</time>
      </trkpt>
      <trkpt lat="43.74654" lon="3.56299">
        <ele>104</ele>
        <time>2019-01-10T11:23:12Z</time>
      </trkpt>
      <trkpt lat="43.74652" lon="3.56292">
        <ele>104</ele>
        <time>2019-01-10T11:23:28Z</time>
      </trkpt>
      <trkpt lat="43.7465" lon="3.56285">
        <ele>97</ele>
        <time>2019-01-10T11:23:28Z</time>
      </trkpt>
      <trkpt lat="43.74647" lon="3.56277">
        <ele>97</ele>
        <time>2019-01-10T11:23:28Z</time>
      </trkpt>
      <trkpt lat="43.74644" lon="3.56273">
        <ele>97</ele>
        <time>2019-01-10T11:23:28Z</time>
      </trkpt>
      <trkpt lat="43.74642" lon="3.56268">
        <ele>97</ele>
        <time>2019-01-10T11:23:44Z</time>
      </trkpt>
      <trkpt lat="43.7464" lon="3.56261">
        <ele>97</ele>
        <time>2019-01-10T11:23:44Z</time>
      </trkpt>
      <trkpt lat="43.7464" lon="3.56254">
        <ele>97</ele>
        <time>2019-01-10T11:23:44Z</time>
      </trkpt>
      <trkpt lat="43.7464" lon="3.56246">
        <ele>97</ele>
        <time>2019-01-10T11:23:44Z</time>
      </trkpt>
      <trkpt lat="43.7464" lon="3.5624">
        <ele>97</ele>
        <time>2019-01-10T11:24:00Z</time>
      </trkpt>
      <trkpt lat="43.74641" lon="3.56235">
        <ele>97</ele>
        <time>2019-01-10T11:24:00Z</time>
      </trkpt>
      <trkpt lat="43.7464" lon="3.56229">
        <ele>97</ele>
        <time>2019-01-10T11:24:00Z</time>
      </trkpt>
      <trkpt lat="43.74641" lon="3.56224">
        <ele>97</ele>
        <time>2019-01-10T11:24:00Z</time>
      </trkpt>
      <trkpt lat="43.74645" lon="3.56219">
        <ele>97</ele>
        <time>2019-01-10T11:24:16Z</time>
      </trkpt>
      <trkpt lat="43.74649" lon="3.56214">
        <ele>97</ele>
        <time>2019-01-10T11:24:16Z</time>
      </trkpt>
      <trkpt lat="43.74652" lon="3.56208">
        <ele>97</ele>
        <time>2019-01-10T11:24:16Z</time>
      </trkpt>
      <trkpt lat="43.74655" lon="3.56205">
        <ele>97</ele>
        <time>2019-01-10T11:24:16Z</time>
      </trkpt>
      <trkpt lat="43.74659" lon="3.56199">
        <ele>97</ele>
        <time>2019-01-10T11:24:32Z</time>
      </trkpt>
      <trkpt lat="43.74663" lon="3.56195">
        <ele>97</ele>
        <time>2019-01-10T11:24:32Z</time>
      </trkpt>
      <trkpt lat="43.74667" lon="3.56189">
        <ele>97</ele>
        <time>2019-01-10T11:24:32Z</time>
      </trkpt>
      <trkpt lat="43.74671" lon="3.56185">
        <ele>97</ele>
        <time>2019-01-10T11:24:32Z</time>
      </trkpt>
      <trkpt lat="43.74674" lon="3.56181">
        <ele>97</ele>
        <time>2019-01-10T11:24:48Z</time>
      </trkpt>
      <trkpt lat="43.74678" lon="3.56177">
        <ele>97</ele>
        <time>2019-01-10T11:24:48Z</time>
      </trkpt>
      <trkpt lat="43.74681" lon="3.56172">
        <ele>97</ele>
        <time>2019-01-10T11:24:48Z</time>
      </trkpt>
      <trkpt lat="43.74684" lon="3.56167">
        <ele>97</ele>
        <time>2019-01-10T11:24:48Z</time>
      </trkpt>
      <trkpt lat="43.74687" lon="3.56162">
        <ele>97</ele>
        <time>2019-01-10T11:25:04Z</time>
      </trkpt>
      <trkpt lat="43.74688" lon="3.56156">
        <ele>97</ele>
        <time>2019-01-10T11:25:04Z</time>
      </trkpt>
      <trkpt lat="43.74692" lon="3.56151">
        <ele>97</ele>
        <time>2019-01-10T11:25:04Z</time>
      </trkpt>
      <trkpt lat="43.74695" lon="3.56148">
        <ele>97</ele>
        <time>2019-01-10T11:25:04Z</time>
      </trkpt>
      <trkpt lat="43.74699" lon="3.56145">
        <ele>97</ele>
        <time>2019-01-10T11:25:20Z</time>
      </trkpt>
      <trkpt lat="43.74702" lon="3.5614">
        <ele>97</ele>
        <time>2019-01-10T11:25:20Z</time>
      </trkpt>
      <trkpt lat="43.74706" lon="3.56133">
        <ele>97</ele>
        <time>2019-01-10T11:25:20Z</time>
      </trkpt>
      <trkpt lat="43.74711" lon="3.56129">
        <ele>105</ele>
        <time>2019-01-10T11:25:20Z</time>
      </trkpt>
      <trkpt lat="43.74716" lon="3.56128">
        <ele>105</ele>
        <time>2019-01-10T11:25:36Z</time>
      </trkpt>
      <trkpt lat="43.7472" lon="3.56123">
        <ele>96</ele>
        <time>2019-01-10T11:25:36Z</time>
      </trkpt>
      <trkpt lat="43.74724" lon="3.5612">
        <ele>96</ele>
        <time>2019-01-10T11:25:36Z</time>
      </trkpt>
      <trkpt lat="43.74726" lon="3.5612">
        <ele>96</ele>
        <time>2019-01-10T11:25:36Z</time>
      </trkpt>
      <trkpt lat="43.74731" lon="3.56118">
        <ele>96</ele>
        <time>2019-01-10T11:25:52Z</time>
      </trkpt>
      <trkpt lat="43.74735" lon="3.56114">
        <ele>96</ele>
        <time>2019-01-10T11:25:52Z</time>
      </trkpt>
      <trkpt lat="43.74739" lon="3.56112">
        <ele>96</ele>
        <time>2019-01-10T11:25:52Z</time>
      </trkpt>
      <trkpt lat="43.74744" lon="3.56108">
        <ele>96</ele>
        <time>2019-01-10T11:25:52Z</time>
      </trkpt>
      <trkpt lat="43.74748" lon="3.56107">
        <ele>96</ele>
        <time>2019-01-10T11:26:08Z</time>
      </trkpt>
      <trkpt lat="43.74752" lon="3.56104">
        <ele>96</ele>
        <time>2019-01-10T11:26:08Z</time>
      </trkpt>
      <trkpt lat="43.74756" lon="3.561">
        <ele>96</ele>
        <time>2019-01-10T11:26:08Z</time>
      </trkpt>
      <trkpt lat="43.7476" lon="3.56098">
        <ele>96</ele>
        <time>2019-01-10T11:26:08Z</time>
      </trkpt>
      <trkpt lat="43.74765" lon="3.56098">
        <ele>96</ele>
        <time>2019-01-10T11:26:24Z</time>
      </trkpt>
      <trkpt lat="43.7477" lon="3.56095">
        <ele>96</ele>
        <time>2019-01-10T11:26:24Z</time>
      </trkpt>
      <trkpt lat="43.74774" lon="3.56094">
        <ele>96</ele>
        <time>2019-01-10T11:26:24Z</time>
      </trkpt>
      <trkpt lat="43.74777" lon="3.56093">
        <ele>96</ele>
        <time>2019-01-10T11:26:24Z</time>
      </trkpt>
      <trkpt lat="43.74781" lon="3.56091">
        <ele>96</ele>
        <time>2019-01-10T11:26:40Z</time>
      </trkpt>
      <trkpt lat="43.74787" lon="3.56089">
        <ele>96</ele>
        <time>2019-01-10T11:26:40Z</time>
      </trkpt>
      <trkpt lat="43.74791" lon="3.56089">
        <ele>96</ele>
        <time>2019-01-10T11:26:40Z</time>
      </trkpt>
      <trkpt lat="43.74796" lon="3.56089">
        <ele>99</ele>
        <time>2019-01-10T11:26:40Z</time>
      </trkpt>
      <trkpt lat="43.748" lon="3.56091">
        <ele>99</ele>
        <time>2019-01-10T11:26:56Z</time>
      </trkpt>
      <trkpt lat="43.74803" lon="3.56091">
        <ele>99</ele>
        <time>2019-01-10T11:26:56Z</time>
      </trkpt>
      <trkpt lat="43.74807" lon="3.56094">
        <ele>99</ele>
        <time>2019-01-10T11:26:56Z</time>
      </trkpt>
      <trkpt lat="43.7481" lon="3.56097">
        <ele>99</ele>
        <time>2019-01-10T11:26:56Z</time>
      </trkpt>
      <trkpt lat="43.74814" lon="3.561">
        <ele>99</ele>
        <time>2019-01-10T11:27:12Z</time>
      </trkpt>
      <trkpt lat="43.74819" lon="3.56101">
        <ele>99</ele>
        <time>2019-01-10T11:27:12Z</time>
      </trkpt>
      <trkpt lat="43.74823" lon="3.56103">
        <ele>99</ele>
        <time>2019-01-10T11:27:12Z</time>
      </trkpt>
      <trkpt lat="43.74826" lon="3.56104">
        <ele>99</ele>
        <time>2019-01-10T11:27:12Z</time>
      </trkpt>
      <trkpt lat="43.7483" lon="3.56107">
        <ele>99</ele>
        <time>2019-01-10T11:27:28Z</time>
      </trkpt>
      <trkpt lat="43.74834" lon="3.5611">
        <ele>99</ele>
        <time>2019-01-10T11:27:28Z</time>
      </trkpt>
      <trkpt lat="43.74838" lon="3.56114">
        <ele>99</ele>
        <time>2019-01-10T11:27:28Z</time>
      </trkpt>
      <trkpt lat="43.74842" lon="3.56117">
        <ele>99</ele>
        <time>2019-01-10T11:27:28Z</time>
      </trkpt>
      <trkpt lat="43.74846" lon="3.5612">
        <ele>99</ele>
        <time>2019-01-10T11:27:44Z</time>
      </trkpt>
      <trkpt lat="43.74848" lon="3.56123">
        <ele>99</ele>
        <time>2019-01-10T11:27:44Z</time>
      </trkpt>
      <trkpt lat="43.74852" lon="3.56125">
        <ele>99</ele>
        <time>2019-01-10T11:27:44Z</time>
      </trkpt>
      <trkpt lat="43.74855" lon="3.56128">
        <ele>110</ele>
        <time>2019-01-10T11:27:44Z</time>
      </trkpt>
      <trkpt lat="43.74858" lon="3.56132">
        <ele>110</ele>
        <time>2019-01-10T11:28:00Z</time>
      </trkpt>
      <trkpt lat="43.74862" lon="3.56135">
        <ele>110</ele>
        <time>2019-01-10T11:28:00Z</time>
      </trkpt>
      <trkpt lat="43.74865" lon="3.56138">
        <ele>110</ele>
        <time>2019-01-10T11:28:00Z</time>
      </trkpt>
      <trkpt lat="43.74867" lon="3.56141">
        <ele>110</ele>
        <time>2019-01-10T11:28:00Z</time>
      </trkpt>
      <trkpt lat="43.74868" lon="3.56143">
        <ele>110</ele>
        <time>2019-01-10T11:28:16Z</time>
      </trkpt>
      <trkpt lat="43.74871" lon="3.56145">
        <ele>110</ele>
        <time>2019-01-10T11:28:16Z</time>
      </trkpt>
      <trkpt lat="43.74875" lon="3.56149">
        <ele>110</ele>
        <time>2019-01-10T11:28:16Z</time>
      </trkpt>
      <trkpt lat="43.74879" lon="3.56152">
        <ele>109</ele>
        <time>2019-01-10T11:28:16Z</time>
      </trkpt>
      <trkpt lat="43.74881" lon="3.56157">
        <ele>109</ele>
        <time>2019-01-10T11:28:32Z</time>
      </trkpt>
      <trkpt lat="43.74884" lon="3.56162">
        <ele>109</ele>
        <time>2019-01-10T11:28:32Z</time>
      </trkpt>
      <trkpt lat="43.74887" lon="3.56167">
        <ele>109</ele>
        <time>2019-01-10T11:28:32Z</time>
      </trkpt>
      <trkpt lat="43.74889" lon="3.56173">
        <ele>109</ele>
        <time>2019-01-10T11:28:32Z</time>
      </trkpt>
      <trkpt lat="43.74893" lon="3.56178">
        <ele>109</ele>
        <time>2019-01-10T11:28:48Z</time>
      </trkpt>
      <trkpt lat="43.74896" lon="3.56183">
        <ele>109</ele>
        <time>2019-01-10T11:28:48Z</time>
      </trkpt>
      <trkpt lat="43.74899" lon="3.56188">
        <ele>109</ele>
        <time>2019-01-10T11:28:48Z</time>
      </trkpt>
      <trkpt lat="43.74901" lon="3.56192">
        <ele>109</ele>
        <time>2019-01-10T11:28:48Z</time>
      </trkpt>
      <trkpt lat="43.74905" lon="3.56194">
        <ele>109</ele>
        <time>2019-01-10T11:29:04Z</time>
      </trkpt>
      <trkpt lat="43.74908" lon="3.56195">
        <ele>109</ele>
        <time>2019-01-10T11:29:04Z</time>
      </trkpt>
      <trkpt lat="43.74913" lon="3.56197">
        <ele>109</ele>
        <time>2019-01-10T11:29:04Z</time>
      </trkpt>
      <trkpt lat="43.74917" lon="3.56198">
        <ele>109</ele>
        <time>2019-01-10T11:29:04Z</time>
      </trkpt>
      <trkpt lat="43.7492" lon="3.56199">
        <ele>109</ele>
        <time>2019-01-10T11:29:20Z</time>
      </trkpt>
      <trkpt lat="43.74923" lon="3.56201">
        <ele>109</ele>
        <time>2019-01-10T11:29:20Z</time>
      </trkpt>
      <trkpt lat="43.74927" lon="3.56204">
        <ele>109</ele>
        <time>2019-01-10T11:29:20Z</time>
      </trkpt>
      <trkpt lat="43.74932" lon="3.56207">
        <ele>109</ele>
        <time>2019-01-10T11:29:20Z</time>
      </trkpt>
      <trkpt lat="43.74936" lon="3.56209">
        <ele>130</ele>
        <time>2019-01-10T11:29:36Z</time>
      </trkpt>
      <trkpt lat="43.74941" lon="3.56211">
        <ele>130</ele>
        <time>2019-01-10T11:29:36Z</time>
      </trkpt>
      <trkpt lat="43.74945" lon="3.56214">
        <ele>130</ele>
        <time>2019-01-10T11:29:36Z</time>
      </trkpt>
      <trkpt lat="43.74947" lon="3.56216">
        <ele>130</ele>
        <time>2019-01-10T11:29:36Z</time>
      </trkpt>
      <trkpt lat="43.74949" lon="3.56218">
        <ele>130</ele>
        <time>2019-01-10T11:29:52Z</time>
      </trkpt>
      <trkpt lat="43.74953" lon="3.56219">
        <ele>130</ele>
        <time>2019-01-10T11:29:52Z</time>
      </trkpt>
      <trkpt lat="43.74958" lon="3.56219">
        <ele>130</ele>
        <time>2019-01-10T11:29:52Z</time>
      </trkpt>
      <trkpt lat="43.74963" lon="3.56218">
        <ele>132</ele>
        <time>2019-01-10T11:29:52Z</time>
      </trkpt>
      <trkpt lat="43.74968" lon="3.56216">
        <ele>132</ele>
        <time>2019-01-10T11:30:08Z</time>
      </trkpt>
      <trkpt lat="43.74972" lon="3.56214">
        <ele>132</ele>
        <time>2019-01-10T11:30:08Z</time>
      </trkpt>
      <trkpt lat="43.74976" lon="3.56213">
        <ele>132</ele>
        <time>2019-01-10T11:30:08Z</time>
      </trkpt>
      <trkpt lat="43.74979" lon="3.56212">
        <ele>132</ele>
        <time>2019-01-10T11:30:08Z</time>
      </trkpt>
      <trkpt lat="43.7499" lon="3.56207">
        <ele>114</ele>
        <time>2019-01-10T11:31:08Z</time>
      </trkpt>
      <trkpt lat="43.74994" lon="3.56204">
        <ele>114</ele>
        <time>2019-01-10T11:31:08Z</time>
      </trkpt>
      <trkpt lat="43.74999" lon="3.56199">
        <ele>114</ele>
        <time>2019-01-10T11:31:08Z</time>
      </trkpt>
      <trkpt lat="43.75" lon="3.56199">
        <ele>114</ele>
        <time>2019-01-10T11:31:08Z</time>
      </trkpt>
      <trkpt lat="43.75003" lon="3.56197">
        <ele>114</ele>
        <time>2019-01-10T11:31:08Z</time>
      </trkpt>
      <trkpt lat="43.7501" lon="3.56195">
        <ele>114</ele>
        <time>2019-01-10T11:34:40Z</time>
      </trkpt>
      <trkpt lat="43.75013" lon="3.56196">
        <ele>114</ele>
        <time>2019-01-10T11:34:40Z</time>
      </trkpt>
      <trkpt lat="43.75013" lon="3.56195">
        <ele>114</ele>
        <time>2019-01-10T11:34:40Z</time>
      </trkpt>
      <trkpt lat="43.75014" lon="3.56194">
        <ele>114</ele>
        <time>2019-01-10T11:34:40Z</time>
      </trkpt>
      <trkpt lat="43.75015" lon="3.56191">
        <ele>114</ele>
        <time>2019-01-10T11:34:40Z</time>
      </trkpt>
      <trkpt lat="43.75018" lon="3.56187">
        <ele>114</ele>
        <time>2019-01-10T11:34:56Z</time>
      </trkpt>
      <trkpt lat="43.75019" lon="3.56183">
        <ele>114</ele>
        <time>2019-01-10T11:34:56Z</time>
      </trkpt>
      <trkpt lat="43.7502" lon="3.56179">
        <ele>114</ele>
        <time>2019-01-10T11:34:56Z</time>
      </trkpt>
      <trkpt lat="43.75021" lon="3.56175">
        <ele>114</ele>
        <time>2019-01-10T11:34:56Z</time>
      </trkpt>
      <trkpt lat="43.75022" lon="3.56172">
        <ele>114</ele>
        <time>2019-01-10T11:35:12Z</time>
      </trkpt>
      <trkpt lat="43.75021" lon="3.56166">
        <ele>114</ele>
        <time>2019-01-10T11:35:12Z</time>
      </trkpt>
      <trkpt lat="43.75021" lon="3.5616">
        <ele>114</ele>
        <time>2019-01-10T11:35:12Z</time>
      </trkpt>
      <trkpt lat="43.7502" lon="3.56156">
        <ele>114</ele>
        <time>2019-01-10T11:35:12Z</time>
      </trkpt>
      <trkpt lat="43.75022" lon="3.56151">
        <ele>114</ele>
        <time>2019-01-10T11:35:28Z</time>
      </trkpt>
      <trkpt lat="43.75023" lon="3.56148">
        <ele>114</ele>
        <time>2019-01-10T11:35:28Z</time>
      </trkpt>
      <trkpt lat="43.75022" lon="3.56142">
        <ele>114</ele>
        <time>2019-01-10T11:35:28Z</time>
      </trkpt>
      <trkpt lat="43.75023" lon="3.56137">
        <ele>114</ele>
        <time>2019-01-10T11:35:28Z</time>
      </trkpt>
      <trkpt lat="43.75025" lon="3.56132">
        <ele>114</ele>
        <time>2019-01-10T11:35:44Z</time>
      </trkpt>
      <trkpt lat="43.75027" lon="3.56127">
        <ele>114</ele>
        <time>2019-01-10T11:35:44Z</time>
      </trkpt>
      <trkpt lat="43.75029" lon="3.56124">
        <ele>139</ele>
        <time>2019-01-10T11:35:44Z</time>
      </trkpt>
      <trkpt lat="43.75031" lon="3.56121">
        <ele>139</ele>
        <time>2019-01-10T11:35:44Z</time>
      </trkpt>
      <trkpt lat="43.75036" lon="3.5611">
        <ele>139</ele>
        <time>2019-01-10T11:36:56Z</time>
      </trkpt>
      <trkpt lat="43.75039" lon="3.56113">
        <ele>139</ele>
        <time>2019-01-10T11:36:56Z</time>
      </trkpt>
      <trkpt lat="43.75044" lon="3.56112">
        <ele>134</ele>
        <time>2019-01-10T11:36:56Z</time>
      </trkpt>
      <trkpt lat="43.75047" lon="3.56112">
        <ele>134</ele>
        <time>2019-01-10T11:36:56Z</time>
      </trkpt>
      <trkpt lat="43.75049" lon="3.5611">
        <ele>134</ele>
        <time>2019-01-10T11:36:56Z</time>
      </trkpt>
      <trkpt lat="43.75047" lon="3.56109">
        <ele>134</ele>
        <time>2019-01-10T11:37:56Z</time>
      </trkpt>
      <trkpt lat="43.75045" lon="3.5611">
        <ele>134</ele>
        <time>2019-01-10T11:37:56Z</time>
      </trkpt>
      <trkpt lat="43.75043" lon="3.56113">
        <ele>134</ele>
        <time>2019-01-10T11:37:56Z</time>
      </trkpt>
      <trkpt lat="43.75042" lon="3.56114">
        <ele>134</ele>
        <time>2019-01-10T11:37:56Z</time>
      </trkpt>
      <trkpt lat="43.75041" lon="3.5612">
        <ele>139</ele>
        <time>2019-01-10T11:37:56Z</time>
      </trkpt>
      <trkpt lat="43.75041" lon="3.56128">
        <ele>114</ele>
        <time>2019-01-10T11:38:12Z</time>
      </trkpt>
      <trkpt lat="43.75041" lon="3.5613">
        <ele>114</ele>
        <time>2019-01-10T11:38:12Z</time>
      </trkpt>
      <trkpt lat="43.75042" lon="3.56133">
        <ele>140</ele>
        <time>2019-01-10T11:38:12Z</time>
      </trkpt>
      <trkpt lat="43.75046" lon="3.56141">
        <ele>140</ele>
        <time>2019-01-10T11:38:12Z</time>
      </trkpt>
      <trkpt lat="43.75049" lon="3.56142">
        <ele>140</ele>
        <time>2019-01-10T11:38:28Z</time>
      </trkpt>
      <trkpt lat="43.75053" lon="3.56139">
        <ele>140</ele>
        <time>2019-01-10T11:38:28Z</time>
      </trkpt>
      <trkpt lat="43.75057" lon="3.56136">
        <ele>140</ele>
        <time>2019-01-10T11:38:28Z</time>
      </trkpt>
      <trkpt lat="43.75061" lon="3.56135">
        <ele>140</ele>
        <time>2019-01-10T11:38:28Z</time>
      </trkpt>
      <trkpt lat="43.75062" lon="3.56134">
        <ele>140</ele>
        <time>2019-01-10T11:38:48Z</time>
      </trkpt>
      <trkpt lat="43.75063" lon="3.56134">
        <ele>140</ele>
        <time>2019-01-10T11:38:48Z</time>
      </trkpt>
      <trkpt lat="43.75071" lon="3.56134">
        <ele>140</ele>
        <time>2019-01-10T11:38:48Z</time>
      </trkpt>
      <trkpt lat="43.75075" lon="3.56134">
        <ele>140</ele>
        <time>2019-01-10T11:38:48Z</time>
      </trkpt>
      <trkpt lat="43.75079" lon="3.56137">
        <ele>140</ele>
        <time>2019-01-10T11:39:44Z</time>
      </trkpt>
      <trkpt lat="43.75083" lon="3.56137">
        <ele>140</ele>
        <time>2019-01-10T11:39:44Z</time>
      </trkpt>
      <trkpt lat="43.75084" lon="3.56138">
        <ele>140</ele>
        <time>2019-01-10T11:39:44Z</time>
      </trkpt>
      <trkpt lat="43.75087" lon="3.56139">
        <ele>140</ele>
        <time>2019-01-10T11:39:44Z</time>
      </trkpt>
      <trkpt lat="43.75089" lon="3.56141">
        <ele>140</ele>
        <time>2019-01-10T11:39:44Z</time>
      </trkpt>
      <trkpt lat="43.75098" lon="3.56146">
        <ele>140</ele>
        <time>2019-01-10T11:40:28Z</time>
      </trkpt>
      <trkpt lat="43.75098" lon="3.56146">
        <ele>140</ele>
        <time>2019-01-10T11:40:28Z</time>
      </trkpt>
      <trkpt lat="43.75101" lon="3.56146">
        <ele>140</ele>
        <time>2019-01-10T11:40:28Z</time>
      </trkpt>
      <trkpt lat="43.75102" lon="3.56146">
        <ele>140</ele>
        <time>2019-01-10T11:40:28Z</time>
      </trkpt>
      <trkpt lat="43.75103" lon="3.56147">
        <ele>140</ele>
        <time>2019-01-10T11:40:28Z</time>
      </trkpt>
      <trkpt lat="43.75104" lon="3.56149">
        <ele>140</ele>
        <time>2019-01-10T11:40:44Z</time>
      </trkpt>
      <trkpt lat="43.75107" lon="3.56151">
        <ele>140</ele>
        <time>2019-01-10T11:40:44Z</time>
      </trkpt>
      <trkpt lat="43.75111" lon="3.56151">
        <ele>140</ele>
        <time>2019-01-10T11:40:44Z</time>
      </trkpt>
      <trkpt lat="43.75114" lon="3.56152">
        <ele>140</ele>
        <time>2019-01-10T11:40:44Z</time>
      </trkpt>
      <trkpt lat="43.75117" lon="3.56152">
        <ele>140</ele>
        <time>2019-01-10T11:41:00Z</time>
      </trkpt>
      <trkpt lat="43.7512" lon="3.56155">
        <ele>140</ele>
        <time>2019-01-10T11:41:00Z</time>
      </trkpt>
      <trkpt lat="43.75122" lon="3.56156">
        <ele>140</ele>
        <time>2019-01-10T11:41:00Z</time>
      </trkpt>
      <trkpt lat="43.75126" lon="3.56156">
        <ele>153</ele>
        <time>2019-01-10T11:41:00Z</time>
      </trkpt>
      <trkpt lat="43.75131" lon="3.56155">
        <ele>153</ele>
        <time>2019-01-10T11:41:16Z</time>
      </trkpt>
      <trkpt lat="43.75135" lon="3.56155">
        <ele>153</ele>
        <time>2019-01-10T11:41:16Z</time>
      </trkpt>
      <trkpt lat="43.75139" lon="3.56155">
        <ele>153</ele>
        <time>2019-01-10T11:41:16Z</time>
      </trkpt>
      <trkpt lat="43.75143" lon="3.56158">
        <ele>153</ele>
        <time>2019-01-10T11:41:16Z</time>
      </trkpt>
      <trkpt lat="43.75147" lon="3.56162">
        <ele>153</ele>
        <time>2019-01-10T11:41:32Z</time>
      </trkpt>
      <trkpt lat="43.75152" lon="3.56166">
        <ele>153</ele>
        <time>2019-01-10T11:41:32Z</time>
      </trkpt>
      <trkpt lat="43.75156" lon="3.56168">
        <ele>153</ele>
        <time>2019-01-10T11:41:32Z</time>
      </trkpt>
      <trkpt lat="43.7516" lon="3.5617">
        <ele>153</ele>
        <time>2019-01-10T11:41:32Z</time>
      </trkpt>
      <trkpt lat="43.75163" lon="3.56173">
        <ele>153</ele>
        <time>2019-01-10T11:41:52Z</time>
      </trkpt>
      <trkpt lat="43.75165" lon="3.56176">
        <ele>153</ele>
        <time>2019-01-10T11:41:52Z</time>
      </trkpt>
      <trkpt lat="43.75168" lon="3.56178">
        <ele>153</ele>
        <time>2019-01-10T11:41:52Z</time>
      </trkpt>
      <trkpt lat="43.7517" lon="3.56181">
        <ele>153</ele>
        <time>2019-01-10T11:41:52Z</time>
      </trkpt>
      <trkpt lat="43.75171" lon="3.56185">
        <ele>153</ele>
        <time>2019-01-10T11:41:52Z</time>
      </trkpt>
      <trkpt lat="43.75173" lon="3.56189">
        <ele>153</ele>
        <time>2019-01-10T11:42:12Z</time>
      </trkpt>
      <trkpt lat="43.75175" lon="3.56192">
        <ele>153</ele>
        <time>2019-01-10T11:42:12Z</time>
      </trkpt>
      <trkpt lat="43.75177" lon="3.56194">
        <ele>153</ele>
        <time>2019-01-10T11:42:12Z</time>
      </trkpt>
      <trkpt lat="43.75179" lon="3.56197">
        <ele>153</ele>
        <time>2019-01-10T11:42:12Z</time>
      </trkpt>
      <trkpt lat="43.75181" lon="3.562">
        <ele>153</ele>
        <time>2019-01-10T11:42:12Z</time>
      </trkpt>
      <trkpt lat="43.75183" lon="3.56203">
        <ele>153</ele>
        <time>2019-01-10T11:42:32Z</time>
      </trkpt>
      <trkpt lat="43.75185" lon="3.56206">
        <ele>153</ele>
        <time>2019-01-10T11:42:32Z</time>
      </trkpt>
      <trkpt lat="43.75187" lon="3.56209">
        <ele>183</ele>
        <time>2019-01-10T11:42:32Z</time>
      </trkpt>
      <trkpt lat="43.7519" lon="3.56211">
        <ele>183</ele>
        <time>2019-01-10T11:42:32Z</time>
      </trkpt>
      <trkpt lat="43.75194" lon="3.56212">
        <ele>183</ele>
        <time>2019-01-10T11:42:32Z</time>
      </trkpt>
      <trkpt lat="43.75196" lon="3.56213">
        <ele>183</ele>
        <time>2019-01-10T11:42:48Z</time>
      </trkpt>
      <trkpt lat="43.75199" lon="3.56216">
        <ele>183</ele>
        <time>2019-01-10T11:42:48Z</time>
      </trkpt>
      <trkpt lat="43.75201" lon="3.56219">
        <ele>183</ele>
        <time>2019-01-10T11:42:48Z</time>
      </trkpt>
      <trkpt lat="43.75203" lon="3.56222">
        <ele>183</ele>
        <time>2019-01-10T11:42:48Z</time>
      </trkpt>
      <trkpt lat="43.75208" lon="3.56227">
        <ele>183</ele>
        <time>2019-01-10T11:43:12Z</time>
      </trkpt>
      <trkpt lat="43.75209" lon="3.56231">
        <ele>172</ele>
        <time>2019-01-10T11:43:12Z</time>
      </trkpt>
      <trkpt lat="43.75209" lon="3.56232">
        <ele>172</ele>
        <time>2019-01-10T11:43:12Z</time>
      </trkpt>
      <trkpt lat="43.75212" lon="3.56234">
        <ele>172</ele>
        <time>2019-01-10T11:43:12Z</time>
      </trkpt>
      <trkpt lat="43.75214" lon="3.56239">
        <ele>172</ele>
        <time>2019-01-10T11:43:12Z</time>
      </trkpt>
      <trkpt lat="43.75217" lon="3.56242">
        <ele>172</ele>
        <time>2019-01-10T11:43:32Z</time>
      </trkpt>
      <trkpt lat="43.75219" lon="3.56244">
        <ele>172</ele>
        <time>2019-01-10T11:43:32Z</time>
      </trkpt>
      <trkpt lat="43.75221" lon="3.56246">
        <ele>172</ele>
        <time>2019-01-10T11:43:32Z</time>
      </trkpt>
      <trkpt lat="43.75224" lon="3.56247">
        <ele>172</ele>
        <time>2019-01-10T11:43:32Z</time>
      </trkpt>
      <trkpt lat="43.75225" lon="3.56248">
        <ele>172</ele>
        <time>2019-01-10T11:43:32Z</time>
      </trkpt>
      <trkpt lat="43.75228" lon="3.5625">
        <ele>172</ele>
        <time>2019-01-10T11:43:52Z</time>
      </trkpt>
      <trkpt lat="43.7523" lon="3.56253">
        <ele>172</ele>
        <time>2019-01-10T11:43:52Z</time>
      </trkpt>
      <trkpt lat="43.75232" lon="3.56255">
        <ele>172</ele>
        <time>2019-01-10T11:43:52Z</time>
      </trkpt>
      <trkpt lat="43.75234" lon="3.56257">
        <ele>172</ele>
        <time>2019-01-10T11:43:52Z</time>
      </trkpt>
      <trkpt lat="43.75237" lon="3.5626">
        <ele>172</ele>
        <time>2019-01-10T11:43:52Z</time>
      </trkpt>
      <trkpt lat="43.7524" lon="3.56263">
        <ele>172</ele>
        <time>2019-01-10T11:45:04Z</time>
      </trkpt>
      <trkpt lat="43.75241" lon="3.56263">
        <ele>172</ele>
        <time>2019-01-10T11:45:04Z</time>
      </trkpt>
      <trkpt lat="43.75243" lon="3.56265">
        <ele>172</ele>
        <time>2019-01-10T11:45:04Z</time>
      </trkpt>
      <trkpt lat="43.75245" lon="3.56267">
        <ele>172</ele>
        <time>2019-01-10T11:45:04Z</time>
      </trkpt>
      <trkpt lat="43.75248" lon="3.56269">
        <ele>172</ele>
        <time>2019-01-10T11:45:04Z</time>
      </trkpt>
      <trkpt lat="43.75251" lon="3.56271">
        <ele>172</ele>
        <time>2019-01-10T11:45:32Z</time>
      </trkpt>
      <trkpt lat="43.75252" lon="3.56273">
        <ele>172</ele>
        <time>2019-01-10T11:45:32Z</time>
      </trkpt>
      <trkpt lat="43.75255" lon="3.56274">
        <ele>172</ele>
        <time>2019-01-10T11:45:32Z</time>
      </trkpt>
      <trkpt lat="43.7526" lon="3.56278">
        <ele>172</ele>
        <time>2019-01-10T11:45:32Z</time>
      </trkpt>
      <trkpt lat="43.75265" lon="3.56279">
        <ele>172</ele>
        <time>2019-01-10T11:46:04Z</time>
      </trkpt>
      <trkpt lat="43.75266" lon="3.5628">
        <ele>172</ele>
        <time>2019-01-10T11:46:04Z</time>
      </trkpt>
      <trkpt lat="43.75271" lon="3.56283">
        <ele>172</ele>
        <time>2019-01-10T11:46:04Z</time>
      </trkpt>
      <trkpt lat="43.75272" lon="3.56283">
        <ele>172</ele>
        <time>2019-01-10T11:46:04Z</time>
      </trkpt>
      <trkpt lat="43.75277" lon="3.56284">
        <ele>172</ele>
        <time>2019-01-10T11:46:04Z</time>
      </trkpt>
      <trkpt lat="43.7528" lon="3.56285">
        <ele>172</ele>
        <time>2019-01-10T11:47:24Z</time>
      </trkpt>
      <trkpt lat="43.75283" lon="3.56284">
        <ele>172</ele>
        <time>2019-01-10T11:47:24Z</time>
      </trkpt>
      <trkpt lat="43.75285" lon="3.56282">
        <ele>172</ele>
        <time>2019-01-10T11:47:24Z</time>
      </trkpt>
      <trkpt lat="43.75287" lon="3.56284">
        <ele>172</ele>
        <time>2019-01-10T11:47:24Z</time>
      </trkpt>
      <trkpt lat="43.75289" lon="3.56283">
        <ele>172</ele>
        <time>2019-01-10T11:47:24Z</time>
      </trkpt>
      <trkpt lat="43.7529" lon="3.56284">
        <ele>172</ele>
        <time>2019-01-10T11:47:40Z</time>
      </trkpt>
      <trkpt lat="43.75293" lon="3.56284">
        <ele>183</ele>
        <time>2019-01-10T11:47:40Z</time>
      </trkpt>
      <trkpt lat="43.75297" lon="3.56284">
        <ele>183</ele>
        <time>2019-01-10T11:47:40Z</time>
      </trkpt>
      <trkpt lat="43.75301" lon="3.56283">
        <ele>183</ele>
        <time>2019-01-10T11:47:40Z</time>
      </trkpt>
      <trkpt lat="43.75304" lon="3.56283">
        <ele>183</ele>
        <time>2019-01-10T11:48:04Z</time>
      </trkpt>
      <trkpt lat="43.75307" lon="3.56285">
        <ele>183</ele>
        <time>2019-01-10T11:48:04Z</time>
      </trkpt>
      <trkpt lat="43.75308" lon="3.56286">
        <ele>183</ele>
        <time>2019-01-10T11:48:04Z</time>
      </trkpt>
      <trkpt lat="43.75314" lon="3.56284">
        <ele>183</ele>
        <time>2019-01-10T11:48:04Z</time>
      </trkpt>
      <trkpt lat="43.75322" lon="3.56281">
        <ele>183</ele>
        <time>2019-01-10T11:48:20Z</time>
      </trkpt>
      <trkpt lat="43.75327" lon="3.56281">
        <ele>183</ele>
        <time>2019-01-10T11:48:20Z</time>
      </trkpt>
      <trkpt lat="43.7533" lon="3.56282">
        <ele>183</ele>
        <time>2019-01-10T11:48:20Z</time>
      </trkpt>
      <trkpt lat="43.75334" lon="3.56284">
        <ele>183</ele>
        <time>2019-01-10T11:48:20Z</time>
      </trkpt>
      <trkpt lat="43.75339" lon="3.56291">
        <ele>183</ele>
        <time>2019-01-10T11:48:48Z</time>
      </trkpt>
      <trkpt lat="43.7534" lon="3.56292">
        <ele>203</ele>
        <time>2019-01-10T11:48:48Z</time>
      </trkpt>
      <trkpt lat="43.7534" lon="3.56292">
        <ele>203</ele>
        <time>2019-01-10T11:48:48Z</time>
      </trkpt>
      <trkpt lat="43.7534" lon="3.56296">
        <ele>203</ele>
        <time>2019-01-10T11:48:48Z</time>
      </trkpt>
      <trkpt lat="43.75342" lon="3.563">
        <ele>203</ele>
        <time>2019-01-10T11:48:48Z</time>
      </trkpt>
      <trkpt lat="43.75344" lon="3.56307">
        <ele>203</ele>
        <time>2019-01-10T11:49:04Z</time>
      </trkpt>
      <trkpt lat="43.75346" lon="3.56314">
        <ele>203</ele>
        <time>2019-01-10T11:49:04Z</time>
      </trkpt>
      <trkpt lat="43.75347" lon="3.56321">
        <ele>203</ele>
        <time>2019-01-10T11:49:04Z</time>
      </trkpt>
      <trkpt lat="43.75348" lon="3.56326">
        <ele>203</ele>
        <time>2019-01-10T11:49:04Z</time>
      </trkpt>
      <trkpt lat="43.75348" lon="3.56333">
        <ele>203</ele>
        <time>2019-01-10T11:49:20Z</time>
      </trkpt>
      <trkpt lat="43.7535" lon="3.56338">
        <ele>203</ele>
        <time>2019-01-10T11:49:20Z</time>
      </trkpt>
      <trkpt lat="43.75353" lon="3.56343">
        <ele>203</ele>
        <time>2019-01-10T11:49:20Z</time>
      </trkpt>
      <trkpt lat="43.75357" lon="3.56347">
        <ele>203</ele>
        <time>2019-01-10T11:49:20Z</time>
      </trkpt>
      <trkpt lat="43.75359" lon="3.56351">
        <ele>203</ele>
        <time>2019-01-10T11:49:40Z</time>
      </trkpt>
      <trkpt lat="43.75361" lon="3.56355">
        <ele>203</ele>
        <time>2019-01-10T11:49:40Z</time>
      </trkpt>
      <trkpt lat="43.75362" lon="3.56356">
        <ele>203</ele>
        <time>2019-01-10T11:49:40Z</time>
      </trkpt>
      <trkpt lat="43.75367" lon="3.56356">
        <ele>203</ele>
        <time>2019-01-10T11:49:40Z</time>
      </trkpt>
      <trkpt lat="43.75371" lon="3.56356">
        <ele>203</ele>
        <time>2019-01-10T11:49:40Z</time>
      </trkpt>
      <trkpt lat="43.75375" lon="3.56354">
        <ele>205</ele>
        <time>2019-01-10T11:49:56Z</time>
      </trkpt>
      <trkpt lat="43.75378" lon="3.56354">
        <ele>205</ele>
        <time>2019-01-10T11:49:56Z</time>
      </trkpt>
      <trkpt lat="43.75382" lon="3.56354">
        <ele>205</ele>
        <time>2019-01-10T11:49:56Z</time>
      </trkpt>
      <trkpt lat="43.75388" lon="3.56355">
        <ele>205</ele>
        <time>2019-01-10T11:49:56Z</time>
      </trkpt>
      <trkpt lat="43.75392" lon="3.56357">
        <ele>205</ele>
        <time>2019-01-10T11:50:16Z</time>
      </trkpt>
      <trkpt lat="43.75395" lon="3.5636">
        <ele>205</ele>
        <time>2019-01-10T11:50:16Z</time>
      </trkpt>
      <trkpt lat="43.75397" lon="3.56362">
        <ele>205</ele>
        <time>2019-01-10T11:50:16Z</time>
      </trkpt>
      <trkpt lat="43.75398" lon="3.56362">
        <ele>205</ele>
        <time>2019-01-10T11:50:16Z</time>
      </trkpt>
      <trkpt lat="43.75401" lon="3.56366">
        <ele>205</ele>
        <time>2019-01-10T11:50:16Z</time>
      </trkpt>
      <trkpt lat="43.75406" lon="3.56367">
        <ele>205</ele>
        <time>2019-01-10T11:50:32Z</time>
      </trkpt>
      <trkpt lat="43.7541" lon="3.56372">
        <ele>205</ele>
        <time>2019-01-10T11:50:32Z</time>
      </trkpt>
      <trkpt lat="43.75413" lon="3.56375">
        <ele>205</ele>
        <time>2019-01-10T11:50:32Z</time>
      </trkpt>
      <trkpt lat="43.75417" lon="3.56378">
        <ele>212</ele>
        <time>2019-01-10T11:50:32Z</time>
      </trkpt>
      <trkpt lat="43.7542" lon="3.56382">
        <ele>212</ele>
        <time>2019-01-10T11:50:48Z</time>
      </trkpt>
      <trkpt lat="43.75424" lon="3.56385">
        <ele>212</ele>
        <time>2019-01-10T11:50:48Z</time>
      </trkpt>
      <trkpt lat="43.75428" lon="3.5639">
        <ele>212</ele>
        <time>2019-01-10T11:50:48Z</time>
      </trkpt>
      <trkpt lat="43.75432" lon="3.56394">
        <ele>212</ele>
        <time>2019-01-10T11:50:48Z</time>
      </trkpt>
      <trkpt lat="43.75436" lon="3.56397">
        <ele>212</ele>
        <time>2019-01-10T11:51:04Z</time>
      </trkpt>
      <trkpt lat="43.75437" lon="3.56403">
        <ele>212</ele>
        <time>2019-01-10T11:51:04Z</time>
      </trkpt>
      <trkpt lat="43.75438" lon="3.56408">
        <ele>212</ele>
        <time>2019-01-10T11:51:04Z</time>
      </trkpt>
      <trkpt lat="43.7544" lon="3.56412">
        <ele>212</ele>
        <time>2019-01-10T11:51:04Z</time>
      </trkpt>
      <trkpt lat="43.75443" lon="3.56422">
        <ele>212</ele>
        <time>2019-01-10T11:51:32Z</time>
      </trkpt>
      <trkpt lat="43.75444" lon="3.56423">
        <ele>212</ele>
        <time>2019-01-10T11:51:32Z</time>
      </trkpt>
      <trkpt lat="43.75444" lon="3.56423">
        <ele>212</ele>
        <time>2019-01-10T11:51:32Z</time>
      </trkpt>
      <trkpt lat="43.75447" lon="3.56427">
        <ele>212</ele>
        <time>2019-01-10T11:51:32Z</time>
      </trkpt>
      <trkpt lat="43.75447" lon="3.56428">
        <ele>212</ele>
        <time>2019-01-10T11:51:32Z</time>
      </trkpt>
      <trkpt lat="43.75448" lon="3.56432">
        <ele>212</ele>
        <time>2019-01-10T11:51:52Z</time>
      </trkpt>
      <trkpt lat="43.75449" lon="3.56436">
        <ele>212</ele>
        <time>2019-01-10T11:51:52Z</time>
      </trkpt>
      <trkpt lat="43.75454" lon="3.5644">
        <ele>212</ele>
        <time>2019-01-10T11:51:52Z</time>
      </trkpt>
      <trkpt lat="43.7546" lon="3.56445">
        <ele>224</ele>
        <time>2019-01-10T11:51:52Z</time>
      </trkpt>
      <trkpt lat="43.75464" lon="3.56448">
        <ele>224</ele>
        <time>2019-01-10T11:52:08Z</time>
      </trkpt>
      <trkpt lat="43.75469" lon="3.56451">
        <ele>224</ele>
        <time>2019-01-10T11:52:08Z</time>
      </trkpt>
      <trkpt lat="43.75474" lon="3.56454">
        <ele>224</ele>
        <time>2019-01-10T11:52:08Z</time>
      </trkpt>
      <trkpt lat="43.75478" lon="3.56459">
        <ele>221</ele>
        <time>2019-01-10T11:52:08Z</time>
      </trkpt>
      <trkpt lat="43.75481" lon="3.56463">
        <ele>221</ele>
        <time>2019-01-10T11:52:24Z</time>
      </trkpt>
      <trkpt lat="43.75483" lon="3.56467">
        <ele>221</ele>
        <time>2019-01-10T11:52:24Z</time>
      </trkpt>
      <trkpt lat="43.75484" lon="3.56474">
        <ele>221</ele>
        <time>2019-01-10T11:52:24Z</time>
      </trkpt>
      <trkpt lat="43.75487" lon="3.56477">
        <ele>221</ele>
        <time>2019-01-10T11:52:24Z</time>
      </trkpt>
      <trkpt lat="43.7549" lon="3.5648">
        <ele>221</ele>
        <time>2019-01-10T11:52:40Z</time>
      </trkpt>
      <trkpt lat="43.75491" lon="3.56483">
        <ele>221</ele>
        <time>2019-01-10T11:52:40Z</time>
      </trkpt>
      <trkpt lat="43.75494" lon="3.56486">
        <ele>221</ele>
        <time>2019-01-10T11:52:40Z</time>
      </trkpt>
      <trkpt lat="43.75497" lon="3.5649">
        <ele>221</ele>
        <time>2019-01-10T11:52:40Z</time>
      </trkpt>
      <trkpt lat="43.75501" lon="3.56494">
        <ele>221</ele>
        <time>2019-01-10T11:52:56Z</time>
      </trkpt>
      <trkpt lat="43.75504" lon="3.56496">
        <ele>221</ele>
        <time>2019-01-10T11:52:56Z</time>
      </trkpt>
      <trkpt lat="43.75506" lon="3.56499">
        <ele>221</ele>
        <time>2019-01-10T11:52:56Z</time>
      </trkpt>
      <trkpt lat="43.75509" lon="3.56503">
        <ele>221</ele>
        <time>2019-01-10T11:52:56Z</time>
      </trkpt>
      <trkpt lat="43.75511" lon="3.56508">
        <ele>221</ele>
        <time>2019-01-10T11:53:12Z</time>
      </trkpt>
      <trkpt lat="43.75514" lon="3.56512">
        <ele>221</ele>
        <time>2019-01-10T11:53:12Z</time>
      </trkpt>
      <trkpt lat="43.75516" lon="3.56513">
        <ele>221</ele>
        <time>2019-01-10T11:53:12Z</time>
      </trkpt>
      <trkpt lat="43.75517" lon="3.56518">
        <ele>221</ele>
        <time>2019-01-10T11:53:12Z</time>
      </trkpt>
      <trkpt lat="43.75519" lon="3.56521">
        <ele>221</ele>
        <time>2019-01-10T11:53:28Z</time>
      </trkpt>
      <trkpt lat="43.75523" lon="3.56523">
        <ele>221</ele>
        <time>2019-01-10T11:53:28Z</time>
      </trkpt>
      <trkpt lat="43.75526" lon="3.56523">
        <ele>221</ele>
        <time>2019-01-10T11:53:28Z</time>
      </trkpt>
      <trkpt lat="43.75528" lon="3.56525">
        <ele>221</ele>
        <time>2019-01-10T11:53:28Z</time>
      </trkpt>
      <trkpt lat="43.75531" lon="3.56529">
        <ele>221</ele>
        <time>2019-01-10T11:53:44Z</time>
      </trkpt>
      <trkpt lat="43.75534" lon="3.56533">
        <ele>221</ele>
        <time>2019-01-10T11:53:44Z</time>
      </trkpt>
      <trkpt lat="43.75534" lon="3.56534">
        <ele>221</ele>
        <time>2019-01-10T11:53:44Z</time>
      </trkpt>
      <trkpt lat="43.75537" lon="3.56538">
        <ele>221</ele>
        <time>2019-01-10T11:53:44Z</time>
      </trkpt>
      <trkpt lat="43.7554" lon="3.56545">
        <ele>234</ele>
        <time>2019-01-10T11:54:08Z</time>
      </trkpt>
      <trkpt lat="43.75542" lon="3.56543">
        <ele>228</ele>
        <time>2019-01-10T11:54:08Z</time>
      </trkpt>
      <trkpt lat="43.75542" lon="3.5654">
        <ele>242</ele>
        <time>2019-01-10T11:54:08Z</time>
      </trkpt>
      <trkpt lat="43.75543" lon="3.56535">
        <ele>242</ele>
        <time>2019-01-10T11:54:08Z</time>
      </trkpt>
      <trkpt lat="43.75543" lon="3.56532">
        <ele>242</ele>
        <time>2019-01-10T11:54:08Z</time>
      </trkpt>
      <trkpt lat="43.75544" lon="3.56528">
        <ele>242</ele>
        <time>2019-01-10T11:54:24Z</time>
      </trkpt>
      <trkpt lat="43.75546" lon="3.56524">
        <ele>242</ele>
        <time>2019-01-10T11:54:24Z</time>
      </trkpt>
      <trkpt lat="43.75546" lon="3.56519">
        <ele>242</ele>
        <time>2019-01-10T11:54:24Z</time>
      </trkpt>
      <trkpt lat="43.75545" lon="3.56514">
        <ele>242</ele>
        <time>2019-01-10T11:54:24Z</time>
      </trkpt>
      <trkpt lat="43.75546" lon="3.5651">
        <ele>242</ele>
        <time>2019-01-10T11:54:40Z</time>
      </trkpt>
      <trkpt lat="43.75545" lon="3.56505">
        <ele>242</ele>
        <time>2019-01-10T11:54:40Z</time>
      </trkpt>
      <trkpt lat="43.75544" lon="3.56499">
        <ele>242</ele>
        <time>2019-01-10T11:54:40Z</time>
      </trkpt>
      <trkpt lat="43.75543" lon="3.56495">
        <ele>242</ele>
        <time>2019-01-10T11:54:40Z</time>
      </trkpt>
      <trkpt lat="43.75543" lon="3.5648">
        <ele>242</ele>
        <time>2019-01-10T11:56:00Z</time>
      </trkpt>
      <trkpt lat="43.75543" lon="3.56477">
        <ele>242</ele>
        <time>2019-01-10T11:56:00Z</time>
      </trkpt>
      <trkpt lat="43.75546" lon="3.56476">
        <ele>242</ele>
        <time>2019-01-10T11:56:00Z</time>
      </trkpt>
      <trkpt lat="43.75548" lon="3.56476">
        <ele>242</ele>
        <time>2019-01-10T11:56:00Z</time>
      </trkpt>
      <trkpt lat="43.7555" lon="3.56477">
        <ele>242</ele>
        <time>2019-01-10T11:56:00Z</time>
      </trkpt>
      <trkpt lat="43.75551" lon="3.5648">
        <ele>242</ele>
        <time>2019-01-10T11:56:28Z</time>
      </trkpt>
      <trkpt lat="43.75552" lon="3.56483">
        <ele>242</ele>
        <time>2019-01-10T11:56:28Z</time>
      </trkpt>
      <trkpt lat="43.75553" lon="3.56484">
        <ele>242</ele>
        <time>2019-01-10T11:56:28Z</time>
      </trkpt>
      <trkpt lat="43.75552" lon="3.56487">
        <ele>242</ele>
        <time>2019-01-10T11:56:28Z</time>
      </trkpt>
      <trkpt lat="43.75552" lon="3.56489">
        <ele>242</ele>
        <time>2019-01-10T11:56:28Z</time>
      </trkpt>
      <trkpt lat="43.75554" lon="3.56493">
        <ele>242</ele>
        <time>2019-01-10T11:56:56Z</time>
      </trkpt>
      <trkpt lat="43.75555" lon="3.56495">
        <ele>242</ele>
        <time>2019-01-10T11:56:56Z</time>
      </trkpt>
      <trkpt lat="43.75557" lon="3.56493">
        <ele>242</ele>
        <time>2019-01-10T11:56:56Z</time>
      </trkpt>
      <trkpt lat="43.7556" lon="3.56488">
        <ele>242</ele>
        <time>2019-01-10T11:56:56Z</time>
      </trkpt>
      <trkpt lat="43.75563" lon="3.56483">
        <ele>242</ele>
        <time>2019-01-10T11:56:56Z</time>
      </trkpt>
      <trkpt lat="43.75564" lon="3.56479">
        <ele>242</ele>
        <time>2019-01-10T11:57:12Z</time>
      </trkpt>
      <trkpt lat="43.75566" lon="3.56474">
        <ele>242</ele>
        <time>2019-01-10T11:57:12Z</time>
      </trkpt>
      <trkpt lat="43.75567" lon="3.56473">
        <ele>242</ele>
        <time>2019-01-10T11:57:12Z</time>
      </trkpt>
      <trkpt lat="43.75569" lon="3.56468">
        <ele>242</ele>
        <time>2019-01-10T11:57:12Z</time>
      </trkpt>
      <trkpt lat="43.7557" lon="3.56455">
        <ele>261</ele>
        <time>2019-01-10T11:58:32Z</time>
      </trkpt>
      <trkpt lat="43.75571" lon="3.56455">
        <ele>261</ele>
        <time>2019-01-10T11:58:32Z</time>
      </trkpt>
      <trkpt lat="43.75572" lon="3.56455">
        <ele>261</ele>
        <time>2019-01-10T11:58:32Z</time>
      </trkpt>
      <trkpt lat="43.75573" lon="3.56454">
        <ele>261</ele>
        <time>2019-01-10T11:58:32Z</time>
      </trkpt>
      <trkpt lat="43.75574" lon="3.56451">
        <ele>261</ele>
        <time>2019-01-10T11:58:32Z</time>
      </trkpt>
      <trkpt lat="43.75575" lon="3.56447">
        <ele>261</ele>
        <time>2019-01-10T11:58:52Z</time>
      </trkpt>
      <trkpt lat="43.75576" lon="3.56442">
        <ele>261</ele>
        <time>2019-01-10T11:58:52Z</time>
      </trkpt>
      <trkpt lat="43.75576" lon="3.56439">
        <ele>261</ele>
        <time>2019-01-10T11:58:52Z</time>
      </trkpt>
      <trkpt lat="43.75576" lon="3.56435">
        <ele>261</ele>
        <time>2019-01-10T11:58:52Z</time>
      </trkpt>
      <trkpt lat="43.75574" lon="3.5643">
        <ele>261</ele>
        <time>2019-01-10T11:58:52Z</time>
      </trkpt>
      <trkpt lat="43.75571" lon="3.56427">
        <ele>261</ele>
        <time>2019-01-10T11:59:08Z</time>
      </trkpt>
      <trkpt lat="43.75568" lon="3.56426">
        <ele>261</ele>
        <time>2019-01-10T11:59:08Z</time>
      </trkpt>
      <trkpt lat="43.75566" lon="3.56421">
        <ele>261</ele>
        <time>2019-01-10T11:59:08Z</time>
      </trkpt>
      <trkpt lat="43.75564" lon="3.56419">
        <ele>261</ele>
        <time>2019-01-10T11:59:08Z</time>
      </trkpt>
      <trkpt lat="43.75566" lon="3.56417">
        <ele>261</ele>
        <time>2019-01-10T12:00:32Z</time>
      </trkpt>
      <trkpt lat="43.75567" lon="3.56419">
        <ele>261</ele>
        <time>2019-01-10T12:00:32Z</time>
      </trkpt>
      <trkpt lat="43.75569" lon="3.56419">
        <ele>261</ele>
        <time>2019-01-10T12:00:32Z</time>
      </trkpt>
      <trkpt lat="43.75572" lon="3.5642">
        <ele>261</ele>
        <time>2019-01-10T12:00:32Z</time>
      </trkpt>
      <trkpt lat="43.75575" lon="3.56422">
        <ele>261</ele>
        <time>2019-01-10T12:00:32Z</time>
      </trkpt>
      <trkpt lat="43.75577" lon="3.56424">
        <ele>261</ele>
        <time>2019-01-10T12:00:52Z</time>
      </trkpt>
      <trkpt lat="43.75581" lon="3.56427">
        <ele>261</ele>
        <time>2019-01-10T12:00:52Z</time>
      </trkpt>
      <trkpt lat="43.75581" lon="3.56428">
        <ele>261</ele>
        <time>2019-01-10T12:00:52Z</time>
      </trkpt>
      <trkpt lat="43.75584" lon="3.56429">
        <ele>261</ele>
        <time>2019-01-10T12:00:52Z</time>
      </trkpt>
      <trkpt lat="43.75589" lon="3.56432">
        <ele>261</ele>
        <time>2019-01-10T12:00:52Z</time>
      </trkpt>
      <trkpt lat="43.75592" lon="3.56432">
        <ele>261</ele>
        <time>2019-01-10T12:01:12Z</time>
      </trkpt>
      <trkpt lat="43.75594" lon="3.56434">
        <ele>261</ele>
        <time>2019-01-10T12:01:12Z</time>
      </trkpt>
      <trkpt lat="43.75595" lon="3.56439">
        <ele>261</ele>
        <time>2019-01-10T12:01:12Z</time>
      </trkpt>
      <trkpt lat="43.75596" lon="3.56442">
        <ele>261</ele>
        <time>2019-01-10T12:01:12Z</time>
      </trkpt>
      <trkpt lat="43.75598" lon="3.56446">
        <ele>261</ele>
        <time>2019-01-10T12:01:12Z</time>
      </trkpt>
      <trkpt lat="43.75599" lon="3.56448">
        <ele>261</ele>
        <time>2019-01-10T12:01:40Z</time>
      </trkpt>
      <trkpt lat="43.756" lon="3.56443">
        <ele>261</ele>
        <time>2019-01-10T12:01:40Z</time>
      </trkpt>
      <trkpt lat="43.75599" lon="3.56436">
        <ele>261</ele>
        <time>2019-01-10T12:01:40Z</time>
      </trkpt>
      <trkpt lat="43.75598" lon="3.5643">
        <ele>261</ele>
        <time>2019-01-10T12:01:40Z</time>
      </trkpt>
      <trkpt lat="43.75598" lon="3.56424">
        <ele>261</ele>
        <time>2019-01-10T12:01:56Z</time>
      </trkpt>
      <trkpt lat="43.75596" lon="3.56419">
        <ele>261</ele>
        <time>2019-01-10T12:01:56Z</time>
      </trkpt>
      <trkpt lat="43.75592" lon="3.56415">
        <ele>261</ele>
        <time>2019-01-10T12:01:56Z</time>
      </trkpt>
      <trkpt lat="43.75591" lon="3.56415">
        <ele>261</ele>
        <time>2019-01-10T12:01:56Z</time>
      </trkpt>
      <trkpt lat="43.75591" lon="3.56414">
        <ele>261</ele>
        <time>2019-01-10T12:03:08Z</time>
      </trkpt>
      <trkpt lat="43.7559" lon="3.56411">
        <ele>261</ele>
        <time>2019-01-10T12:03:08Z</time>
      </trkpt>
      <trkpt lat="43.75588" lon="3.56407">
        <ele>261</ele>
        <time>2019-01-10T12:03:08Z</time>
      </trkpt>
      <trkpt lat="43.75586" lon="3.56404">
        <ele>261</ele>
        <time>2019-01-10T12:03:08Z</time>
      </trkpt>
      <trkpt lat="43.75581" lon="3.564">
        <ele>261</ele>
        <time>2019-01-10T12:03:08Z</time>
      </trkpt>
      <trkpt lat="43.75578" lon="3.56396">
        <ele>261</ele>
        <time>2019-01-10T12:03:24Z</time>
      </trkpt>
      <trkpt lat="43.75576" lon="3.56392">
        <ele>261</ele>
        <time>2019-01-10T12:03:24Z</time>
      </trkpt>
      <trkpt lat="43.75574" lon="3.56388">
        <ele>261</ele>
        <time>2019-01-10T12:03:24Z</time>
      </trkpt>
      <trkpt lat="43.75573" lon="3.56385">
        <ele>261</ele>
        <time>2019-01-10T12:03:24Z</time>
      </trkpt>
      <trkpt lat="43.75575" lon="3.56379">
        <ele>261</ele>
        <time>2019-01-10T12:04:12Z</time>
      </trkpt>
      <trkpt lat="43.75577" lon="3.56378">
        <ele>261</ele>
        <time>2019-01-10T12:04:12Z</time>
      </trkpt>
      <trkpt lat="43.75578" lon="3.56376">
        <ele>261</ele>
        <time>2019-01-10T12:04:12Z</time>
      </trkpt>
      <trkpt lat="43.75578" lon="3.56375">
        <ele>275</ele>
        <time>2019-01-10T12:04:12Z</time>
      </trkpt>
      <trkpt lat="43.75578" lon="3.56371">
        <ele>275</ele>
        <time>2019-01-10T12:04:12Z</time>
      </trkpt>
      <trkpt lat="43.75583" lon="3.56363">
        <ele>275</ele>
        <time>2019-01-10T12:05:00Z</time>
      </trkpt>
      <trkpt lat="43.75584" lon="3.56363">
        <ele>275</ele>
        <time>2019-01-10T12:05:00Z</time>
      </trkpt>
      <trkpt lat="43.75585" lon="3.56364">
        <ele>275</ele>
        <time>2019-01-10T12:05:00Z</time>
      </trkpt>
      <trkpt lat="43.75588" lon="3.56366">
        <ele>275</ele>
        <time>2019-01-10T12:05:00Z</time>
      </trkpt>
      <trkpt lat="43.75589" lon="3.56368">
        <ele>275</ele>
        <time>2019-01-10T12:05:00Z</time>
      </trkpt>
      <trkpt lat="43.75593" lon="3.56371">
        <ele>275</ele>
        <time>2019-01-10T12:05:16Z</time>
      </trkpt>
      <trkpt lat="43.756" lon="3.56376">
        <ele>261</ele>
        <time>2019-01-10T12:05:16Z</time>
      </trkpt>
      <trkpt lat="43.75604" lon="3.56378">
        <ele>261</ele>
        <time>2019-01-10T12:05:16Z</time>
      </trkpt>
      <trkpt lat="43.75604" lon="3.56379">
        <ele>261</ele>
        <time>2019-01-10T12:05:16Z</time>
      </trkpt>
      <trkpt lat="43.75608" lon="3.5638">
        <ele>261</ele>
        <time>2019-01-10T12:05:32Z</time>
      </trkpt>
      <trkpt lat="43.7561" lon="3.56383">
        <ele>261</ele>
        <time>2019-01-10T12:05:32Z</time>
      </trkpt>
      <trkpt lat="43.75612" lon="3.56386">
        <ele>261</ele>
        <time>2019-01-10T12:05:32Z</time>
      </trkpt>
      <trkpt lat="43.75614" lon="3.5639">
        <ele>261</ele>
        <time>2019-01-10T12:05:32Z</time>
      </trkpt>
      <trkpt lat="43.75615" lon="3.56393">
        <ele>261</ele>
        <time>2019-01-10T12:05:52Z</time>
      </trkpt>
      <trkpt lat="43.75615" lon="3.56392">
        <ele>261</ele>
        <time>2019-01-10T12:05:52Z</time>
      </trkpt>
      <trkpt lat="43.75615" lon="3.56388">
        <ele>261</ele>
        <time>2019-01-10T12:05:52Z</time>
      </trkpt>
      <trkpt lat="43.75615" lon="3.56384">
        <ele>261</ele>
        <time>2019-01-10T12:05:52Z</time>
      </trkpt>
      <trkpt lat="43.75616" lon="3.56379">
        <ele>261</ele>
        <time>2019-01-10T12:05:52Z</time>
      </trkpt>
      <trkpt lat="43.75616" lon="3.56375">
        <ele>261</ele>
        <time>2019-01-10T12:06:12Z</time>
      </trkpt>
      <trkpt lat="43.75615" lon="3.56371">
        <ele>275</ele>
        <time>2019-01-10T12:06:12Z</time>
      </trkpt>
      <trkpt lat="43.75614" lon="3.56368">
        <ele>275</ele>
        <time>2019-01-10T12:06:12Z</time>
      </trkpt>
      <trkpt lat="43.75615" lon="3.56365">
        <ele>275</ele>
        <time>2019-01-10T12:06:12Z</time>
      </trkpt>
      <trkpt lat="43.75617" lon="3.56363">
        <ele>275</ele>
        <time>2019-01-10T12:06:12Z</time>
      </trkpt>
      <trkpt lat="43.75619" lon="3.56363">
        <ele>275</ele>
        <time>2019-01-10T12:06:28Z</time>
      </trkpt>
      <trkpt lat="43.7562" lon="3.5636">
        <ele>275</ele>
        <time>2019-01-10T12:06:28Z</time>
      </trkpt>
      <trkpt lat="43.7562" lon="3.56356">
        <ele>275</ele>
        <time>2019-01-10T12:06:28Z</time>
      </trkpt>
      <trkpt lat="43.7562" lon="3.5635">
        <ele>275</ele>
        <time>2019-01-10T12:06:28Z</time>
      </trkpt>
      <trkpt lat="43.75619" lon="3.56346">
        <ele>275</ele>
        <time>2019-01-10T12:06:44Z</time>
      </trkpt>
      <trkpt lat="43.75621" lon="3.56342">
        <ele>275</ele>
        <time>2019-01-10T12:06:44Z</time>
      </trkpt>
      <trkpt lat="43.75622" lon="3.56338">
        <ele>275</ele>
        <time>2019-01-10T12:06:44Z</time>
      </trkpt>
      <trkpt lat="43.75624" lon="3.56334">
        <ele>275</ele>
        <time>2019-01-10T12:06:44Z</time>
      </trkpt>
      <trkpt lat="43.75625" lon="3.56331">
        <ele>303</ele>
        <time>2019-01-10T12:07:00Z</time>
      </trkpt>
      <trkpt lat="43.75628" lon="3.56326">
        <ele>303</ele>
        <time>2019-01-10T12:07:00Z</time>
      </trkpt>
      <trkpt lat="43.7563" lon="3.56323">
        <ele>303</ele>
        <time>2019-01-10T12:07:00Z</time>
      </trkpt>
      <trkpt lat="43.75632" lon="3.56319">
        <ele>303</ele>
        <time>2019-01-10T12:07:00Z</time>
      </trkpt>
      <trkpt lat="43.75635" lon="3.56316">
        <ele>303</ele>
        <time>2019-01-10T12:07:16Z</time>
      </trkpt>
      <trkpt lat="43.75639" lon="3.56311">
        <ele>303</ele>
        <time>2019-01-10T12:07:16Z</time>
      </trkpt>
      <trkpt lat="43.75641" lon="3.56309">
        <ele>303</ele>
        <time>2019-01-10T12:07:16Z</time>
      </trkpt>
      <trkpt lat="43.75644" lon="3.56306">
        <ele>303</ele>
        <time>2019-01-10T12:07:16Z</time>
      </trkpt>
      <trkpt lat="43.75646" lon="3.56302">
        <ele>303</ele>
        <time>2019-01-10T12:07:32Z</time>
      </trkpt>
      <trkpt lat="43.7565" lon="3.56298">
        <ele>303</ele>
        <time>2019-01-10T12:07:32Z</time>
      </trkpt>
      <trkpt lat="43.75651" lon="3.56296">
        <ele>303</ele>
        <time>2019-01-10T12:07:32Z</time>
      </trkpt>
      <trkpt lat="43.75652" lon="3.5629">
        <ele>307</ele>
        <time>2019-01-10T12:07:32Z</time>
      </trkpt>
      <trkpt lat="43.75654" lon="3.56281">
        <ele>307</ele>
        <time>2019-01-10T12:08:00Z</time>
      </trkpt>
      <trkpt lat="43.75654" lon="3.56278">
        <ele>307</ele>
        <time>2019-01-10T12:08:00Z</time>
      </trkpt>
      <trkpt lat="43.75652" lon="3.56276">
        <ele>307</ele>
        <time>2019-01-10T12:08:00Z</time>
      </trkpt>
      <trkpt lat="43.75652" lon="3.56274">
        <ele>307</ele>
        <time>2019-01-10T12:08:00Z</time>
      </trkpt>
      <trkpt lat="43.75649" lon="3.56268">
        <ele>307</ele>
        <time>2019-01-10T12:08:00Z</time>
      </trkpt>
      <trkpt lat="43.75644" lon="3.56264">
        <ele>307</ele>
        <time>2019-01-10T12:08:20Z</time>
      </trkpt>
      <trkpt lat="43.75641" lon="3.56259">
        <ele>307</ele>
        <time>2019-01-10T12:08:20Z</time>
      </trkpt>
      <trkpt lat="43.75638" lon="3.56252">
        <ele>307</ele>
        <time>2019-01-10T12:08:20Z</time>
      </trkpt>
      <trkpt lat="43.75635" lon="3.56246">
        <ele>307</ele>
        <time>2019-01-10T12:08:20Z</time>
      </trkpt>
      <trkpt lat="43.75635" lon="3.56236">
        <ele>307</ele>
        <time>2019-01-10T12:08:52Z</time>
      </trkpt>
      <trkpt lat="43.75636" lon="3.56235">
        <ele>307</ele>
        <time>2019-01-10T12:08:52Z</time>
      </trkpt>
      <trkpt lat="43.75637" lon="3.56234">
        <ele>307</ele>
        <time>2019-01-10T12:08:52Z</time>
      </trkpt>
      <trkpt lat="43.75639" lon="3.56232">
        <ele>307</ele>
        <time>2019-01-10T12:08:52Z</time>
      </trkpt>
      <trkpt lat="43.75641" lon="3.5623">
        <ele>307</ele>
        <time>2019-01-10T12:08:52Z</time>
      </trkpt>
      <trkpt lat="43.75645" lon="3.56229">
        <ele>307</ele>
        <time>2019-01-10T12:10:20Z</time>
      </trkpt>
      <trkpt lat="43.75646" lon="3.56229">
        <ele>307</ele>
        <time>2019-01-10T12:10:20Z</time>
      </trkpt>
      <trkpt lat="43.75647" lon="3.56229">
        <ele>307</ele>
        <time>2019-01-10T12:10:20Z</time>
      </trkpt>
      <trkpt lat="43.75648" lon="3.56229">
        <ele>307</ele>
        <time>2019-01-10T12:10:20Z</time>
      </trkpt>
      <trkpt lat="43.75655" lon="3.56227">
        <ele>307</ele>
        <time>2019-01-10T12:10:20Z</time>
      </trkpt>
      <trkpt lat="43.75659" lon="3.56225">
        <ele>307</ele>
        <time>2019-01-10T12:10:48Z</time>
      </trkpt>
      <trkpt lat="43.75664" lon="3.56223">
        <ele>307</ele>
        <time>2019-01-10T12:10:48Z</time>
      </trkpt>
      <trkpt lat="43.75666" lon="3.56222">
        <ele>307</ele>
        <time>2019-01-10T12:10:48Z</time>
      </trkpt>
      <trkpt lat="43.75673" lon="3.56221">
        <ele>307</ele>
        <time>2019-01-10T12:10:48Z</time>
      </trkpt>
      <trkpt lat="43.75678" lon="3.56221">
        <ele>307</ele>
        <time>2019-01-10T12:11:04Z</time>
      </trkpt>
      <trkpt lat="43.75686" lon="3.56222">
        <ele>307</ele>
        <time>2019-01-10T12:11:04Z</time>
      </trkpt>
      <trkpt lat="43.75691" lon="3.56223">
        <ele>307</ele>
        <time>2019-01-10T12:11:04Z</time>
      </trkpt>
      <trkpt lat="43.75695" lon="3.56223">
        <ele>307</ele>
        <time>2019-01-10T12:11:04Z</time>
      </trkpt>
      <trkpt lat="43.75695" lon="3.56223">
        <ele>307</ele>
        <time>2019-01-10T12:11:20Z</time>
      </trkpt>
      <trkpt lat="43.757" lon="3.56225">
        <ele>307</ele>
        <time>2019-01-10T12:11:20Z</time>
      </trkpt>
      <trkpt lat="43.75704" lon="3.56226">
        <ele>307</ele>
        <time>2019-01-10T12:11:20Z</time>
      </trkpt>
      <trkpt lat="43.75708" lon="3.56229">
        <ele>307</ele>
        <time>2019-01-10T12:11:20Z</time>
      </trkpt>
      <trkpt lat="43.75711" lon="3.56234">
        <ele>318</ele>
        <time>2019-01-10T12:11:36Z</time>
      </trkpt>
      <trkpt lat="43.75713" lon="3.56239">
        <ele>318</ele>
        <time>2019-01-10T12:11:36Z</time>
      </trkpt>
      <trkpt lat="43.75714" lon="3.56244">
        <ele>318</ele>
        <time>2019-01-10T12:11:36Z</time>
      </trkpt>
      <trkpt lat="43.75715" lon="3.5625">
        <ele>318</ele>
        <time>2019-01-10T12:11:36Z</time>
      </trkpt>
      <trkpt lat="43.75715" lon="3.56255">
        <ele>318</ele>
        <time>2019-01-10T12:11:52Z</time>
      </trkpt>
      <trkpt lat="43.75716" lon="3.5626">
        <ele>318</ele>
        <time>2019-01-10T12:11:52Z</time>
      </trkpt>
      <trkpt lat="43.75718" lon="3.56264">
        <ele>318</ele>
        <time>2019-01-10T12:11:52Z</time>
      </trkpt>
      <trkpt lat="43.7572" lon="3.56269">
        <ele>318</ele>
        <time>2019-01-10T12:11:52Z</time>
      </trkpt>
      <trkpt lat="43.75721" lon="3.56272">
        <ele>318</ele>
        <time>2019-01-10T12:12:08Z</time>
      </trkpt>
      <trkpt lat="43.75722" lon="3.56275">
        <ele>318</ele>
        <time>2019-01-10T12:12:08Z</time>
      </trkpt>
      <trkpt lat="43.75722" lon="3.5628">
        <ele>318</ele>
        <time>2019-01-10T12:12:08Z</time>
      </trkpt>
      <trkpt lat="43.75723" lon="3.56285">
        <ele>318</ele>
        <time>2019-01-10T12:12:08Z</time>
      </trkpt>
      <trkpt lat="43.75725" lon="3.56286">
        <ele>318</ele>
        <time>2019-01-10T12:12:32Z</time>
      </trkpt>
      <trkpt lat="43.75726" lon="3.56284">
        <ele>318</ele>
        <time>2019-01-10T12:12:32Z</time>
      </trkpt>
      <trkpt lat="43.75728" lon="3.56283">
        <ele>318</ele>
        <time>2019-01-10T12:12:32Z</time>
      </trkpt>
      <trkpt lat="43.75732" lon="3.56281">
        <ele>318</ele>
        <time>2019-01-10T12:12:32Z</time>
      </trkpt>
      <trkpt lat="43.75734" lon="3.56278">
        <ele>318</ele>
        <time>2019-01-10T12:12:32Z</time>
      </trkpt>
      <trkpt lat="43.75738" lon="3.56272">
        <ele>318</ele>
        <time>2019-01-10T12:13:04Z</time>
      </trkpt>
      <trkpt lat="43.7574" lon="3.5627">
        <ele>318</ele>
        <time>2019-01-10T12:13:04Z</time>
      </trkpt>
      <trkpt lat="43.75742" lon="3.5627">
        <ele>318</ele>
        <time>2019-01-10T12:13:04Z</time>
      </trkpt>
      <trkpt lat="43.75745" lon="3.56269">
        <ele>318</ele>
        <time>2019-01-10T12:13:04Z</time>
      </trkpt>
      <trkpt lat="43.75748" lon="3.56269">
        <ele>318</ele>
        <time>2019-01-10T12:13:04Z</time>
      </trkpt>
      <trkpt lat="43.75751" lon="3.56272">
        <ele>318</ele>
        <time>2019-01-10T12:13:24Z</time>
      </trkpt>
      <trkpt lat="43.75753" lon="3.56274">
        <ele>318</ele>
        <time>2019-01-10T12:13:24Z</time>
      </trkpt>
      <trkpt lat="43.75755" lon="3.56275">
        <ele>318</ele>
        <time>2019-01-10T12:13:24Z</time>
      </trkpt>
      <trkpt lat="43.75758" lon="3.56276">
        <ele>318</ele>
        <time>2019-01-10T12:13:24Z</time>
      </trkpt>
      <trkpt lat="43.75762" lon="3.56276">
        <ele>318</ele>
        <time>2019-01-10T12:13:24Z</time>
      </trkpt>
      <trkpt lat="43.75766" lon="3.56275">
        <ele>318</ele>
        <time>2019-01-10T12:13:40Z</time>
      </trkpt>
      <trkpt lat="43.75769" lon="3.56275">
        <ele>318</ele>
        <time>2019-01-10T12:13:40Z</time>
      </trkpt>
      <trkpt lat="43.75773" lon="3.56275">
        <ele>318</ele>
        <time>2019-01-10T12:13:40Z</time>
      </trkpt>
      <trkpt lat="43.75777" lon="3.56272">
        <ele>318</ele>
        <time>2019-01-10T12:13:40Z</time>
      </trkpt>
      <trkpt lat="43.75781" lon="3.56269">
        <ele>318</ele>
        <time>2019-01-10T12:13:56Z</time>
      </trkpt>
      <trkpt lat="43.75785" lon="3.56266">
        <ele>318</ele>
        <time>2019-01-10T12:13:56Z</time>
      </trkpt>
      <trkpt lat="43.75788" lon="3.56264">
        <ele>318</ele>
        <time>2019-01-10T12:13:56Z</time>
      </trkpt>
      <trkpt lat="43.75789" lon="3.56263">
        <ele>318</ele>
        <time>2019-01-10T12:13:56Z</time>
      </trkpt>
      <trkpt lat="43.75792" lon="3.56261">
        <ele>330</ele>
        <time>2019-01-10T12:14:12Z</time>
      </trkpt>
      <trkpt lat="43.75794" lon="3.56258">
        <ele>330</ele>
        <time>2019-01-10T12:14:12Z</time>
      </trkpt>
      <trkpt lat="43.75796" lon="3.56255">
        <ele>330</ele>
        <time>2019-01-10T12:14:12Z</time>
      </trkpt>
      <trkpt lat="43.758" lon="3.56253">
        <ele>330</ele>
        <time>2019-01-10T12:14:12Z</time>
      </trkpt>
      <trkpt lat="43.75802" lon="3.56249">
        <ele>330</ele>
        <time>2019-01-10T12:14:28Z</time>
      </trkpt>
      <trkpt lat="43.75803" lon="3.56246">
        <ele>330</ele>
        <time>2019-01-10T12:14:28Z</time>
      </trkpt>
      <trkpt lat="43.75805" lon="3.56243">
        <ele>330</ele>
        <time>2019-01-10T12:14:28Z</time>
      </trkpt>
      <trkpt lat="43.75807" lon="3.56239">
        <ele>330</ele>
        <time>2019-01-10T12:14:28Z</time>
      </trkpt>
      <trkpt lat="43.7581" lon="3.56235">
        <ele>330</ele>
        <time>2019-01-10T12:14:44Z</time>
      </trkpt>
      <trkpt lat="43.75814" lon="3.56231">
        <ele>330</ele>
        <time>2019-01-10T12:14:44Z</time>
      </trkpt>
      <trkpt lat="43.75818" lon="3.56226">
        <ele>330</ele>
        <time>2019-01-10T12:14:44Z</time>
      </trkpt>
      <trkpt lat="43.75822" lon="3.56222">
        <ele>330</ele>
        <time>2019-01-10T12:14:44Z</time>
      </trkpt>
      <trkpt lat="43.75827" lon="3.56216">
        <ele>330</ele>
        <time>2019-01-10T12:15:08Z</time>
      </trkpt>
      <trkpt lat="43.75828" lon="3.56213">
        <ele>330</ele>
        <time>2019-01-10T12:15:08Z</time>
      </trkpt>
      <trkpt lat="43.75829" lon="3.56211">
        <ele>330</ele>
        <time>2019-01-10T12:15:08Z</time>
      </trkpt>
      <trkpt lat="43.7583" lon="3.56209">
        <ele>330</ele>
        <time>2019-01-10T12:15:08Z</time>
      </trkpt>
      <trkpt lat="43.75833" lon="3.56205">
        <ele>333</ele>
        <time>2019-01-10T12:15:08Z</time>
      </trkpt>
      <trkpt lat="43.75834" lon="3.56202">
        <ele>333</ele>
        <time>2019-01-10T12:15:32Z</time>
      </trkpt>
      <trkpt lat="43.75835" lon="3.56201">
        <ele>333</ele>
        <time>2019-01-10T12:15:32Z</time>
      </trkpt>
      <trkpt lat="43.75835" lon="3.562">
        <ele>333</ele>
        <time>2019-01-10T12:15:32Z</time>
      </trkpt>
      <trkpt lat="43.75837" lon="3.56195">
        <ele>333</ele>
        <time>2019-01-10T12:15:32Z</time>
      </trkpt>
      <trkpt lat="43.75839" lon="3.5619">
        <ele>333</ele>
        <time>2019-01-10T12:15:32Z</time>
      </trkpt>
      <trkpt lat="43.75841" lon="3.56187">
        <ele>333</ele>
        <time>2019-01-10T12:15:48Z</time>
      </trkpt>
      <trkpt lat="43.75843" lon="3.56185">
        <ele>333</ele>
        <time>2019-01-10T12:15:48Z</time>
      </trkpt>
      <trkpt lat="43.75845" lon="3.56181">
        <ele>333</ele>
        <time>2019-01-10T12:15:48Z</time>
      </trkpt>
      <trkpt lat="43.75849" lon="3.56177">
        <ele>333</ele>
        <time>2019-01-10T12:15:48Z</time>
      </trkpt>
      <trkpt lat="43.75853" lon="3.56176">
        <ele>333</ele>
        <time>2019-01-10T12:16:12Z</time>
      </trkpt>
      <trkpt lat="43.75854" lon="3.56177">
        <ele>333</ele>
        <time>2019-01-10T12:16:12Z</time>
      </trkpt>
      <trkpt lat="43.75856" lon="3.5618">
        <ele>333</ele>
        <time>2019-01-10T12:16:12Z</time>
      </trkpt>
      <trkpt lat="43.75857" lon="3.56184">
        <ele>333</ele>
        <time>2019-01-10T12:16:12Z</time>
      </trkpt>
      <trkpt lat="43.75859" lon="3.56187">
        <ele>333</ele>
        <time>2019-01-10T12:16:12Z</time>
      </trkpt>
      <trkpt lat="43.75861" lon="3.56189">
        <ele>333</ele>
        <time>2019-01-10T12:16:28Z</time>
      </trkpt>
      <trkpt lat="43.75864" lon="3.5619">
        <ele>333</ele>
        <time>2019-01-10T12:16:28Z</time>
      </trkpt>
      <trkpt lat="43.75867" lon="3.56193">
        <ele>333</ele>
        <time>2019-01-10T12:16:28Z</time>
      </trkpt>
      <trkpt lat="43.7587" lon="3.56195">
        <ele>333</ele>
        <time>2019-01-10T12:16:28Z</time>
      </trkpt>
      <trkpt lat="43.75873" lon="3.56197">
        <ele>333</ele>
        <time>2019-01-10T12:16:48Z</time>
      </trkpt>
      <trkpt lat="43.75875" lon="3.562">
        <ele>341</ele>
        <time>2019-01-10T12:16:48Z</time>
      </trkpt>
      <trkpt lat="43.75877" lon="3.56201">
        <ele>341</ele>
        <time>2019-01-10T12:16:48Z</time>
      </trkpt>
      <trkpt lat="43.7588" lon="3.56203">
        <ele>341</ele>
        <time>2019-01-10T12:16:48Z</time>
      </trkpt>
      <trkpt lat="43.75882" lon="3.56205">
        <ele>341</ele>
        <time>2019-01-10T12:16:48Z</time>
      </trkpt>
      <trkpt lat="43.75884" lon="3.56204">
        <ele>341</ele>
        <time>2019-01-10T12:18:48Z</time>
      </trkpt>
      <trkpt lat="43.75887" lon="3.56202">
        <ele>341</ele>
        <time>2019-01-10T12:18:48Z</time>
      </trkpt>
      <trkpt lat="43.75888" lon="3.56201">
        <ele>341</ele>
        <time>2019-01-10T12:18:48Z</time>
      </trkpt>
      <trkpt lat="43.75889" lon="3.56203">
        <ele>341</ele>
        <time>2019-01-10T12:18:48Z</time>
      </trkpt>
      <trkpt lat="43.75891" lon="3.56196">
        <ele>341</ele>
        <time>2019-01-10T12:18:48Z</time>
      </trkpt>
      <trkpt lat="43.75894" lon="3.56192">
        <ele>341</ele>
        <time>2019-01-10T12:19:04Z</time>
      </trkpt>
      <trkpt lat="43.75897" lon="3.56188">
        <ele>341</ele>
        <time>2019-01-10T12:19:04Z</time>
      </trkpt>
      <trkpt lat="43.75899" lon="3.56185">
        <ele>341</ele>
        <time>2019-01-10T12:19:04Z</time>
      </trkpt>
      <trkpt lat="43.75902" lon="3.56181">
        <ele>341</ele>
        <time>2019-01-10T12:19:04Z</time>
      </trkpt>
      <trkpt lat="43.75902" lon="3.56181">
        <ele>341</ele>
        <time>2019-01-10T12:19:24Z</time>
      </trkpt>
      <trkpt lat="43.75903" lon="3.56179">
        <ele>341</ele>
        <time>2019-01-10T12:19:24Z</time>
      </trkpt>
      <trkpt lat="43.75904" lon="3.56175">
        <ele>341</ele>
        <time>2019-01-10T12:19:24Z</time>
      </trkpt>
      <trkpt lat="43.75906" lon="3.56171">
        <ele>341</ele>
        <time>2019-01-10T12:19:24Z</time>
      </trkpt>
      <trkpt lat="43.75908" lon="3.56169">
        <ele>341</ele>
        <time>2019-01-10T12:19:24Z</time>
      </trkpt>
      <trkpt lat="43.75911" lon="3.56164">
        <ele>341</ele>
        <time>2019-01-10T12:19:40Z</time>
      </trkpt>
      <trkpt lat="43.75913" lon="3.56161">
        <ele>341</ele>
        <time>2019-01-10T12:19:40Z</time>
      </trkpt>
      <trkpt lat="43.75915" lon="3.56156">
        <ele>341</ele>
        <time>2019-01-10T12:19:40Z</time>
      </trkpt>
      <trkpt lat="43.75917" lon="3.56153">
        <ele>341</ele>
        <time>2019-01-10T12:19:40Z</time>
      </trkpt>
      <trkpt lat="43.75918" lon="3.5615">
        <ele>341</ele>
        <time>2019-01-10T12:20:00Z</time>
      </trkpt>
      <trkpt lat="43.75919" lon="3.56146">
        <ele>341</ele>
        <time>2019-01-10T12:20:00Z</time>
      </trkpt>
      <trkpt lat="43.7592" lon="3.56142">
        <ele>341</ele>
        <time>2019-01-10T12:20:00Z</time>
      </trkpt>
      <trkpt lat="43.75921" lon="3.56139">
        <ele>341</ele>
        <time>2019-01-10T12:20:00Z</time>
      </trkpt>
      <trkpt lat="43.75924" lon="3.56134">
        <ele>341</ele>
        <time>2019-01-10T12:20:00Z</time>
      </trkpt>
      <trkpt lat="43.75926" lon="3.5613">
        <ele>341</ele>
        <time>2019-01-10T12:20:16Z</time>
      </trkpt>
      <trkpt lat="43.75928" lon="3.56124">
        <ele>354</ele>
        <time>2019-01-10T12:20:16Z</time>
      </trkpt>
      <trkpt lat="43.7593" lon="3.5612">
        <ele>354</ele>
        <time>2019-01-10T12:20:16Z</time>
      </trkpt>
      <trkpt lat="43.75932" lon="3.56116">
        <ele>354</ele>
        <time>2019-01-10T12:20:16Z</time>
      </trkpt>
      <trkpt lat="43.75934" lon="3.56113">
        <ele>354</ele>
        <time>2019-01-10T12:20:32Z</time>
      </trkpt>
      <trkpt lat="43.75936" lon="3.5611">
        <ele>354</ele>
        <time>2019-01-10T12:20:32Z</time>
      </trkpt>
      <trkpt lat="43.75938" lon="3.56106">
        <ele>354</ele>
        <time>2019-01-10T12:20:32Z</time>
      </trkpt>
      <trkpt lat="43.75941" lon="3.56102">
        <ele>354</ele>
        <time>2019-01-10T12:20:32Z</time>
      </trkpt>
      <trkpt lat="43.75944" lon="3.56099">
        <ele>354</ele>
        <time>2019-01-10T12:20:48Z</time>
      </trkpt>
      <trkpt lat="43.75946" lon="3.56094">
        <ele>354</ele>
        <time>2019-01-10T12:20:48Z</time>
      </trkpt>
      <trkpt lat="43.75948" lon="3.5609">
        <ele>354</ele>
        <time>2019-01-10T12:20:48Z</time>
      </trkpt>
      <trkpt lat="43.75949" lon="3.56085">
        <ele>354</ele>
        <time>2019-01-10T12:20:48Z</time>
      </trkpt>
      <trkpt lat="43.75951" lon="3.56081">
        <ele>354</ele>
        <time>2019-01-10T12:21:04Z</time>
      </trkpt>
      <trkpt lat="43.75953" lon="3.56077">
        <ele>354</ele>
        <time>2019-01-10T12:21:04Z</time>
      </trkpt>
      <trkpt lat="43.75955" lon="3.56073">
        <ele>354</ele>
        <time>2019-01-10T12:21:04Z</time>
      </trkpt>
      <trkpt lat="43.75956" lon="3.5607">
        <ele>354</ele>
        <time>2019-01-10T12:21:04Z</time>
      </trkpt>
      <trkpt lat="43.75957" lon="3.56067">
        <ele>354</ele>
        <time>2019-01-10T12:21:32Z</time>
      </trkpt>
      <trkpt lat="43.75957" lon="3.56063">
        <ele>354</ele>
        <time>2019-01-10T12:21:32Z</time>
      </trkpt>
      <trkpt lat="43.75958" lon="3.5606">
        <ele>354</ele>
        <time>2019-01-10T12:21:32Z</time>
      </trkpt>
      <trkpt lat="43.75959" lon="3.56057">
        <ele>332</ele>
        <time>2019-01-10T12:21:32Z</time>
      </trkpt>
      <trkpt lat="43.7596" lon="3.56054">
        <ele>332</ele>
        <time>2019-01-10T12:21:32Z</time>
      </trkpt>
      <trkpt lat="43.75963" lon="3.5605">
        <ele>332</ele>
        <time>2019-01-10T12:21:48Z</time>
      </trkpt>
      <trkpt lat="43.75967" lon="3.56046">
        <ele>332</ele>
        <time>2019-01-10T12:21:48Z</time>
      </trkpt>
      <trkpt lat="43.7597" lon="3.56039">
        <ele>357</ele>
        <time>2019-01-10T12:21:48Z</time>
      </trkpt>
      <trkpt lat="43.75973" lon="3.56034">
        <ele>357</ele>
        <time>2019-01-10T12:21:48Z</time>
      </trkpt>
      <trkpt lat="43.75974" lon="3.56028">
        <ele>357</ele>
        <time>2019-01-10T12:22:04Z</time>
      </trkpt>
      <trkpt lat="43.75976" lon="3.56026">
        <ele>357</ele>
        <time>2019-01-10T12:22:04Z</time>
      </trkpt>
      <trkpt lat="43.75978" lon="3.56023">
        <ele>357</ele>
        <time>2019-01-10T12:22:04Z</time>
      </trkpt>
      <trkpt lat="43.7598" lon="3.56019">
        <ele>357</ele>
        <time>2019-01-10T12:22:04Z</time>
      </trkpt>
      <trkpt lat="43.75981" lon="3.56014">
        <ele>357</ele>
        <time>2019-01-10T12:22:20Z</time>
      </trkpt>
      <trkpt lat="43.75984" lon="3.56008">
        <ele>357</ele>
        <time>2019-01-10T12:22:20Z</time>
      </trkpt>
      <trkpt lat="43.75987" lon="3.56003">
        <ele>357</ele>
        <time>2019-01-10T12:22:20Z</time>
      </trkpt>
      <trkpt lat="43.7599" lon="3.55997">
        <ele>357</ele>
        <time>2019-01-10T12:22:20Z</time>
      </trkpt>
      <trkpt lat="43.75993" lon="3.55992">
        <ele>357</ele>
        <time>2019-01-10T12:22:36Z</time>
      </trkpt>
      <trkpt lat="43.75995" lon="3.55986">
        <ele>357</ele>
        <time>2019-01-10T12:22:36Z</time>
      </trkpt>
      <trkpt lat="43.75997" lon="3.55982">
        <ele>357</ele>
        <time>2019-01-10T12:22:36Z</time>
      </trkpt>
      <trkpt lat="43.75997" lon="3.55977">
        <ele>357</ele>
        <time>2019-01-10T12:22:36Z</time>
      </trkpt>
      <trkpt lat="43.75998" lon="3.55974">
        <ele>357</ele>
        <time>2019-01-10T12:22:56Z</time>
      </trkpt>
      <trkpt lat="43.75999" lon="3.5597">
        <ele>357</ele>
        <time>2019-01-10T12:22:56Z</time>
      </trkpt>
      <trkpt lat="43.75999" lon="3.55967">
        <ele>357</ele>
        <time>2019-01-10T12:22:56Z</time>
      </trkpt>
      <trkpt lat="43.76001" lon="3.55964">
        <ele>357</ele>
        <time>2019-01-10T12:22:56Z</time>
      </trkpt>
      <trkpt lat="43.76001" lon="3.5596">
        <ele>357</ele>
        <time>2019-01-10T12:22:56Z</time>
      </trkpt>
      <trkpt lat="43.76001" lon="3.55956">
        <ele>387</ele>
        <time>2019-01-10T12:23:16Z</time>
      </trkpt>
      <trkpt lat="43.76001" lon="3.55952">
        <ele>387</ele>
        <time>2019-01-10T12:23:16Z</time>
      </trkpt>
      <trkpt lat="43.76002" lon="3.55949">
        <ele>387</ele>
        <time>2019-01-10T12:23:16Z</time>
      </trkpt>
      <trkpt lat="43.76001" lon="3.55944">
        <ele>387</ele>
        <time>2019-01-10T12:23:16Z</time>
      </trkpt>
      <trkpt lat="43.76002" lon="3.5594">
        <ele>387</ele>
        <time>2019-01-10T12:23:16Z</time>
      </trkpt>
      <trkpt lat="43.76003" lon="3.55936">
        <ele>387</ele>
        <time>2019-01-10T12:23:36Z</time>
      </trkpt>
      <trkpt lat="43.76005" lon="3.55933">
        <ele>387</ele>
        <time>2019-01-10T12:23:36Z</time>
      </trkpt>
      <trkpt lat="43.76007" lon="3.5593">
        <ele>387</ele>
        <time>2019-01-10T12:23:36Z</time>
      </trkpt>
      <trkpt lat="43.76008" lon="3.55927">
        <ele>387</ele>
        <time>2019-01-10T12:23:36Z</time>
      </trkpt>
      <trkpt lat="43.76009" lon="3.55925">
        <ele>387</ele>
        <time>2019-01-10T12:23:36Z</time>
      </trkpt>
      <trkpt lat="43.76009" lon="3.55922">
        <ele>387</ele>
        <time>2019-01-10T12:23:56Z</time>
      </trkpt>
      <trkpt lat="43.76009" lon="3.55921">
        <ele>387</ele>
        <time>2019-01-10T12:23:56Z</time>
      </trkpt>
      <trkpt lat="43.7601" lon="3.55919">
        <ele>387</ele>
        <time>2019-01-10T12:23:56Z</time>
      </trkpt>
      <trkpt lat="43.76013" lon="3.55914">
        <ele>387</ele>
        <time>2019-01-10T12:23:56Z</time>
      </trkpt>
      <trkpt lat="43.76014" lon="3.5591">
        <ele>387</ele>
        <time>2019-01-10T12:23:56Z</time>
      </trkpt>
      <trkpt lat="43.76016" lon="3.55908">
        <ele>387</ele>
        <time>2019-01-10T12:24:12Z</time>
      </trkpt>
      <trkpt lat="43.76018" lon="3.55903">
        <ele>387</ele>
        <time>2019-01-10T12:24:12Z</time>
      </trkpt>
      <trkpt lat="43.76019" lon="3.55899">
        <ele>387</ele>
        <time>2019-01-10T12:24:12Z</time>
      </trkpt>
      <trkpt lat="43.7602" lon="3.55896">
        <ele>387</ele>
        <time>2019-01-10T12:24:12Z</time>
      </trkpt>
      <trkpt lat="43.76021" lon="3.55892">
        <ele>387</ele>
        <time>2019-01-10T12:24:28Z</time>
      </trkpt>
      <trkpt lat="43.76022" lon="3.55888">
        <ele>387</ele>
        <time>2019-01-10T12:24:28Z</time>
      </trkpt>
      <trkpt lat="43.76023" lon="3.55884">
        <ele>387</ele>
        <time>2019-01-10T12:24:28Z</time>
      </trkpt>
      <trkpt lat="43.76024" lon="3.55879">
        <ele>387</ele>
        <time>2019-01-10T12:24:28Z</time>
      </trkpt>
      <trkpt lat="43.76026" lon="3.55875">
        <ele>407</ele>
        <time>2019-01-10T12:24:44Z</time>
      </trkpt>
      <trkpt lat="43.76026" lon="3.55869">
        <ele>407</ele>
        <time>2019-01-10T12:24:44Z</time>
      </trkpt>
      <trkpt lat="43.76025" lon="3.55865">
        <ele>407</ele>
        <time>2019-01-10T12:24:44Z</time>
      </trkpt>
      <trkpt lat="43.76026" lon="3.55862">
        <ele>407</ele>
        <time>2019-01-10T12:24:44Z</time>
      </trkpt>
      <trkpt lat="43.76027" lon="3.55859">
        <ele>407</ele>
        <time>2019-01-10T12:25:04Z</time>
      </trkpt>
      <trkpt lat="43.76028" lon="3.55856">
        <ele>407</ele>
        <time>2019-01-10T12:25:04Z</time>
      </trkpt>
      <trkpt lat="43.76028" lon="3.55852">
        <ele>407</ele>
        <time>2019-01-10T12:25:04Z</time>
      </trkpt>
      <trkpt lat="43.76029" lon="3.55848">
        <ele>407</ele>
        <time>2019-01-10T12:25:04Z</time>
      </trkpt>
      <trkpt lat="43.7603" lon="3.55844">
        <ele>407</ele>
        <time>2019-01-10T12:25:04Z</time>
      </trkpt>
      <trkpt lat="43.7603" lon="3.5584">
        <ele>407</ele>
        <time>2019-01-10T12:25:24Z</time>
      </trkpt>
      <trkpt lat="43.7603" lon="3.55839">
        <ele>407</ele>
        <time>2019-01-10T12:25:24Z</time>
      </trkpt>
      <trkpt lat="43.76032" lon="3.55834">
        <ele>407</ele>
        <time>2019-01-10T12:25:24Z</time>
      </trkpt>
      <trkpt lat="43.76032" lon="3.55832">
        <ele>407</ele>
        <time>2019-01-10T12:25:24Z</time>
      </trkpt>
      <trkpt lat="43.76033" lon="3.55828">
        <ele>407</ele>
        <time>2019-01-10T12:25:24Z</time>
      </trkpt>
      <trkpt lat="43.76033" lon="3.55825">
        <ele>407</ele>
        <time>2019-01-10T12:25:44Z</time>
      </trkpt>
      <trkpt lat="43.76033" lon="3.55822">
        <ele>407</ele>
        <time>2019-01-10T12:25:44Z</time>
      </trkpt>
      <trkpt lat="43.76033" lon="3.55818">
        <ele>407</ele>
        <time>2019-01-10T12:25:44Z</time>
      </trkpt>
      <trkpt lat="43.76035" lon="3.55813">
        <ele>407</ele>
        <time>2019-01-10T12:25:44Z</time>
      </trkpt>
      <trkpt lat="43.76036" lon="3.55812">
        <ele>407</ele>
        <time>2019-01-10T12:25:44Z</time>
      </trkpt>
      <trkpt lat="43.76038" lon="3.55808">
        <ele>407</ele>
        <time>2019-01-10T12:26:04Z</time>
      </trkpt>
      <trkpt lat="43.76039" lon="3.55804">
        <ele>407</ele>
        <time>2019-01-10T12:26:04Z</time>
      </trkpt>
      <trkpt lat="43.76039" lon="3.55801">
        <ele>407</ele>
        <time>2019-01-10T12:26:04Z</time>
      </trkpt>
      <trkpt lat="43.76039" lon="3.55798">
        <ele>407</ele>
        <time>2019-01-10T12:26:04Z</time>
      </trkpt>
      <trkpt lat="43.76039" lon="3.55793">
        <ele>407</ele>
        <time>2019-01-10T12:26:04Z</time>
      </trkpt>
      <trkpt lat="43.7604" lon="3.55788">
        <ele>418</ele>
        <time>2019-01-10T12:26:20Z</time>
      </trkpt>
      <trkpt lat="43.76041" lon="3.55783">
        <ele>418</ele>
        <time>2019-01-10T12:26:20Z</time>
      </trkpt>
      <trkpt lat="43.76042" lon="3.55779">
        <ele>375</ele>
        <time>2019-01-10T12:26:20Z</time>
      </trkpt>
      <trkpt lat="43.76044" lon="3.55774">
        <ele>375</ele>
        <time>2019-01-10T12:26:20Z</time>
      </trkpt>
      <trkpt lat="43.76046" lon="3.5577">
        <ele>375</ele>
        <time>2019-01-10T12:26:36Z</time>
      </trkpt>
      <trkpt lat="43.76047" lon="3.55766">
        <ele>375</ele>
        <time>2019-01-10T12:26:36Z</time>
      </trkpt>
      <trkpt lat="43.76048" lon="3.55762">
        <ele>375</ele>
        <time>2019-01-10T12:26:36Z</time>
      </trkpt>
      <trkpt lat="43.7605" lon="3.55757">
        <ele>375</ele>
        <time>2019-01-10T12:26:36Z</time>
      </trkpt>
      <trkpt lat="43.7605" lon="3.55754">
        <ele>375</ele>
        <time>2019-01-10T12:26:52Z</time>
      </trkpt>
      <trkpt lat="43.76049" lon="3.55751">
        <ele>375</ele>
        <time>2019-01-10T12:26:52Z</time>
      </trkpt>
      <trkpt lat="43.76047" lon="3.55747">
        <ele>375</ele>
        <time>2019-01-10T12:26:52Z</time>
      </trkpt>
      <trkpt lat="43.76045" lon="3.55743">
        <ele>375</ele>
        <time>2019-01-10T12:26:52Z</time>
      </trkpt>
      <trkpt lat="43.76046" lon="3.5574">
        <ele>375</ele>
        <time>2019-01-10T12:27:08Z</time>
      </trkpt>
      <trkpt lat="43.76044" lon="3.55736">
        <ele>375</ele>
        <time>2019-01-10T12:27:08Z</time>
      </trkpt>
      <trkpt lat="43.76044" lon="3.55731">
        <ele>375</ele>
        <time>2019-01-10T12:27:08Z</time>
      </trkpt>
      <trkpt lat="43.76044" lon="3.55727">
        <ele>375</ele>
        <time>2019-01-10T12:27:08Z</time>
      </trkpt>
      <trkpt lat="43.76043" lon="3.55724">
        <ele>375</ele>
        <time>2019-01-10T12:27:28Z</time>
      </trkpt>
      <trkpt lat="43.76044" lon="3.55721">
        <ele>375</ele>
        <time>2019-01-10T12:27:28Z</time>
      </trkpt>
      <trkpt lat="43.76044" lon="3.55717">
        <ele>375</ele>
        <time>2019-01-10T12:27:28Z</time>
      </trkpt>
      <trkpt lat="43.76044" lon="3.55713">
        <ele>375</ele>
        <time>2019-01-10T12:27:28Z</time>
      </trkpt>
      <trkpt lat="43.76043" lon="3.55708">
        <ele>390</ele>
        <time>2019-01-10T12:27:28Z</time>
      </trkpt>
      <trkpt lat="43.76043" lon="3.55704">
        <ele>390</ele>
        <time>2019-01-10T12:27:48Z</time>
      </trkpt>
      <trkpt lat="43.76043" lon="3.55698">
        <ele>390</ele>
        <time>2019-01-10T12:27:48Z</time>
      </trkpt>
      <trkpt lat="43.76042" lon="3.55693">
        <ele>424</ele>
        <time>2019-01-10T12:27:48Z</time>
      </trkpt>
      <trkpt lat="43.76041" lon="3.55693">
        <ele>424</ele>
        <time>2019-01-10T12:27:48Z</time>
      </trkpt>
      <trkpt lat="43.76038" lon="3.55689">
        <ele>424</ele>
        <time>2019-01-10T12:27:48Z</time>
      </trkpt>
      <trkpt lat="43.76037" lon="3.55685">
        <ele>424</ele>
        <time>2019-01-10T12:28:08Z</time>
      </trkpt>
      <trkpt lat="43.76037" lon="3.55681">
        <ele>424</ele>
        <time>2019-01-10T12:28:08Z</time>
      </trkpt>
      <trkpt lat="43.76038" lon="3.55678">
        <ele>424</ele>
        <time>2019-01-10T12:28:08Z</time>
      </trkpt>
      <trkpt lat="43.76038" lon="3.55673">
        <ele>424</ele>
        <time>2019-01-10T12:28:08Z</time>
      </trkpt>
      <trkpt lat="43.76038" lon="3.5567">
        <ele>424</ele>
        <time>2019-01-10T12:28:08Z</time>
      </trkpt>
      <trkpt lat="43.76038" lon="3.55666">
        <ele>424</ele>
        <time>2019-01-10T12:28:44Z</time>
      </trkpt>
      <trkpt lat="43.76038" lon="3.55661">
        <ele>424</ele>
        <time>2019-01-10T12:28:44Z</time>
      </trkpt>
      <trkpt lat="43.76038" lon="3.5566">
        <ele>424</ele>
        <time>2019-01-10T12:28:44Z</time>
      </trkpt>
      <trkpt lat="43.76038" lon="3.55654">
        <ele>424</ele>
        <time>2019-01-10T12:28:44Z</time>
      </trkpt>
      <trkpt lat="43.76039" lon="3.5565">
        <ele>424</ele>
        <time>2019-01-10T12:28:44Z</time>
      </trkpt>
      <trkpt lat="43.76039" lon="3.55645">
        <ele>424</ele>
        <time>2019-01-10T12:29:00Z</time>
      </trkpt>
      <trkpt lat="43.76041" lon="3.55639">
        <ele>424</ele>
        <time>2019-01-10T12:29:00Z</time>
      </trkpt>
      <trkpt lat="43.76041" lon="3.55637">
        <ele>424</ele>
        <time>2019-01-10T12:29:00Z</time>
      </trkpt>
      <trkpt lat="43.76044" lon="3.55633">
        <ele>390</ele>
        <time>2019-01-10T12:29:00Z</time>
      </trkpt>
      <trkpt lat="43.76046" lon="3.55629">
        <ele>390</ele>
        <time>2019-01-10T12:29:16Z</time>
      </trkpt>
      <trkpt lat="43.76048" lon="3.55624">
        <ele>418</ele>
        <time>2019-01-10T12:29:16Z</time>
      </trkpt>
      <trkpt lat="43.76049" lon="3.55621">
        <ele>418</ele>
        <time>2019-01-10T12:29:16Z</time>
      </trkpt>
      <trkpt lat="43.76052" lon="3.55617">
        <ele>418</ele>
        <time>2019-01-10T12:29:16Z</time>
      </trkpt>
      <trkpt lat="43.76054" lon="3.55612">
        <ele>418</ele>
        <time>2019-01-10T12:29:32Z</time>
      </trkpt>
      <trkpt lat="43.76056" lon="3.55608">
        <ele>418</ele>
        <time>2019-01-10T12:29:32Z</time>
      </trkpt>
      <trkpt lat="43.76057" lon="3.55606">
        <ele>418</ele>
        <time>2019-01-10T12:29:32Z</time>
      </trkpt>
      <trkpt lat="43.7606" lon="3.55601">
        <ele>418</ele>
        <time>2019-01-10T12:29:32Z</time>
      </trkpt>
      <trkpt lat="43.76063" lon="3.55601">
        <ele>418</ele>
        <time>2019-01-10T12:29:56Z</time>
      </trkpt>
      <trkpt lat="43.76069" lon="3.556">
        <ele>418</ele>
        <time>2019-01-10T12:29:56Z</time>
      </trkpt>
      <trkpt lat="43.76072" lon="3.55599">
        <ele>418</ele>
        <time>2019-01-10T12:29:56Z</time>
      </trkpt>
      <trkpt lat="43.76076" lon="3.55597">
        <ele>418</ele>
        <time>2019-01-10T12:29:56Z</time>
      </trkpt>
      <trkpt lat="43.76079" lon="3.55595">
        <ele>418</ele>
        <time>2019-01-10T12:30:12Z</time>
      </trkpt>
      <trkpt lat="43.76085" lon="3.5559">
        <ele>418</ele>
        <time>2019-01-10T12:30:12Z</time>
      </trkpt>
      <trkpt lat="43.76089" lon="3.55587">
        <ele>418</ele>
        <time>2019-01-10T12:30:12Z</time>
      </trkpt>
      <trkpt lat="43.76092" lon="3.55584">
        <ele>418</ele>
        <time>2019-01-10T12:30:12Z</time>
      </trkpt>
      <trkpt lat="43.76095" lon="3.5558">
        <ele>418</ele>
        <time>2019-01-10T12:30:28Z</time>
      </trkpt>
      <trkpt lat="43.76098" lon="3.55576">
        <ele>418</ele>
        <time>2019-01-10T12:30:28Z</time>
      </trkpt>
      <trkpt lat="43.76101" lon="3.55571">
        <ele>418</ele>
        <time>2019-01-10T12:30:28Z</time>
      </trkpt>
      <trkpt lat="43.76104" lon="3.55568">
        <ele>418</ele>
        <time>2019-01-10T12:30:28Z</time>
      </trkpt>
      <trkpt lat="43.76106" lon="3.55563">
        <ele>418</ele>
        <time>2019-01-10T12:30:52Z</time>
      </trkpt>
      <trkpt lat="43.76107" lon="3.55563">
        <ele>418</ele>
        <time>2019-01-10T12:30:52Z</time>
      </trkpt>
      <trkpt lat="43.76109" lon="3.55562">
        <ele>418</ele>
        <time>2019-01-10T12:30:52Z</time>
      </trkpt>
      <trkpt lat="43.76111" lon="3.5556">
        <ele>418</ele>
        <time>2019-01-10T12:30:52Z</time>
      </trkpt>
      <trkpt lat="43.76116" lon="3.5556">
        <ele>418</ele>
        <time>2019-01-10T12:30:52Z</time>
      </trkpt>
      <trkpt lat="43.76118" lon="3.5556">
        <ele>418</ele>
        <time>2019-01-10T12:31:20Z</time>
      </trkpt>
      <trkpt lat="43.7612" lon="3.5556">
        <ele>418</ele>
        <time>2019-01-10T12:31:20Z</time>
      </trkpt>
      <trkpt lat="43.76124" lon="3.5556">
        <ele>418</ele>
        <time>2019-01-10T12:31:20Z</time>
      </trkpt>
      <trkpt lat="43.76128" lon="3.55562">
        <ele>405</ele>
        <time>2019-01-10T12:31:20Z</time>
      </trkpt>
      <trkpt lat="43.76131" lon="3.55562">
        <ele>405</ele>
        <time>2019-01-10T12:31:52Z</time>
      </trkpt>
      <trkpt lat="43.76132" lon="3.55562">
        <ele>405</ele>
        <time>2019-01-10T12:31:52Z</time>
      </trkpt>
      <trkpt lat="43.76133" lon="3.55561">
        <ele>405</ele>
        <time>2019-01-10T12:31:52Z</time>
      </trkpt>
      <trkpt lat="43.76135" lon="3.55556">
        <ele>405</ele>
        <time>2019-01-10T12:31:52Z</time>
      </trkpt>
      <trkpt lat="43.76137" lon="3.55552">
        <ele>405</ele>
        <time>2019-01-10T12:31:52Z</time>
      </trkpt>
      <trkpt lat="43.7614" lon="3.55547">
        <ele>405</ele>
        <time>2019-01-10T12:32:08Z</time>
      </trkpt>
      <trkpt lat="43.76143" lon="3.55543">
        <ele>405</ele>
        <time>2019-01-10T12:32:08Z</time>
      </trkpt>
      <trkpt lat="43.76145" lon="3.55539">
        <ele>437</ele>
        <time>2019-01-10T12:32:08Z</time>
      </trkpt>
      <trkpt lat="43.76146" lon="3.55537">
        <ele>437</ele>
        <time>2019-01-10T12:32:08Z</time>
      </trkpt>
      <trkpt lat="43.76148" lon="3.55528">
        <ele>437</ele>
        <time>2019-01-10T12:32:48Z</time>
      </trkpt>
      <trkpt lat="43.76149" lon="3.55527">
        <ele>437</ele>
        <time>2019-01-10T12:32:48Z</time>
      </trkpt>
      <trkpt lat="43.7615" lon="3.55525">
        <ele>437</ele>
        <time>2019-01-10T12:32:48Z</time>
      </trkpt>
      <trkpt lat="43.76151" lon="3.55524">
        <ele>437</ele>
        <time>2019-01-10T12:32:48Z</time>
      </trkpt>
      <trkpt lat="43.76162" lon="3.55517">
        <ele>437</ele>
        <time>2019-01-10T12:32:48Z</time>
      </trkpt>
      <trkpt lat="43.76166" lon="3.55515">
        <ele>437</ele>
        <time>2019-01-10T12:34:20Z</time>
      </trkpt>
      <trkpt lat="43.76169" lon="3.55511">
        <ele>437</ele>
        <time>2019-01-10T12:34:20Z</time>
      </trkpt>
      <trkpt lat="43.76171" lon="3.55505">
        <ele>437</ele>
        <time>2019-01-10T12:34:20Z</time>
      </trkpt>
      <trkpt lat="43.76173" lon="3.55499">
        <ele>437</ele>
        <time>2019-01-10T12:34:20Z</time>
      </trkpt>
      <trkpt lat="43.76175" lon="3.55495">
        <ele>437</ele>
        <time>2019-01-10T12:34:44Z</time>
      </trkpt>
      <trkpt lat="43.76179" lon="3.55491">
        <ele>437</ele>
        <time>2019-01-10T12:34:44Z</time>
      </trkpt>
      <trkpt lat="43.76182" lon="3.55487">
        <ele>437</ele>
        <time>2019-01-10T12:34:44Z</time>
      </trkpt>
      <trkpt lat="43.76187" lon="3.55481">
        <ele>437</ele>
        <time>2019-01-10T12:34:44Z</time>
      </trkpt>
      <trkpt lat="43.7619" lon="3.55475">
        <ele>437</ele>
        <time>2019-01-10T12:35:32Z</time>
      </trkpt>
      <trkpt lat="43.76196" lon="3.55474">
        <ele>437</ele>
        <time>2019-01-10T12:35:32Z</time>
      </trkpt>
      <trkpt lat="43.76205" lon="3.55466">
        <ele>437</ele>
        <time>2019-01-10T12:35:32Z</time>
      </trkpt>
      <trkpt lat="43.76214" lon="3.55459">
        <ele>427</ele>
        <time>2019-01-10T12:35:32Z</time>
      </trkpt>
      <trkpt lat="43.76218" lon="3.55456">
        <ele>464</ele>
        <time>2019-01-10T12:36:12Z</time>
      </trkpt>
      <trkpt lat="43.76221" lon="3.55452">
        <ele>464</ele>
        <time>2019-01-10T12:36:12Z</time>
      </trkpt>
      <trkpt lat="43.76225" lon="3.55451">
        <ele>464</ele>
        <time>2019-01-10T12:36:12Z</time>
      </trkpt>
      <trkpt lat="43.76234" lon="3.55448">
        <ele>464</ele>
        <time>2019-01-10T12:36:12Z</time>
      </trkpt>
      <trkpt lat="43.7624" lon="3.55446">
        <ele>464</ele>
        <time>2019-01-10T12:36:40Z</time>
      </trkpt>
      <trkpt lat="43.7624" lon="3.55446">
        <ele>464</ele>
        <time>2019-01-10T12:36:40Z</time>
      </trkpt>
      <trkpt lat="43.76245" lon="3.55446">
        <ele>464</ele>
        <time>2019-01-10T12:36:40Z</time>
      </trkpt>
      <trkpt lat="43.76245" lon="3.55446">
        <ele>464</ele>
        <time>2019-01-10T12:36:40Z</time>
      </trkpt>
      <trkpt lat="43.7625" lon="3.55442">
        <ele>464</ele>
        <time>2019-01-10T12:36:40Z</time>
      </trkpt>
      <trkpt lat="43.76252" lon="3.55437">
        <ele>464</ele>
        <time>2019-01-10T12:36:56Z</time>
      </trkpt>
      <trkpt lat="43.76253" lon="3.55436">
        <ele>464</ele>
        <time>2019-01-10T12:36:56Z</time>
      </trkpt>
      <trkpt lat="43.76255" lon="3.55433">
        <ele>464</ele>
        <time>2019-01-10T12:36:56Z</time>
      </trkpt>
      <trkpt lat="43.76258" lon="3.55427">
        <ele>464</ele>
        <time>2019-01-10T12:36:56Z</time>
      </trkpt>
      <trkpt lat="43.7626" lon="3.55423">
        <ele>464</ele>
        <time>2019-01-10T12:37:24Z</time>
      </trkpt>
      <trkpt lat="43.76263" lon="3.5542">
        <ele>464</ele>
        <time>2019-01-10T12:37:24Z</time>
      </trkpt>
      <trkpt lat="43.76266" lon="3.55418">
        <ele>464</ele>
        <time>2019-01-10T12:37:24Z</time>
      </trkpt>
      <trkpt lat="43.76268" lon="3.55417">
        <ele>464</ele>
        <time>2019-01-10T12:37:24Z</time>
      </trkpt>
      <trkpt lat="43.76271" lon="3.55416">
        <ele>464</ele>
        <time>2019-01-10T12:37:48Z</time>
      </trkpt>
      <trkpt lat="43.76275" lon="3.55413">
        <ele>464</ele>
        <time>2019-01-10T12:37:48Z</time>
      </trkpt>
      <trkpt lat="43.76278" lon="3.55411">
        <ele>464</ele>
        <time>2019-01-10T12:37:48Z</time>
      </trkpt>
      <trkpt lat="43.76282" lon="3.5541">
        <ele>464</ele>
        <time>2019-01-10T12:37:48Z</time>
      </trkpt>
      <trkpt lat="43.76297" lon="3.55404">
        <ele>476</ele>
        <time>2019-01-10T12:38:04Z</time>
      </trkpt>
      <trkpt lat="43.76301" lon="3.55402">
        <ele>476</ele>
        <time>2019-01-10T12:38:04Z</time>
      </trkpt>
      <trkpt lat="43.76307" lon="3.554">
        <ele>476</ele>
        <time>2019-01-10T12:38:04Z</time>
      </trkpt>
      <trkpt lat="43.7631" lon="3.554">
        <ele>476</ele>
        <time>2019-01-10T12:38:04Z</time>
      </trkpt>
      <trkpt lat="43.76312" lon="3.55401">
        <ele>476</ele>
        <time>2019-01-10T12:38:24Z</time>
      </trkpt>
      <trkpt lat="43.76314" lon="3.55404">
        <ele>476</ele>
        <time>2019-01-10T12:38:24Z</time>
      </trkpt>
      <trkpt lat="43.76317" lon="3.55405">
        <ele>476</ele>
        <time>2019-01-10T12:38:24Z</time>
      </trkpt>
      <trkpt lat="43.7632" lon="3.55408">
        <ele>476</ele>
        <time>2019-01-10T12:38:24Z</time>
      </trkpt>
      <trkpt lat="43.76321" lon="3.55408">
        <ele>476</ele>
        <time>2019-01-10T12:38:24Z</time>
      </trkpt>
      <trkpt lat="43.76323" lon="3.55414">
        <ele>476</ele>
        <time>2019-01-10T12:38:40Z</time>
      </trkpt>
      <trkpt lat="43.76325" lon="3.5542">
        <ele>476</ele>
        <time>2019-01-10T12:38:40Z</time>
      </trkpt>
      <trkpt lat="43.76326" lon="3.55423">
        <ele>476</ele>
        <time>2019-01-10T12:38:40Z</time>
      </trkpt>
      <trkpt lat="43.76329" lon="3.55426">
        <ele>476</ele>
        <time>2019-01-10T12:38:40Z</time>
      </trkpt>
      <trkpt lat="43.76332" lon="3.55428">
        <ele>476</ele>
        <time>2019-01-10T12:39:00Z</time>
      </trkpt>
      <trkpt lat="43.76335" lon="3.5543">
        <ele>476</ele>
        <time>2019-01-10T12:39:00Z</time>
      </trkpt>
      <trkpt lat="43.76337" lon="3.55431">
        <ele>476</ele>
        <time>2019-01-10T12:39:00Z</time>
      </trkpt>
      <trkpt lat="43.76339" lon="3.55431">
        <ele>476</ele>
        <time>2019-01-10T12:39:00Z</time>
      </trkpt>
      <trkpt lat="43.76341" lon="3.55431">
        <ele>476</ele>
        <time>2019-01-10T12:39:00Z</time>
      </trkpt>
      <trkpt lat="43.76344" lon="3.5543">
        <ele>476</ele>
        <time>2019-01-10T12:39:24Z</time>
      </trkpt>
      <trkpt lat="43.76345" lon="3.55431">
        <ele>476</ele>
        <time>2019-01-10T12:39:24Z</time>
      </trkpt>
      <trkpt lat="43.76348" lon="3.55431">
        <ele>476</ele>
        <time>2019-01-10T12:39:24Z</time>
      </trkpt>
      <trkpt lat="43.76352" lon="3.55433">
        <ele>476</ele>
        <time>2019-01-10T12:39:24Z</time>
      </trkpt>
      <trkpt lat="43.76355" lon="3.55435">
        <ele>476</ele>
        <time>2019-01-10T12:39:24Z</time>
      </trkpt>
      <trkpt lat="43.76357" lon="3.55436">
        <ele>476</ele>
        <time>2019-01-10T12:40:40Z</time>
      </trkpt>
      <trkpt lat="43.7636" lon="3.55436">
        <ele>476</ele>
        <time>2019-01-10T12:40:40Z</time>
      </trkpt>
      <trkpt lat="43.76362" lon="3.55436">
        <ele>476</ele>
        <time>2019-01-10T12:40:40Z</time>
      </trkpt>
      <trkpt lat="43.76364" lon="3.55437">
        <ele>476</ele>
        <time>2019-01-10T12:40:40Z</time>
      </trkpt>
      <trkpt lat="43.76366" lon="3.55437">
        <ele>476</ele>
        <time>2019-01-10T12:40:40Z</time>
      </trkpt>
      <trkpt lat="43.76368" lon="3.55437">
        <ele>476</ele>
        <time>2019-01-10T12:41:16Z</time>
      </trkpt>
      <trkpt lat="43.76373" lon="3.55437">
        <ele>476</ele>
        <time>2019-01-10T12:41:16Z</time>
      </trkpt>
      <trkpt lat="43.76376" lon="3.55437">
        <ele>509</ele>
        <time>2019-01-10T12:41:16Z</time>
      </trkpt>
      <trkpt lat="43.76377" lon="3.55436">
        <ele>509</ele>
        <time>2019-01-10T12:41:16Z</time>
      </trkpt>
      <trkpt lat="43.76379" lon="3.55437">
        <ele>509</ele>
        <time>2019-01-10T12:41:16Z</time>
      </trkpt>
      <trkpt lat="43.76384" lon="3.55437">
        <ele>509</ele>
        <time>2019-01-10T12:41:48Z</time>
      </trkpt>
      <trkpt lat="43.76384" lon="3.55436">
        <ele>509</ele>
        <time>2019-01-10T12:41:48Z</time>
      </trkpt>
      <trkpt lat="43.76384" lon="3.55432">
        <ele>509</ele>
        <time>2019-01-10T12:41:48Z</time>
      </trkpt>
      <trkpt lat="43.76383" lon="3.55427">
        <ele>509</ele>
        <time>2019-01-10T12:41:48Z</time>
      </trkpt>
      <trkpt lat="43.76382" lon="3.55426">
        <ele>509</ele>
        <time>2019-01-10T12:41:48Z</time>
      </trkpt>
      <trkpt lat="43.76379" lon="3.55423">
        <ele>509</ele>
        <time>2019-01-10T12:42:08Z</time>
      </trkpt>
      <trkpt lat="43.76376" lon="3.55419">
        <ele>509</ele>
        <time>2019-01-10T12:42:08Z</time>
      </trkpt>
      <trkpt lat="43.76373" lon="3.55417">
        <ele>476</ele>
        <time>2019-01-10T12:42:08Z</time>
      </trkpt>
      <trkpt lat="43.76373" lon="3.55416">
        <ele>476</ele>
        <time>2019-01-10T12:42:08Z</time>
      </trkpt>
      <trkpt lat="43.7637" lon="3.55408">
        <ele>476</ele>
        <time>2019-01-10T12:42:08Z</time>
      </trkpt>
      <trkpt lat="43.76369" lon="3.55403">
        <ele>476</ele>
        <time>2019-01-10T12:42:36Z</time>
      </trkpt>
      <trkpt lat="43.76369" lon="3.55403">
        <ele>476</ele>
        <time>2019-01-10T12:42:36Z</time>
      </trkpt>
      <trkpt lat="43.76366" lon="3.554">
        <ele>476</ele>
        <time>2019-01-10T12:42:36Z</time>
      </trkpt>
      <trkpt lat="43.76359" lon="3.55395">
        <ele>476</ele>
        <time>2019-01-10T12:42:36Z</time>
      </trkpt>
      <trkpt lat="43.76358" lon="3.5539">
        <ele>476</ele>
        <time>2019-01-10T12:43:36Z</time>
      </trkpt>
      <trkpt lat="43.76362" lon="3.5539">
        <ele>476</ele>
        <time>2019-01-10T12:43:36Z</time>
      </trkpt>
      <trkpt lat="43.76363" lon="3.5539">
        <ele>476</ele>
        <time>2019-01-10T12:43:36Z</time>
      </trkpt>
      <trkpt lat="43.76367" lon="3.55392">
        <ele>476</ele>
        <time>2019-01-10T12:43:36Z</time>
      </trkpt>
      <trkpt lat="43.7637" lon="3.55394">
        <ele>476</ele>
        <time>2019-01-10T12:43:36Z</time>
      </trkpt>
      <trkpt lat="43.76374" lon="3.55398">
        <ele>476</ele>
        <time>2019-01-10T12:44:00Z</time>
      </trkpt>
      <trkpt lat="43.76377" lon="3.55399">
        <ele>509</ele>
        <time>2019-01-10T12:44:00Z</time>
      </trkpt>
      <trkpt lat="43.76379" lon="3.554">
        <ele>509</ele>
        <time>2019-01-10T12:44:00Z</time>
      </trkpt>
      <trkpt lat="43.76383" lon="3.55404">
        <ele>509</ele>
        <time>2019-01-10T12:44:00Z</time>
      </trkpt>
      <trkpt lat="43.76388" lon="3.55407">
        <ele>509</ele>
        <time>2019-01-10T12:44:20Z</time>
      </trkpt>
      <trkpt lat="43.76392" lon="3.5541">
        <ele>509</ele>
        <time>2019-01-10T12:44:20Z</time>
      </trkpt>
      <trkpt lat="43.76394" lon="3.55411">
        <ele>509</ele>
        <time>2019-01-10T12:44:20Z</time>
      </trkpt>
      <trkpt lat="43.76395" lon="3.55413">
        <ele>509</ele>
        <time>2019-01-10T12:44:20Z</time>
      </trkpt>
      <trkpt lat="43.76401" lon="3.55417">
        <ele>509</ele>
        <time>2019-01-10T12:44:20Z</time>
      </trkpt>
      <trkpt lat="43.76405" lon="3.5542">
        <ele>509</ele>
        <time>2019-01-10T12:44:40Z</time>
      </trkpt>
      <trkpt lat="43.76408" lon="3.5542">
        <ele>509</ele>
        <time>2019-01-10T12:44:40Z</time>
      </trkpt>
      <trkpt lat="43.76412" lon="3.55425">
        <ele>509</ele>
        <time>2019-01-10T12:44:40Z</time>
      </trkpt>
      <trkpt lat="43.76414" lon="3.55431">
        <ele>509</ele>
        <time>2019-01-10T12:44:40Z</time>
      </trkpt>
      <trkpt lat="43.76415" lon="3.55436">
        <ele>509</ele>
        <time>2019-01-10T12:45:08Z</time>
      </trkpt>
      <trkpt lat="43.76416" lon="3.5544">
        <ele>509</ele>
        <time>2019-01-10T12:45:08Z</time>
      </trkpt>
      <trkpt lat="43.76418" lon="3.55445">
        <ele>509</ele>
        <time>2019-01-10T12:45:08Z</time>
      </trkpt>
      <trkpt lat="43.76422" lon="3.55452">
        <ele>509</ele>
        <time>2019-01-10T12:45:08Z</time>
      </trkpt>
      <trkpt lat="43.76425" lon="3.55456">
        <ele>509</ele>
        <time>2019-01-10T12:45:24Z</time>
      </trkpt>
      <trkpt lat="43.76427" lon="3.5546">
        <ele>488</ele>
        <time>2019-01-10T12:45:24Z</time>
      </trkpt>
      <trkpt lat="43.7643" lon="3.55463">
        <ele>488</ele>
        <time>2019-01-10T12:45:24Z</time>
      </trkpt>
      <trkpt lat="43.76432" lon="3.55464">
        <ele>488</ele>
        <time>2019-01-10T12:45:24Z</time>
      </trkpt>
      <trkpt lat="43.76435" lon="3.55466">
        <ele>488</ele>
        <time>2019-01-10T12:45:52Z</time>
      </trkpt>
      <trkpt lat="43.76437" lon="3.55466">
        <ele>488</ele>
        <time>2019-01-10T12:45:52Z</time>
      </trkpt>
      <trkpt lat="43.76441" lon="3.55465">
        <ele>488</ele>
        <time>2019-01-10T12:45:52Z</time>
      </trkpt>
      <trkpt lat="43.76442" lon="3.55464">
        <ele>488</ele>
        <time>2019-01-10T12:45:52Z</time>
      </trkpt>
      <trkpt lat="43.76446" lon="3.55463">
        <ele>488</ele>
        <time>2019-01-10T12:45:52Z</time>
      </trkpt>
      <trkpt lat="43.76452" lon="3.55461">
        <ele>488</ele>
        <time>2019-01-10T12:46:08Z</time>
      </trkpt>
      <trkpt lat="43.76459" lon="3.5546">
        <ele>513</ele>
        <time>2019-01-10T12:46:08Z</time>
      </trkpt>
      <trkpt lat="43.76464" lon="3.55459">
        <ele>513</ele>
        <time>2019-01-10T12:46:08Z</time>
      </trkpt>
      <trkpt lat="43.76467" lon="3.55457">
        <ele>537</ele>
        <time>2019-01-10T12:46:08Z</time>
      </trkpt>
      <trkpt lat="43.76469" lon="3.55455">
        <ele>537</ele>
        <time>2019-01-10T12:46:32Z</time>
      </trkpt>
      <trkpt lat="43.76475" lon="3.55454">
        <ele>537</ele>
        <time>2019-01-10T12:46:32Z</time>
      </trkpt>
      <trkpt lat="43.7648" lon="3.55452">
        <ele>537</ele>
        <time>2019-01-10T12:46:32Z</time>
      </trkpt>
      <trkpt lat="43.76484" lon="3.55452">
        <ele>537</ele>
        <time>2019-01-10T12:46:32Z</time>
      </trkpt>
      <trkpt lat="43.76487" lon="3.55452">
        <ele>537</ele>
        <time>2019-01-10T12:47:04Z</time>
      </trkpt>
      <trkpt lat="43.7649" lon="3.55452">
        <ele>537</ele>
        <time>2019-01-10T12:47:04Z</time>
      </trkpt>
      <trkpt lat="43.76493" lon="3.55449">
        <ele>537</ele>
        <time>2019-01-10T12:47:04Z</time>
      </trkpt>
      <trkpt lat="43.76493" lon="3.55449">
        <ele>537</ele>
        <time>2019-01-10T12:47:04Z</time>
      </trkpt>
      <trkpt lat="43.76499" lon="3.55448">
        <ele>537</ele>
        <time>2019-01-10T12:47:04Z</time>
      </trkpt>
      <trkpt lat="43.765" lon="3.55448">
        <ele>537</ele>
        <time>2019-01-10T12:47:20Z</time>
      </trkpt>
      <trkpt lat="43.76504" lon="3.55447">
        <ele>537</ele>
        <time>2019-01-10T12:47:20Z</time>
      </trkpt>
      <trkpt lat="43.76509" lon="3.55446">
        <ele>537</ele>
        <time>2019-01-10T12:47:20Z</time>
      </trkpt>
      <trkpt lat="43.76514" lon="3.55445">
        <ele>537</ele>
        <time>2019-01-10T12:47:20Z</time>
      </trkpt>
      <trkpt lat="43.76514" lon="3.55445">
        <ele>537</ele>
        <time>2019-01-10T12:47:36Z</time>
      </trkpt>
      <trkpt lat="43.76519" lon="3.55446">
        <ele>537</ele>
        <time>2019-01-10T12:47:36Z</time>
      </trkpt>
      <trkpt lat="43.76525" lon="3.55447">
        <ele>537</ele>
        <time>2019-01-10T12:47:36Z</time>
      </trkpt>
      <trkpt lat="43.76529" lon="3.55447">
        <ele>537</ele>
        <time>2019-01-10T12:47:36Z</time>
      </trkpt>
      <trkpt lat="43.76533" lon="3.55448">
        <ele>537</ele>
        <time>2019-01-10T12:47:52Z</time>
      </trkpt>
      <trkpt lat="43.76537" lon="3.55452">
        <ele>537</ele>
        <time>2019-01-10T12:47:52Z</time>
      </trkpt>
      <trkpt lat="43.76539" lon="3.55454">
        <ele>537</ele>
        <time>2019-01-10T12:47:52Z</time>
      </trkpt>
      <trkpt lat="43.76543" lon="3.55456">
        <ele>560</ele>
        <time>2019-01-10T12:47:52Z</time>
      </trkpt>
      <trkpt lat="43.76547" lon="3.55457">
        <ele>560</ele>
        <time>2019-01-10T12:48:08Z</time>
      </trkpt>
      <trkpt lat="43.76552" lon="3.55459">
        <ele>533</ele>
        <time>2019-01-10T12:48:08Z</time>
      </trkpt>
      <trkpt lat="43.76554" lon="3.55463">
        <ele>533</ele>
        <time>2019-01-10T12:48:08Z</time>
      </trkpt>
      <trkpt lat="43.76557" lon="3.55467">
        <ele>533</ele>
        <time>2019-01-10T12:48:08Z</time>
      </trkpt>
      <trkpt lat="43.7656" lon="3.55469">
        <ele>533</ele>
        <time>2019-01-10T12:48:28Z</time>
      </trkpt>
      <trkpt lat="43.76562" lon="3.55471">
        <ele>533</ele>
        <time>2019-01-10T12:48:28Z</time>
      </trkpt>
      <trkpt lat="43.76564" lon="3.55474">
        <ele>533</ele>
        <time>2019-01-10T12:48:28Z</time>
      </trkpt>
      <trkpt lat="43.76566" lon="3.55476">
        <ele>533</ele>
        <time>2019-01-10T12:48:28Z</time>
      </trkpt>
      <trkpt lat="43.7657" lon="3.55477">
        <ele>533</ele>
        <time>2019-01-10T12:48:28Z</time>
      </trkpt>
      <trkpt lat="43.76574" lon="3.55478">
        <ele>533</ele>
        <time>2019-01-10T12:48:48Z</time>
      </trkpt>
      <trkpt lat="43.76576" lon="3.55477">
        <ele>533</ele>
        <time>2019-01-10T12:48:48Z</time>
      </trkpt>
      <trkpt lat="43.7658" lon="3.55476">
        <ele>533</ele>
        <time>2019-01-10T12:48:48Z</time>
      </trkpt>
      <trkpt lat="43.76581" lon="3.55475">
        <ele>533</ele>
        <time>2019-01-10T12:48:48Z</time>
      </trkpt>
      <trkpt lat="43.76584" lon="3.55475">
        <ele>533</ele>
        <time>2019-01-10T12:48:48Z</time>
      </trkpt>
      <trkpt lat="43.76587" lon="3.55475">
        <ele>533</ele>
        <time>2019-01-10T12:49:12Z</time>
      </trkpt>
      <trkpt lat="43.76589" lon="3.55475">
        <ele>533</ele>
        <time>2019-01-10T12:49:12Z</time>
      </trkpt>
      <trkpt lat="43.7659" lon="3.55476">
        <ele>533</ele>
        <time>2019-01-10T12:49:12Z</time>
      </trkpt>
      <trkpt lat="43.76594" lon="3.55477">
        <ele>533</ele>
        <time>2019-01-10T12:49:12Z</time>
      </trkpt>
      <trkpt lat="43.76598" lon="3.55478">
        <ele>533</ele>
        <time>2019-01-10T12:49:12Z</time>
      </trkpt>
      <trkpt lat="43.76601" lon="3.55481">
        <ele>533</ele>
        <time>2019-01-10T12:49:28Z</time>
      </trkpt>
      <trkpt lat="43.76604" lon="3.55486">
        <ele>533</ele>
        <time>2019-01-10T12:49:28Z</time>
      </trkpt>
      <trkpt lat="43.76605" lon="3.55491">
        <ele>533</ele>
        <time>2019-01-10T12:49:28Z</time>
      </trkpt>
      <trkpt lat="43.76605" lon="3.55495">
        <ele>533</ele>
        <time>2019-01-10T12:49:28Z</time>
      </trkpt>
      <trkpt lat="43.76605" lon="3.55499">
        <ele>533</ele>
        <time>2019-01-10T12:49:44Z</time>
      </trkpt>
      <trkpt lat="43.76604" lon="3.55504">
        <ele>533</ele>
        <time>2019-01-10T12:49:44Z</time>
      </trkpt>
      <trkpt lat="43.76603" lon="3.55509">
        <ele>533</ele>
        <time>2019-01-10T12:49:44Z</time>
      </trkpt>
      <trkpt lat="43.76601" lon="3.55514">
        <ele>533</ele>
        <time>2019-01-10T12:49:44Z</time>
      </trkpt>
      <trkpt lat="43.766" lon="3.5552">
        <ele>533</ele>
        <time>2019-01-10T12:50:00Z</time>
      </trkpt>
      <trkpt lat="43.766" lon="3.55526">
        <ele>533</ele>
        <time>2019-01-10T12:50:00Z</time>
      </trkpt>
      <trkpt lat="43.76601" lon="3.5553">
        <ele>533</ele>
        <time>2019-01-10T12:50:00Z</time>
      </trkpt>
      <trkpt lat="43.76602" lon="3.55535">
        <ele>533</ele>
        <time>2019-01-10T12:50:00Z</time>
      </trkpt>
      <trkpt lat="43.76603" lon="3.5554">
        <ele>533</ele>
        <time>2019-01-10T12:50:20Z</time>
      </trkpt>
      <trkpt lat="43.76604" lon="3.55543">
        <ele>537</ele>
        <time>2019-01-10T12:50:20Z</time>
      </trkpt>
      <trkpt lat="43.76606" lon="3.55546">
        <ele>537</ele>
        <time>2019-01-10T12:50:20Z</time>
      </trkpt>
      <trkpt lat="43.76607" lon="3.5555">
        <ele>537</ele>
        <time>2019-01-10T12:50:20Z</time>
      </trkpt>
      <trkpt lat="43.76608" lon="3.55553">
        <ele>537</ele>
        <time>2019-01-10T12:50:20Z</time>
      </trkpt>
      <trkpt lat="43.7661" lon="3.55558">
        <ele>537</ele>
        <time>2019-01-10T12:50:36Z</time>
      </trkpt>
      <trkpt lat="43.76611" lon="3.55562">
        <ele>537</ele>
        <time>2019-01-10T12:50:36Z</time>
      </trkpt>
      <trkpt lat="43.7661" lon="3.55567">
        <ele>537</ele>
        <time>2019-01-10T12:50:36Z</time>
      </trkpt>
      <trkpt lat="43.7661" lon="3.55573">
        <ele>537</ele>
        <time>2019-01-10T12:50:36Z</time>
      </trkpt>
      <trkpt lat="43.76612" lon="3.55577">
        <ele>537</ele>
        <time>2019-01-10T12:50:56Z</time>
      </trkpt>
      <trkpt lat="43.76612" lon="3.5558">
        <ele>537</ele>
        <time>2019-01-10T12:50:56Z</time>
      </trkpt>
      <trkpt lat="43.76612" lon="3.55583">
        <ele>537</ele>
        <time>2019-01-10T12:50:56Z</time>
      </trkpt>
      <trkpt lat="43.76613" lon="3.55587">
        <ele>537</ele>
        <time>2019-01-10T12:50:56Z</time>
      </trkpt>
      <trkpt lat="43.76615" lon="3.55591">
        <ele>537</ele>
        <time>2019-01-10T12:50:56Z</time>
      </trkpt>
      <trkpt lat="43.76615" lon="3.55593">
        <ele>537</ele>
        <time>2019-01-10T12:51:12Z</time>
      </trkpt>
      <trkpt lat="43.76614" lon="3.55599">
        <ele>537</ele>
        <time>2019-01-10T12:51:12Z</time>
      </trkpt>
      <trkpt lat="43.76615" lon="3.55603">
        <ele>537</ele>
        <time>2019-01-10T12:51:12Z</time>
      </trkpt>
      <trkpt lat="43.76614" lon="3.55607">
        <ele>537</ele>
        <time>2019-01-10T12:51:12Z</time>
      </trkpt>
      <trkpt lat="43.76614" lon="3.55611">
        <ele>537</ele>
        <time>2019-01-10T12:51:32Z</time>
      </trkpt>
      <trkpt lat="43.76615" lon="3.55614">
        <ele>537</ele>
        <time>2019-01-10T12:51:32Z</time>
      </trkpt>
      <trkpt lat="43.76615" lon="3.55615">
        <ele>537</ele>
        <time>2019-01-10T12:51:32Z</time>
      </trkpt>
      <trkpt lat="43.76617" lon="3.55621">
        <ele>537</ele>
        <time>2019-01-10T12:51:32Z</time>
      </trkpt>
      <trkpt lat="43.76618" lon="3.55623">
        <ele>537</ele>
        <time>2019-01-10T12:51:32Z</time>
      </trkpt>
      <trkpt lat="43.76619" lon="3.55627">
        <ele>553</ele>
        <time>2019-01-10T12:51:52Z</time>
      </trkpt>
      <trkpt lat="43.76621" lon="3.5563">
        <ele>553</ele>
        <time>2019-01-10T12:51:52Z</time>
      </trkpt>
      <trkpt lat="43.76624" lon="3.55635">
        <ele>553</ele>
        <time>2019-01-10T12:51:52Z</time>
      </trkpt>
      <trkpt lat="43.76626" lon="3.55638">
        <ele>581</ele>
        <time>2019-01-10T12:51:52Z</time>
      </trkpt>
      <trkpt lat="43.76627" lon="3.5564">
        <ele>581</ele>
        <time>2019-01-10T12:52:16Z</time>
      </trkpt>
      <trkpt lat="43.76628" lon="3.55645">
        <ele>581</ele>
        <time>2019-01-10T12:52:16Z</time>
      </trkpt>
      <trkpt lat="43.76631" lon="3.55654">
        <ele>581</ele>
        <time>2019-01-10T12:52:16Z</time>
      </trkpt>
      <trkpt lat="43.76632" lon="3.55658">
        <ele>581</ele>
        <time>2019-01-10T12:52:16Z</time>
      </trkpt>
      <trkpt lat="43.76633" lon="3.55663">
        <ele>581</ele>
        <time>2019-01-10T12:52:32Z</time>
      </trkpt>
      <trkpt lat="43.76634" lon="3.55664">
        <ele>581</ele>
        <time>2019-01-10T12:52:32Z</time>
      </trkpt>
      <trkpt lat="43.76638" lon="3.5567">
        <ele>581</ele>
        <time>2019-01-10T12:52:32Z</time>
      </trkpt>
      <trkpt lat="43.7664" lon="3.55675">
        <ele>581</ele>
        <time>2019-01-10T12:52:32Z</time>
      </trkpt>
      <trkpt lat="43.76642" lon="3.55678">
        <ele>581</ele>
        <time>2019-01-10T12:53:04Z</time>
      </trkpt>
      <trkpt lat="43.76643" lon="3.5568">
        <ele>581</ele>
        <time>2019-01-10T12:53:04Z</time>
      </trkpt>
      <trkpt lat="43.76644" lon="3.55684">
        <ele>581</ele>
        <time>2019-01-10T12:53:04Z</time>
      </trkpt>
      <trkpt lat="43.76647" lon="3.55688">
        <ele>581</ele>
        <time>2019-01-10T12:53:04Z</time>
      </trkpt>
      <trkpt lat="43.76648" lon="3.55691">
        <ele>581</ele>
        <time>2019-01-10T12:53:04Z</time>
      </trkpt>
      <trkpt lat="43.76651" lon="3.55699">
        <ele>581</ele>
        <time>2019-01-10T12:53:32Z</time>
      </trkpt>
      <trkpt lat="43.76652" lon="3.557">
        <ele>581</ele>
        <time>2019-01-10T12:53:32Z</time>
      </trkpt>
      <trkpt lat="43.76653" lon="3.55701">
        <ele>581</ele>
        <time>2019-01-10T12:53:32Z</time>
      </trkpt>
      <trkpt lat="43.76654" lon="3.55702">
        <ele>581</ele>
        <time>2019-01-10T12:53:32Z</time>
      </trkpt>
      <trkpt lat="43.76656" lon="3.55704">
        <ele>581</ele>
        <time>2019-01-10T12:53:32Z</time>
      </trkpt>
      <trkpt lat="43.76664" lon="3.55709">
        <ele>575</ele>
        <time>2019-01-10T12:54:08Z</time>
      </trkpt>
      <trkpt lat="43.76665" lon="3.55705">
        <ele>581</ele>
        <time>2019-01-10T12:54:08Z</time>
      </trkpt>
      <trkpt lat="43.76666" lon="3.557">
        <ele>581</ele>
        <time>2019-01-10T12:54:08Z</time>
      </trkpt>
      <trkpt lat="43.76667" lon="3.55696">
        <ele>581</ele>
        <time>2019-01-10T12:54:08Z</time>
      </trkpt>
      <trkpt lat="43.76667" lon="3.5569">
        <ele>581</ele>
        <time>2019-01-10T12:54:08Z</time>
      </trkpt>
      <trkpt lat="43.76666" lon="3.55685">
        <ele>581</ele>
        <time>2019-01-10T12:54:24Z</time>
      </trkpt>
      <trkpt lat="43.76666" lon="3.55681">
        <ele>581</ele>
        <time>2019-01-10T12:54:24Z</time>
      </trkpt>
      <trkpt lat="43.76667" lon="3.55675">
        <ele>581</ele>
        <time>2019-01-10T12:54:24Z</time>
      </trkpt>
      <trkpt lat="43.76667" lon="3.5567">
        <ele>581</ele>
        <time>2019-01-10T12:54:24Z</time>
      </trkpt>
      <trkpt lat="43.76665" lon="3.55665">
        <ele>581</ele>
        <time>2019-01-10T12:54:40Z</time>
      </trkpt>
      <trkpt lat="43.76665" lon="3.5566">
        <ele>581</ele>
        <time>2019-01-10T12:54:40Z</time>
      </trkpt>
      <trkpt lat="43.76665" lon="3.55657">
        <ele>581</ele>
        <time>2019-01-10T12:54:40Z</time>
      </trkpt>
      <trkpt lat="43.76666" lon="3.55652">
        <ele>581</ele>
        <time>2019-01-10T12:54:40Z</time>
      </trkpt>
      <trkpt lat="43.76666" lon="3.55646">
        <ele>581</ele>
        <time>2019-01-10T12:54:56Z</time>
      </trkpt>
      <trkpt lat="43.76666" lon="3.55641">
        <ele>581</ele>
        <time>2019-01-10T12:54:56Z</time>
      </trkpt>
      <trkpt lat="43.76665" lon="3.55637">
        <ele>581</ele>
        <time>2019-01-10T12:54:56Z</time>
      </trkpt>
      <trkpt lat="43.76666" lon="3.55631">
        <ele>581</ele>
        <time>2019-01-10T12:54:56Z</time>
      </trkpt>
      <trkpt lat="43.76668" lon="3.55626">
        <ele>581</ele>
        <time>2019-01-10T12:55:12Z</time>
      </trkpt>
      <trkpt lat="43.76669" lon="3.55621">
        <ele>583</ele>
        <time>2019-01-10T12:55:12Z</time>
      </trkpt>
      <trkpt lat="43.76671" lon="3.55618">
        <ele>583</ele>
        <time>2019-01-10T12:55:12Z</time>
      </trkpt>
      <trkpt lat="43.76671" lon="3.55614">
        <ele>583</ele>
        <time>2019-01-10T12:55:12Z</time>
      </trkpt>
      <trkpt lat="43.76671" lon="3.5561">
        <ele>583</ele>
        <time>2019-01-10T12:55:28Z</time>
      </trkpt>
      <trkpt lat="43.76672" lon="3.55606">
        <ele>583</ele>
        <time>2019-01-10T12:55:28Z</time>
      </trkpt>
      <trkpt lat="43.76674" lon="3.55603">
        <ele>583</ele>
        <time>2019-01-10T12:55:28Z</time>
      </trkpt>
      <trkpt lat="43.76676" lon="3.55599">
        <ele>583</ele>
        <time>2019-01-10T12:55:28Z</time>
      </trkpt>
      <trkpt lat="43.76678" lon="3.55596">
        <ele>583</ele>
        <time>2019-01-10T12:55:48Z</time>
      </trkpt>
      <trkpt lat="43.76678" lon="3.55595">
        <ele>583</ele>
        <time>2019-01-10T12:55:48Z</time>
      </trkpt>
      <trkpt lat="43.76679" lon="3.55593">
        <ele>583</ele>
        <time>2019-01-10T12:55:48Z</time>
      </trkpt>
      <trkpt lat="43.76681" lon="3.55588">
        <ele>583</ele>
        <time>2019-01-10T12:55:48Z</time>
      </trkpt>
      <trkpt lat="43.76683" lon="3.55582">
        <ele>583</ele>
        <time>2019-01-10T12:55:48Z</time>
      </trkpt>
      <trkpt lat="43.76685" lon="3.55577">
        <ele>583</ele>
        <time>2019-01-10T12:56:04Z</time>
      </trkpt>
      <trkpt lat="43.76687" lon="3.55573">
        <ele>583</ele>
        <time>2019-01-10T12:56:04Z</time>
      </trkpt>
      <trkpt lat="43.76689" lon="3.55568">
        <ele>583</ele>
        <time>2019-01-10T12:56:04Z</time>
      </trkpt>
      <trkpt lat="43.76692" lon="3.55565">
        <ele>583</ele>
        <time>2019-01-10T12:56:04Z</time>
      </trkpt>
      <trkpt lat="43.76695" lon="3.55562">
        <ele>583</ele>
        <time>2019-01-10T12:56:20Z</time>
      </trkpt>
      <trkpt lat="43.76697" lon="3.5556">
        <ele>583</ele>
        <time>2019-01-10T12:56:20Z</time>
      </trkpt>
      <trkpt lat="43.76699" lon="3.55557">
        <ele>583</ele>
        <time>2019-01-10T12:56:20Z</time>
      </trkpt>
      <trkpt lat="43.76701" lon="3.55553">
        <ele>583</ele>
        <time>2019-01-10T12:56:20Z</time>
      </trkpt>
      <trkpt lat="43.76704" lon="3.55549">
        <ele>583</ele>
        <time>2019-01-10T12:56:40Z</time>
      </trkpt>
      <trkpt lat="43.76706" lon="3.55546">
        <ele>583</ele>
        <time>2019-01-10T12:56:40Z</time>
      </trkpt>
      <trkpt lat="43.76706" lon="3.55544">
        <ele>583</ele>
        <time>2019-01-10T12:56:40Z</time>
      </trkpt>
      <trkpt lat="43.76707" lon="3.55539">
        <ele>576</ele>
        <time>2019-01-10T12:56:40Z</time>
      </trkpt>
      <trkpt lat="43.76708" lon="3.55536">
        <ele>576</ele>
        <time>2019-01-10T12:56:40Z</time>
      </trkpt>
      <trkpt lat="43.76708" lon="3.55531">
        <ele>576</ele>
        <time>2019-01-10T12:56:56Z</time>
      </trkpt>
      <trkpt lat="43.76707" lon="3.55524">
        <ele>576</ele>
        <time>2019-01-10T12:56:56Z</time>
      </trkpt>
      <trkpt lat="43.76707" lon="3.55519">
        <ele>576</ele>
        <time>2019-01-10T12:56:56Z</time>
      </trkpt>
      <trkpt lat="43.76706" lon="3.55515">
        <ele>576</ele>
        <time>2019-01-10T12:56:56Z</time>
      </trkpt>
      <trkpt lat="43.76706" lon="3.55505">
        <ele>576</ele>
        <time>2019-01-10T12:58:36Z</time>
      </trkpt>
      <trkpt lat="43.76707" lon="3.55505">
        <ele>576</ele>
        <time>2019-01-10T12:58:36Z</time>
      </trkpt>
      <trkpt lat="43.76708" lon="3.55503">
        <ele>576</ele>
        <time>2019-01-10T12:58:36Z</time>
      </trkpt>
      <trkpt lat="43.76709" lon="3.55501">
        <ele>609</ele>
        <time>2019-01-10T12:58:36Z</time>
      </trkpt>
      <trkpt lat="43.76711" lon="3.55492">
        <ele>609</ele>
        <time>2019-01-10T12:58:36Z</time>
      </trkpt>
      <trkpt lat="43.76712" lon="3.55484">
        <ele>609</ele>
        <time>2019-01-10T12:58:52Z</time>
      </trkpt>
      <trkpt lat="43.76709" lon="3.55475">
        <ele>609</ele>
        <time>2019-01-10T12:58:52Z</time>
      </trkpt>
      <trkpt lat="43.76705" lon="3.55468">
        <ele>576</ele>
        <time>2019-01-10T12:58:52Z</time>
      </trkpt>
      <trkpt lat="43.76701" lon="3.55462">
        <ele>576</ele>
        <time>2019-01-10T12:58:52Z</time>
      </trkpt>
      <trkpt lat="43.76701" lon="3.55457">
        <ele>589</ele>
        <time>2019-01-10T12:59:08Z</time>
      </trkpt>
      <trkpt lat="43.767" lon="3.55452">
        <ele>589</ele>
        <time>2019-01-10T12:59:08Z</time>
      </trkpt>
      <trkpt lat="43.76699" lon="3.55447">
        <ele>589</ele>
        <time>2019-01-10T12:59:08Z</time>
      </trkpt>
      <trkpt lat="43.76698" lon="3.55442">
        <ele>589</ele>
        <time>2019-01-10T12:59:08Z</time>
      </trkpt>
      <trkpt lat="43.76696" lon="3.55435">
        <ele>589</ele>
        <time>2019-01-10T12:59:24Z</time>
      </trkpt>
      <trkpt lat="43.76695" lon="3.55431">
        <ele>589</ele>
        <time>2019-01-10T12:59:24Z</time>
      </trkpt>
      <trkpt lat="43.76694" lon="3.55426">
        <ele>589</ele>
        <time>2019-01-10T12:59:24Z</time>
      </trkpt>
      <trkpt lat="43.76691" lon="3.55422">
        <ele>589</ele>
        <time>2019-01-10T12:59:24Z</time>
      </trkpt>
      <trkpt lat="43.76688" lon="3.55419">
        <ele>589</ele>
        <time>2019-01-10T12:59:40Z</time>
      </trkpt>
      <trkpt lat="43.76685" lon="3.55416">
        <ele>589</ele>
        <time>2019-01-10T12:59:40Z</time>
      </trkpt>
      <trkpt lat="43.7668" lon="3.55412">
        <ele>589</ele>
        <time>2019-01-10T12:59:40Z</time>
      </trkpt>
      <trkpt lat="43.76678" lon="3.55407">
        <ele>589</ele>
        <time>2019-01-10T12:59:40Z</time>
      </trkpt>
      <trkpt lat="43.76676" lon="3.55403">
        <ele>589</ele>
        <time>2019-01-10T12:59:56Z</time>
      </trkpt>
      <trkpt lat="43.76673" lon="3.554">
        <ele>589</ele>
        <time>2019-01-10T12:59:56Z</time>
      </trkpt>
      <trkpt lat="43.7667" lon="3.55397">
        <ele>589</ele>
        <time>2019-01-10T12:59:56Z</time>
      </trkpt>
      <trkpt lat="43.76667" lon="3.55393">
        <ele>589</ele>
        <time>2019-01-10T12:59:56Z</time>
      </trkpt>
      <trkpt lat="43.76665" lon="3.55388">
        <ele>589</ele>
        <time>2019-01-10T13:00:12Z</time>
      </trkpt>
      <trkpt lat="43.76661" lon="3.55386">
        <ele>589</ele>
        <time>2019-01-10T13:00:12Z</time>
      </trkpt>
      <trkpt lat="43.76657" lon="3.55384">
        <ele>589</ele>
        <time>2019-01-10T13:00:12Z</time>
      </trkpt>
      <trkpt lat="43.7665" lon="3.55379">
        <ele>589</ele>
        <time>2019-01-10T13:00:12Z</time>
      </trkpt>
      <trkpt lat="43.76646" lon="3.55375">
        <ele>609</ele>
        <time>2019-01-10T13:00:28Z</time>
      </trkpt>
      <trkpt lat="43.76641" lon="3.55371">
        <ele>609</ele>
        <time>2019-01-10T13:00:28Z</time>
      </trkpt>
      <trkpt lat="43.76638" lon="3.55369">
        <ele>609</ele>
        <time>2019-01-10T13:00:28Z</time>
      </trkpt>
      <trkpt lat="43.76634" lon="3.55364">
        <ele>609</ele>
        <time>2019-01-10T13:00:28Z</time>
      </trkpt>
      <trkpt lat="43.7663" lon="3.55361">
        <ele>609</ele>
        <time>2019-01-10T13:00:44Z</time>
      </trkpt>
      <trkpt lat="43.76625" lon="3.55359">
        <ele>609</ele>
        <time>2019-01-10T13:00:44Z</time>
      </trkpt>
      <trkpt lat="43.7662" lon="3.55357">
        <ele>591</ele>
        <time>2019-01-10T13:00:44Z</time>
      </trkpt>
      <trkpt lat="43.76617" lon="3.55355">
        <ele>591</ele>
        <time>2019-01-10T13:00:44Z</time>
      </trkpt>
      <trkpt lat="43.76614" lon="3.55353">
        <ele>591</ele>
        <time>2019-01-10T13:01:00Z</time>
      </trkpt>
      <trkpt lat="43.76608" lon="3.55351">
        <ele>591</ele>
        <time>2019-01-10T13:01:00Z</time>
      </trkpt>
      <trkpt lat="43.76604" lon="3.5535">
        <ele>591</ele>
        <time>2019-01-10T13:01:00Z</time>
      </trkpt>
      <trkpt lat="43.76599" lon="3.55345">
        <ele>591</ele>
        <time>2019-01-10T13:01:00Z</time>
      </trkpt>
      <trkpt lat="43.76595" lon="3.55342">
        <ele>591</ele>
        <time>2019-01-10T13:01:16Z</time>
      </trkpt>
      <trkpt lat="43.76591" lon="3.55339">
        <ele>591</ele>
        <time>2019-01-10T13:01:16Z</time>
      </trkpt>
      <trkpt lat="43.76587" lon="3.55334">
        <ele>591</ele>
        <time>2019-01-10T13:01:16Z</time>
      </trkpt>
      <trkpt lat="43.76584" lon="3.5533">
        <ele>591</ele>
        <time>2019-01-10T13:01:16Z</time>
      </trkpt>
      <trkpt lat="43.76581" lon="3.55326">
        <ele>591</ele>
        <time>2019-01-10T13:01:36Z</time>
      </trkpt>
      <trkpt lat="43.7658" lon="3.55326">
        <ele>591</ele>
        <time>2019-01-10T13:01:36Z</time>
      </trkpt>
      <trkpt lat="43.76577" lon="3.55322">
        <ele>591</ele>
        <time>2019-01-10T13:01:36Z</time>
      </trkpt>
      <trkpt lat="43.76575" lon="3.55319">
        <ele>591</ele>
        <time>2019-01-10T13:01:36Z</time>
      </trkpt>
      <trkpt lat="43.76572" lon="3.55317">
        <ele>591</ele>
        <time>2019-01-10T13:01:36Z</time>
      </trkpt>
      <trkpt lat="43.76567" lon="3.55315">
        <ele>591</ele>
        <time>2019-01-10T13:01:52Z</time>
      </trkpt>
      <trkpt lat="43.76563" lon="3.55313">
        <ele>591</ele>
        <time>2019-01-10T13:01:52Z</time>
      </trkpt>
      <trkpt lat="43.76562" lon="3.55312">
        <ele>591</ele>
        <time>2019-01-10T13:01:52Z</time>
      </trkpt>
      <trkpt lat="43.76557" lon="3.5531">
        <ele>591</ele>
        <time>2019-01-10T13:01:52Z</time>
      </trkpt>
      <trkpt lat="43.76555" lon="3.55309">
        <ele>591</ele>
        <time>2019-01-10T13:02:08Z</time>
      </trkpt>
      <trkpt lat="43.76553" lon="3.55307">
        <ele>591</ele>
        <time>2019-01-10T13:02:08Z</time>
      </trkpt>
      <trkpt lat="43.76546" lon="3.55302">
        <ele>591</ele>
        <time>2019-01-10T13:02:08Z</time>
      </trkpt>
      <trkpt lat="43.76541" lon="3.55299">
        <ele>566</ele>
        <time>2019-01-10T13:02:08Z</time>
      </trkpt>
      <trkpt lat="43.76537" lon="3.55296">
        <ele>566</ele>
        <time>2019-01-10T13:02:24Z</time>
      </trkpt>
      <trkpt lat="43.76532" lon="3.55294">
        <ele>566</ele>
        <time>2019-01-10T13:02:24Z</time>
      </trkpt>
      <trkpt lat="43.76527" lon="3.55292">
        <ele>566</ele>
        <time>2019-01-10T13:02:24Z</time>
      </trkpt>
      <trkpt lat="43.76524" lon="3.55288">
        <ele>589</ele>
        <time>2019-01-10T13:02:24Z</time>
      </trkpt>
      <trkpt lat="43.7652" lon="3.55284">
        <ele>589</ele>
        <time>2019-01-10T13:02:40Z</time>
      </trkpt>
      <trkpt lat="43.76517" lon="3.5528">
        <ele>589</ele>
        <time>2019-01-10T13:02:40Z</time>
      </trkpt>
      <trkpt lat="43.76514" lon="3.55275">
        <ele>589</ele>
        <time>2019-01-10T13:02:40Z</time>
      </trkpt>
      <trkpt lat="43.76511" lon="3.55272">
        <ele>589</ele>
        <time>2019-01-10T13:02:40Z</time>
      </trkpt>
      <trkpt lat="43.76508" lon="3.55269">
        <ele>589</ele>
        <time>2019-01-10T13:02:56Z</time>
      </trkpt>
      <trkpt lat="43.76505" lon="3.55264">
        <ele>589</ele>
        <time>2019-01-10T13:02:56Z</time>
      </trkpt>
      <trkpt lat="43.765" lon="3.55259">
        <ele>589</ele>
        <time>2019-01-10T13:02:56Z</time>
      </trkpt>
      <trkpt lat="43.76495" lon="3.55256">
        <ele>589</ele>
        <time>2019-01-10T13:02:56Z</time>
      </trkpt>
      <trkpt lat="43.76489" lon="3.55253">
        <ele>589</ele>
        <time>2019-01-10T13:03:12Z</time>
      </trkpt>
      <trkpt lat="43.76485" lon="3.55251">
        <ele>589</ele>
        <time>2019-01-10T13:03:12Z</time>
      </trkpt>
      <trkpt lat="43.76481" lon="3.55247">
        <ele>589</ele>
        <time>2019-01-10T13:03:12Z</time>
      </trkpt>
      <trkpt lat="43.7648" lon="3.55243">
        <ele>589</ele>
        <time>2019-01-10T13:03:12Z</time>
      </trkpt>
      <trkpt lat="43.76481" lon="3.55238">
        <ele>589</ele>
        <time>2019-01-10T13:03:28Z</time>
      </trkpt>
      <trkpt lat="43.76481" lon="3.55233">
        <ele>589</ele>
        <time>2019-01-10T13:03:28Z</time>
      </trkpt>
      <trkpt lat="43.76481" lon="3.55229">
        <ele>589</ele>
        <time>2019-01-10T13:03:28Z</time>
      </trkpt>
      <trkpt lat="43.7648" lon="3.55223">
        <ele>589</ele>
        <time>2019-01-10T13:03:28Z</time>
      </trkpt>
      <trkpt lat="43.76477" lon="3.55217">
        <ele>589</ele>
        <time>2019-01-10T13:03:44Z</time>
      </trkpt>
      <trkpt lat="43.76477" lon="3.55212">
        <ele>589</ele>
        <time>2019-01-10T13:03:44Z</time>
      </trkpt>
      <trkpt lat="43.76476" lon="3.55206">
        <ele>600</ele>
        <time>2019-01-10T13:03:44Z</time>
      </trkpt>
      <trkpt lat="43.76475" lon="3.55202">
        <ele>600</ele>
        <time>2019-01-10T13:03:44Z</time>
      </trkpt>
      <trkpt lat="43.76472" lon="3.55201">
        <ele>600</ele>
        <time>2019-01-10T13:04:00Z</time>
      </trkpt>
      <trkpt lat="43.76467" lon="3.552">
        <ele>600</ele>
        <time>2019-01-10T13:04:00Z</time>
      </trkpt>
      <trkpt lat="43.76463" lon="3.552">
        <ele>600</ele>
        <time>2019-01-10T13:04:00Z</time>
      </trkpt>
      <trkpt lat="43.7646" lon="3.55201">
        <ele>600</ele>
        <time>2019-01-10T13:04:00Z</time>
      </trkpt>
      <trkpt lat="43.76456" lon="3.55203">
        <ele>586</ele>
        <time>2019-01-10T13:04:16Z</time>
      </trkpt>
      <trkpt lat="43.76452" lon="3.55203">
        <ele>586</ele>
        <time>2019-01-10T13:04:16Z</time>
      </trkpt>
      <trkpt lat="43.76449" lon="3.55199">
        <ele>586</ele>
        <time>2019-01-10T13:04:16Z</time>
      </trkpt>
      <trkpt lat="43.76447" lon="3.55198">
        <ele>586</ele>
        <time>2019-01-10T13:04:16Z</time>
      </trkpt>
      <trkpt lat="43.76446" lon="3.55194">
        <ele>586</ele>
        <time>2019-01-10T13:04:32Z</time>
      </trkpt>
      <trkpt lat="43.76444" lon="3.55191">
        <ele>586</ele>
        <time>2019-01-10T13:04:32Z</time>
      </trkpt>
      <trkpt lat="43.7644" lon="3.55188">
        <ele>586</ele>
        <time>2019-01-10T13:04:32Z</time>
      </trkpt>
      <trkpt lat="43.76436" lon="3.55185">
        <ele>586</ele>
        <time>2019-01-10T13:04:32Z</time>
      </trkpt>
      <trkpt lat="43.76431" lon="3.55181">
        <ele>586</ele>
        <time>2019-01-10T13:04:48Z</time>
      </trkpt>
      <trkpt lat="43.76427" lon="3.55178">
        <ele>586</ele>
        <time>2019-01-10T13:04:48Z</time>
      </trkpt>
      <trkpt lat="43.76423" lon="3.55174">
        <ele>586</ele>
        <time>2019-01-10T13:04:48Z</time>
      </trkpt>
      <trkpt lat="43.7642" lon="3.55171">
        <ele>586</ele>
        <time>2019-01-10T13:04:48Z</time>
      </trkpt>
      <trkpt lat="43.76418" lon="3.55166">
        <ele>586</ele>
        <time>2019-01-10T13:05:04Z</time>
      </trkpt>
      <trkpt lat="43.76416" lon="3.55162">
        <ele>586</ele>
        <time>2019-01-10T13:05:04Z</time>
      </trkpt>
      <trkpt lat="43.76414" lon="3.55159">
        <ele>586</ele>
        <time>2019-01-10T13:05:04Z</time>
      </trkpt>
      <trkpt lat="43.76413" lon="3.55155">
        <ele>586</ele>
        <time>2019-01-10T13:05:04Z</time>
      </trkpt>
      <trkpt lat="43.76412" lon="3.55153">
        <ele>586</ele>
        <time>2019-01-10T13:05:20Z</time>
      </trkpt>
      <trkpt lat="43.76412" lon="3.55146">
        <ele>586</ele>
        <time>2019-01-10T13:05:20Z</time>
      </trkpt>
      <trkpt lat="43.76413" lon="3.55141">
        <ele>586</ele>
        <time>2019-01-10T13:05:20Z</time>
      </trkpt>
      <trkpt lat="43.76413" lon="3.55138">
        <ele>586</ele>
        <time>2019-01-10T13:05:20Z</time>
      </trkpt>
      <trkpt lat="43.76413" lon="3.55134">
        <ele>586</ele>
        <time>2019-01-10T13:05:40Z</time>
      </trkpt>
      <trkpt lat="43.76413" lon="3.55133">
        <ele>586</ele>
        <time>2019-01-10T13:05:40Z</time>
      </trkpt>
      <trkpt lat="43.76413" lon="3.55129">
        <ele>586</ele>
        <time>2019-01-10T13:05:40Z</time>
      </trkpt>
      <trkpt lat="43.76411" lon="3.55124">
        <ele>600</ele>
        <time>2019-01-10T13:05:40Z</time>
      </trkpt>
      <trkpt lat="43.76409" lon="3.5512">
        <ele>600</ele>
        <time>2019-01-10T13:05:40Z</time>
      </trkpt>
      <trkpt lat="43.76408" lon="3.55114">
        <ele>600</ele>
        <time>2019-01-10T13:06:04Z</time>
      </trkpt>
      <trkpt lat="43.76404" lon="3.55113">
        <ele>600</ele>
        <time>2019-01-10T13:06:04Z</time>
      </trkpt>
      <trkpt lat="43.76402" lon="3.55111">
        <ele>600</ele>
        <time>2019-01-10T13:06:04Z</time>
      </trkpt>
      <trkpt lat="43.76397" lon="3.55107">
        <ele>600</ele>
        <time>2019-01-10T13:06:04Z</time>
      </trkpt>
      <trkpt lat="43.76391" lon="3.55104">
        <ele>600</ele>
        <time>2019-01-10T13:06:20Z</time>
      </trkpt>
      <trkpt lat="43.76387" lon="3.55101">
        <ele>600</ele>
        <time>2019-01-10T13:06:20Z</time>
      </trkpt>
      <trkpt lat="43.76381" lon="3.55099">
        <ele>600</ele>
        <time>2019-01-10T13:06:20Z</time>
      </trkpt>
      <trkpt lat="43.7638" lon="3.55098">
        <ele>600</ele>
        <time>2019-01-10T13:06:20Z</time>
      </trkpt>
      <trkpt lat="43.76375" lon="3.55096">
        <ele>600</ele>
        <time>2019-01-10T13:06:36Z</time>
      </trkpt>
      <trkpt lat="43.7637" lon="3.55096">
        <ele>595</ele>
        <time>2019-01-10T13:06:36Z</time>
      </trkpt>
      <trkpt lat="43.76366" lon="3.55096">
        <ele>595</ele>
        <time>2019-01-10T13:06:36Z</time>
      </trkpt>
      <trkpt lat="43.76362" lon="3.55097">
        <ele>595</ele>
        <time>2019-01-10T13:06:36Z</time>
      </trkpt>
      <trkpt lat="43.76361" lon="3.55097">
        <ele>595</ele>
        <time>2019-01-10T13:06:52Z</time>
      </trkpt>
      <trkpt lat="43.76357" lon="3.551">
        <ele>595</ele>
        <time>2019-01-10T13:06:52Z</time>
      </trkpt>
      <trkpt lat="43.76352" lon="3.55101">
        <ele>595</ele>
        <time>2019-01-10T13:06:52Z</time>
      </trkpt>
      <trkpt lat="43.76348" lon="3.55103">
        <ele>595</ele>
        <time>2019-01-10T13:06:52Z</time>
      </trkpt>
      <trkpt lat="43.76342" lon="3.55104">
        <ele>595</ele>
        <time>2019-01-10T13:07:08Z</time>
      </trkpt>
      <trkpt lat="43.76338" lon="3.55107">
        <ele>595</ele>
        <time>2019-01-10T13:07:08Z</time>
      </trkpt>
      <trkpt lat="43.76333" lon="3.5511">
        <ele>595</ele>
        <time>2019-01-10T13:07:08Z</time>
      </trkpt>
      <trkpt lat="43.76327" lon="3.55113">
        <ele>595</ele>
        <time>2019-01-10T13:07:08Z</time>
      </trkpt>
      <trkpt lat="43.76322" lon="3.55116">
        <ele>595</ele>
        <time>2019-01-10T13:07:24Z</time>
      </trkpt>
      <trkpt lat="43.76318" lon="3.5512">
        <ele>595</ele>
        <time>2019-01-10T13:07:24Z</time>
      </trkpt>
      <trkpt lat="43.76314" lon="3.55123">
        <ele>595</ele>
        <time>2019-01-10T13:07:24Z</time>
      </trkpt>
      <trkpt lat="43.7631" lon="3.55125">
        <ele>580</ele>
        <time>2019-01-10T13:07:24Z</time>
      </trkpt>
      <trkpt lat="43.76305" lon="3.55127">
        <ele>580</ele>
        <time>2019-01-10T13:07:40Z</time>
      </trkpt>
      <trkpt lat="43.76299" lon="3.5513">
        <ele>580</ele>
        <time>2019-01-10T13:07:40Z</time>
      </trkpt>
      <trkpt lat="43.76294" lon="3.55133">
        <ele>580</ele>
        <time>2019-01-10T13:07:40Z</time>
      </trkpt>
      <trkpt lat="43.76289" lon="3.55135">
        <ele>591</ele>
        <time>2019-01-10T13:07:40Z</time>
      </trkpt>
      <trkpt lat="43.76285" lon="3.55138">
        <ele>591</ele>
        <time>2019-01-10T13:07:56Z</time>
      </trkpt>
      <trkpt lat="43.76281" lon="3.55142">
        <ele>591</ele>
        <time>2019-01-10T13:07:56Z</time>
      </trkpt>
      <trkpt lat="43.76278" lon="3.55146">
        <ele>591</ele>
        <time>2019-01-10T13:07:56Z</time>
      </trkpt>
      <trkpt lat="43.76274" lon="3.55151">
        <ele>591</ele>
        <time>2019-01-10T13:07:56Z</time>
      </trkpt>
      <trkpt lat="43.76272" lon="3.55156">
        <ele>591</ele>
        <time>2019-01-10T13:08:12Z</time>
      </trkpt>
      <trkpt lat="43.76269" lon="3.55159">
        <ele>591</ele>
        <time>2019-01-10T13:08:12Z</time>
      </trkpt>
      <trkpt lat="43.76265" lon="3.55163">
        <ele>591</ele>
        <time>2019-01-10T13:08:12Z</time>
      </trkpt>
      <trkpt lat="43.76261" lon="3.55166">
        <ele>591</ele>
        <time>2019-01-10T13:08:12Z</time>
      </trkpt>
      <trkpt lat="43.76257" lon="3.55169">
        <ele>591</ele>
        <time>2019-01-10T13:08:28Z</time>
      </trkpt>
      <trkpt lat="43.76255" lon="3.55174">
        <ele>591</ele>
        <time>2019-01-10T13:08:28Z</time>
      </trkpt>
      <trkpt lat="43.76252" lon="3.55178">
        <ele>591</ele>
        <time>2019-01-10T13:08:28Z</time>
      </trkpt>
      <trkpt lat="43.76248" lon="3.55183">
        <ele>591</ele>
        <time>2019-01-10T13:08:28Z</time>
      </trkpt>
      <trkpt lat="43.76245" lon="3.55187">
        <ele>591</ele>
        <time>2019-01-10T13:08:44Z</time>
      </trkpt>
      <trkpt lat="43.76241" lon="3.55191">
        <ele>591</ele>
        <time>2019-01-10T13:08:44Z</time>
      </trkpt>
      <trkpt lat="43.76237" lon="3.55194">
        <ele>591</ele>
        <time>2019-01-10T13:08:44Z</time>
      </trkpt>
      <trkpt lat="43.76234" lon="3.55195">
        <ele>591</ele>
        <time>2019-01-10T13:08:44Z</time>
      </trkpt>
      <trkpt lat="43.76227" lon="3.55199">
        <ele>591</ele>
        <time>2019-01-10T13:09:08Z</time>
      </trkpt>
      <trkpt lat="43.76226" lon="3.552">
        <ele>591</ele>
        <time>2019-01-10T13:09:08Z</time>
      </trkpt>
      <trkpt lat="43.76223" lon="3.55199">
        <ele>591</ele>
        <time>2019-01-10T13:09:08Z</time>
      </trkpt>
      <trkpt lat="43.76222" lon="3.55201">
        <ele>591</ele>
        <time>2019-01-10T13:09:08Z</time>
      </trkpt>
      <trkpt lat="43.76222" lon="3.55204">
        <ele>591</ele>
        <time>2019-01-10T13:09:08Z</time>
      </trkpt>
      <trkpt lat="43.76221" lon="3.55202">
        <ele>591</ele>
        <time>2019-01-10T13:09:32Z</time>
      </trkpt>
      <trkpt lat="43.7622" lon="3.55198">
        <ele>591</ele>
        <time>2019-01-10T13:09:32Z</time>
      </trkpt>
      <trkpt lat="43.76218" lon="3.55196">
        <ele>591</ele>
        <time>2019-01-10T13:09:32Z</time>
      </trkpt>
      <trkpt lat="43.76215" lon="3.55192">
        <ele>591</ele>
        <time>2019-01-10T13:09:32Z</time>
      </trkpt>
      <trkpt lat="43.76213" lon="3.55189">
        <ele>591</ele>
        <time>2019-01-10T13:09:48Z</time>
      </trkpt>
      <trkpt lat="43.76211" lon="3.55184">
        <ele>591</ele>
        <time>2019-01-10T13:09:48Z</time>
      </trkpt>
      <trkpt lat="43.7621" lon="3.55178">
        <ele>591</ele>
        <time>2019-01-10T13:09:48Z</time>
      </trkpt>
      <trkpt lat="43.76208" lon="3.55173">
        <ele>583</ele>
        <time>2019-01-10T13:09:48Z</time>
      </trkpt>
      <trkpt lat="43.76207" lon="3.55169">
        <ele>583</ele>
        <time>2019-01-10T13:10:04Z</time>
      </trkpt>
      <trkpt lat="43.76206" lon="3.55166">
        <ele>583</ele>
        <time>2019-01-10T13:10:04Z</time>
      </trkpt>
      <trkpt lat="43.76204" lon="3.55161">
        <ele>583</ele>
        <time>2019-01-10T13:10:04Z</time>
      </trkpt>
      <trkpt lat="43.76203" lon="3.55156">
        <ele>583</ele>
        <time>2019-01-10T13:10:04Z</time>
      </trkpt>
      <trkpt lat="43.76201" lon="3.55149">
        <ele>583</ele>
        <time>2019-01-10T13:10:20Z</time>
      </trkpt>
      <trkpt lat="43.76197" lon="3.55144">
        <ele>583</ele>
        <time>2019-01-10T13:10:20Z</time>
      </trkpt>
      <trkpt lat="43.76196" lon="3.55138">
        <ele>583</ele>
        <time>2019-01-10T13:10:20Z</time>
      </trkpt>
      <trkpt lat="43.76193" lon="3.55133">
        <ele>583</ele>
        <time>2019-01-10T13:10:20Z</time>
      </trkpt>
      <trkpt lat="43.76191" lon="3.55128">
        <ele>583</ele>
        <time>2019-01-10T13:10:36Z</time>
      </trkpt>
      <trkpt lat="43.76187" lon="3.55123">
        <ele>584</ele>
        <time>2019-01-10T13:10:36Z</time>
      </trkpt>
      <trkpt lat="43.76185" lon="3.55118">
        <ele>584</ele>
        <time>2019-01-10T13:10:36Z</time>
      </trkpt>
      <trkpt lat="43.76185" lon="3.55113">
        <ele>584</ele>
        <time>2019-01-10T13:10:36Z</time>
      </trkpt>
      <trkpt lat="43.76183" lon="3.55105">
        <ele>584</ele>
        <time>2019-01-10T13:11:12Z</time>
      </trkpt>
      <trkpt lat="43.76181" lon="3.55103">
        <ele>584</ele>
        <time>2019-01-10T13:11:12Z</time>
      </trkpt>
      <trkpt lat="43.76182" lon="3.55102">
        <ele>584</ele>
        <time>2019-01-10T13:11:12Z</time>
      </trkpt>
      <trkpt lat="43.76181" lon="3.55098">
        <ele>584</ele>
        <time>2019-01-10T13:11:12Z</time>
      </trkpt>
      <trkpt lat="43.7618" lon="3.55094">
        <ele>584</ele>
        <time>2019-01-10T13:11:12Z</time>
      </trkpt>
      <trkpt lat="43.7618" lon="3.55085">
        <ele>584</ele>
        <time>2019-01-10T13:13:44Z</time>
      </trkpt>
      <trkpt lat="43.76181" lon="3.55081">
        <ele>584</ele>
        <time>2019-01-10T13:13:44Z</time>
      </trkpt>
      <trkpt lat="43.76183" lon="3.55079">
        <ele>584</ele>
        <time>2019-01-10T13:13:44Z</time>
      </trkpt>
      <trkpt lat="43.76184" lon="3.55079">
        <ele>584</ele>
        <time>2019-01-10T13:13:44Z</time>
      </trkpt>
      <trkpt lat="43.76188" lon="3.55079">
        <ele>584</ele>
        <time>2019-01-10T13:13:44Z</time>
      </trkpt>
      <trkpt lat="43.76192" lon="3.55079">
        <ele>584</ele>
        <time>2019-01-10T13:14:00Z</time>
      </trkpt>
      <trkpt lat="43.76196" lon="3.55078">
        <ele>584</ele>
        <time>2019-01-10T13:14:00Z</time>
      </trkpt>
      <trkpt lat="43.76199" lon="3.55076">
        <ele>584</ele>
        <time>2019-01-10T13:14:00Z</time>
      </trkpt>
      <trkpt lat="43.76202" lon="3.55076">
        <ele>584</ele>
        <time>2019-01-10T13:14:00Z</time>
      </trkpt>
      <trkpt lat="43.76205" lon="3.55072">
        <ele>584</ele>
        <time>2019-01-10T13:14:16Z</time>
      </trkpt>
      <trkpt lat="43.76208" lon="3.55068">
        <ele>584</ele>
        <time>2019-01-10T13:14:16Z</time>
      </trkpt>
      <trkpt lat="43.76211" lon="3.55062">
        <ele>595</ele>
        <time>2019-01-10T13:14:16Z</time>
      </trkpt>
      <trkpt lat="43.76215" lon="3.55058">
        <ele>595</ele>
        <time>2019-01-10T13:14:16Z</time>
      </trkpt>
      <trkpt lat="43.76218" lon="3.55052">
        <ele>595</ele>
        <time>2019-01-10T13:14:32Z</time>
      </trkpt>
      <trkpt lat="43.76221" lon="3.55047">
        <ele>595</ele>
        <time>2019-01-10T13:14:32Z</time>
      </trkpt>
      <trkpt lat="43.76225" lon="3.55043">
        <ele>595</ele>
        <time>2019-01-10T13:14:32Z</time>
      </trkpt>
      <trkpt lat="43.7623" lon="3.55037">
        <ele>590</ele>
        <time>2019-01-10T13:14:32Z</time>
      </trkpt>
      <trkpt lat="43.76234" lon="3.55032">
        <ele>590</ele>
        <time>2019-01-10T13:14:48Z</time>
      </trkpt>
      <trkpt lat="43.76238" lon="3.55027">
        <ele>590</ele>
        <time>2019-01-10T13:14:48Z</time>
      </trkpt>
      <trkpt lat="43.76241" lon="3.55021">
        <ele>590</ele>
        <time>2019-01-10T13:14:48Z</time>
      </trkpt>
      <trkpt lat="43.76244" lon="3.55017">
        <ele>590</ele>
        <time>2019-01-10T13:14:48Z</time>
      </trkpt>
      <trkpt lat="43.76246" lon="3.55013">
        <ele>590</ele>
        <time>2019-01-10T13:15:04Z</time>
      </trkpt>
      <trkpt lat="43.76248" lon="3.55008">
        <ele>590</ele>
        <time>2019-01-10T13:15:04Z</time>
      </trkpt>
      <trkpt lat="43.76252" lon="3.55003">
        <ele>590</ele>
        <time>2019-01-10T13:15:04Z</time>
      </trkpt>
      <trkpt lat="43.76254" lon="3.54998">
        <ele>590</ele>
        <time>2019-01-10T13:15:04Z</time>
      </trkpt>
      <trkpt lat="43.76255" lon="3.54991">
        <ele>590</ele>
        <time>2019-01-10T13:15:20Z</time>
      </trkpt>
      <trkpt lat="43.76258" lon="3.54986">
        <ele>590</ele>
        <time>2019-01-10T13:15:20Z</time>
      </trkpt>
      <trkpt lat="43.76261" lon="3.54982">
        <ele>590</ele>
        <time>2019-01-10T13:15:20Z</time>
      </trkpt>
      <trkpt lat="43.76265" lon="3.54977">
        <ele>590</ele>
        <time>2019-01-10T13:15:20Z</time>
      </trkpt>
      <trkpt lat="43.76269" lon="3.54973">
        <ele>590</ele>
        <time>2019-01-10T13:15:36Z</time>
      </trkpt>
      <trkpt lat="43.76275" lon="3.54969">
        <ele>590</ele>
        <time>2019-01-10T13:15:36Z</time>
      </trkpt>
      <trkpt lat="43.7628" lon="3.54965">
        <ele>590</ele>
        <time>2019-01-10T13:15:36Z</time>
      </trkpt>
      <trkpt lat="43.76283" lon="3.54962">
        <ele>590</ele>
        <time>2019-01-10T13:15:36Z</time>
      </trkpt>
      <trkpt lat="43.76285" lon="3.54959">
        <ele>590</ele>
        <time>2019-01-10T13:15:52Z</time>
      </trkpt>
      <trkpt lat="43.76288" lon="3.54956">
        <ele>596</ele>
        <time>2019-01-10T13:15:52Z</time>
      </trkpt>
      <trkpt lat="43.76291" lon="3.54955">
        <ele>596</ele>
        <time>2019-01-10T13:15:52Z</time>
      </trkpt>
      <trkpt lat="43.76296" lon="3.54954">
        <ele>593</ele>
        <time>2019-01-10T13:15:52Z</time>
      </trkpt>
      <trkpt lat="43.763" lon="3.54952">
        <ele>593</ele>
        <time>2019-01-10T13:16:08Z</time>
      </trkpt>
      <trkpt lat="43.76304" lon="3.5495">
        <ele>593</ele>
        <time>2019-01-10T13:16:08Z</time>
      </trkpt>
      <trkpt lat="43.76306" lon="3.54946">
        <ele>593</ele>
        <time>2019-01-10T13:16:08Z</time>
      </trkpt>
      <trkpt lat="43.76309" lon="3.54942">
        <ele>593</ele>
        <time>2019-01-10T13:16:08Z</time>
      </trkpt>
      <trkpt lat="43.76311" lon="3.54938">
        <ele>593</ele>
        <time>2019-01-10T13:16:24Z</time>
      </trkpt>
      <trkpt lat="43.76314" lon="3.54933">
        <ele>593</ele>
        <time>2019-01-10T13:16:24Z</time>
      </trkpt>
      <trkpt lat="43.7632" lon="3.54931">
        <ele>593</ele>
        <time>2019-01-10T13:16:24Z</time>
      </trkpt>
      <trkpt lat="43.76325" lon="3.54926">
        <ele>593</ele>
        <time>2019-01-10T13:16:24Z</time>
      </trkpt>
      <trkpt lat="43.76327" lon="3.54921">
        <ele>593</ele>
        <time>2019-01-10T13:16:40Z</time>
      </trkpt>
      <trkpt lat="43.76329" lon="3.54917">
        <ele>593</ele>
        <time>2019-01-10T13:16:40Z</time>
      </trkpt>
      <trkpt lat="43.76332" lon="3.5491">
        <ele>593</ele>
        <time>2019-01-10T13:16:40Z</time>
      </trkpt>
      <trkpt lat="43.76333" lon="3.54902">
        <ele>593</ele>
        <time>2019-01-10T13:16:40Z</time>
      </trkpt>
      <trkpt lat="43.76336" lon="3.54896">
        <ele>593</ele>
        <time>2019-01-10T13:16:56Z</time>
      </trkpt>
      <trkpt lat="43.76337" lon="3.54892">
        <ele>593</ele>
        <time>2019-01-10T13:16:56Z</time>
      </trkpt>
      <trkpt lat="43.76338" lon="3.54886">
        <ele>593</ele>
        <time>2019-01-10T13:16:56Z</time>
      </trkpt>
      <trkpt lat="43.7634" lon="3.54878">
        <ele>593</ele>
        <time>2019-01-10T13:16:56Z</time>
      </trkpt>
      <trkpt lat="43.76342" lon="3.5487">
        <ele>599</ele>
        <time>2019-01-10T13:17:12Z</time>
      </trkpt>
      <trkpt lat="43.76345" lon="3.54863">
        <ele>599</ele>
        <time>2019-01-10T13:17:12Z</time>
      </trkpt>
      <trkpt lat="43.76347" lon="3.54858">
        <ele>599</ele>
        <time>2019-01-10T13:17:12Z</time>
      </trkpt>
      <trkpt lat="43.76349" lon="3.54853">
        <ele>599</ele>
        <time>2019-01-10T13:17:12Z</time>
      </trkpt>
      <trkpt lat="43.7635" lon="3.54848">
        <ele>599</ele>
        <time>2019-01-10T13:17:28Z</time>
      </trkpt>
      <trkpt lat="43.76352" lon="3.54843">
        <ele>599</ele>
        <time>2019-01-10T13:17:28Z</time>
      </trkpt>
      <trkpt lat="43.76353" lon="3.54836">
        <ele>599</ele>
        <time>2019-01-10T13:17:28Z</time>
      </trkpt>
      <trkpt lat="43.76356" lon="3.54831">
        <ele>599</ele>
        <time>2019-01-10T13:17:28Z</time>
      </trkpt>
      <trkpt lat="43.76359" lon="3.54827">
        <ele>599</ele>
        <time>2019-01-10T13:17:44Z</time>
      </trkpt>
      <trkpt lat="43.7636" lon="3.54822">
        <ele>599</ele>
        <time>2019-01-10T13:17:44Z</time>
      </trkpt>
      <trkpt lat="43.76361" lon="3.54817">
        <ele>599</ele>
        <time>2019-01-10T13:17:44Z</time>
      </trkpt>
      <trkpt lat="43.76362" lon="3.54811">
        <ele>599</ele>
        <time>2019-01-10T13:17:44Z</time>
      </trkpt>
      <trkpt lat="43.76363" lon="3.54805">
        <ele>599</ele>
        <time>2019-01-10T13:18:00Z</time>
      </trkpt>
      <trkpt lat="43.76365" lon="3.548">
        <ele>599</ele>
        <time>2019-01-10T13:18:00Z</time>
      </trkpt>
      <trkpt lat="43.76367" lon="3.54795">
        <ele>599</ele>
        <time>2019-01-10T13:18:00Z</time>
      </trkpt>
      <trkpt lat="43.7637" lon="3.54793">
        <ele>599</ele>
        <time>2019-01-10T13:18:00Z</time>
      </trkpt>
      <trkpt lat="43.76372" lon="3.54788">
        <ele>599</ele>
        <time>2019-01-10T13:18:16Z</time>
      </trkpt>
      <trkpt lat="43.76372" lon="3.54783">
        <ele>599</ele>
        <time>2019-01-10T13:18:16Z</time>
      </trkpt>
      <trkpt lat="43.76372" lon="3.54777">
        <ele>599</ele>
        <time>2019-01-10T13:18:16Z</time>
      </trkpt>
      <trkpt lat="43.76373" lon="3.54771">
        <ele>599</ele>
        <time>2019-01-10T13:18:16Z</time>
      </trkpt>
      <trkpt lat="43.76373" lon="3.54766">
        <ele>599</ele>
        <time>2019-01-10T13:18:32Z</time>
      </trkpt>
      <trkpt lat="43.76372" lon="3.54761">
        <ele>599</ele>
        <time>2019-01-10T13:18:32Z</time>
      </trkpt>
      <trkpt lat="43.7637" lon="3.54756">
        <ele>599</ele>
        <time>2019-01-10T13:18:32Z</time>
      </trkpt>
      <trkpt lat="43.76367" lon="3.54753">
        <ele>599</ele>
        <time>2019-01-10T13:18:32Z</time>
      </trkpt>
      <trkpt lat="43.76364" lon="3.54751">
        <ele>599</ele>
        <time>2019-01-10T13:20:08Z</time>
      </trkpt>
      <trkpt lat="43.76359" lon="3.54748">
        <ele>599</ele>
        <time>2019-01-10T13:20:08Z</time>
      </trkpt>
      <trkpt lat="43.76356" lon="3.54746">
        <ele>599</ele>
        <time>2019-01-10T13:20:08Z</time>
      </trkpt>
      <trkpt lat="43.76352" lon="3.54742">
        <ele>599</ele>
        <time>2019-01-10T13:20:08Z</time>
      </trkpt>
      <trkpt lat="43.76351" lon="3.54742">
        <ele>599</ele>
        <time>2019-01-10T13:20:24Z</time>
      </trkpt>
      <trkpt lat="43.76348" lon="3.54739">
        <ele>599</ele>
        <time>2019-01-10T13:20:24Z</time>
      </trkpt>
      <trkpt lat="43.76342" lon="3.54734">
        <ele>599</ele>
        <time>2019-01-10T13:20:24Z</time>
      </trkpt>
      <trkpt lat="43.76339" lon="3.54727">
        <ele>599</ele>
        <time>2019-01-10T13:20:24Z</time>
      </trkpt>
      <trkpt lat="43.7634" lon="3.54722">
        <ele>599</ele>
        <time>2019-01-10T13:20:40Z</time>
      </trkpt>
      <trkpt lat="43.76341" lon="3.54716">
        <ele>599</ele>
        <time>2019-01-10T13:20:40Z</time>
      </trkpt>
      <trkpt lat="43.76341" lon="3.5471">
        <ele>599</ele>
        <time>2019-01-10T13:20:40Z</time>
      </trkpt>
      <trkpt lat="43.76341" lon="3.54704">
        <ele>591</ele>
        <time>2019-01-10T13:20:40Z</time>
      </trkpt>
      <trkpt lat="43.76341" lon="3.547">
        <ele>591</ele>
        <time>2019-01-10T13:20:56Z</time>
      </trkpt>
      <trkpt lat="43.76342" lon="3.54695">
        <ele>591</ele>
        <time>2019-01-10T13:20:56Z</time>
      </trkpt>
      <trkpt lat="43.76341" lon="3.54689">
        <ele>591</ele>
        <time>2019-01-10T13:20:56Z</time>
      </trkpt>
      <trkpt lat="43.76338" lon="3.54684">
        <ele>591</ele>
        <time>2019-01-10T13:20:56Z</time>
      </trkpt>
      <trkpt lat="43.76337" lon="3.54678">
        <ele>591</ele>
        <time>2019-01-10T13:21:12Z</time>
      </trkpt>
      <trkpt lat="43.76336" lon="3.54672">
        <ele>591</ele>
        <time>2019-01-10T13:21:12Z</time>
      </trkpt>
      <trkpt lat="43.76335" lon="3.54667">
        <ele>591</ele>
        <time>2019-01-10T13:21:12Z</time>
      </trkpt>
      <trkpt lat="43.76334" lon="3.54661">
        <ele>591</ele>
        <time>2019-01-10T13:21:12Z</time>
      </trkpt>
      <trkpt lat="43.76333" lon="3.54656">
        <ele>591</ele>
        <time>2019-01-10T13:21:28Z</time>
      </trkpt>
      <trkpt lat="43.76333" lon="3.54651">
        <ele>591</ele>
        <time>2019-01-10T13:21:28Z</time>
      </trkpt>
      <trkpt lat="43.76334" lon="3.54645">
        <ele>591</ele>
        <time>2019-01-10T13:21:28Z</time>
      </trkpt>
      <trkpt lat="43.76335" lon="3.54638">
        <ele>591</ele>
        <time>2019-01-10T13:21:28Z</time>
      </trkpt>
      <trkpt lat="43.76335" lon="3.54633">
        <ele>591</ele>
        <time>2019-01-10T13:21:44Z</time>
      </trkpt>
      <trkpt lat="43.76336" lon="3.54628">
        <ele>591</ele>
        <time>2019-01-10T13:21:44Z</time>
      </trkpt>
      <trkpt lat="43.76336" lon="3.54622">
        <ele>582</ele>
        <time>2019-01-10T13:21:44Z</time>
      </trkpt>
      <trkpt lat="43.76334" lon="3.54617">
        <ele>582</ele>
        <time>2019-01-10T13:21:44Z</time>
      </trkpt>
      <trkpt lat="43.76329" lon="3.54608">
        <ele>582</ele>
        <time>2019-01-10T13:22:52Z</time>
      </trkpt>
      <trkpt lat="43.76325" lon="3.54607">
        <ele>582</ele>
        <time>2019-01-10T13:22:52Z</time>
      </trkpt>
      <trkpt lat="43.76325" lon="3.54607">
        <ele>582</ele>
        <time>2019-01-10T13:22:52Z</time>
      </trkpt>
      <trkpt lat="43.76324" lon="3.54608">
        <ele>582</ele>
        <time>2019-01-10T13:22:52Z</time>
      </trkpt>
      <trkpt lat="43.7632" lon="3.54611">
        <ele>582</ele>
        <time>2019-01-10T13:22:52Z</time>
      </trkpt>
      <trkpt lat="43.76317" lon="3.54611">
        <ele>582</ele>
        <time>2019-01-10T13:23:08Z</time>
      </trkpt>
      <trkpt lat="43.76312" lon="3.54613">
        <ele>582</ele>
        <time>2019-01-10T13:23:08Z</time>
      </trkpt>
      <trkpt lat="43.7631" lon="3.54615">
        <ele>582</ele>
        <time>2019-01-10T13:23:08Z</time>
      </trkpt>
      <trkpt lat="43.76305" lon="3.54615">
        <ele>582</ele>
        <time>2019-01-10T13:23:08Z</time>
      </trkpt>
      <trkpt lat="43.76302" lon="3.54613">
        <ele>582</ele>
        <time>2019-01-10T13:23:24Z</time>
      </trkpt>
      <trkpt lat="43.76301" lon="3.5461">
        <ele>582</ele>
        <time>2019-01-10T13:23:24Z</time>
      </trkpt>
      <trkpt lat="43.76299" lon="3.54604">
        <ele>582</ele>
        <time>2019-01-10T13:23:24Z</time>
      </trkpt>
      <trkpt lat="43.76299" lon="3.54598">
        <ele>582</ele>
        <time>2019-01-10T13:23:24Z</time>
      </trkpt>
      <trkpt lat="43.76299" lon="3.54595">
        <ele>582</ele>
        <time>2019-01-10T13:23:44Z</time>
      </trkpt>
      <trkpt lat="43.76298" lon="3.5459">
        <ele>582</ele>
        <time>2019-01-10T13:23:44Z</time>
      </trkpt>
      <trkpt lat="43.76299" lon="3.54585">
        <ele>582</ele>
        <time>2019-01-10T13:23:44Z</time>
      </trkpt>
      <trkpt lat="43.76299" lon="3.54583">
        <ele>582</ele>
        <time>2019-01-10T13:23:44Z</time>
      </trkpt>
      <trkpt lat="43.76298" lon="3.54579">
        <ele>582</ele>
        <time>2019-01-10T13:23:44Z</time>
      </trkpt>
      <trkpt lat="43.76297" lon="3.54574">
        <ele>582</ele>
        <time>2019-01-10T13:24:00Z</time>
      </trkpt>
      <trkpt lat="43.76295" lon="3.54567">
        <ele>582</ele>
        <time>2019-01-10T13:24:00Z</time>
      </trkpt>
      <trkpt lat="43.76295" lon="3.54565">
        <ele>582</ele>
        <time>2019-01-10T13:24:00Z</time>
      </trkpt>
      <trkpt lat="43.76294" lon="3.54561">
        <ele>582</ele>
        <time>2019-01-10T13:24:00Z</time>
      </trkpt>
      <trkpt lat="43.76294" lon="3.54554">
        <ele>582</ele>
        <time>2019-01-10T13:24:16Z</time>
      </trkpt>
      <trkpt lat="43.76293" lon="3.54548">
        <ele>582</ele>
        <time>2019-01-10T13:24:16Z</time>
      </trkpt>
      <trkpt lat="43.76293" lon="3.54541">
        <ele>584</ele>
        <time>2019-01-10T13:24:16Z</time>
      </trkpt>
      <trkpt lat="43.76293" lon="3.54536">
        <ele>584</ele>
        <time>2019-01-10T13:24:16Z</time>
      </trkpt>
      <trkpt lat="43.76293" lon="3.54529">
        <ele>584</ele>
        <time>2019-01-10T13:24:32Z</time>
      </trkpt>
      <trkpt lat="43.76293" lon="3.54521">
        <ele>584</ele>
        <time>2019-01-10T13:24:32Z</time>
      </trkpt>
      <trkpt lat="43.76294" lon="3.54514">
        <ele>584</ele>
        <time>2019-01-10T13:24:32Z</time>
      </trkpt>
      <trkpt lat="43.76294" lon="3.54507">
        <ele>584</ele>
        <time>2019-01-10T13:24:32Z</time>
      </trkpt>
      <trkpt lat="43.76295" lon="3.54498">
        <ele>584</ele>
        <time>2019-01-10T13:24:48Z</time>
      </trkpt>
      <trkpt lat="43.76295" lon="3.54492">
        <ele>584</ele>
        <time>2019-01-10T13:24:48Z</time>
      </trkpt>
      <trkpt lat="43.76296" lon="3.54483">
        <ele>584</ele>
        <time>2019-01-10T13:24:48Z</time>
      </trkpt>
      <trkpt lat="43.76298" lon="3.54476">
        <ele>584</ele>
        <time>2019-01-10T13:24:48Z</time>
      </trkpt>
      <trkpt lat="43.76298" lon="3.5447">
        <ele>584</ele>
        <time>2019-01-10T13:25:04Z</time>
      </trkpt>
      <trkpt lat="43.76299" lon="3.54465">
        <ele>584</ele>
        <time>2019-01-10T13:25:04Z</time>
      </trkpt>
      <trkpt lat="43.76299" lon="3.54459">
        <ele>584</ele>
        <time>2019-01-10T13:25:04Z</time>
      </trkpt>
      <trkpt lat="43.76299" lon="3.54453">
        <ele>583</ele>
        <time>2019-01-10T13:25:04Z</time>
      </trkpt>
      <trkpt lat="43.76297" lon="3.54446">
        <ele>583</ele>
        <time>2019-01-10T13:25:20Z</time>
      </trkpt>
      <trkpt lat="43.76295" lon="3.54439">
        <ele>583</ele>
        <time>2019-01-10T13:25:20Z</time>
      </trkpt>
      <trkpt lat="43.76293" lon="3.54432">
        <ele>583</ele>
        <time>2019-01-10T13:25:20Z</time>
      </trkpt>
      <trkpt lat="43.76292" lon="3.54425">
        <ele>583</ele>
        <time>2019-01-10T13:25:20Z</time>
      </trkpt>
      <trkpt lat="43.76291" lon="3.54419">
        <ele>597</ele>
        <time>2019-01-10T13:25:36Z</time>
      </trkpt>
      <trkpt lat="43.76289" lon="3.54412">
        <ele>597</ele>
        <time>2019-01-10T13:25:36Z</time>
      </trkpt>
      <trkpt lat="43.76288" lon="3.54406">
        <ele>597</ele>
        <time>2019-01-10T13:25:36Z</time>
      </trkpt>
      <trkpt lat="43.76286" lon="3.54401">
        <ele>597</ele>
        <time>2019-01-10T13:25:36Z</time>
      </trkpt>
      <trkpt lat="43.76281" lon="3.54399">
        <ele>597</ele>
        <time>2019-01-10T13:25:52Z</time>
      </trkpt>
      <trkpt lat="43.76277" lon="3.54398">
        <ele>597</ele>
        <time>2019-01-10T13:25:52Z</time>
      </trkpt>
      <trkpt lat="43.76275" lon="3.54397">
        <ele>597</ele>
        <time>2019-01-10T13:25:52Z</time>
      </trkpt>
      <trkpt lat="43.76271" lon="3.54396">
        <ele>597</ele>
        <time>2019-01-10T13:25:52Z</time>
      </trkpt>
      <trkpt lat="43.76269" lon="3.54395">
        <ele>597</ele>
        <time>2019-01-10T13:26:08Z</time>
      </trkpt>
      <trkpt lat="43.76265" lon="3.54394">
        <ele>597</ele>
        <time>2019-01-10T13:26:08Z</time>
      </trkpt>
      <trkpt lat="43.76264" lon="3.5439">
        <ele>597</ele>
        <time>2019-01-10T13:26:08Z</time>
      </trkpt>
      <trkpt lat="43.76261" lon="3.54388">
        <ele>597</ele>
        <time>2019-01-10T13:26:08Z</time>
      </trkpt>
      <trkpt lat="43.76259" lon="3.54383">
        <ele>597</ele>
        <time>2019-01-10T13:26:24Z</time>
      </trkpt>
      <trkpt lat="43.76257" lon="3.54378">
        <ele>597</ele>
        <time>2019-01-10T13:26:24Z</time>
      </trkpt>
      <trkpt lat="43.76255" lon="3.54375">
        <ele>597</ele>
        <time>2019-01-10T13:26:24Z</time>
      </trkpt>
      <trkpt lat="43.76255" lon="3.54369">
        <ele>583</ele>
        <time>2019-01-10T13:26:24Z</time>
      </trkpt>
      <trkpt lat="43.76255" lon="3.54362">
        <ele>583</ele>
        <time>2019-01-10T13:26:40Z</time>
      </trkpt>
      <trkpt lat="43.76255" lon="3.54355">
        <ele>583</ele>
        <time>2019-01-10T13:26:40Z</time>
      </trkpt>
      <trkpt lat="43.76253" lon="3.54349">
        <ele>583</ele>
        <time>2019-01-10T13:26:40Z</time>
      </trkpt>
      <trkpt lat="43.76249" lon="3.54343">
        <ele>583</ele>
        <time>2019-01-10T13:26:40Z</time>
      </trkpt>
      <trkpt lat="43.76245" lon="3.54339">
        <ele>583</ele>
        <time>2019-01-10T13:26:56Z</time>
      </trkpt>
      <trkpt lat="43.76241" lon="3.54337">
        <ele>583</ele>
        <time>2019-01-10T13:26:56Z</time>
      </trkpt>
      <trkpt lat="43.76236" lon="3.54336">
        <ele>583</ele>
        <time>2019-01-10T13:26:56Z</time>
      </trkpt>
      <trkpt lat="43.76233" lon="3.54335">
        <ele>583</ele>
        <time>2019-01-10T13:26:56Z</time>
      </trkpt>
      <trkpt lat="43.76229" lon="3.54334">
        <ele>583</ele>
        <time>2019-01-10T13:27:12Z</time>
      </trkpt>
      <trkpt lat="43.76224" lon="3.54332">
        <ele>583</ele>
        <time>2019-01-10T13:27:12Z</time>
      </trkpt>
      <trkpt lat="43.76221" lon="3.5433">
        <ele>583</ele>
        <time>2019-01-10T13:27:12Z</time>
      </trkpt>
      <trkpt lat="43.76218" lon="3.54323">
        <ele>583</ele>
        <time>2019-01-10T13:27:12Z</time>
      </trkpt>
      <trkpt lat="43.76217" lon="3.54318">
        <ele>583</ele>
        <time>2019-01-10T13:27:28Z</time>
      </trkpt>
      <trkpt lat="43.76217" lon="3.54313">
        <ele>583</ele>
        <time>2019-01-10T13:27:28Z</time>
      </trkpt>
      <trkpt lat="43.76216" lon="3.54309">
        <ele>583</ele>
        <time>2019-01-10T13:27:28Z</time>
      </trkpt>
      <trkpt lat="43.76215" lon="3.54303">
        <ele>583</ele>
        <time>2019-01-10T13:27:28Z</time>
      </trkpt>
      <trkpt lat="43.76213" lon="3.54298">
        <ele>583</ele>
        <time>2019-01-10T13:27:44Z</time>
      </trkpt>
      <trkpt lat="43.76214" lon="3.54295">
        <ele>583</ele>
        <time>2019-01-10T13:27:44Z</time>
      </trkpt>
      <trkpt lat="43.76213" lon="3.54292">
        <ele>583</ele>
        <time>2019-01-10T13:27:44Z</time>
      </trkpt>
      <trkpt lat="43.7621" lon="3.54284">
        <ele>568</ele>
        <time>2019-01-10T13:27:44Z</time>
      </trkpt>
      <trkpt lat="43.7621" lon="3.54277">
        <ele>568</ele>
        <time>2019-01-10T13:28:00Z</time>
      </trkpt>
      <trkpt lat="43.76208" lon="3.54269">
        <ele>588</ele>
        <time>2019-01-10T13:28:00Z</time>
      </trkpt>
      <trkpt lat="43.76207" lon="3.54263">
        <ele>588</ele>
        <time>2019-01-10T13:28:00Z</time>
      </trkpt>
      <trkpt lat="43.76207" lon="3.54254">
        <ele>588</ele>
        <time>2019-01-10T13:28:00Z</time>
      </trkpt>
      <trkpt lat="43.76207" lon="3.54247">
        <ele>588</ele>
        <time>2019-01-10T13:28:16Z</time>
      </trkpt>
      <trkpt lat="43.76207" lon="3.54241">
        <ele>588</ele>
        <time>2019-01-10T13:28:16Z</time>
      </trkpt>
      <trkpt lat="43.76205" lon="3.54236">
        <ele>588</ele>
        <time>2019-01-10T13:28:16Z</time>
      </trkpt>
      <trkpt lat="43.76204" lon="3.5423">
        <ele>588</ele>
        <time>2019-01-10T13:28:16Z</time>
      </trkpt>
      <trkpt lat="43.76202" lon="3.54223">
        <ele>588</ele>
        <time>2019-01-10T13:28:32Z</time>
      </trkpt>
      <trkpt lat="43.76201" lon="3.54216">
        <ele>588</ele>
        <time>2019-01-10T13:28:32Z</time>
      </trkpt>
      <trkpt lat="43.76198" lon="3.54209">
        <ele>588</ele>
        <time>2019-01-10T13:28:32Z</time>
      </trkpt>
      <trkpt lat="43.76193" lon="3.54204">
        <ele>571</ele>
        <time>2019-01-10T13:28:32Z</time>
      </trkpt>
      <trkpt lat="43.76189" lon="3.542">
        <ele>571</ele>
        <time>2019-01-10T13:28:48Z</time>
      </trkpt>
      <trkpt lat="43.76184" lon="3.54199">
        <ele>571</ele>
        <time>2019-01-10T13:28:48Z</time>
      </trkpt>
      <trkpt lat="43.7618" lon="3.54198">
        <ele>571</ele>
        <time>2019-01-10T13:28:48Z</time>
      </trkpt>
      <trkpt lat="43.76175" lon="3.54198">
        <ele>571</ele>
        <time>2019-01-10T13:28:48Z</time>
      </trkpt>
      <trkpt lat="43.76171" lon="3.54196">
        <ele>571</ele>
        <time>2019-01-10T13:29:04Z</time>
      </trkpt>
      <trkpt lat="43.76167" lon="3.54194">
        <ele>571</ele>
        <time>2019-01-10T13:29:04Z</time>
      </trkpt>
      <trkpt lat="43.76164" lon="3.54193">
        <ele>571</ele>
        <time>2019-01-10T13:29:04Z</time>
      </trkpt>
      <trkpt lat="43.76161" lon="3.54194">
        <ele>571</ele>
        <time>2019-01-10T13:29:04Z</time>
      </trkpt>
      <trkpt lat="43.76156" lon="3.54192">
        <ele>571</ele>
        <time>2019-01-10T13:29:20Z</time>
      </trkpt>
      <trkpt lat="43.76151" lon="3.54189">
        <ele>571</ele>
        <time>2019-01-10T13:29:20Z</time>
      </trkpt>
      <trkpt lat="43.76146" lon="3.54187">
        <ele>571</ele>
        <time>2019-01-10T13:29:20Z</time>
      </trkpt>
      <trkpt lat="43.76143" lon="3.54185">
        <ele>571</ele>
        <time>2019-01-10T13:29:20Z</time>
      </trkpt>
      <trkpt lat="43.76141" lon="3.54183">
        <ele>571</ele>
        <time>2019-01-10T13:29:36Z</time>
      </trkpt>
      <trkpt lat="43.76138" lon="3.54178">
        <ele>571</ele>
        <time>2019-01-10T13:29:36Z</time>
      </trkpt>
      <trkpt lat="43.76135" lon="3.54171">
        <ele>571</ele>
        <time>2019-01-10T13:29:36Z</time>
      </trkpt>
      <trkpt lat="43.76132" lon="3.54167">
        <ele>571</ele>
        <time>2019-01-10T13:29:36Z</time>
      </trkpt>
      <trkpt lat="43.76132" lon="3.54165">
        <ele>571</ele>
        <time>2019-01-10T13:29:52Z</time>
      </trkpt>
      <trkpt lat="43.76131" lon="3.54159">
        <ele>571</ele>
        <time>2019-01-10T13:29:52Z</time>
      </trkpt>
      <trkpt lat="43.7613" lon="3.54154">
        <ele>571</ele>
        <time>2019-01-10T13:29:52Z</time>
      </trkpt>
      <trkpt lat="43.7613" lon="3.54153">
        <ele>571</ele>
        <time>2019-01-10T13:29:52Z</time>
      </trkpt>
      <trkpt lat="43.7613" lon="3.54147">
        <ele>571</ele>
        <time>2019-01-10T13:30:08Z</time>
      </trkpt>
      <trkpt lat="43.76131" lon="3.5414">
        <ele>571</ele>
        <time>2019-01-10T13:30:08Z</time>
      </trkpt>
      <trkpt lat="43.76132" lon="3.54134">
        <ele>571</ele>
        <time>2019-01-10T13:30:08Z</time>
      </trkpt>
      <trkpt lat="43.76134" lon="3.54127">
        <ele>571</ele>
        <time>2019-01-10T13:30:08Z</time>
      </trkpt>
      <trkpt lat="43.76136" lon="3.54119">
        <ele>562</ele>
        <time>2019-01-10T13:30:24Z</time>
      </trkpt>
      <trkpt lat="43.76139" lon="3.54112">
        <ele>562</ele>
        <time>2019-01-10T13:30:24Z</time>
      </trkpt>
      <trkpt lat="43.76141" lon="3.54109">
        <ele>562</ele>
        <time>2019-01-10T13:30:24Z</time>
      </trkpt>
      <trkpt lat="43.76144" lon="3.54105">
        <ele>562</ele>
        <time>2019-01-10T13:30:24Z</time>
      </trkpt>
      <trkpt lat="43.76147" lon="3.541">
        <ele>562</ele>
        <time>2019-01-10T13:30:40Z</time>
      </trkpt>
      <trkpt lat="43.76149" lon="3.54096">
        <ele>562</ele>
        <time>2019-01-10T13:30:40Z</time>
      </trkpt>
      <trkpt lat="43.76151" lon="3.54091">
        <ele>562</ele>
        <time>2019-01-10T13:30:40Z</time>
      </trkpt>
      <trkpt lat="43.7615" lon="3.54085">
        <ele>562</ele>
        <time>2019-01-10T13:30:40Z</time>
      </trkpt>
      <trkpt lat="43.76148" lon="3.5408">
        <ele>562</ele>
        <time>2019-01-10T13:30:56Z</time>
      </trkpt>
      <trkpt lat="43.76146" lon="3.54077">
        <ele>562</ele>
        <time>2019-01-10T13:30:56Z</time>
      </trkpt>
      <trkpt lat="43.76143" lon="3.54074">
        <ele>562</ele>
        <time>2019-01-10T13:30:56Z</time>
      </trkpt>
      <trkpt lat="43.76139" lon="3.54068">
        <ele>562</ele>
        <time>2019-01-10T13:30:56Z</time>
      </trkpt>
      <trkpt lat="43.76137" lon="3.54064">
        <ele>562</ele>
        <time>2019-01-10T13:31:12Z</time>
      </trkpt>
      <trkpt lat="43.76133" lon="3.5406">
        <ele>562</ele>
        <time>2019-01-10T13:31:12Z</time>
      </trkpt>
      <trkpt lat="43.76129" lon="3.54057">
        <ele>562</ele>
        <time>2019-01-10T13:31:12Z</time>
      </trkpt>
      <trkpt lat="43.76128" lon="3.54055">
        <ele>562</ele>
        <time>2019-01-10T13:31:12Z</time>
      </trkpt>
      <trkpt lat="43.76125" lon="3.5405">
        <ele>590</ele>
        <time>2019-01-10T13:31:32Z</time>
      </trkpt>
      <trkpt lat="43.76124" lon="3.54047">
        <ele>590</ele>
        <time>2019-01-10T13:31:32Z</time>
      </trkpt>
      <trkpt lat="43.76121" lon="3.54043">
        <ele>590</ele>
        <time>2019-01-10T13:31:32Z</time>
      </trkpt>
      <trkpt lat="43.76121" lon="3.54041">
        <ele>580</ele>
        <time>2019-01-10T13:31:32Z</time>
      </trkpt>
      <trkpt lat="43.76122" lon="3.54035">
        <ele>580</ele>
        <time>2019-01-10T13:31:32Z</time>
      </trkpt>
      <trkpt lat="43.76123" lon="3.54029">
        <ele>580</ele>
        <time>2019-01-10T13:31:48Z</time>
      </trkpt>
      <trkpt lat="43.76125" lon="3.54027">
        <ele>580</ele>
        <time>2019-01-10T13:31:48Z</time>
      </trkpt>
      <trkpt lat="43.76128" lon="3.54024">
        <ele>560</ele>
        <time>2019-01-10T13:31:48Z</time>
      </trkpt>
      <trkpt lat="43.7613" lon="3.54019">
        <ele>560</ele>
        <time>2019-01-10T13:31:48Z</time>
      </trkpt>
      <trkpt lat="43.76134" lon="3.54015">
        <ele>560</ele>
        <time>2019-01-10T13:32:04Z</time>
      </trkpt>
      <trkpt lat="43.76137" lon="3.54012">
        <ele>560</ele>
        <time>2019-01-10T13:32:04Z</time>
      </trkpt>
      <trkpt lat="43.76141" lon="3.54007">
        <ele>560</ele>
        <time>2019-01-10T13:32:04Z</time>
      </trkpt>
      <trkpt lat="43.76146" lon="3.54003">
        <ele>560</ele>
        <time>2019-01-10T13:32:04Z</time>
      </trkpt>
      <trkpt lat="43.76149" lon="3.54">
        <ele>560</ele>
        <time>2019-01-10T13:32:20Z</time>
      </trkpt>
      <trkpt lat="43.76151" lon="3.53998">
        <ele>560</ele>
        <time>2019-01-10T13:32:20Z</time>
      </trkpt>
      <trkpt lat="43.76157" lon="3.53992">
        <ele>560</ele>
        <time>2019-01-10T13:32:20Z</time>
      </trkpt>
      <trkpt lat="43.76161" lon="3.53988">
        <ele>560</ele>
        <time>2019-01-10T13:32:20Z</time>
      </trkpt>
      <trkpt lat="43.76164" lon="3.53983">
        <ele>560</ele>
        <time>2019-01-10T13:32:36Z</time>
      </trkpt>
      <trkpt lat="43.76167" lon="3.53978">
        <ele>560</ele>
        <time>2019-01-10T13:32:36Z</time>
      </trkpt>
      <trkpt lat="43.7617" lon="3.53973">
        <ele>560</ele>
        <time>2019-01-10T13:32:36Z</time>
      </trkpt>
      <trkpt lat="43.76172" lon="3.53967">
        <ele>560</ele>
        <time>2019-01-10T13:32:36Z</time>
      </trkpt>
      <trkpt lat="43.76175" lon="3.53962">
        <ele>560</ele>
        <time>2019-01-10T13:32:52Z</time>
      </trkpt>
      <trkpt lat="43.76178" lon="3.53958">
        <ele>559</ele>
        <time>2019-01-10T13:32:52Z</time>
      </trkpt>
      <trkpt lat="43.7618" lon="3.53951">
        <ele>559</ele>
        <time>2019-01-10T13:32:52Z</time>
      </trkpt>
      <trkpt lat="43.76182" lon="3.53946">
        <ele>559</ele>
        <time>2019-01-10T13:32:52Z</time>
      </trkpt>
      <trkpt lat="43.76183" lon="3.5394">
        <ele>559</ele>
        <time>2019-01-10T13:33:08Z</time>
      </trkpt>
      <trkpt lat="43.76185" lon="3.53934">
        <ele>559</ele>
        <time>2019-01-10T13:33:08Z</time>
      </trkpt>
      <trkpt lat="43.76186" lon="3.53928">
        <ele>559</ele>
        <time>2019-01-10T13:33:08Z</time>
      </trkpt>
      <trkpt lat="43.76186" lon="3.53921">
        <ele>559</ele>
        <time>2019-01-10T13:33:08Z</time>
      </trkpt>
      <trkpt lat="43.76186" lon="3.53916">
        <ele>559</ele>
        <time>2019-01-10T13:33:24Z</time>
      </trkpt>
      <trkpt lat="43.76186" lon="3.5391">
        <ele>559</ele>
        <time>2019-01-10T13:33:24Z</time>
      </trkpt>
      <trkpt lat="43.76186" lon="3.53902">
        <ele>559</ele>
        <time>2019-01-10T13:33:24Z</time>
      </trkpt>
      <trkpt lat="43.76185" lon="3.53897">
        <ele>559</ele>
        <time>2019-01-10T13:33:24Z</time>
      </trkpt>
      <trkpt lat="43.76185" lon="3.53891">
        <ele>559</ele>
        <time>2019-01-10T13:33:40Z</time>
      </trkpt>
      <trkpt lat="43.76185" lon="3.53884">
        <ele>559</ele>
        <time>2019-01-10T13:33:40Z</time>
      </trkpt>
      <trkpt lat="43.76183" lon="3.53878">
        <ele>559</ele>
        <time>2019-01-10T13:33:40Z</time>
      </trkpt>
      <trkpt lat="43.76181" lon="3.53873">
        <ele>550</ele>
        <time>2019-01-10T13:33:40Z</time>
      </trkpt>
      <trkpt lat="43.7618" lon="3.53872">
        <ele>550</ele>
        <time>2019-01-10T13:34:00Z</time>
      </trkpt>
      <trkpt lat="43.76178" lon="3.53866">
        <ele>550</ele>
        <time>2019-01-10T13:34:00Z</time>
      </trkpt>
      <trkpt lat="43.76175" lon="3.5386">
        <ele>550</ele>
        <time>2019-01-10T13:34:00Z</time>
      </trkpt>
      <trkpt lat="43.76173" lon="3.53854">
        <ele>550</ele>
        <time>2019-01-10T13:34:00Z</time>
      </trkpt>
      <trkpt lat="43.76172" lon="3.53848">
        <ele>550</ele>
        <time>2019-01-10T13:34:16Z</time>
      </trkpt>
      <trkpt lat="43.76169" lon="3.53843">
        <ele>550</ele>
        <time>2019-01-10T13:34:16Z</time>
      </trkpt>
      <trkpt lat="43.76166" lon="3.53837">
        <ele>550</ele>
        <time>2019-01-10T13:34:16Z</time>
      </trkpt>
      <trkpt lat="43.76164" lon="3.53832">
        <ele>550</ele>
        <time>2019-01-10T13:34:16Z</time>
      </trkpt>
      <trkpt lat="43.76159" lon="3.53827">
        <ele>550</ele>
        <time>2019-01-10T13:34:32Z</time>
      </trkpt>
      <trkpt lat="43.76155" lon="3.53823">
        <ele>550</ele>
        <time>2019-01-10T13:34:32Z</time>
      </trkpt>
      <trkpt lat="43.76151" lon="3.53817">
        <ele>550</ele>
        <time>2019-01-10T13:34:32Z</time>
      </trkpt>
      <trkpt lat="43.76148" lon="3.53811">
        <ele>550</ele>
        <time>2019-01-10T13:34:32Z</time>
      </trkpt>
      <trkpt lat="43.76146" lon="3.53806">
        <ele>550</ele>
        <time>2019-01-10T13:34:48Z</time>
      </trkpt>
      <trkpt lat="43.76142" lon="3.538">
        <ele>550</ele>
        <time>2019-01-10T13:34:48Z</time>
      </trkpt>
      <trkpt lat="43.76139" lon="3.53798">
        <ele>550</ele>
        <time>2019-01-10T13:34:48Z</time>
      </trkpt>
      <trkpt lat="43.76136" lon="3.53796">
        <ele>550</ele>
        <time>2019-01-10T13:34:48Z</time>
      </trkpt>
      <trkpt lat="43.76132" lon="3.53794">
        <ele>550</ele>
        <time>2019-01-10T13:35:04Z</time>
      </trkpt>
      <trkpt lat="43.76127" lon="3.53794">
        <ele>550</ele>
        <time>2019-01-10T13:35:04Z</time>
      </trkpt>
      <trkpt lat="43.76123" lon="3.53795">
        <ele>548</ele>
        <time>2019-01-10T13:35:04Z</time>
      </trkpt>
      <trkpt lat="43.76119" lon="3.53797">
        <ele>548</ele>
        <time>2019-01-10T13:35:04Z</time>
      </trkpt>
      <trkpt lat="43.76115" lon="3.53798">
        <ele>548</ele>
        <time>2019-01-10T13:35:20Z</time>
      </trkpt>
      <trkpt lat="43.76112" lon="3.538">
        <ele>548</ele>
        <time>2019-01-10T13:35:20Z</time>
      </trkpt>
      <trkpt lat="43.76108" lon="3.53801">
        <ele>548</ele>
        <time>2019-01-10T13:35:20Z</time>
      </trkpt>
      <trkpt lat="43.76104" lon="3.538">
        <ele>548</ele>
        <time>2019-01-10T13:35:20Z</time>
      </trkpt>
      <trkpt lat="43.761" lon="3.538">
        <ele>548</ele>
        <time>2019-01-10T13:35:36Z</time>
      </trkpt>
      <trkpt lat="43.76097" lon="3.53801">
        <ele>548</ele>
        <time>2019-01-10T13:35:36Z</time>
      </trkpt>
      <trkpt lat="43.76092" lon="3.53802">
        <ele>548</ele>
        <time>2019-01-10T13:35:36Z</time>
      </trkpt>
      <trkpt lat="43.76088" lon="3.53803">
        <ele>548</ele>
        <time>2019-01-10T13:35:36Z</time>
      </trkpt>
      <trkpt lat="43.76082" lon="3.53805">
        <ele>548</ele>
        <time>2019-01-10T13:35:52Z</time>
      </trkpt>
      <trkpt lat="43.76077" lon="3.53807">
        <ele>548</ele>
        <time>2019-01-10T13:35:52Z</time>
      </trkpt>
      <trkpt lat="43.76072" lon="3.53811">
        <ele>548</ele>
        <time>2019-01-10T13:35:52Z</time>
      </trkpt>
      <trkpt lat="43.76066" lon="3.53814">
        <ele>548</ele>
        <time>2019-01-10T13:35:52Z</time>
      </trkpt>
      <trkpt lat="43.76062" lon="3.53816">
        <ele>548</ele>
        <time>2019-01-10T13:36:08Z</time>
      </trkpt>
      <trkpt lat="43.76058" lon="3.5382">
        <ele>548</ele>
        <time>2019-01-10T13:36:08Z</time>
      </trkpt>
      <trkpt lat="43.76055" lon="3.53823">
        <ele>548</ele>
        <time>2019-01-10T13:36:08Z</time>
      </trkpt>
      <trkpt lat="43.76054" lon="3.53825">
        <ele>548</ele>
        <time>2019-01-10T13:36:08Z</time>
      </trkpt>
      <trkpt lat="43.7605" lon="3.53828">
        <ele>548</ele>
        <time>2019-01-10T13:36:24Z</time>
      </trkpt>
      <trkpt lat="43.76046" lon="3.53832">
        <ele>548</ele>
        <time>2019-01-10T13:36:24Z</time>
      </trkpt>
      <trkpt lat="43.76043" lon="3.53835">
        <ele>548</ele>
        <time>2019-01-10T13:36:24Z</time>
      </trkpt>
      <trkpt lat="43.7604" lon="3.53838">
        <ele>534</ele>
        <time>2019-01-10T13:36:24Z</time>
      </trkpt>
      <trkpt lat="43.76039" lon="3.53836">
        <ele>534</ele>
        <time>2019-01-10T13:36:44Z</time>
      </trkpt>
      <trkpt lat="43.76041" lon="3.53834">
        <ele>534</ele>
        <time>2019-01-10T13:36:44Z</time>
      </trkpt>
      <trkpt lat="43.76044" lon="3.53833">
        <ele>548</ele>
        <time>2019-01-10T13:36:44Z</time>
      </trkpt>
      <trkpt lat="43.76046" lon="3.53829">
        <ele>548</ele>
        <time>2019-01-10T13:36:44Z</time>
      </trkpt>
      <trkpt lat="43.76045" lon="3.53825">
        <ele>548</ele>
        <time>2019-01-10T13:36:44Z</time>
      </trkpt>
      <trkpt lat="43.76044" lon="3.53819">
        <ele>548</ele>
        <time>2019-01-10T13:37:00Z</time>
      </trkpt>
      <trkpt lat="43.76043" lon="3.53813">
        <ele>548</ele>
        <time>2019-01-10T13:37:00Z</time>
      </trkpt>
      <trkpt lat="43.76043" lon="3.53806">
        <ele>548</ele>
        <time>2019-01-10T13:37:00Z</time>
      </trkpt>
      <trkpt lat="43.76044" lon="3.53799">
        <ele>548</ele>
        <time>2019-01-10T13:37:00Z</time>
      </trkpt>
      <trkpt lat="43.76044" lon="3.53793">
        <ele>548</ele>
        <time>2019-01-10T13:37:16Z</time>
      </trkpt>
      <trkpt lat="43.76044" lon="3.53788">
        <ele>534</ele>
        <time>2019-01-10T13:37:16Z</time>
      </trkpt>
      <trkpt lat="43.76044" lon="3.53781">
        <ele>534</ele>
        <time>2019-01-10T13:37:16Z</time>
      </trkpt>
      <trkpt lat="43.76046" lon="3.53774">
        <ele>534</ele>
        <time>2019-01-10T13:37:16Z</time>
      </trkpt>
      <trkpt lat="43.76048" lon="3.53767">
        <ele>534</ele>
        <time>2019-01-10T13:37:32Z</time>
      </trkpt>
      <trkpt lat="43.76049" lon="3.53761">
        <ele>534</ele>
        <time>2019-01-10T13:37:32Z</time>
      </trkpt>
      <trkpt lat="43.7605" lon="3.53757">
        <ele>534</ele>
        <time>2019-01-10T13:37:32Z</time>
      </trkpt>
      <trkpt lat="43.76052" lon="3.53752">
        <ele>534</ele>
        <time>2019-01-10T13:37:32Z</time>
      </trkpt>
      <trkpt lat="43.76052" lon="3.53746">
        <ele>534</ele>
        <time>2019-01-10T13:37:48Z</time>
      </trkpt>
      <trkpt lat="43.76052" lon="3.5374">
        <ele>534</ele>
        <time>2019-01-10T13:37:48Z</time>
      </trkpt>
      <trkpt lat="43.76055" lon="3.53732">
        <ele>534</ele>
        <time>2019-01-10T13:37:48Z</time>
      </trkpt>
      <trkpt lat="43.76056" lon="3.53725">
        <ele>534</ele>
        <time>2019-01-10T13:37:48Z</time>
      </trkpt>
      <trkpt lat="43.76058" lon="3.5372">
        <ele>534</ele>
        <time>2019-01-10T13:38:04Z</time>
      </trkpt>
      <trkpt lat="43.7606" lon="3.53715">
        <ele>534</ele>
        <time>2019-01-10T13:38:04Z</time>
      </trkpt>
      <trkpt lat="43.76062" lon="3.53711">
        <ele>534</ele>
        <time>2019-01-10T13:38:04Z</time>
      </trkpt>
      <trkpt lat="43.76063" lon="3.53707">
        <ele>520</ele>
        <time>2019-01-10T13:38:04Z</time>
      </trkpt>
      <trkpt lat="43.76066" lon="3.53703">
        <ele>520</ele>
        <time>2019-01-10T13:38:20Z</time>
      </trkpt>
      <trkpt lat="43.76068" lon="3.53697">
        <ele>520</ele>
        <time>2019-01-10T13:38:20Z</time>
      </trkpt>
      <trkpt lat="43.7607" lon="3.5369">
        <ele>520</ele>
        <time>2019-01-10T13:38:20Z</time>
      </trkpt>
      <trkpt lat="43.76072" lon="3.53684">
        <ele>520</ele>
        <time>2019-01-10T13:38:20Z</time>
      </trkpt>
      <trkpt lat="43.76074" lon="3.5368">
        <ele>520</ele>
        <time>2019-01-10T13:38:36Z</time>
      </trkpt>
      <trkpt lat="43.76076" lon="3.53675">
        <ele>520</ele>
        <time>2019-01-10T13:38:36Z</time>
      </trkpt>
      <trkpt lat="43.7608" lon="3.53673">
        <ele>520</ele>
        <time>2019-01-10T13:38:36Z</time>
      </trkpt>
      <trkpt lat="43.76082" lon="3.53669">
        <ele>520</ele>
        <time>2019-01-10T13:38:36Z</time>
      </trkpt>
      <trkpt lat="43.76084" lon="3.53662">
        <ele>520</ele>
        <time>2019-01-10T13:38:52Z</time>
      </trkpt>
      <trkpt lat="43.76086" lon="3.53656">
        <ele>520</ele>
        <time>2019-01-10T13:38:52Z</time>
      </trkpt>
      <trkpt lat="43.76086" lon="3.53651">
        <ele>520</ele>
        <time>2019-01-10T13:38:52Z</time>
      </trkpt>
      <trkpt lat="43.76084" lon="3.53644">
        <ele>520</ele>
        <time>2019-01-10T13:38:52Z</time>
      </trkpt>
      <trkpt lat="43.76082" lon="3.53638">
        <ele>520</ele>
        <time>2019-01-10T13:39:08Z</time>
      </trkpt>
      <trkpt lat="43.76079" lon="3.53632">
        <ele>520</ele>
        <time>2019-01-10T13:39:08Z</time>
      </trkpt>
      <trkpt lat="43.76075" lon="3.5363">
        <ele>520</ele>
        <time>2019-01-10T13:39:08Z</time>
      </trkpt>
      <trkpt lat="43.76073" lon="3.53627">
        <ele>520</ele>
        <time>2019-01-10T13:39:08Z</time>
      </trkpt>
      <trkpt lat="43.76069" lon="3.53623">
        <ele>508</ele>
        <time>2019-01-10T13:39:24Z</time>
      </trkpt>
      <trkpt lat="43.76066" lon="3.53621">
        <ele>508</ele>
        <time>2019-01-10T13:39:24Z</time>
      </trkpt>
      <trkpt lat="43.76062" lon="3.53617">
        <ele>508</ele>
        <time>2019-01-10T13:39:24Z</time>
      </trkpt>
      <trkpt lat="43.76058" lon="3.53614">
        <ele>508</ele>
        <time>2019-01-10T13:39:24Z</time>
      </trkpt>
      <trkpt lat="43.76054" lon="3.53611">
        <ele>508</ele>
        <time>2019-01-10T13:39:40Z</time>
      </trkpt>
      <trkpt lat="43.7605" lon="3.53607">
        <ele>508</ele>
        <time>2019-01-10T13:39:40Z</time>
      </trkpt>
      <trkpt lat="43.76048" lon="3.53603">
        <ele>508</ele>
        <time>2019-01-10T13:39:40Z</time>
      </trkpt>
      <trkpt lat="43.76044" lon="3.53598">
        <ele>508</ele>
        <time>2019-01-10T13:39:40Z</time>
      </trkpt>
      <trkpt lat="43.7604" lon="3.53596">
        <ele>506</ele>
        <time>2019-01-10T13:39:56Z</time>
      </trkpt>
      <trkpt lat="43.76037" lon="3.53594">
        <ele>506</ele>
        <time>2019-01-10T13:39:56Z</time>
      </trkpt>
      <trkpt lat="43.76035" lon="3.53592">
        <ele>506</ele>
        <time>2019-01-10T13:39:56Z</time>
      </trkpt>
      <trkpt lat="43.76031" lon="3.5359">
        <ele>506</ele>
        <time>2019-01-10T13:39:56Z</time>
      </trkpt>
      <trkpt lat="43.76027" lon="3.53588">
        <ele>506</ele>
        <time>2019-01-10T13:40:12Z</time>
      </trkpt>
      <trkpt lat="43.76024" lon="3.53589">
        <ele>506</ele>
        <time>2019-01-10T13:40:12Z</time>
      </trkpt>
      <trkpt lat="43.7602" lon="3.5359">
        <ele>506</ele>
        <time>2019-01-10T13:40:12Z</time>
      </trkpt>
      <trkpt lat="43.76017" lon="3.53594">
        <ele>506</ele>
        <time>2019-01-10T13:40:12Z</time>
      </trkpt>
      <trkpt lat="43.76013" lon="3.53597">
        <ele>506</ele>
        <time>2019-01-10T13:40:28Z</time>
      </trkpt>
      <trkpt lat="43.76009" lon="3.53599">
        <ele>506</ele>
        <time>2019-01-10T13:40:28Z</time>
      </trkpt>
      <trkpt lat="43.76005" lon="3.53602">
        <ele>506</ele>
        <time>2019-01-10T13:40:28Z</time>
      </trkpt>
      <trkpt lat="43.76" lon="3.53606">
        <ele>506</ele>
        <time>2019-01-10T13:40:28Z</time>
      </trkpt>
      <trkpt lat="43.75995" lon="3.53608">
        <ele>506</ele>
        <time>2019-01-10T13:40:44Z</time>
      </trkpt>
      <trkpt lat="43.75989" lon="3.53612">
        <ele>506</ele>
        <time>2019-01-10T13:40:44Z</time>
      </trkpt>
      <trkpt lat="43.75985" lon="3.53617">
        <ele>506</ele>
        <time>2019-01-10T13:40:44Z</time>
      </trkpt>
      <trkpt lat="43.75981" lon="3.53619">
        <ele>506</ele>
        <time>2019-01-10T13:40:44Z</time>
      </trkpt>
      <trkpt lat="43.75978" lon="3.53622">
        <ele>506</ele>
        <time>2019-01-10T13:41:00Z</time>
      </trkpt>
      <trkpt lat="43.75974" lon="3.53626">
        <ele>518</ele>
        <time>2019-01-10T13:41:00Z</time>
      </trkpt>
      <trkpt lat="43.7597" lon="3.53631">
        <ele>518</ele>
        <time>2019-01-10T13:41:00Z</time>
      </trkpt>
      <trkpt lat="43.75966" lon="3.53636">
        <ele>518</ele>
        <time>2019-01-10T13:41:00Z</time>
      </trkpt>
      <trkpt lat="43.75962" lon="3.5364">
        <ele>518</ele>
        <time>2019-01-10T13:41:16Z</time>
      </trkpt>
      <trkpt lat="43.75958" lon="3.53644">
        <ele>503</ele>
        <time>2019-01-10T13:41:16Z</time>
      </trkpt>
      <trkpt lat="43.75953" lon="3.53646">
        <ele>503</ele>
        <time>2019-01-10T13:41:16Z</time>
      </trkpt>
      <trkpt lat="43.75949" lon="3.53648">
        <ele>503</ele>
        <time>2019-01-10T13:41:16Z</time>
      </trkpt>
      <trkpt lat="43.75945" lon="3.53651">
        <ele>503</ele>
        <time>2019-01-10T13:41:32Z</time>
      </trkpt>
      <trkpt lat="43.7594" lon="3.53653">
        <ele>503</ele>
        <time>2019-01-10T13:41:32Z</time>
      </trkpt>
      <trkpt lat="43.75934" lon="3.53655">
        <ele>503</ele>
        <time>2019-01-10T13:41:32Z</time>
      </trkpt>
      <trkpt lat="43.7593" lon="3.53659">
        <ele>503</ele>
        <time>2019-01-10T13:41:32Z</time>
      </trkpt>
      <trkpt lat="43.75926" lon="3.53665">
        <ele>503</ele>
        <time>2019-01-10T13:41:48Z</time>
      </trkpt>
      <trkpt lat="43.75923" lon="3.5367">
        <ele>503</ele>
        <time>2019-01-10T13:41:48Z</time>
      </trkpt>
      <trkpt lat="43.75921" lon="3.53675">
        <ele>503</ele>
        <time>2019-01-10T13:41:48Z</time>
      </trkpt>
      <trkpt lat="43.75917" lon="3.53678">
        <ele>503</ele>
        <time>2019-01-10T13:41:48Z</time>
      </trkpt>
      <trkpt lat="43.75913" lon="3.5368">
        <ele>503</ele>
        <time>2019-01-10T13:42:04Z</time>
      </trkpt>
      <trkpt lat="43.75909" lon="3.53682">
        <ele>503</ele>
        <time>2019-01-10T13:42:04Z</time>
      </trkpt>
      <trkpt lat="43.75906" lon="3.53683">
        <ele>503</ele>
        <time>2019-01-10T13:42:04Z</time>
      </trkpt>
      <trkpt lat="43.75901" lon="3.53686">
        <ele>503</ele>
        <time>2019-01-10T13:42:04Z</time>
      </trkpt>
      <trkpt lat="43.75896" lon="3.53688">
        <ele>503</ele>
        <time>2019-01-10T13:42:20Z</time>
      </trkpt>
      <trkpt lat="43.75892" lon="3.5369">
        <ele>503</ele>
        <time>2019-01-10T13:42:20Z</time>
      </trkpt>
      <trkpt lat="43.75887" lon="3.53692">
        <ele>503</ele>
        <time>2019-01-10T13:42:20Z</time>
      </trkpt>
      <trkpt lat="43.75881" lon="3.53695">
        <ele>503</ele>
        <time>2019-01-10T13:42:20Z</time>
      </trkpt>
      <trkpt lat="43.75876" lon="3.53698">
        <ele>503</ele>
        <time>2019-01-10T13:42:36Z</time>
      </trkpt>
      <trkpt lat="43.75871" lon="3.53699">
        <ele>513</ele>
        <time>2019-01-10T13:42:36Z</time>
      </trkpt>
      <trkpt lat="43.75868" lon="3.537">
        <ele>513</ele>
        <time>2019-01-10T13:42:36Z</time>
      </trkpt>
      <trkpt lat="43.75865" lon="3.537">
        <ele>513</ele>
        <time>2019-01-10T13:42:36Z</time>
      </trkpt>
      <trkpt lat="43.75859" lon="3.53696">
        <ele>513</ele>
        <time>2019-01-10T13:43:04Z</time>
      </trkpt>
      <trkpt lat="43.75857" lon="3.53696">
        <ele>513</ele>
        <time>2019-01-10T13:43:04Z</time>
      </trkpt>
      <trkpt lat="43.75856" lon="3.53696">
        <ele>513</ele>
        <time>2019-01-10T13:43:04Z</time>
      </trkpt>
      <trkpt lat="43.75855" lon="3.53695">
        <ele>513</ele>
        <time>2019-01-10T13:43:04Z</time>
      </trkpt>
      <trkpt lat="43.75852" lon="3.53695">
        <ele>513</ele>
        <time>2019-01-10T13:43:04Z</time>
      </trkpt>
      <trkpt lat="43.75848" lon="3.53697">
        <ele>513</ele>
        <time>2019-01-10T13:43:20Z</time>
      </trkpt>
      <trkpt lat="43.75847" lon="3.53697">
        <ele>513</ele>
        <time>2019-01-10T13:43:20Z</time>
      </trkpt>
      <trkpt lat="43.75844" lon="3.53699">
        <ele>513</ele>
        <time>2019-01-10T13:43:20Z</time>
      </trkpt>
      <trkpt lat="43.75839" lon="3.53705">
        <ele>513</ele>
        <time>2019-01-10T13:43:20Z</time>
      </trkpt>
      <trkpt lat="43.75836" lon="3.53707">
        <ele>513</ele>
        <time>2019-01-10T13:43:36Z</time>
      </trkpt>
      <trkpt lat="43.75832" lon="3.5371">
        <ele>521</ele>
        <time>2019-01-10T13:43:36Z</time>
      </trkpt>
      <trkpt lat="43.75828" lon="3.53712">
        <ele>521</ele>
        <time>2019-01-10T13:43:36Z</time>
      </trkpt>
      <trkpt lat="43.75823" lon="3.53714">
        <ele>521</ele>
        <time>2019-01-10T13:43:36Z</time>
      </trkpt>
      <trkpt lat="43.75817" lon="3.5372">
        <ele>521</ele>
        <time>2019-01-10T13:44:04Z</time>
      </trkpt>
      <trkpt lat="43.75817" lon="3.5372">
        <ele>521</ele>
        <time>2019-01-10T13:44:04Z</time>
      </trkpt>
      <trkpt lat="43.75815" lon="3.5372">
        <ele>521</ele>
        <time>2019-01-10T13:44:04Z</time>
      </trkpt>
      <trkpt lat="43.75812" lon="3.5372">
        <ele>521</ele>
        <time>2019-01-10T13:44:04Z</time>
      </trkpt>
      <trkpt lat="43.75812" lon="3.53719">
        <ele>521</ele>
        <time>2019-01-10T13:44:04Z</time>
      </trkpt>
      <trkpt lat="43.75812" lon="3.53718">
        <ele>521</ele>
        <time>2019-01-10T13:44:32Z</time>
      </trkpt>
      <trkpt lat="43.75813" lon="3.53716">
        <ele>521</ele>
        <time>2019-01-10T13:44:32Z</time>
      </trkpt>
      <trkpt lat="43.75812" lon="3.53713">
        <ele>521</ele>
        <time>2019-01-10T13:44:32Z</time>
      </trkpt>
      <trkpt lat="43.75811" lon="3.53707">
        <ele>513</ele>
        <time>2019-01-10T13:44:32Z</time>
      </trkpt>
      <trkpt lat="43.75809" lon="3.53703">
        <ele>513</ele>
        <time>2019-01-10T13:44:32Z</time>
      </trkpt>
      <trkpt lat="43.75809" lon="3.53699">
        <ele>513</ele>
        <time>2019-01-10T13:44:48Z</time>
      </trkpt>
      <trkpt lat="43.75809" lon="3.53697">
        <ele>513</ele>
        <time>2019-01-10T13:44:48Z</time>
      </trkpt>
      <trkpt lat="43.75809" lon="3.53691">
        <ele>513</ele>
        <time>2019-01-10T13:44:48Z</time>
      </trkpt>
      <trkpt lat="43.75809" lon="3.53686">
        <ele>513</ele>
        <time>2019-01-10T13:44:48Z</time>
      </trkpt>
      <trkpt lat="43.75807" lon="3.5368">
        <ele>513</ele>
        <time>2019-01-10T13:45:04Z</time>
      </trkpt>
      <trkpt lat="43.75806" lon="3.53678">
        <ele>513</ele>
        <time>2019-01-10T13:45:04Z</time>
      </trkpt>
      <trkpt lat="43.75803" lon="3.53671">
        <ele>513</ele>
        <time>2019-01-10T13:45:04Z</time>
      </trkpt>
      <trkpt lat="43.75803" lon="3.53669">
        <ele>513</ele>
        <time>2019-01-10T13:45:04Z</time>
      </trkpt>
      <trkpt lat="43.75801" lon="3.53668">
        <ele>513</ele>
        <time>2019-01-10T13:45:20Z</time>
      </trkpt>
      <trkpt lat="43.75799" lon="3.53666">
        <ele>513</ele>
        <time>2019-01-10T13:45:20Z</time>
      </trkpt>
      <trkpt lat="43.75794" lon="3.53661">
        <ele>513</ele>
        <time>2019-01-10T13:45:20Z</time>
      </trkpt>
      <trkpt lat="43.75792" lon="3.53659">
        <ele>535</ele>
        <time>2019-01-10T13:45:20Z</time>
      </trkpt>
      <trkpt lat="43.75791" lon="3.53658">
        <ele>535</ele>
        <time>2019-01-10T13:45:40Z</time>
      </trkpt>
      <trkpt lat="43.7579" lon="3.53658">
        <ele>535</ele>
        <time>2019-01-10T13:45:40Z</time>
      </trkpt>
      <trkpt lat="43.75787" lon="3.53662">
        <ele>535</ele>
        <time>2019-01-10T13:45:40Z</time>
      </trkpt>
      <trkpt lat="43.75785" lon="3.53668">
        <ele>535</ele>
        <time>2019-01-10T13:45:40Z</time>
      </trkpt>
      <trkpt lat="43.75784" lon="3.53673">
        <ele>535</ele>
        <time>2019-01-10T13:45:40Z</time>
      </trkpt>
      <trkpt lat="43.75777" lon="3.53684">
        <ele>535</ele>
        <time>2019-01-10T13:46:36Z</time>
      </trkpt>
      <trkpt lat="43.75778" lon="3.53687">
        <ele>535</ele>
        <time>2019-01-10T13:46:36Z</time>
      </trkpt>
      <trkpt lat="43.75778" lon="3.53691">
        <ele>535</ele>
        <time>2019-01-10T13:46:36Z</time>
      </trkpt>
      <trkpt lat="43.75778" lon="3.53693">
        <ele>535</ele>
        <time>2019-01-10T13:46:36Z</time>
      </trkpt>
      <trkpt lat="43.75778" lon="3.53695">
        <ele>535</ele>
        <time>2019-01-10T13:46:36Z</time>
      </trkpt>
      <trkpt lat="43.75777" lon="3.53697">
        <ele>535</ele>
        <time>2019-01-10T13:46:52Z</time>
      </trkpt>
      <trkpt lat="43.75777" lon="3.53703">
        <ele>535</ele>
        <time>2019-01-10T13:46:52Z</time>
      </trkpt>
      <trkpt lat="43.75777" lon="3.53707">
        <ele>535</ele>
        <time>2019-01-10T13:46:52Z</time>
      </trkpt>
      <trkpt lat="43.75777" lon="3.53713">
        <ele>526</ele>
        <time>2019-01-10T13:46:52Z</time>
      </trkpt>
      <trkpt lat="43.75775" lon="3.53718">
        <ele>526</ele>
        <time>2019-01-10T13:47:08Z</time>
      </trkpt>
      <trkpt lat="43.75775" lon="3.53721">
        <ele>526</ele>
        <time>2019-01-10T13:47:08Z</time>
      </trkpt>
      <trkpt lat="43.75776" lon="3.53726">
        <ele>526</ele>
        <time>2019-01-10T13:47:08Z</time>
      </trkpt>
      <trkpt lat="43.75776" lon="3.53732">
        <ele>526</ele>
        <time>2019-01-10T13:47:08Z</time>
      </trkpt>
      <trkpt lat="43.75775" lon="3.53735">
        <ele>526</ele>
        <time>2019-01-10T13:47:40Z</time>
      </trkpt>
      <trkpt lat="43.75774" lon="3.53737">
        <ele>526</ele>
        <time>2019-01-10T13:47:40Z</time>
      </trkpt>
      <trkpt lat="43.75773" lon="3.53741">
        <ele>526</ele>
        <time>2019-01-10T13:47:40Z</time>
      </trkpt>
      <trkpt lat="43.75771" lon="3.53745">
        <ele>526</ele>
        <time>2019-01-10T13:47:40Z</time>
      </trkpt>
      <trkpt lat="43.75771" lon="3.53749">
        <ele>526</ele>
        <time>2019-01-10T13:47:40Z</time>
      </trkpt>
      <trkpt lat="43.75767" lon="3.53757">
        <ele>526</ele>
        <time>2019-01-10T13:48:12Z</time>
      </trkpt>
      <trkpt lat="43.75764" lon="3.53754">
        <ele>526</ele>
        <time>2019-01-10T13:48:12Z</time>
      </trkpt>
      <trkpt lat="43.75762" lon="3.53751">
        <ele>526</ele>
        <time>2019-01-10T13:48:12Z</time>
      </trkpt>
      <trkpt lat="43.75759" lon="3.53746">
        <ele>526</ele>
        <time>2019-01-10T13:48:12Z</time>
      </trkpt>
      <trkpt lat="43.75756" lon="3.53748">
        <ele>526</ele>
        <time>2019-01-10T13:48:12Z</time>
      </trkpt>
      <trkpt lat="43.75756" lon="3.53751">
        <ele>526</ele>
        <time>2019-01-10T13:48:32Z</time>
      </trkpt>
      <trkpt lat="43.75756" lon="3.53751">
        <ele>526</ele>
        <time>2019-01-10T13:48:32Z</time>
      </trkpt>
      <trkpt lat="43.75757" lon="3.53755">
        <ele>526</ele>
        <time>2019-01-10T13:48:32Z</time>
      </trkpt>
      <trkpt lat="43.75756" lon="3.53761">
        <ele>526</ele>
        <time>2019-01-10T13:48:32Z</time>
      </trkpt>
      <trkpt lat="43.75756" lon="3.53766">
        <ele>526</ele>
        <time>2019-01-10T13:48:32Z</time>
      </trkpt>
      <trkpt lat="43.75757" lon="3.53774">
        <ele>526</ele>
        <time>2019-01-10T13:49:00Z</time>
      </trkpt>
      <trkpt lat="43.75753" lon="3.53774">
        <ele>526</ele>
        <time>2019-01-10T13:49:00Z</time>
      </trkpt>
      <trkpt lat="43.7575" lon="3.53774">
        <ele>526</ele>
        <time>2019-01-10T13:49:00Z</time>
      </trkpt>
      <trkpt lat="43.75749" lon="3.53769">
        <ele>526</ele>
        <time>2019-01-10T13:49:00Z</time>
      </trkpt>
      <trkpt lat="43.75748" lon="3.53766">
        <ele>526</ele>
        <time>2019-01-10T13:49:00Z</time>
      </trkpt>
      <trkpt lat="43.75746" lon="3.53761">
        <ele>526</ele>
        <time>2019-01-10T13:49:16Z</time>
      </trkpt>
      <trkpt lat="43.75745" lon="3.53756">
        <ele>526</ele>
        <time>2019-01-10T13:49:16Z</time>
      </trkpt>
      <trkpt lat="43.75743" lon="3.53751">
        <ele>526</ele>
        <time>2019-01-10T13:49:16Z</time>
      </trkpt>
      <trkpt lat="43.75742" lon="3.53749">
        <ele>526</ele>
        <time>2019-01-10T13:49:16Z</time>
      </trkpt>
      <trkpt lat="43.75741" lon="3.53747">
        <ele>526</ele>
        <time>2019-01-10T13:49:36Z</time>
      </trkpt>
      <trkpt lat="43.75739" lon="3.53743">
        <ele>526</ele>
        <time>2019-01-10T13:49:36Z</time>
      </trkpt>
      <trkpt lat="43.75735" lon="3.5374">
        <ele>526</ele>
        <time>2019-01-10T13:49:36Z</time>
      </trkpt>
      <trkpt lat="43.75731" lon="3.53738">
        <ele>526</ele>
        <time>2019-01-10T13:49:36Z</time>
      </trkpt>
      <trkpt lat="43.75722" lon="3.53739">
        <ele>526</ele>
        <time>2019-01-10T13:50:12Z</time>
      </trkpt>
      <trkpt lat="43.75725" lon="3.53744">
        <ele>526</ele>
        <time>2019-01-10T13:50:12Z</time>
      </trkpt>
      <trkpt lat="43.75727" lon="3.53748">
        <ele>526</ele>
        <time>2019-01-10T13:50:12Z</time>
      </trkpt>
      <trkpt lat="43.75727" lon="3.53753">
        <ele>526</ele>
        <time>2019-01-10T13:50:12Z</time>
      </trkpt>
      <trkpt lat="43.75728" lon="3.53758">
        <ele>526</ele>
        <time>2019-01-10T13:50:12Z</time>
      </trkpt>
      <trkpt lat="43.75726" lon="3.53759">
        <ele>526</ele>
        <time>2019-01-10T13:50:44Z</time>
      </trkpt>
      <trkpt lat="43.75724" lon="3.53758">
        <ele>526</ele>
        <time>2019-01-10T13:50:44Z</time>
      </trkpt>
      <trkpt lat="43.75723" lon="3.53758">
        <ele>526</ele>
        <time>2019-01-10T13:50:44Z</time>
      </trkpt>
      <trkpt lat="43.75722" lon="3.53756">
        <ele>526</ele>
        <time>2019-01-10T13:50:44Z</time>
      </trkpt>
      <trkpt lat="43.75718" lon="3.53757">
        <ele>526</ele>
        <time>2019-01-10T13:50:44Z</time>
      </trkpt>
      <trkpt lat="43.75715" lon="3.53759">
        <ele>526</ele>
        <time>2019-01-10T13:51:04Z</time>
      </trkpt>
      <trkpt lat="43.75715" lon="3.5376">
        <ele>526</ele>
        <time>2019-01-10T13:51:04Z</time>
      </trkpt>
      <trkpt lat="43.75715" lon="3.53764">
        <ele>526</ele>
        <time>2019-01-10T13:51:04Z</time>
      </trkpt>
      <trkpt lat="43.75718" lon="3.53769">
        <ele>526</ele>
        <time>2019-01-10T13:51:04Z</time>
      </trkpt>
      <trkpt lat="43.75718" lon="3.53774">
        <ele>526</ele>
        <time>2019-01-10T13:51:04Z</time>
      </trkpt>
      <trkpt lat="43.75713" lon="3.5378">
        <ele>526</ele>
        <time>2019-01-10T13:51:44Z</time>
      </trkpt>
      <trkpt lat="43.75714" lon="3.53785">
        <ele>526</ele>
        <time>2019-01-10T13:51:44Z</time>
      </trkpt>
      <trkpt lat="43.75716" lon="3.53785">
        <ele>526</ele>
        <time>2019-01-10T13:51:44Z</time>
      </trkpt>
      <trkpt lat="43.75719" lon="3.53785">
        <ele>526</ele>
        <time>2019-01-10T13:51:44Z</time>
      </trkpt>
      <trkpt lat="43.75721" lon="3.53786">
        <ele>526</ele>
        <time>2019-01-10T13:51:44Z</time>
      </trkpt>
      <trkpt lat="43.75722" lon="3.53798">
        <ele>514</ele>
        <time>2019-01-10T13:52:28Z</time>
      </trkpt>
      <trkpt lat="43.75719" lon="3.53797">
        <ele>514</ele>
        <time>2019-01-10T13:52:28Z</time>
      </trkpt>
      <trkpt lat="43.75718" lon="3.53799">
        <ele>514</ele>
        <time>2019-01-10T13:52:28Z</time>
      </trkpt>
      <trkpt lat="43.75719" lon="3.538">
        <ele>514</ele>
        <time>2019-01-10T13:52:28Z</time>
      </trkpt>
      <trkpt lat="43.7572" lon="3.53805">
        <ele>514</ele>
        <time>2019-01-10T13:52:28Z</time>
      </trkpt>
      <trkpt lat="43.75723" lon="3.53809">
        <ele>514</ele>
        <time>2019-01-10T13:52:52Z</time>
      </trkpt>
      <trkpt lat="43.75723" lon="3.53812">
        <ele>514</ele>
        <time>2019-01-10T13:52:52Z</time>
      </trkpt>
      <trkpt lat="43.75719" lon="3.53813">
        <ele>514</ele>
        <time>2019-01-10T13:52:52Z</time>
      </trkpt>
      <trkpt lat="43.75716" lon="3.53814">
        <ele>514</ele>
        <time>2019-01-10T13:52:52Z</time>
      </trkpt>
      <trkpt lat="43.75714" lon="3.53815">
        <ele>514</ele>
        <time>2019-01-10T13:52:52Z</time>
      </trkpt>
      <trkpt lat="43.75712" lon="3.53826">
        <ele>514</ele>
        <time>2019-01-10T13:53:44Z</time>
      </trkpt>
      <trkpt lat="43.75709" lon="3.53829">
        <ele>514</ele>
        <time>2019-01-10T13:53:44Z</time>
      </trkpt>
      <trkpt lat="43.75709" lon="3.53831">
        <ele>514</ele>
        <time>2019-01-10T13:53:44Z</time>
      </trkpt>
      <trkpt lat="43.75712" lon="3.53833">
        <ele>514</ele>
        <time>2019-01-10T13:53:44Z</time>
      </trkpt>
      <trkpt lat="43.75715" lon="3.53837">
        <ele>514</ele>
        <time>2019-01-10T13:53:44Z</time>
      </trkpt>
      <trkpt lat="43.75716" lon="3.53842">
        <ele>514</ele>
        <time>2019-01-10T13:54:04Z</time>
      </trkpt>
      <trkpt lat="43.75713" lon="3.53846">
        <ele>514</ele>
        <time>2019-01-10T13:54:04Z</time>
      </trkpt>
      <trkpt lat="43.7571" lon="3.53845">
        <ele>514</ele>
        <time>2019-01-10T13:54:04Z</time>
      </trkpt>
      <trkpt lat="43.75708" lon="3.53843">
        <ele>488</ele>
        <time>2019-01-10T13:54:04Z</time>
      </trkpt>
      <trkpt lat="43.75705" lon="3.53844">
        <ele>488</ele>
        <time>2019-01-10T13:54:04Z</time>
      </trkpt>
      <trkpt lat="43.75701" lon="3.53847">
        <ele>488</ele>
        <time>2019-01-10T13:54:20Z</time>
      </trkpt>
      <trkpt lat="43.75697" lon="3.53848">
        <ele>488</ele>
        <time>2019-01-10T13:54:20Z</time>
      </trkpt>
      <trkpt lat="43.75695" lon="3.53848">
        <ele>488</ele>
        <time>2019-01-10T13:54:20Z</time>
      </trkpt>
      <trkpt lat="43.75691" lon="3.53849">
        <ele>488</ele>
        <time>2019-01-10T13:54:20Z</time>
      </trkpt>
      <trkpt lat="43.75688" lon="3.5385">
        <ele>488</ele>
        <time>2019-01-10T13:54:36Z</time>
      </trkpt>
      <trkpt lat="43.75684" lon="3.53851">
        <ele>488</ele>
        <time>2019-01-10T13:54:36Z</time>
      </trkpt>
      <trkpt lat="43.75681" lon="3.53851">
        <ele>488</ele>
        <time>2019-01-10T13:54:36Z</time>
      </trkpt>
      <trkpt lat="43.75677" lon="3.53851">
        <ele>488</ele>
        <time>2019-01-10T13:54:36Z</time>
      </trkpt>
      <trkpt lat="43.75673" lon="3.53852">
        <ele>488</ele>
        <time>2019-01-10T13:54:52Z</time>
      </trkpt>
      <trkpt lat="43.75667" lon="3.53853">
        <ele>488</ele>
        <time>2019-01-10T13:54:52Z</time>
      </trkpt>
      <trkpt lat="43.75663" lon="3.53854">
        <ele>488</ele>
        <time>2019-01-10T13:54:52Z</time>
      </trkpt>
      <trkpt lat="43.75661" lon="3.53856">
        <ele>488</ele>
        <time>2019-01-10T13:54:52Z</time>
      </trkpt>
      <trkpt lat="43.75658" lon="3.53859">
        <ele>488</ele>
        <time>2019-01-10T13:55:08Z</time>
      </trkpt>
      <trkpt lat="43.75654" lon="3.53863">
        <ele>488</ele>
        <time>2019-01-10T13:55:08Z</time>
      </trkpt>
      <trkpt lat="43.75651" lon="3.53866">
        <ele>488</ele>
        <time>2019-01-10T13:55:08Z</time>
      </trkpt>
      <trkpt lat="43.7565" lon="3.53873">
        <ele>488</ele>
        <time>2019-01-10T13:55:08Z</time>
      </trkpt>
      <trkpt lat="43.7565" lon="3.53873">
        <ele>488</ele>
        <time>2019-01-10T13:55:24Z</time>
      </trkpt>
      <trkpt lat="43.75647" lon="3.53878">
        <ele>473</ele>
        <time>2019-01-10T13:55:24Z</time>
      </trkpt>
      <trkpt lat="43.75643" lon="3.53882">
        <ele>473</ele>
        <time>2019-01-10T13:55:24Z</time>
      </trkpt>
      <trkpt lat="43.75639" lon="3.53886">
        <ele>473</ele>
        <time>2019-01-10T13:55:24Z</time>
      </trkpt>
      <trkpt lat="43.75636" lon="3.53892">
        <ele>473</ele>
        <time>2019-01-10T13:55:44Z</time>
      </trkpt>
      <trkpt lat="43.75634" lon="3.53896">
        <ele>473</ele>
        <time>2019-01-10T13:55:44Z</time>
      </trkpt>
      <trkpt lat="43.7563" lon="3.53897">
        <ele>473</ele>
        <time>2019-01-10T13:55:44Z</time>
      </trkpt>
      <trkpt lat="43.75628" lon="3.53897">
        <ele>473</ele>
        <time>2019-01-10T13:55:44Z</time>
      </trkpt>
      <trkpt lat="43.75625" lon="3.53898">
        <ele>481</ele>
        <time>2019-01-10T13:55:44Z</time>
      </trkpt>
      <trkpt lat="43.75621" lon="3.53898">
        <ele>481</ele>
        <time>2019-01-10T13:56:00Z</time>
      </trkpt>
      <trkpt lat="43.75619" lon="3.539">
        <ele>481</ele>
        <time>2019-01-10T13:56:00Z</time>
      </trkpt>
      <trkpt lat="43.75616" lon="3.53902">
        <ele>481</ele>
        <time>2019-01-10T13:56:00Z</time>
      </trkpt>
      <trkpt lat="43.75612" lon="3.53905">
        <ele>481</ele>
        <time>2019-01-10T13:56:00Z</time>
      </trkpt>
      <trkpt lat="43.75608" lon="3.53908">
        <ele>481</ele>
        <time>2019-01-10T13:56:16Z</time>
      </trkpt>
      <trkpt lat="43.75605" lon="3.53913">
        <ele>481</ele>
        <time>2019-01-10T13:56:16Z</time>
      </trkpt>
      <trkpt lat="43.75603" lon="3.53919">
        <ele>481</ele>
        <time>2019-01-10T13:56:16Z</time>
      </trkpt>
      <trkpt lat="43.75601" lon="3.53924">
        <ele>481</ele>
        <time>2019-01-10T13:56:16Z</time>
      </trkpt>
      <trkpt lat="43.75597" lon="3.5393">
        <ele>481</ele>
        <time>2019-01-10T13:56:32Z</time>
      </trkpt>
      <trkpt lat="43.75593" lon="3.53935">
        <ele>481</ele>
        <time>2019-01-10T13:56:32Z</time>
      </trkpt>
      <trkpt lat="43.75589" lon="3.53936">
        <ele>481</ele>
        <time>2019-01-10T13:56:32Z</time>
      </trkpt>
      <trkpt lat="43.75586" lon="3.53937">
        <ele>481</ele>
        <time>2019-01-10T13:56:32Z</time>
      </trkpt>
      <trkpt lat="43.7558" lon="3.53946">
        <ele>481</ele>
        <time>2019-01-10T13:57:12Z</time>
      </trkpt>
      <trkpt lat="43.7558" lon="3.5395">
        <ele>481</ele>
        <time>2019-01-10T13:57:12Z</time>
      </trkpt>
      <trkpt lat="43.75579" lon="3.53951">
        <ele>481</ele>
        <time>2019-01-10T13:57:12Z</time>
      </trkpt>
      <trkpt lat="43.75577" lon="3.53952">
        <ele>481</ele>
        <time>2019-01-10T13:57:12Z</time>
      </trkpt>
      <trkpt lat="43.75576" lon="3.53952">
        <ele>481</ele>
        <time>2019-01-10T13:57:12Z</time>
      </trkpt>
      <trkpt lat="43.75573" lon="3.53954">
        <ele>481</ele>
        <time>2019-01-10T13:57:32Z</time>
      </trkpt>
      <trkpt lat="43.75572" lon="3.53957">
        <ele>481</ele>
        <time>2019-01-10T13:57:32Z</time>
      </trkpt>
      <trkpt lat="43.75571" lon="3.5396">
        <ele>449</ele>
        <time>2019-01-10T13:57:32Z</time>
      </trkpt>
      <trkpt lat="43.75569" lon="3.53964">
        <ele>449</ele>
        <time>2019-01-10T13:57:32Z</time>
      </trkpt>
      <trkpt lat="43.75567" lon="3.53969">
        <ele>449</ele>
        <time>2019-01-10T13:57:32Z</time>
      </trkpt>
      <trkpt lat="43.75564" lon="3.53974">
        <ele>449</ele>
        <time>2019-01-10T13:57:52Z</time>
      </trkpt>
      <trkpt lat="43.75563" lon="3.53977">
        <ele>449</ele>
        <time>2019-01-10T13:57:52Z</time>
      </trkpt>
      <trkpt lat="43.75562" lon="3.53982">
        <ele>449</ele>
        <time>2019-01-10T13:57:52Z</time>
      </trkpt>
      <trkpt lat="43.7556" lon="3.53985">
        <ele>449</ele>
        <time>2019-01-10T13:57:52Z</time>
      </trkpt>
      <trkpt lat="43.75558" lon="3.5399">
        <ele>449</ele>
        <time>2019-01-10T13:57:52Z</time>
      </trkpt>
      <trkpt lat="43.75556" lon="3.53996">
        <ele>449</ele>
        <time>2019-01-10T13:58:08Z</time>
      </trkpt>
      <trkpt lat="43.75555" lon="3.54">
        <ele>449</ele>
        <time>2019-01-10T13:58:08Z</time>
      </trkpt>
      <trkpt lat="43.75553" lon="3.54004">
        <ele>449</ele>
        <time>2019-01-10T13:58:08Z</time>
      </trkpt>
      <trkpt lat="43.7555" lon="3.54009">
        <ele>449</ele>
        <time>2019-01-10T13:58:08Z</time>
      </trkpt>
      <trkpt lat="43.75546" lon="3.54013">
        <ele>449</ele>
        <time>2019-01-10T13:58:24Z</time>
      </trkpt>
      <trkpt lat="43.75542" lon="3.54017">
        <ele>449</ele>
        <time>2019-01-10T13:58:24Z</time>
      </trkpt>
      <trkpt lat="43.75542" lon="3.54022">
        <ele>468</ele>
        <time>2019-01-10T13:58:24Z</time>
      </trkpt>
      <trkpt lat="43.75539" lon="3.54026">
        <ele>468</ele>
        <time>2019-01-10T13:58:24Z</time>
      </trkpt>
      <trkpt lat="43.75538" lon="3.54029">
        <ele>468</ele>
        <time>2019-01-10T13:58:40Z</time>
      </trkpt>
      <trkpt lat="43.75537" lon="3.54034">
        <ele>468</ele>
        <time>2019-01-10T13:58:40Z</time>
      </trkpt>
      <trkpt lat="43.75533" lon="3.54038">
        <ele>468</ele>
        <time>2019-01-10T13:58:40Z</time>
      </trkpt>
      <trkpt lat="43.75531" lon="3.54041">
        <ele>468</ele>
        <time>2019-01-10T13:58:40Z</time>
      </trkpt>
      <trkpt lat="43.75528" lon="3.54044">
        <ele>444</ele>
        <time>2019-01-10T13:59:00Z</time>
      </trkpt>
      <trkpt lat="43.75526" lon="3.54043">
        <ele>444</ele>
        <time>2019-01-10T13:59:00Z</time>
      </trkpt>
      <trkpt lat="43.75524" lon="3.54039">
        <ele>468</ele>
        <time>2019-01-10T13:59:00Z</time>
      </trkpt>
      <trkpt lat="43.75523" lon="3.54035">
        <ele>468</ele>
        <time>2019-01-10T13:59:00Z</time>
      </trkpt>
      <trkpt lat="43.75519" lon="3.54036">
        <ele>468</ele>
        <time>2019-01-10T13:59:00Z</time>
      </trkpt>
      <trkpt lat="43.75514" lon="3.54041">
        <ele>468</ele>
        <time>2019-01-10T13:59:16Z</time>
      </trkpt>
      <trkpt lat="43.75511" lon="3.54045">
        <ele>444</ele>
        <time>2019-01-10T13:59:16Z</time>
      </trkpt>
      <trkpt lat="43.75508" lon="3.54046">
        <ele>444</ele>
        <time>2019-01-10T13:59:16Z</time>
      </trkpt>
      <trkpt lat="43.75505" lon="3.5405">
        <ele>444</ele>
        <time>2019-01-10T13:59:16Z</time>
      </trkpt>
      <trkpt lat="43.75502" lon="3.54055">
        <ele>444</ele>
        <time>2019-01-10T13:59:32Z</time>
      </trkpt>
      <trkpt lat="43.75501" lon="3.54059">
        <ele>444</ele>
        <time>2019-01-10T13:59:32Z</time>
      </trkpt>
      <trkpt lat="43.75499" lon="3.54063">
        <ele>444</ele>
        <time>2019-01-10T13:59:32Z</time>
      </trkpt>
      <trkpt lat="43.75497" lon="3.54067">
        <ele>444</ele>
        <time>2019-01-10T13:59:32Z</time>
      </trkpt>
      <trkpt lat="43.75497" lon="3.54074">
        <ele>444</ele>
        <time>2019-01-10T13:59:48Z</time>
      </trkpt>
      <trkpt lat="43.75495" lon="3.5408">
        <ele>444</ele>
        <time>2019-01-10T13:59:48Z</time>
      </trkpt>
      <trkpt lat="43.75493" lon="3.54087">
        <ele>444</ele>
        <time>2019-01-10T13:59:48Z</time>
      </trkpt>
      <trkpt lat="43.75491" lon="3.54093">
        <ele>444</ele>
        <time>2019-01-10T13:59:48Z</time>
      </trkpt>
      <trkpt lat="43.7549" lon="3.541">
        <ele>444</ele>
        <time>2019-01-10T14:00:04Z</time>
      </trkpt>
      <trkpt lat="43.7549" lon="3.54106">
        <ele>444</ele>
        <time>2019-01-10T14:00:04Z</time>
      </trkpt>
      <trkpt lat="43.75489" lon="3.54112">
        <ele>444</ele>
        <time>2019-01-10T14:00:04Z</time>
      </trkpt>
      <trkpt lat="43.75489" lon="3.54118">
        <ele>444</ele>
        <time>2019-01-10T14:00:04Z</time>
      </trkpt>
      <trkpt lat="43.75488" lon="3.54123">
        <ele>444</ele>
        <time>2019-01-10T14:00:20Z</time>
      </trkpt>
      <trkpt lat="43.75487" lon="3.54129">
        <ele>427</ele>
        <time>2019-01-10T14:00:20Z</time>
      </trkpt>
      <trkpt lat="43.75487" lon="3.54134">
        <ele>427</ele>
        <time>2019-01-10T14:00:20Z</time>
      </trkpt>
      <trkpt lat="43.75489" lon="3.54138">
        <ele>427</ele>
        <time>2019-01-10T14:00:20Z</time>
      </trkpt>
      <trkpt lat="43.75493" lon="3.54146">
        <ele>427</ele>
        <time>2019-01-10T14:00:56Z</time>
      </trkpt>
      <trkpt lat="43.75493" lon="3.54141">
        <ele>427</ele>
        <time>2019-01-10T14:00:56Z</time>
      </trkpt>
      <trkpt lat="43.75495" lon="3.54137">
        <ele>427</ele>
        <time>2019-01-10T14:00:56Z</time>
      </trkpt>
      <trkpt lat="43.75496" lon="3.54131">
        <ele>427</ele>
        <time>2019-01-10T14:00:56Z</time>
      </trkpt>
      <trkpt lat="43.75497" lon="3.54127">
        <ele>427</ele>
        <time>2019-01-10T14:00:56Z</time>
      </trkpt>
      <trkpt lat="43.75498" lon="3.54121">
        <ele>444</ele>
        <time>2019-01-10T14:01:12Z</time>
      </trkpt>
      <trkpt lat="43.755" lon="3.54116">
        <ele>444</ele>
        <time>2019-01-10T14:01:12Z</time>
      </trkpt>
      <trkpt lat="43.75502" lon="3.54112">
        <ele>444</ele>
        <time>2019-01-10T14:01:12Z</time>
      </trkpt>
      <trkpt lat="43.75503" lon="3.54109">
        <ele>444</ele>
        <time>2019-01-10T14:01:12Z</time>
      </trkpt>
      <trkpt lat="43.75505" lon="3.54104">
        <ele>444</ele>
        <time>2019-01-10T14:01:28Z</time>
      </trkpt>
      <trkpt lat="43.75509" lon="3.541">
        <ele>444</ele>
        <time>2019-01-10T14:01:28Z</time>
      </trkpt>
      <trkpt lat="43.75511" lon="3.54098">
        <ele>444</ele>
        <time>2019-01-10T14:01:28Z</time>
      </trkpt>
      <trkpt lat="43.75513" lon="3.54096">
        <ele>444</ele>
        <time>2019-01-10T14:01:28Z</time>
      </trkpt>
      <trkpt lat="43.75515" lon="3.54095">
        <ele>444</ele>
        <time>2019-01-10T14:01:44Z</time>
      </trkpt>
      <trkpt lat="43.75519" lon="3.54094">
        <ele>444</ele>
        <time>2019-01-10T14:01:44Z</time>
      </trkpt>
      <trkpt lat="43.75524" lon="3.54093">
        <ele>444</ele>
        <time>2019-01-10T14:01:44Z</time>
      </trkpt>
      <trkpt lat="43.75526" lon="3.54092">
        <ele>444</ele>
        <time>2019-01-10T14:01:44Z</time>
      </trkpt>
      <trkpt lat="43.75526" lon="3.54092">
        <ele>444</ele>
        <time>2019-01-10T14:02:00Z</time>
      </trkpt>
      <trkpt lat="43.75528" lon="3.5409">
        <ele>444</ele>
        <time>2019-01-10T14:02:00Z</time>
      </trkpt>
      <trkpt lat="43.75532" lon="3.54088">
        <ele>444</ele>
        <time>2019-01-10T14:02:00Z</time>
      </trkpt>
      <trkpt lat="43.75536" lon="3.54083">
        <ele>444</ele>
        <time>2019-01-10T14:02:00Z</time>
      </trkpt>
      <trkpt lat="43.75542" lon="3.54078">
        <ele>444</ele>
        <time>2019-01-10T14:02:16Z</time>
      </trkpt>
      <trkpt lat="43.75547" lon="3.54074">
        <ele>423</ele>
        <time>2019-01-10T14:02:16Z</time>
      </trkpt>
      <trkpt lat="43.75552" lon="3.5407">
        <ele>423</ele>
        <time>2019-01-10T14:02:16Z</time>
      </trkpt>
      <trkpt lat="43.75556" lon="3.54065">
        <ele>423</ele>
        <time>2019-01-10T14:02:16Z</time>
      </trkpt>
      <trkpt lat="43.75561" lon="3.54063">
        <ele>423</ele>
        <time>2019-01-10T14:02:32Z</time>
      </trkpt>
      <trkpt lat="43.75566" lon="3.5406">
        <ele>423</ele>
        <time>2019-01-10T14:02:32Z</time>
      </trkpt>
      <trkpt lat="43.75571" lon="3.54056">
        <ele>423</ele>
        <time>2019-01-10T14:02:32Z</time>
      </trkpt>
      <trkpt lat="43.75575" lon="3.54055">
        <ele>423</ele>
        <time>2019-01-10T14:02:32Z</time>
      </trkpt>
      <trkpt lat="43.75578" lon="3.54053">
        <ele>423</ele>
        <time>2019-01-10T14:02:48Z</time>
      </trkpt>
      <trkpt lat="43.75582" lon="3.54052">
        <ele>423</ele>
        <time>2019-01-10T14:02:48Z</time>
      </trkpt>
      <trkpt lat="43.75585" lon="3.54052">
        <ele>423</ele>
        <time>2019-01-10T14:02:48Z</time>
      </trkpt>
      <trkpt lat="43.75588" lon="3.54051">
        <ele>423</ele>
        <time>2019-01-10T14:02:48Z</time>
      </trkpt>
      <trkpt lat="43.75593" lon="3.54051">
        <ele>423</ele>
        <time>2019-01-10T14:03:32Z</time>
      </trkpt>
      <trkpt lat="43.75594" lon="3.5405">
        <ele>423</ele>
        <time>2019-01-10T14:03:32Z</time>
      </trkpt>
      <trkpt lat="43.75598" lon="3.54048">
        <ele>423</ele>
        <time>2019-01-10T14:03:32Z</time>
      </trkpt>
      <trkpt lat="43.756" lon="3.54048">
        <ele>423</ele>
        <time>2019-01-10T14:03:32Z</time>
      </trkpt>
      <trkpt lat="43.75603" lon="3.54046">
        <ele>423</ele>
        <time>2019-01-10T14:03:32Z</time>
      </trkpt>
      <trkpt lat="43.75607" lon="3.54043">
        <ele>423</ele>
        <time>2019-01-10T14:03:48Z</time>
      </trkpt>
      <trkpt lat="43.75612" lon="3.54043">
        <ele>423</ele>
        <time>2019-01-10T14:03:48Z</time>
      </trkpt>
      <trkpt lat="43.75617" lon="3.54045">
        <ele>423</ele>
        <time>2019-01-10T14:03:48Z</time>
      </trkpt>
      <trkpt lat="43.7562" lon="3.54049">
        <ele>423</ele>
        <time>2019-01-10T14:03:48Z</time>
      </trkpt>
      <trkpt lat="43.7562" lon="3.54053">
        <ele>423</ele>
        <time>2019-01-10T14:04:04Z</time>
      </trkpt>
      <trkpt lat="43.7562" lon="3.54057">
        <ele>423</ele>
        <time>2019-01-10T14:04:04Z</time>
      </trkpt>
      <trkpt lat="43.75619" lon="3.54061">
        <ele>423</ele>
        <time>2019-01-10T14:04:04Z</time>
      </trkpt>
      <trkpt lat="43.75617" lon="3.54066">
        <ele>423</ele>
        <time>2019-01-10T14:04:04Z</time>
      </trkpt>
      <trkpt lat="43.75615" lon="3.54073">
        <ele>423</ele>
        <time>2019-01-10T14:04:20Z</time>
      </trkpt>
      <trkpt lat="43.75613" lon="3.54078">
        <ele>423</ele>
        <time>2019-01-10T14:04:20Z</time>
      </trkpt>
      <trkpt lat="43.75612" lon="3.54083">
        <ele>423</ele>
        <time>2019-01-10T14:04:20Z</time>
      </trkpt>
      <trkpt lat="43.75611" lon="3.54086">
        <ele>423</ele>
        <time>2019-01-10T14:04:20Z</time>
      </trkpt>
      <trkpt lat="43.75607" lon="3.54091">
        <ele>423</ele>
        <time>2019-01-10T14:04:36Z</time>
      </trkpt>
      <trkpt lat="43.75605" lon="3.54095">
        <ele>423</ele>
        <time>2019-01-10T14:04:36Z</time>
      </trkpt>
      <trkpt lat="43.75605" lon="3.541">
        <ele>423</ele>
        <time>2019-01-10T14:04:36Z</time>
      </trkpt>
      <trkpt lat="43.75602" lon="3.54106">
        <ele>423</ele>
        <time>2019-01-10T14:04:36Z</time>
      </trkpt>
      <trkpt lat="43.756" lon="3.5411">
        <ele>423</ele>
        <time>2019-01-10T14:04:52Z</time>
      </trkpt>
      <trkpt lat="43.756" lon="3.54116">
        <ele>423</ele>
        <time>2019-01-10T14:04:52Z</time>
      </trkpt>
      <trkpt lat="43.75599" lon="3.54122">
        <ele>423</ele>
        <time>2019-01-10T14:04:52Z</time>
      </trkpt>
      <trkpt lat="43.75598" lon="3.54128">
        <ele>414</ele>
        <time>2019-01-10T14:04:52Z</time>
      </trkpt>
      <trkpt lat="43.75594" lon="3.54132">
        <ele>414</ele>
        <time>2019-01-10T14:05:08Z</time>
      </trkpt>
      <trkpt lat="43.75591" lon="3.54135">
        <ele>414</ele>
        <time>2019-01-10T14:05:08Z</time>
      </trkpt>
      <trkpt lat="43.75589" lon="3.54139">
        <ele>414</ele>
        <time>2019-01-10T14:05:08Z</time>
      </trkpt>
      <trkpt lat="43.75586" lon="3.54142">
        <ele>414</ele>
        <time>2019-01-10T14:05:08Z</time>
      </trkpt>
      <trkpt lat="43.75584" lon="3.54147">
        <ele>414</ele>
        <time>2019-01-10T14:05:24Z</time>
      </trkpt>
      <trkpt lat="43.75583" lon="3.54152">
        <ele>414</ele>
        <time>2019-01-10T14:05:24Z</time>
      </trkpt>
      <trkpt lat="43.75581" lon="3.54157">
        <ele>414</ele>
        <time>2019-01-10T14:05:24Z</time>
      </trkpt>
      <trkpt lat="43.75581" lon="3.54162">
        <ele>414</ele>
        <time>2019-01-10T14:05:24Z</time>
      </trkpt>
      <trkpt lat="43.75581" lon="3.54169">
        <ele>414</ele>
        <time>2019-01-10T14:05:40Z</time>
      </trkpt>
      <trkpt lat="43.75579" lon="3.54174">
        <ele>414</ele>
        <time>2019-01-10T14:05:40Z</time>
      </trkpt>
      <trkpt lat="43.75577" lon="3.5418">
        <ele>414</ele>
        <time>2019-01-10T14:05:40Z</time>
      </trkpt>
      <trkpt lat="43.75573" lon="3.54187">
        <ele>414</ele>
        <time>2019-01-10T14:05:40Z</time>
      </trkpt>
      <trkpt lat="43.75571" lon="3.54191">
        <ele>414</ele>
        <time>2019-01-10T14:05:56Z</time>
      </trkpt>
      <trkpt lat="43.7557" lon="3.54195">
        <ele>414</ele>
        <time>2019-01-10T14:05:56Z</time>
      </trkpt>
      <trkpt lat="43.75569" lon="3.54201">
        <ele>414</ele>
        <time>2019-01-10T14:05:56Z</time>
      </trkpt>
      <trkpt lat="43.7557" lon="3.54206">
        <ele>414</ele>
        <time>2019-01-10T14:05:56Z</time>
      </trkpt>
      <trkpt lat="43.75572" lon="3.5421">
        <ele>414</ele>
        <time>2019-01-10T14:06:12Z</time>
      </trkpt>
      <trkpt lat="43.75571" lon="3.54215">
        <ele>414</ele>
        <time>2019-01-10T14:06:12Z</time>
      </trkpt>
      <trkpt lat="43.75572" lon="3.54224">
        <ele>414</ele>
        <time>2019-01-10T14:06:12Z</time>
      </trkpt>
      <trkpt lat="43.75571" lon="3.5423">
        <ele>414</ele>
        <time>2019-01-10T14:06:12Z</time>
      </trkpt>
      <trkpt lat="43.75569" lon="3.54237">
        <ele>414</ele>
        <time>2019-01-10T14:06:28Z</time>
      </trkpt>
      <trkpt lat="43.75568" lon="3.54243">
        <ele>414</ele>
        <time>2019-01-10T14:06:28Z</time>
      </trkpt>
      <trkpt lat="43.75567" lon="3.5425">
        <ele>414</ele>
        <time>2019-01-10T14:06:28Z</time>
      </trkpt>
      <trkpt lat="43.75567" lon="3.54257">
        <ele>414</ele>
        <time>2019-01-10T14:06:28Z</time>
      </trkpt>
      <trkpt lat="43.75565" lon="3.54262">
        <ele>414</ele>
        <time>2019-01-10T14:06:44Z</time>
      </trkpt>
      <trkpt lat="43.75564" lon="3.54266">
        <ele>414</ele>
        <time>2019-01-10T14:06:44Z</time>
      </trkpt>
      <trkpt lat="43.75562" lon="3.54272">
        <ele>414</ele>
        <time>2019-01-10T14:06:44Z</time>
      </trkpt>
      <trkpt lat="43.75561" lon="3.54276">
        <ele>414</ele>
        <time>2019-01-10T14:06:44Z</time>
      </trkpt>
      <trkpt lat="43.75558" lon="3.54282">
        <ele>414</ele>
        <time>2019-01-10T14:07:00Z</time>
      </trkpt>
      <trkpt lat="43.75557" lon="3.54287">
        <ele>414</ele>
        <time>2019-01-10T14:07:00Z</time>
      </trkpt>
      <trkpt lat="43.75556" lon="3.54293">
        <ele>413</ele>
        <time>2019-01-10T14:07:00Z</time>
      </trkpt>
      <trkpt lat="43.75555" lon="3.54299">
        <ele>413</ele>
        <time>2019-01-10T14:07:00Z</time>
      </trkpt>
      <trkpt lat="43.75555" lon="3.54302">
        <ele>413</ele>
        <time>2019-01-10T14:07:16Z</time>
      </trkpt>
      <trkpt lat="43.75553" lon="3.54305">
        <ele>413</ele>
        <time>2019-01-10T14:07:16Z</time>
      </trkpt>
      <trkpt lat="43.75551" lon="3.5431">
        <ele>413</ele>
        <time>2019-01-10T14:07:16Z</time>
      </trkpt>
      <trkpt lat="43.75547" lon="3.54314">
        <ele>413</ele>
        <time>2019-01-10T14:07:16Z</time>
      </trkpt>
      <trkpt lat="43.75545" lon="3.54317">
        <ele>413</ele>
        <time>2019-01-10T14:07:32Z</time>
      </trkpt>
      <trkpt lat="43.75541" lon="3.54318">
        <ele>396</ele>
        <time>2019-01-10T14:07:32Z</time>
      </trkpt>
      <trkpt lat="43.75538" lon="3.54321">
        <ele>396</ele>
        <time>2019-01-10T14:07:32Z</time>
      </trkpt>
      <trkpt lat="43.75536" lon="3.54321">
        <ele>396</ele>
        <time>2019-01-10T14:07:32Z</time>
      </trkpt>
      <trkpt lat="43.75536" lon="3.54321">
        <ele>396</ele>
        <time>2019-01-10T14:07:52Z</time>
      </trkpt>
      <trkpt lat="43.75534" lon="3.54319">
        <ele>396</ele>
        <time>2019-01-10T14:07:52Z</time>
      </trkpt>
      <trkpt lat="43.75533" lon="3.54318">
        <ele>396</ele>
        <time>2019-01-10T14:07:52Z</time>
      </trkpt>
      <trkpt lat="43.7553" lon="3.54315">
        <ele>396</ele>
        <time>2019-01-10T14:07:52Z</time>
      </trkpt>
      <trkpt lat="43.75527" lon="3.54311">
        <ele>396</ele>
        <time>2019-01-10T14:07:52Z</time>
      </trkpt>
      <trkpt lat="43.75523" lon="3.5431">
        <ele>396</ele>
        <time>2019-01-10T14:08:08Z</time>
      </trkpt>
      <trkpt lat="43.75518" lon="3.54309">
        <ele>396</ele>
        <time>2019-01-10T14:08:08Z</time>
      </trkpt>
      <trkpt lat="43.75513" lon="3.54309">
        <ele>396</ele>
        <time>2019-01-10T14:08:08Z</time>
      </trkpt>
      <trkpt lat="43.75507" lon="3.54312">
        <ele>396</ele>
        <time>2019-01-10T14:08:08Z</time>
      </trkpt>
      <trkpt lat="43.75503" lon="3.54314">
        <ele>396</ele>
        <time>2019-01-10T14:08:24Z</time>
      </trkpt>
      <trkpt lat="43.75498" lon="3.54316">
        <ele>396</ele>
        <time>2019-01-10T14:08:24Z</time>
      </trkpt>
      <trkpt lat="43.75493" lon="3.54318">
        <ele>396</ele>
        <time>2019-01-10T14:08:24Z</time>
      </trkpt>
      <trkpt lat="43.75488" lon="3.54322">
        <ele>396</ele>
        <time>2019-01-10T14:08:24Z</time>
      </trkpt>
      <trkpt lat="43.75483" lon="3.54321">
        <ele>396</ele>
        <time>2019-01-10T14:08:40Z</time>
      </trkpt>
      <trkpt lat="43.75478" lon="3.54321">
        <ele>396</ele>
        <time>2019-01-10T14:08:40Z</time>
      </trkpt>
      <trkpt lat="43.75474" lon="3.54323">
        <ele>396</ele>
        <time>2019-01-10T14:08:40Z</time>
      </trkpt>
      <trkpt lat="43.7547" lon="3.54325">
        <ele>396</ele>
        <time>2019-01-10T14:08:40Z</time>
      </trkpt>
      <trkpt lat="43.75466" lon="3.54323">
        <ele>396</ele>
        <time>2019-01-10T14:08:56Z</time>
      </trkpt>
      <trkpt lat="43.7546" lon="3.5432">
        <ele>396</ele>
        <time>2019-01-10T14:08:56Z</time>
      </trkpt>
      <trkpt lat="43.75456" lon="3.54316">
        <ele>384</ele>
        <time>2019-01-10T14:08:56Z</time>
      </trkpt>
      <trkpt lat="43.75453" lon="3.54314">
        <ele>384</ele>
        <time>2019-01-10T14:08:56Z</time>
      </trkpt>
      <trkpt lat="43.75451" lon="3.54312">
        <ele>384</ele>
        <time>2019-01-10T14:09:12Z</time>
      </trkpt>
      <trkpt lat="43.75448" lon="3.54311">
        <ele>384</ele>
        <time>2019-01-10T14:09:12Z</time>
      </trkpt>
      <trkpt lat="43.75445" lon="3.5431">
        <ele>384</ele>
        <time>2019-01-10T14:09:12Z</time>
      </trkpt>
      <trkpt lat="43.75441" lon="3.54309">
        <ele>384</ele>
        <time>2019-01-10T14:09:12Z</time>
      </trkpt>
      <trkpt lat="43.75432" lon="3.54309">
        <ele>384</ele>
        <time>2019-01-10T14:10:56Z</time>
      </trkpt>
      <trkpt lat="43.75429" lon="3.54309">
        <ele>384</ele>
        <time>2019-01-10T14:10:56Z</time>
      </trkpt>
      <trkpt lat="43.75428" lon="3.54309">
        <ele>384</ele>
        <time>2019-01-10T14:10:56Z</time>
      </trkpt>
      <trkpt lat="43.75427" lon="3.54309">
        <ele>384</ele>
        <time>2019-01-10T14:10:56Z</time>
      </trkpt>
      <trkpt lat="43.75424" lon="3.54309">
        <ele>384</ele>
        <time>2019-01-10T14:10:56Z</time>
      </trkpt>
      <trkpt lat="43.75421" lon="3.54312">
        <ele>384</ele>
        <time>2019-01-10T14:11:12Z</time>
      </trkpt>
      <trkpt lat="43.75417" lon="3.54314">
        <ele>384</ele>
        <time>2019-01-10T14:11:12Z</time>
      </trkpt>
      <trkpt lat="43.75414" lon="3.54316">
        <ele>384</ele>
        <time>2019-01-10T14:11:12Z</time>
      </trkpt>
      <trkpt lat="43.75409" lon="3.54317">
        <ele>384</ele>
        <time>2019-01-10T14:11:12Z</time>
      </trkpt>
      <trkpt lat="43.75404" lon="3.5432">
        <ele>384</ele>
        <time>2019-01-10T14:11:28Z</time>
      </trkpt>
      <trkpt lat="43.754" lon="3.5432">
        <ele>384</ele>
        <time>2019-01-10T14:11:28Z</time>
      </trkpt>
      <trkpt lat="43.75398" lon="3.5432">
        <ele>384</ele>
        <time>2019-01-10T14:11:28Z</time>
      </trkpt>
      <trkpt lat="43.75394" lon="3.54318">
        <ele>384</ele>
        <time>2019-01-10T14:11:28Z</time>
      </trkpt>
      <trkpt lat="43.7539" lon="3.54316">
        <ele>384</ele>
        <time>2019-01-10T14:12:36Z</time>
      </trkpt>
      <trkpt lat="43.7539" lon="3.54316">
        <ele>384</ele>
        <time>2019-01-10T14:12:36Z</time>
      </trkpt>
      <trkpt lat="43.75388" lon="3.54317">
        <ele>384</ele>
        <time>2019-01-10T14:12:36Z</time>
      </trkpt>
      <trkpt lat="43.75382" lon="3.54317">
        <ele>384</ele>
        <time>2019-01-10T14:12:36Z</time>
      </trkpt>
      <trkpt lat="43.75378" lon="3.5432">
        <ele>384</ele>
        <time>2019-01-10T14:12:36Z</time>
      </trkpt>
      <trkpt lat="43.75373" lon="3.54322">
        <ele>395</ele>
        <time>2019-01-10T14:12:52Z</time>
      </trkpt>
      <trkpt lat="43.75371" lon="3.54323">
        <ele>395</ele>
        <time>2019-01-10T14:12:52Z</time>
      </trkpt>
      <trkpt lat="43.75368" lon="3.54327">
        <ele>395</ele>
        <time>2019-01-10T14:12:52Z</time>
      </trkpt>
      <trkpt lat="43.75365" lon="3.54329">
        <ele>395</ele>
        <time>2019-01-10T14:12:52Z</time>
      </trkpt>
      <trkpt lat="43.75363" lon="3.54331">
        <ele>395</ele>
        <time>2019-01-10T14:13:08Z</time>
      </trkpt>
      <trkpt lat="43.75358" lon="3.54335">
        <ele>395</ele>
        <time>2019-01-10T14:13:08Z</time>
      </trkpt>
      <trkpt lat="43.75353" lon="3.54337">
        <ele>395</ele>
        <time>2019-01-10T14:13:08Z</time>
      </trkpt>
      <trkpt lat="43.75349" lon="3.5434">
        <ele>395</ele>
        <time>2019-01-10T14:13:08Z</time>
      </trkpt>
      <trkpt lat="43.75345" lon="3.54343">
        <ele>395</ele>
        <time>2019-01-10T14:13:24Z</time>
      </trkpt>
      <trkpt lat="43.75341" lon="3.54348">
        <ele>395</ele>
        <time>2019-01-10T14:13:24Z</time>
      </trkpt>
      <trkpt lat="43.75337" lon="3.54351">
        <ele>395</ele>
        <time>2019-01-10T14:13:24Z</time>
      </trkpt>
      <trkpt lat="43.75335" lon="3.54354">
        <ele>395</ele>
        <time>2019-01-10T14:13:24Z</time>
      </trkpt>
      <trkpt lat="43.7533" lon="3.5436">
        <ele>395</ele>
        <time>2019-01-10T14:13:40Z</time>
      </trkpt>
      <trkpt lat="43.75326" lon="3.54365">
        <ele>395</ele>
        <time>2019-01-10T14:13:40Z</time>
      </trkpt>
      <trkpt lat="43.75323" lon="3.54368">
        <ele>395</ele>
        <time>2019-01-10T14:13:40Z</time>
      </trkpt>
      <trkpt lat="43.75318" lon="3.54373">
        <ele>395</ele>
        <time>2019-01-10T14:13:40Z</time>
      </trkpt>
      <trkpt lat="43.75314" lon="3.54376">
        <ele>369</ele>
        <time>2019-01-10T14:14:00Z</time>
      </trkpt>
      <trkpt lat="43.75312" lon="3.54377">
        <ele>369</ele>
        <time>2019-01-10T14:14:00Z</time>
      </trkpt>
      <trkpt lat="43.75308" lon="3.54379">
        <ele>369</ele>
        <time>2019-01-10T14:14:00Z</time>
      </trkpt>
      <trkpt lat="43.75306" lon="3.5438">
        <ele>369</ele>
        <time>2019-01-10T14:14:00Z</time>
      </trkpt>
      <trkpt lat="43.75303" lon="3.54382">
        <ele>369</ele>
        <time>2019-01-10T14:14:00Z</time>
      </trkpt>
      <trkpt lat="43.75298" lon="3.54386">
        <ele>369</ele>
        <time>2019-01-10T14:14:16Z</time>
      </trkpt>
      <trkpt lat="43.75292" lon="3.5439">
        <ele>369</ele>
        <time>2019-01-10T14:14:16Z</time>
      </trkpt>
      <trkpt lat="43.75289" lon="3.54391">
        <ele>394</ele>
        <time>2019-01-10T14:14:16Z</time>
      </trkpt>
      <trkpt lat="43.75283" lon="3.54394">
        <ele>394</ele>
        <time>2019-01-10T14:14:16Z</time>
      </trkpt>
      <trkpt lat="43.75278" lon="3.54397">
        <ele>394</ele>
        <time>2019-01-10T14:14:32Z</time>
      </trkpt>
      <trkpt lat="43.75274" lon="3.544">
        <ele>394</ele>
        <time>2019-01-10T14:14:32Z</time>
      </trkpt>
      <trkpt lat="43.7527" lon="3.54403">
        <ele>394</ele>
        <time>2019-01-10T14:14:32Z</time>
      </trkpt>
      <trkpt lat="43.75266" lon="3.54405">
        <ele>394</ele>
        <time>2019-01-10T14:14:32Z</time>
      </trkpt>
      <trkpt lat="43.75262" lon="3.54408">
        <ele>394</ele>
        <time>2019-01-10T14:14:48Z</time>
      </trkpt>
      <trkpt lat="43.75259" lon="3.54413">
        <ele>394</ele>
        <time>2019-01-10T14:14:48Z</time>
      </trkpt>
      <trkpt lat="43.75254" lon="3.54419">
        <ele>394</ele>
        <time>2019-01-10T14:14:48Z</time>
      </trkpt>
      <trkpt lat="43.75249" lon="3.54422">
        <ele>394</ele>
        <time>2019-01-10T14:14:48Z</time>
      </trkpt>
      <trkpt lat="43.75244" lon="3.54426">
        <ele>394</ele>
        <time>2019-01-10T14:15:04Z</time>
      </trkpt>
      <trkpt lat="43.75238" lon="3.5443">
        <ele>394</ele>
        <time>2019-01-10T14:15:04Z</time>
      </trkpt>
      <trkpt lat="43.75234" lon="3.54435">
        <ele>394</ele>
        <time>2019-01-10T14:15:04Z</time>
      </trkpt>
      <trkpt lat="43.75229" lon="3.54438">
        <ele>394</ele>
        <time>2019-01-10T14:15:04Z</time>
      </trkpt>
      <trkpt lat="43.75225" lon="3.54443">
        <ele>394</ele>
        <time>2019-01-10T14:15:20Z</time>
      </trkpt>
      <trkpt lat="43.75221" lon="3.54445">
        <ele>394</ele>
        <time>2019-01-10T14:15:20Z</time>
      </trkpt>
      <trkpt lat="43.75218" lon="3.54448">
        <ele>394</ele>
        <time>2019-01-10T14:15:20Z</time>
      </trkpt>
      <trkpt lat="43.75215" lon="3.5445">
        <ele>394</ele>
        <time>2019-01-10T14:15:20Z</time>
      </trkpt>
      <trkpt lat="43.75211" lon="3.54453">
        <ele>394</ele>
        <time>2019-01-10T14:15:36Z</time>
      </trkpt>
      <trkpt lat="43.75206" lon="3.54458">
        <ele>398</ele>
        <time>2019-01-10T14:15:36Z</time>
      </trkpt>
      <trkpt lat="43.75201" lon="3.54462">
        <ele>371</ele>
        <time>2019-01-10T14:15:36Z</time>
      </trkpt>
      <trkpt lat="43.75197" lon="3.54464">
        <ele>371</ele>
        <time>2019-01-10T14:15:36Z</time>
      </trkpt>
      <trkpt lat="43.75193" lon="3.54464">
        <ele>371</ele>
        <time>2019-01-10T14:15:52Z</time>
      </trkpt>
      <trkpt lat="43.7519" lon="3.54464">
        <ele>371</ele>
        <time>2019-01-10T14:15:52Z</time>
      </trkpt>
      <trkpt lat="43.75186" lon="3.54463">
        <ele>371</ele>
        <time>2019-01-10T14:15:52Z</time>
      </trkpt>
      <trkpt lat="43.75183" lon="3.54461">
        <ele>371</ele>
        <time>2019-01-10T14:15:52Z</time>
      </trkpt>
      <trkpt lat="43.75182" lon="3.5446">
        <ele>371</ele>
        <time>2019-01-10T14:16:08Z</time>
      </trkpt>
      <trkpt lat="43.75179" lon="3.5446">
        <ele>371</ele>
        <time>2019-01-10T14:16:08Z</time>
      </trkpt>
      <trkpt lat="43.75175" lon="3.54459">
        <ele>371</ele>
        <time>2019-01-10T14:16:08Z</time>
      </trkpt>
      <trkpt lat="43.75171" lon="3.54457">
        <ele>398</ele>
        <time>2019-01-10T14:16:08Z</time>
      </trkpt>
      <trkpt lat="43.75168" lon="3.54456">
        <ele>398</ele>
        <time>2019-01-10T14:16:24Z</time>
      </trkpt>
      <trkpt lat="43.75164" lon="3.54452">
        <ele>398</ele>
        <time>2019-01-10T14:16:24Z</time>
      </trkpt>
      <trkpt lat="43.7516" lon="3.5445">
        <ele>398</ele>
        <time>2019-01-10T14:16:24Z</time>
      </trkpt>
      <trkpt lat="43.75156" lon="3.54448">
        <ele>398</ele>
        <time>2019-01-10T14:16:24Z</time>
      </trkpt>
      <trkpt lat="43.75152" lon="3.54445">
        <ele>398</ele>
        <time>2019-01-10T14:16:40Z</time>
      </trkpt>
      <trkpt lat="43.75147" lon="3.54443">
        <ele>398</ele>
        <time>2019-01-10T14:16:40Z</time>
      </trkpt>
      <trkpt lat="43.75143" lon="3.54441">
        <ele>398</ele>
        <time>2019-01-10T14:16:40Z</time>
      </trkpt>
      <trkpt lat="43.75139" lon="3.54438">
        <ele>398</ele>
        <time>2019-01-10T14:16:40Z</time>
      </trkpt>
      <trkpt lat="43.75134" lon="3.54433">
        <ele>398</ele>
        <time>2019-01-10T14:16:56Z</time>
      </trkpt>
      <trkpt lat="43.7513" lon="3.54429">
        <ele>398</ele>
        <time>2019-01-10T14:16:56Z</time>
      </trkpt>
      <trkpt lat="43.75127" lon="3.54424">
        <ele>398</ele>
        <time>2019-01-10T14:16:56Z</time>
      </trkpt>
      <trkpt lat="43.75123" lon="3.54422">
        <ele>392</ele>
        <time>2019-01-10T14:16:56Z</time>
      </trkpt>
      <trkpt lat="43.75119" lon="3.54423">
        <ele>392</ele>
        <time>2019-01-10T14:17:12Z</time>
      </trkpt>
      <trkpt lat="43.75114" lon="3.54423">
        <ele>392</ele>
        <time>2019-01-10T14:17:12Z</time>
      </trkpt>
      <trkpt lat="43.75109" lon="3.54426">
        <ele>392</ele>
        <time>2019-01-10T14:17:12Z</time>
      </trkpt>
      <trkpt lat="43.75105" lon="3.54425">
        <ele>392</ele>
        <time>2019-01-10T14:17:12Z</time>
      </trkpt>
      <trkpt lat="43.75102" lon="3.54425">
        <ele>392</ele>
        <time>2019-01-10T14:17:32Z</time>
      </trkpt>
      <trkpt lat="43.751" lon="3.54424">
        <ele>392</ele>
        <time>2019-01-10T14:17:32Z</time>
      </trkpt>
      <trkpt lat="43.75098" lon="3.54424">
        <ele>392</ele>
        <time>2019-01-10T14:17:32Z</time>
      </trkpt>
      <trkpt lat="43.75094" lon="3.54424">
        <ele>392</ele>
        <time>2019-01-10T14:17:32Z</time>
      </trkpt>
      <trkpt lat="43.75089" lon="3.54426">
        <ele>392</ele>
        <time>2019-01-10T14:17:32Z</time>
      </trkpt>
      <trkpt lat="43.75085" lon="3.54429">
        <ele>392</ele>
        <time>2019-01-10T14:17:52Z</time>
      </trkpt>
      <trkpt lat="43.75082" lon="3.54431">
        <ele>392</ele>
        <time>2019-01-10T14:17:52Z</time>
      </trkpt>
      <trkpt lat="43.7508" lon="3.54431">
        <ele>392</ele>
        <time>2019-01-10T14:17:52Z</time>
      </trkpt>
      <trkpt lat="43.75077" lon="3.54434">
        <ele>392</ele>
        <time>2019-01-10T14:17:52Z</time>
      </trkpt>
      <trkpt lat="43.75075" lon="3.54439">
        <ele>392</ele>
        <time>2019-01-10T14:17:52Z</time>
      </trkpt>
      <trkpt lat="43.75071" lon="3.54442">
        <ele>392</ele>
        <time>2019-01-10T14:18:08Z</time>
      </trkpt>
      <trkpt lat="43.75067" lon="3.54446">
        <ele>392</ele>
        <time>2019-01-10T14:18:08Z</time>
      </trkpt>
      <trkpt lat="43.75063" lon="3.54453">
        <ele>392</ele>
        <time>2019-01-10T14:18:08Z</time>
      </trkpt>
      <trkpt lat="43.75058" lon="3.5446">
        <ele>364</ele>
        <time>2019-01-10T14:18:08Z</time>
      </trkpt>
      <trkpt lat="43.75055" lon="3.54464">
        <ele>364</ele>
        <time>2019-01-10T14:18:24Z</time>
      </trkpt>
      <trkpt lat="43.75052" lon="3.54467">
        <ele>364</ele>
        <time>2019-01-10T14:18:24Z</time>
      </trkpt>
      <trkpt lat="43.75049" lon="3.54471">
        <ele>364</ele>
        <time>2019-01-10T14:18:24Z</time>
      </trkpt>
      <trkpt lat="43.75045" lon="3.54476">
        <ele>364</ele>
        <time>2019-01-10T14:18:24Z</time>
      </trkpt>
      <trkpt lat="43.75042" lon="3.54481">
        <ele>364</ele>
        <time>2019-01-10T14:18:40Z</time>
      </trkpt>
      <trkpt lat="43.75038" lon="3.54485">
        <ele>385</ele>
        <time>2019-01-10T14:18:40Z</time>
      </trkpt>
      <trkpt lat="43.75036" lon="3.5449">
        <ele>385</ele>
        <time>2019-01-10T14:18:40Z</time>
      </trkpt>
      <trkpt lat="43.75037" lon="3.54496">
        <ele>385</ele>
        <time>2019-01-10T14:18:40Z</time>
      </trkpt>
      <trkpt lat="43.75036" lon="3.54502">
        <ele>385</ele>
        <time>2019-01-10T14:18:56Z</time>
      </trkpt>
      <trkpt lat="43.75033" lon="3.5451">
        <ele>385</ele>
        <time>2019-01-10T14:18:56Z</time>
      </trkpt>
      <trkpt lat="43.75031" lon="3.54517">
        <ele>385</ele>
        <time>2019-01-10T14:18:56Z</time>
      </trkpt>
      <trkpt lat="43.7503" lon="3.54523">
        <ele>385</ele>
        <time>2019-01-10T14:18:56Z</time>
      </trkpt>
      <trkpt lat="43.75028" lon="3.54529">
        <ele>385</ele>
        <time>2019-01-10T14:19:12Z</time>
      </trkpt>
      <trkpt lat="43.75026" lon="3.54536">
        <ele>385</ele>
        <time>2019-01-10T14:19:12Z</time>
      </trkpt>
      <trkpt lat="43.75024" lon="3.54544">
        <ele>371</ele>
        <time>2019-01-10T14:19:12Z</time>
      </trkpt>
      <trkpt lat="43.7502" lon="3.5455">
        <ele>371</ele>
        <time>2019-01-10T14:19:12Z</time>
      </trkpt>
      <trkpt lat="43.75018" lon="3.54555">
        <ele>371</ele>
        <time>2019-01-10T14:19:28Z</time>
      </trkpt>
      <trkpt lat="43.75016" lon="3.5456">
        <ele>371</ele>
        <time>2019-01-10T14:19:28Z</time>
      </trkpt>
      <trkpt lat="43.75015" lon="3.54566">
        <ele>371</ele>
        <time>2019-01-10T14:19:28Z</time>
      </trkpt>
      <trkpt lat="43.75013" lon="3.54571">
        <ele>371</ele>
        <time>2019-01-10T14:19:28Z</time>
      </trkpt>
      <trkpt lat="43.75011" lon="3.54575">
        <ele>371</ele>
        <time>2019-01-10T14:19:44Z</time>
      </trkpt>
      <trkpt lat="43.75011" lon="3.54579">
        <ele>371</ele>
        <time>2019-01-10T14:19:44Z</time>
      </trkpt>
      <trkpt lat="43.7501" lon="3.54586">
        <ele>371</ele>
        <time>2019-01-10T14:19:44Z</time>
      </trkpt>
      <trkpt lat="43.75007" lon="3.54593">
        <ele>371</ele>
        <time>2019-01-10T14:19:44Z</time>
      </trkpt>
      <trkpt lat="43.75004" lon="3.54598">
        <ele>371</ele>
        <time>2019-01-10T14:20:00Z</time>
      </trkpt>
      <trkpt lat="43.74999" lon="3.54603">
        <ele>371</ele>
        <time>2019-01-10T14:20:00Z</time>
      </trkpt>
      <trkpt lat="43.74997" lon="3.54608">
        <ele>371</ele>
        <time>2019-01-10T14:20:00Z</time>
      </trkpt>
      <trkpt lat="43.74994" lon="3.54613">
        <ele>371</ele>
        <time>2019-01-10T14:20:00Z</time>
      </trkpt>
      <trkpt lat="43.74991" lon="3.54618">
        <ele>371</ele>
        <time>2019-01-10T14:20:16Z</time>
      </trkpt>
      <trkpt lat="43.74988" lon="3.54622">
        <ele>371</ele>
        <time>2019-01-10T14:20:16Z</time>
      </trkpt>
      <trkpt lat="43.74984" lon="3.54626">
        <ele>352</ele>
        <time>2019-01-10T14:20:16Z</time>
      </trkpt>
      <trkpt lat="43.74981" lon="3.54631">
        <ele>352</ele>
        <time>2019-01-10T14:20:16Z</time>
      </trkpt>
      <trkpt lat="43.7498" lon="3.54636">
        <ele>352</ele>
        <time>2019-01-10T14:20:32Z</time>
      </trkpt>
      <trkpt lat="43.74978" lon="3.54643">
        <ele>352</ele>
        <time>2019-01-10T14:20:32Z</time>
      </trkpt>
      <trkpt lat="43.74976" lon="3.54646">
        <ele>352</ele>
        <time>2019-01-10T14:20:32Z</time>
      </trkpt>
      <trkpt lat="43.74972" lon="3.54652">
        <ele>352</ele>
        <time>2019-01-10T14:20:32Z</time>
      </trkpt>
      <trkpt lat="43.74968" lon="3.54657">
        <ele>352</ele>
        <time>2019-01-10T14:20:48Z</time>
      </trkpt>
      <trkpt lat="43.74966" lon="3.5466">
        <ele>352</ele>
        <time>2019-01-10T14:20:48Z</time>
      </trkpt>
      <trkpt lat="43.74962" lon="3.54662">
        <ele>352</ele>
        <time>2019-01-10T14:20:48Z</time>
      </trkpt>
      <trkpt lat="43.74958" lon="3.54663">
        <ele>352</ele>
        <time>2019-01-10T14:20:48Z</time>
      </trkpt>
      <trkpt lat="43.74955" lon="3.54659">
        <ele>352</ele>
        <time>2019-01-10T14:21:08Z</time>
      </trkpt>
      <trkpt lat="43.74953" lon="3.54654">
        <ele>352</ele>
        <time>2019-01-10T14:21:08Z</time>
      </trkpt>
      <trkpt lat="43.74953" lon="3.5465">
        <ele>352</ele>
        <time>2019-01-10T14:21:08Z</time>
      </trkpt>
      <trkpt lat="43.74952" lon="3.54648">
        <ele>352</ele>
        <time>2019-01-10T14:21:08Z</time>
      </trkpt>
      <trkpt lat="43.74949" lon="3.54644">
        <ele>352</ele>
        <time>2019-01-10T14:21:08Z</time>
      </trkpt>
      <trkpt lat="43.74946" lon="3.54642">
        <ele>352</ele>
        <time>2019-01-10T14:21:24Z</time>
      </trkpt>
      <trkpt lat="43.74943" lon="3.54638">
        <ele>352</ele>
        <time>2019-01-10T14:21:24Z</time>
      </trkpt>
      <trkpt lat="43.7494" lon="3.54634">
        <ele>352</ele>
        <time>2019-01-10T14:21:24Z</time>
      </trkpt>
      <trkpt lat="43.74936" lon="3.54631">
        <ele>352</ele>
        <time>2019-01-10T14:21:24Z</time>
      </trkpt>
      <trkpt lat="43.74932" lon="3.54627">
        <ele>352</ele>
        <time>2019-01-10T14:21:40Z</time>
      </trkpt>
      <trkpt lat="43.7493" lon="3.54622">
        <ele>363</ele>
        <time>2019-01-10T14:21:40Z</time>
      </trkpt>
      <trkpt lat="43.74928" lon="3.54617">
        <ele>363</ele>
        <time>2019-01-10T14:21:40Z</time>
      </trkpt>
      <trkpt lat="43.74925" lon="3.54614">
        <ele>363</ele>
        <time>2019-01-10T14:21:40Z</time>
      </trkpt>
      <trkpt lat="43.74923" lon="3.54609">
        <ele>363</ele>
        <time>2019-01-10T14:21:56Z</time>
      </trkpt>
      <trkpt lat="43.74921" lon="3.54605">
        <ele>363</ele>
        <time>2019-01-10T14:21:56Z</time>
      </trkpt>
      <trkpt lat="43.74919" lon="3.54603">
        <ele>363</ele>
        <time>2019-01-10T14:21:56Z</time>
      </trkpt>
      <trkpt lat="43.74915" lon="3.54599">
        <ele>363</ele>
        <time>2019-01-10T14:21:56Z</time>
      </trkpt>
      <trkpt lat="43.74912" lon="3.54595">
        <ele>363</ele>
        <time>2019-01-10T14:22:12Z</time>
      </trkpt>
      <trkpt lat="43.7491" lon="3.54593">
        <ele>363</ele>
        <time>2019-01-10T14:22:12Z</time>
      </trkpt>
      <trkpt lat="43.74905" lon="3.54588">
        <ele>363</ele>
        <time>2019-01-10T14:22:12Z</time>
      </trkpt>
      <trkpt lat="43.74901" lon="3.54582">
        <ele>363</ele>
        <time>2019-01-10T14:22:12Z</time>
      </trkpt>
      <trkpt lat="43.749" lon="3.54577">
        <ele>363</ele>
        <time>2019-01-10T14:22:28Z</time>
      </trkpt>
      <trkpt lat="43.74896" lon="3.54571">
        <ele>363</ele>
        <time>2019-01-10T14:22:28Z</time>
      </trkpt>
      <trkpt lat="43.74893" lon="3.54566">
        <ele>363</ele>
        <time>2019-01-10T14:22:28Z</time>
      </trkpt>
      <trkpt lat="43.74891" lon="3.54562">
        <ele>363</ele>
        <time>2019-01-10T14:22:28Z</time>
      </trkpt>
      <trkpt lat="43.74889" lon="3.54556">
        <ele>363</ele>
        <time>2019-01-10T14:22:44Z</time>
      </trkpt>
      <trkpt lat="43.74885" lon="3.5455">
        <ele>363</ele>
        <time>2019-01-10T14:22:44Z</time>
      </trkpt>
      <trkpt lat="43.74881" lon="3.54546">
        <ele>363</ele>
        <time>2019-01-10T14:22:44Z</time>
      </trkpt>
      <trkpt lat="43.74877" lon="3.54544">
        <ele>363</ele>
        <time>2019-01-10T14:22:44Z</time>
      </trkpt>
      <trkpt lat="43.7487" lon="3.54543">
        <ele>346</ele>
        <time>2019-01-10T14:23:00Z</time>
      </trkpt>
      <trkpt lat="43.74864" lon="3.54544">
        <ele>346</ele>
        <time>2019-01-10T14:23:00Z</time>
      </trkpt>
      <trkpt lat="43.74859" lon="3.54545">
        <ele>346</ele>
        <time>2019-01-10T14:23:00Z</time>
      </trkpt>
      <trkpt lat="43.74854" lon="3.54545">
        <ele>346</ele>
        <time>2019-01-10T14:23:00Z</time>
      </trkpt>
      <trkpt lat="43.7485" lon="3.54544">
        <ele>346</ele>
        <time>2019-01-10T14:23:16Z</time>
      </trkpt>
      <trkpt lat="43.74846" lon="3.54546">
        <ele>346</ele>
        <time>2019-01-10T14:23:16Z</time>
      </trkpt>
      <trkpt lat="43.74841" lon="3.54547">
        <ele>346</ele>
        <time>2019-01-10T14:23:16Z</time>
      </trkpt>
      <trkpt lat="43.74837" lon="3.54549">
        <ele>346</ele>
        <time>2019-01-10T14:23:16Z</time>
      </trkpt>
      <trkpt lat="43.74832" lon="3.5455">
        <ele>346</ele>
        <time>2019-01-10T14:23:32Z</time>
      </trkpt>
      <trkpt lat="43.74828" lon="3.54552">
        <ele>346</ele>
        <time>2019-01-10T14:23:32Z</time>
      </trkpt>
      <trkpt lat="43.74823" lon="3.54553">
        <ele>346</ele>
        <time>2019-01-10T14:23:32Z</time>
      </trkpt>
      <trkpt lat="43.74817" lon="3.54553">
        <ele>346</ele>
        <time>2019-01-10T14:23:32Z</time>
      </trkpt>
      <trkpt lat="43.74812" lon="3.54553">
        <ele>346</ele>
        <time>2019-01-10T14:23:48Z</time>
      </trkpt>
      <trkpt lat="43.74808" lon="3.54553">
        <ele>346</ele>
        <time>2019-01-10T14:23:48Z</time>
      </trkpt>
      <trkpt lat="43.74804" lon="3.54556">
        <ele>346</ele>
        <time>2019-01-10T14:23:48Z</time>
      </trkpt>
      <trkpt lat="43.748" lon="3.54558">
        <ele>346</ele>
        <time>2019-01-10T14:23:48Z</time>
      </trkpt>
      <trkpt lat="43.74796" lon="3.5456">
        <ele>346</ele>
        <time>2019-01-10T14:24:04Z</time>
      </trkpt>
      <trkpt lat="43.74793" lon="3.54562">
        <ele>346</ele>
        <time>2019-01-10T14:24:04Z</time>
      </trkpt>
      <trkpt lat="43.7479" lon="3.54564">
        <ele>338</ele>
        <time>2019-01-10T14:24:04Z</time>
      </trkpt>
      <trkpt lat="43.74786" lon="3.54566">
        <ele>338</ele>
        <time>2019-01-10T14:24:04Z</time>
      </trkpt>
      <trkpt lat="43.74782" lon="3.54569">
        <ele>338</ele>
        <time>2019-01-10T14:24:20Z</time>
      </trkpt>
      <trkpt lat="43.74779" lon="3.54569">
        <ele>338</ele>
        <time>2019-01-10T14:24:20Z</time>
      </trkpt>
      <trkpt lat="43.74775" lon="3.54569">
        <ele>338</ele>
        <time>2019-01-10T14:24:20Z</time>
      </trkpt>
      <trkpt lat="43.74771" lon="3.5457">
        <ele>338</ele>
        <time>2019-01-10T14:24:20Z</time>
      </trkpt>
      <trkpt lat="43.74767" lon="3.54573">
        <ele>338</ele>
        <time>2019-01-10T14:24:36Z</time>
      </trkpt>
      <trkpt lat="43.74766" lon="3.54573">
        <ele>338</ele>
        <time>2019-01-10T14:24:36Z</time>
      </trkpt>
      <trkpt lat="43.74762" lon="3.54574">
        <ele>338</ele>
        <time>2019-01-10T14:24:36Z</time>
      </trkpt>
      <trkpt lat="43.74757" lon="3.54576">
        <ele>338</ele>
        <time>2019-01-10T14:24:36Z</time>
      </trkpt>
      <trkpt lat="43.74753" lon="3.54576">
        <ele>338</ele>
        <time>2019-01-10T14:24:52Z</time>
      </trkpt>
      <trkpt lat="43.74748" lon="3.54577">
        <ele>338</ele>
        <time>2019-01-10T14:24:52Z</time>
      </trkpt>
      <trkpt lat="43.74744" lon="3.54579">
        <ele>338</ele>
        <time>2019-01-10T14:24:52Z</time>
      </trkpt>
      <trkpt lat="43.7474" lon="3.5458">
        <ele>338</ele>
        <time>2019-01-10T14:24:52Z</time>
      </trkpt>
      <trkpt lat="43.74736" lon="3.54579">
        <ele>338</ele>
        <time>2019-01-10T14:25:08Z</time>
      </trkpt>
      <trkpt lat="43.74732" lon="3.54576">
        <ele>338</ele>
        <time>2019-01-10T14:25:08Z</time>
      </trkpt>
      <trkpt lat="43.74729" lon="3.54573">
        <ele>338</ele>
        <time>2019-01-10T14:25:08Z</time>
      </trkpt>
      <trkpt lat="43.74726" lon="3.5457">
        <ele>338</ele>
        <time>2019-01-10T14:25:08Z</time>
      </trkpt>
      <trkpt lat="43.74722" lon="3.54568">
        <ele>338</ele>
        <time>2019-01-10T14:25:24Z</time>
      </trkpt>
      <trkpt lat="43.74719" lon="3.54565">
        <ele>338</ele>
        <time>2019-01-10T14:25:24Z</time>
      </trkpt>
      <trkpt lat="43.74715" lon="3.54561">
        <ele>338</ele>
        <time>2019-01-10T14:25:24Z</time>
      </trkpt>
      <trkpt lat="43.74712" lon="3.54556">
        <ele>338</ele>
        <time>2019-01-10T14:25:24Z</time>
      </trkpt>
      <trkpt lat="43.7471" lon="3.5455">
        <ele>338</ele>
        <time>2019-01-10T14:25:40Z</time>
      </trkpt>
      <trkpt lat="43.74709" lon="3.54544">
        <ele>338</ele>
        <time>2019-01-10T14:25:40Z</time>
      </trkpt>
      <trkpt lat="43.7471" lon="3.54538">
        <ele>337</ele>
        <time>2019-01-10T14:25:40Z</time>
      </trkpt>
      <trkpt lat="43.7471" lon="3.54534">
        <ele>337</ele>
        <time>2019-01-10T14:25:40Z</time>
      </trkpt>
      <trkpt lat="43.74711" lon="3.54529">
        <ele>337</ele>
        <time>2019-01-10T14:25:56Z</time>
      </trkpt>
      <trkpt lat="43.74711" lon="3.54525">
        <ele>337</ele>
        <time>2019-01-10T14:25:56Z</time>
      </trkpt>
      <trkpt lat="43.74713" lon="3.54519">
        <ele>337</ele>
        <time>2019-01-10T14:25:56Z</time>
      </trkpt>
      <trkpt lat="43.74715" lon="3.54515">
        <ele>337</ele>
        <time>2019-01-10T14:25:56Z</time>
      </trkpt>
      <trkpt lat="43.74716" lon="3.54509">
        <ele>337</ele>
        <time>2019-01-10T14:26:12Z</time>
      </trkpt>
      <trkpt lat="43.74719" lon="3.54504">
        <ele>337</ele>
        <time>2019-01-10T14:26:12Z</time>
      </trkpt>
      <trkpt lat="43.74721" lon="3.54498">
        <ele>337</ele>
        <time>2019-01-10T14:26:12Z</time>
      </trkpt>
      <trkpt lat="43.74723" lon="3.54493">
        <ele>337</ele>
        <time>2019-01-10T14:26:12Z</time>
      </trkpt>
      <trkpt lat="43.74725" lon="3.54489">
        <ele>337</ele>
        <time>2019-01-10T14:26:28Z</time>
      </trkpt>
      <trkpt lat="43.74728" lon="3.54483">
        <ele>337</ele>
        <time>2019-01-10T14:26:28Z</time>
      </trkpt>
      <trkpt lat="43.74731" lon="3.54478">
        <ele>337</ele>
        <time>2019-01-10T14:26:28Z</time>
      </trkpt>
      <trkpt lat="43.74734" lon="3.54473">
        <ele>337</ele>
        <time>2019-01-10T14:26:28Z</time>
      </trkpt>
      <trkpt lat="43.74736" lon="3.54469">
        <ele>337</ele>
        <time>2019-01-10T14:26:44Z</time>
      </trkpt>
      <trkpt lat="43.74739" lon="3.54464">
        <ele>337</ele>
        <time>2019-01-10T14:26:44Z</time>
      </trkpt>
      <trkpt lat="43.74742" lon="3.54459">
        <ele>337</ele>
        <time>2019-01-10T14:26:44Z</time>
      </trkpt>
      <trkpt lat="43.74745" lon="3.54454">
        <ele>330</ele>
        <time>2019-01-10T14:26:44Z</time>
      </trkpt>
      <trkpt lat="43.74747" lon="3.5445">
        <ele>330</ele>
        <time>2019-01-10T14:27:00Z</time>
      </trkpt>
      <trkpt lat="43.7475" lon="3.54443">
        <ele>330</ele>
        <time>2019-01-10T14:27:00Z</time>
      </trkpt>
      <trkpt lat="43.74752" lon="3.54436">
        <ele>330</ele>
        <time>2019-01-10T14:27:00Z</time>
      </trkpt>
      <trkpt lat="43.74754" lon="3.54429">
        <ele>330</ele>
        <time>2019-01-10T14:27:00Z</time>
      </trkpt>
      <trkpt lat="43.74754" lon="3.54422">
        <ele>330</ele>
        <time>2019-01-10T14:27:16Z</time>
      </trkpt>
      <trkpt lat="43.74754" lon="3.54416">
        <ele>330</ele>
        <time>2019-01-10T14:27:16Z</time>
      </trkpt>
      <trkpt lat="43.74756" lon="3.54409">
        <ele>330</ele>
        <time>2019-01-10T14:27:16Z</time>
      </trkpt>
      <trkpt lat="43.74758" lon="3.54403">
        <ele>330</ele>
        <time>2019-01-10T14:27:16Z</time>
      </trkpt>
      <trkpt lat="43.7476" lon="3.54398">
        <ele>330</ele>
        <time>2019-01-10T14:27:32Z</time>
      </trkpt>
      <trkpt lat="43.74761" lon="3.54394">
        <ele>330</ele>
        <time>2019-01-10T14:27:32Z</time>
      </trkpt>
      <trkpt lat="43.7476" lon="3.54389">
        <ele>330</ele>
        <time>2019-01-10T14:27:32Z</time>
      </trkpt>
      <trkpt lat="43.74759" lon="3.54384">
        <ele>330</ele>
        <time>2019-01-10T14:27:32Z</time>
      </trkpt>
      <trkpt lat="43.74759" lon="3.54379">
        <ele>330</ele>
        <time>2019-01-10T14:27:48Z</time>
      </trkpt>
      <trkpt lat="43.74759" lon="3.54372">
        <ele>323</ele>
        <time>2019-01-10T14:27:48Z</time>
      </trkpt>
      <trkpt lat="43.74759" lon="3.54366">
        <ele>323</ele>
        <time>2019-01-10T14:27:48Z</time>
      </trkpt>
      <trkpt lat="43.74759" lon="3.5436">
        <ele>323</ele>
        <time>2019-01-10T14:27:48Z</time>
      </trkpt>
      <trkpt lat="43.74759" lon="3.54358">
        <ele>323</ele>
        <time>2019-01-10T14:28:04Z</time>
      </trkpt>
      <trkpt lat="43.74759" lon="3.54353">
        <ele>323</ele>
        <time>2019-01-10T14:28:04Z</time>
      </trkpt>
      <trkpt lat="43.7476" lon="3.54346">
        <ele>323</ele>
        <time>2019-01-10T14:28:04Z</time>
      </trkpt>
      <trkpt lat="43.74761" lon="3.54339">
        <ele>323</ele>
        <time>2019-01-10T14:28:04Z</time>
      </trkpt>
      <trkpt lat="43.74761" lon="3.54334">
        <ele>323</ele>
        <time>2019-01-10T14:28:20Z</time>
      </trkpt>
      <trkpt lat="43.74761" lon="3.5433">
        <ele>323</ele>
        <time>2019-01-10T14:28:20Z</time>
      </trkpt>
      <trkpt lat="43.74763" lon="3.54324">
        <ele>323</ele>
        <time>2019-01-10T14:28:20Z</time>
      </trkpt>
      <trkpt lat="43.74763" lon="3.54319">
        <ele>323</ele>
        <time>2019-01-10T14:28:20Z</time>
      </trkpt>
      <trkpt lat="43.74763" lon="3.54315">
        <ele>323</ele>
        <time>2019-01-10T14:28:36Z</time>
      </trkpt>
      <trkpt lat="43.74763" lon="3.54309">
        <ele>323</ele>
        <time>2019-01-10T14:28:36Z</time>
      </trkpt>
      <trkpt lat="43.74763" lon="3.54303">
        <ele>323</ele>
        <time>2019-01-10T14:28:36Z</time>
      </trkpt>
      <trkpt lat="43.74763" lon="3.54297">
        <ele>323</ele>
        <time>2019-01-10T14:28:36Z</time>
      </trkpt>
      <trkpt lat="43.74763" lon="3.54291">
        <ele>318</ele>
        <time>2019-01-10T14:28:52Z</time>
      </trkpt>
      <trkpt lat="43.74765" lon="3.54285">
        <ele>318</ele>
        <time>2019-01-10T14:28:52Z</time>
      </trkpt>
      <trkpt lat="43.74766" lon="3.54277">
        <ele>318</ele>
        <time>2019-01-10T14:28:52Z</time>
      </trkpt>
      <trkpt lat="43.74768" lon="3.54272">
        <ele>318</ele>
        <time>2019-01-10T14:28:52Z</time>
      </trkpt>
      <trkpt lat="43.74769" lon="3.54272">
        <ele>318</ele>
        <time>2019-01-10T14:29:08Z</time>
      </trkpt>
      <trkpt lat="43.74769" lon="3.5427">
        <ele>318</ele>
        <time>2019-01-10T14:29:08Z</time>
      </trkpt>
      <trkpt lat="43.74771" lon="3.54264">
        <ele>318</ele>
        <time>2019-01-10T14:29:08Z</time>
      </trkpt>
      <trkpt lat="43.74771" lon="3.54259">
        <ele>318</ele>
        <time>2019-01-10T14:29:08Z</time>
      </trkpt>
      <trkpt lat="43.74769" lon="3.54255">
        <ele>318</ele>
        <time>2019-01-10T14:29:24Z</time>
      </trkpt>
      <trkpt lat="43.74767" lon="3.5425">
        <ele>318</ele>
        <time>2019-01-10T14:29:24Z</time>
      </trkpt>
      <trkpt lat="43.74766" lon="3.54245">
        <ele>318</ele>
        <time>2019-01-10T14:29:24Z</time>
      </trkpt>
      <trkpt lat="43.74765" lon="3.54238">
        <ele>318</ele>
        <time>2019-01-10T14:29:24Z</time>
      </trkpt>
      <trkpt lat="43.74762" lon="3.54232">
        <ele>318</ele>
        <time>2019-01-10T14:29:40Z</time>
      </trkpt>
      <trkpt lat="43.74762" lon="3.54227">
        <ele>318</ele>
        <time>2019-01-10T14:29:40Z</time>
      </trkpt>
      <trkpt lat="43.74759" lon="3.54223">
        <ele>318</ele>
        <time>2019-01-10T14:29:40Z</time>
      </trkpt>
      <trkpt lat="43.7476" lon="3.54215">
        <ele>318</ele>
        <time>2019-01-10T14:29:40Z</time>
      </trkpt>
      <trkpt lat="43.7476" lon="3.54206">
        <ele>320</ele>
        <time>2019-01-10T14:29:56Z</time>
      </trkpt>
      <trkpt lat="43.7476" lon="3.54201">
        <ele>320</ele>
        <time>2019-01-10T14:29:56Z</time>
      </trkpt>
      <trkpt lat="43.74762" lon="3.54197">
        <ele>320</ele>
        <time>2019-01-10T14:29:56Z</time>
      </trkpt>
      <trkpt lat="43.74764" lon="3.5419">
        <ele>320</ele>
        <time>2019-01-10T14:29:56Z</time>
      </trkpt>
      <trkpt lat="43.74765" lon="3.54184">
        <ele>320</ele>
        <time>2019-01-10T14:30:12Z</time>
      </trkpt>
      <trkpt lat="43.74767" lon="3.54177">
        <ele>320</ele>
        <time>2019-01-10T14:30:12Z</time>
      </trkpt>
      <trkpt lat="43.74769" lon="3.54169">
        <ele>320</ele>
        <time>2019-01-10T14:30:12Z</time>
      </trkpt>
      <trkpt lat="43.74772" lon="3.54163">
        <ele>320</ele>
        <time>2019-01-10T14:30:12Z</time>
      </trkpt>
      <trkpt lat="43.74772" lon="3.54157">
        <ele>320</ele>
        <time>2019-01-10T14:30:28Z</time>
      </trkpt>
      <trkpt lat="43.74773" lon="3.54153">
        <ele>320</ele>
        <time>2019-01-10T14:30:28Z</time>
      </trkpt>
      <trkpt lat="43.7477" lon="3.54149">
        <ele>320</ele>
        <time>2019-01-10T14:30:28Z</time>
      </trkpt>
      <trkpt lat="43.74766" lon="3.54147">
        <ele>320</ele>
        <time>2019-01-10T14:30:28Z</time>
      </trkpt>
      <trkpt lat="43.74763" lon="3.54144">
        <ele>320</ele>
        <time>2019-01-10T14:30:44Z</time>
      </trkpt>
      <trkpt lat="43.7476" lon="3.54141">
        <ele>320</ele>
        <time>2019-01-10T14:30:44Z</time>
      </trkpt>
      <trkpt lat="43.74756" lon="3.54139">
        <ele>320</ele>
        <time>2019-01-10T14:30:44Z</time>
      </trkpt>
      <trkpt lat="43.74753" lon="3.54137">
        <ele>320</ele>
        <time>2019-01-10T14:30:44Z</time>
      </trkpt>
      <trkpt lat="43.74749" lon="3.54135">
        <ele>320</ele>
        <time>2019-01-10T14:31:00Z</time>
      </trkpt>
      <trkpt lat="43.74746" lon="3.54131">
        <ele>320</ele>
        <time>2019-01-10T14:31:00Z</time>
      </trkpt>
      <trkpt lat="43.74743" lon="3.54127">
        <ele>320</ele>
        <time>2019-01-10T14:31:00Z</time>
      </trkpt>
      <trkpt lat="43.74739" lon="3.54126">
        <ele>320</ele>
        <time>2019-01-10T14:31:00Z</time>
      </trkpt>
      <trkpt lat="43.74737" lon="3.54125">
        <ele>332</ele>
        <time>2019-01-10T14:31:16Z</time>
      </trkpt>
      <trkpt lat="43.74732" lon="3.54123">
        <ele>332</ele>
        <time>2019-01-10T14:31:16Z</time>
      </trkpt>
      <trkpt lat="43.74729" lon="3.54122">
        <ele>332</ele>
        <time>2019-01-10T14:31:16Z</time>
      </trkpt>
      <trkpt lat="43.74725" lon="3.54121">
        <ele>332</ele>
        <time>2019-01-10T14:31:16Z</time>
      </trkpt>
      <trkpt lat="43.74721" lon="3.54119">
        <ele>332</ele>
        <time>2019-01-10T14:31:32Z</time>
      </trkpt>
      <trkpt lat="43.74716" lon="3.54117">
        <ele>332</ele>
        <time>2019-01-10T14:31:32Z</time>
      </trkpt>
      <trkpt lat="43.74712" lon="3.54117">
        <ele>332</ele>
        <time>2019-01-10T14:31:32Z</time>
      </trkpt>
      <trkpt lat="43.74708" lon="3.54118">
        <ele>331</ele>
        <time>2019-01-10T14:31:32Z</time>
      </trkpt>
      <trkpt lat="43.74702" lon="3.54118">
        <ele>331</ele>
        <time>2019-01-10T14:31:48Z</time>
      </trkpt>
      <trkpt lat="43.74701" lon="3.54118">
        <ele>331</ele>
        <time>2019-01-10T14:31:48Z</time>
      </trkpt>
      <trkpt lat="43.74696" lon="3.54118">
        <ele>331</ele>
        <time>2019-01-10T14:31:48Z</time>
      </trkpt>
      <trkpt lat="43.74692" lon="3.54117">
        <ele>331</ele>
        <time>2019-01-10T14:31:48Z</time>
      </trkpt>
      <trkpt lat="43.74689" lon="3.54117">
        <ele>331</ele>
        <time>2019-01-10T14:32:04Z</time>
      </trkpt>
      <trkpt lat="43.74685" lon="3.54119">
        <ele>331</ele>
        <time>2019-01-10T14:32:04Z</time>
      </trkpt>
      <trkpt lat="43.74684" lon="3.54118">
        <ele>331</ele>
        <time>2019-01-10T14:32:04Z</time>
      </trkpt>
      <trkpt lat="43.74679" lon="3.5412">
        <ele>331</ele>
        <time>2019-01-10T14:32:04Z</time>
      </trkpt>
      <trkpt lat="43.74675" lon="3.5412">
        <ele>331</ele>
        <time>2019-01-10T14:32:20Z</time>
      </trkpt>
      <trkpt lat="43.74669" lon="3.54121">
        <ele>331</ele>
        <time>2019-01-10T14:32:20Z</time>
      </trkpt>
      <trkpt lat="43.74664" lon="3.5412">
        <ele>331</ele>
        <time>2019-01-10T14:32:20Z</time>
      </trkpt>
      <trkpt lat="43.74661" lon="3.54119">
        <ele>331</ele>
        <time>2019-01-10T14:32:20Z</time>
      </trkpt>
      <trkpt lat="43.74656" lon="3.54117">
        <ele>331</ele>
        <time>2019-01-10T14:32:36Z</time>
      </trkpt>
      <trkpt lat="43.74652" lon="3.54114">
        <ele>331</ele>
        <time>2019-01-10T14:32:36Z</time>
      </trkpt>
      <trkpt lat="43.74646" lon="3.54113">
        <ele>331</ele>
        <time>2019-01-10T14:32:36Z</time>
      </trkpt>
      <trkpt lat="43.74642" lon="3.54113">
        <ele>331</ele>
        <time>2019-01-10T14:32:36Z</time>
      </trkpt>
      <trkpt lat="43.74638" lon="3.54114">
        <ele>331</ele>
        <time>2019-01-10T14:32:52Z</time>
      </trkpt>
      <trkpt lat="43.74636" lon="3.54115">
        <ele>331</ele>
        <time>2019-01-10T14:32:52Z</time>
      </trkpt>
      <trkpt lat="43.74633" lon="3.54118">
        <ele>331</ele>
        <time>2019-01-10T14:32:52Z</time>
      </trkpt>
      <trkpt lat="43.74629" lon="3.5412">
        <ele>331</ele>
        <time>2019-01-10T14:32:52Z</time>
      </trkpt>
      <trkpt lat="43.74627" lon="3.5412">
        <ele>331</ele>
        <time>2019-01-10T14:33:08Z</time>
      </trkpt>
      <trkpt lat="43.74623" lon="3.54122">
        <ele>335</ele>
        <time>2019-01-10T14:33:08Z</time>
      </trkpt>
      <trkpt lat="43.74619" lon="3.54124">
        <ele>335</ele>
        <time>2019-01-10T14:33:08Z</time>
      </trkpt>
      <trkpt lat="43.74613" lon="3.54126">
        <ele>319</ele>
        <time>2019-01-10T14:33:08Z</time>
      </trkpt>
      <trkpt lat="43.74608" lon="3.54127">
        <ele>319</ele>
        <time>2019-01-10T14:33:24Z</time>
      </trkpt>
      <trkpt lat="43.74603" lon="3.5413">
        <ele>319</ele>
        <time>2019-01-10T14:33:24Z</time>
      </trkpt>
      <trkpt lat="43.74599" lon="3.54133">
        <ele>319</ele>
        <time>2019-01-10T14:33:24Z</time>
      </trkpt>
      <trkpt lat="43.74594" lon="3.54135">
        <ele>319</ele>
        <time>2019-01-10T14:33:24Z</time>
      </trkpt>
      <trkpt lat="43.74591" lon="3.54135">
        <ele>319</ele>
        <time>2019-01-10T14:33:40Z</time>
      </trkpt>
      <trkpt lat="43.74588" lon="3.54136">
        <ele>319</ele>
        <time>2019-01-10T14:33:40Z</time>
      </trkpt>
      <trkpt lat="43.74583" lon="3.54137">
        <ele>319</ele>
        <time>2019-01-10T14:33:40Z</time>
      </trkpt>
      <trkpt lat="43.7458" lon="3.54138">
        <ele>319</ele>
        <time>2019-01-10T14:33:40Z</time>
      </trkpt>
      <trkpt lat="43.74579" lon="3.54139">
        <ele>319</ele>
        <time>2019-01-10T14:33:56Z</time>
      </trkpt>
      <trkpt lat="43.74574" lon="3.54142">
        <ele>319</ele>
        <time>2019-01-10T14:33:56Z</time>
      </trkpt>
      <trkpt lat="43.74572" lon="3.54143">
        <ele>319</ele>
        <time>2019-01-10T14:33:56Z</time>
      </trkpt>
      <trkpt lat="43.74568" lon="3.54141">
        <ele>319</ele>
        <time>2019-01-10T14:33:56Z</time>
      </trkpt>
      <trkpt lat="43.74564" lon="3.5414">
        <ele>319</ele>
        <time>2019-01-10T14:34:12Z</time>
      </trkpt>
      <trkpt lat="43.7456" lon="3.5414">
        <ele>319</ele>
        <time>2019-01-10T14:34:12Z</time>
      </trkpt>
      <trkpt lat="43.74555" lon="3.54142">
        <ele>319</ele>
        <time>2019-01-10T14:34:12Z</time>
      </trkpt>
      <trkpt lat="43.74551" lon="3.54144">
        <ele>319</ele>
        <time>2019-01-10T14:34:12Z</time>
      </trkpt>
      <trkpt lat="43.74548" lon="3.54143">
        <ele>319</ele>
        <time>2019-01-10T14:34:28Z</time>
      </trkpt>
      <trkpt lat="43.74544" lon="3.54144">
        <ele>319</ele>
        <time>2019-01-10T14:34:28Z</time>
      </trkpt>
      <trkpt lat="43.74541" lon="3.54144">
        <ele>318</ele>
        <time>2019-01-10T14:34:28Z</time>
      </trkpt>
      <trkpt lat="43.74533" lon="3.54146">
        <ele>318</ele>
        <time>2019-01-10T14:34:28Z</time>
      </trkpt>
      <trkpt lat="43.74529" lon="3.54146">
        <ele>318</ele>
        <time>2019-01-10T14:34:44Z</time>
      </trkpt>
      <trkpt lat="43.74525" lon="3.54148">
        <ele>318</ele>
        <time>2019-01-10T14:34:44Z</time>
      </trkpt>
      <trkpt lat="43.74519" lon="3.54151">
        <ele>318</ele>
        <time>2019-01-10T14:34:44Z</time>
      </trkpt>
      <trkpt lat="43.74514" lon="3.54152">
        <ele>318</ele>
        <time>2019-01-10T14:34:44Z</time>
      </trkpt>
      <trkpt lat="43.74509" lon="3.54152">
        <ele>318</ele>
        <time>2019-01-10T14:35:00Z</time>
      </trkpt>
      <trkpt lat="43.74505" lon="3.54149">
        <ele>318</ele>
        <time>2019-01-10T14:35:00Z</time>
      </trkpt>
      <trkpt lat="43.74501" lon="3.5415">
        <ele>318</ele>
        <time>2019-01-10T14:35:00Z</time>
      </trkpt>
      <trkpt lat="43.74495" lon="3.54152">
        <ele>318</ele>
        <time>2019-01-10T14:35:00Z</time>
      </trkpt>
      <trkpt lat="43.7449" lon="3.54154">
        <ele>318</ele>
        <time>2019-01-10T14:35:16Z</time>
      </trkpt>
      <trkpt lat="43.74485" lon="3.54154">
        <ele>318</ele>
        <time>2019-01-10T14:35:16Z</time>
      </trkpt>
      <trkpt lat="43.74482" lon="3.54155">
        <ele>318</ele>
        <time>2019-01-10T14:35:16Z</time>
      </trkpt>
      <trkpt lat="43.74479" lon="3.54158">
        <ele>318</ele>
        <time>2019-01-10T14:35:16Z</time>
      </trkpt>
      <trkpt lat="43.74475" lon="3.54159">
        <ele>318</ele>
        <time>2019-01-10T14:35:32Z</time>
      </trkpt>
      <trkpt lat="43.74471" lon="3.5416">
        <ele>318</ele>
        <time>2019-01-10T14:35:32Z</time>
      </trkpt>
      <trkpt lat="43.74467" lon="3.54162">
        <ele>318</ele>
        <time>2019-01-10T14:35:32Z</time>
      </trkpt>
      <trkpt lat="43.74463" lon="3.54164">
        <ele>318</ele>
        <time>2019-01-10T14:35:32Z</time>
      </trkpt>
      <trkpt lat="43.74462" lon="3.54166">
        <ele>318</ele>
        <time>2019-01-10T14:35:48Z</time>
      </trkpt>
      <trkpt lat="43.74457" lon="3.5417">
        <ele>324</ele>
        <time>2019-01-10T14:35:48Z</time>
      </trkpt>
      <trkpt lat="43.74451" lon="3.54172">
        <ele>324</ele>
        <time>2019-01-10T14:35:48Z</time>
      </trkpt>
      <trkpt lat="43.74447" lon="3.54169">
        <ele>324</ele>
        <time>2019-01-10T14:35:48Z</time>
      </trkpt>
      <trkpt lat="43.74443" lon="3.54168">
        <ele>324</ele>
        <time>2019-01-10T14:36:04Z</time>
      </trkpt>
      <trkpt lat="43.7444" lon="3.5417">
        <ele>324</ele>
        <time>2019-01-10T14:36:04Z</time>
      </trkpt>
      <trkpt lat="43.74436" lon="3.54171">
        <ele>324</ele>
        <time>2019-01-10T14:36:04Z</time>
      </trkpt>
      <trkpt lat="43.7443" lon="3.54173">
        <ele>324</ele>
        <time>2019-01-10T14:36:04Z</time>
      </trkpt>
      <trkpt lat="43.74425" lon="3.54173">
        <ele>324</ele>
        <time>2019-01-10T14:36:20Z</time>
      </trkpt>
      <trkpt lat="43.7442" lon="3.54175">
        <ele>324</ele>
        <time>2019-01-10T14:36:20Z</time>
      </trkpt>
      <trkpt lat="43.74415" lon="3.54177">
        <ele>324</ele>
        <time>2019-01-10T14:36:20Z</time>
      </trkpt>
      <trkpt lat="43.74412" lon="3.54177">
        <ele>324</ele>
        <time>2019-01-10T14:36:20Z</time>
      </trkpt>
      <trkpt lat="43.74408" lon="3.54179">
        <ele>324</ele>
        <time>2019-01-10T14:36:36Z</time>
      </trkpt>
      <trkpt lat="43.74405" lon="3.54181">
        <ele>324</ele>
        <time>2019-01-10T14:36:36Z</time>
      </trkpt>
      <trkpt lat="43.74401" lon="3.54184">
        <ele>324</ele>
        <time>2019-01-10T14:36:36Z</time>
      </trkpt>
      <trkpt lat="43.74398" lon="3.54186">
        <ele>324</ele>
        <time>2019-01-10T14:36:36Z</time>
      </trkpt>
      <trkpt lat="43.74394" lon="3.54189">
        <ele>324</ele>
        <time>2019-01-10T14:36:52Z</time>
      </trkpt>
      <trkpt lat="43.74389" lon="3.54193">
        <ele>324</ele>
        <time>2019-01-10T14:36:52Z</time>
      </trkpt>
      <trkpt lat="43.74385" lon="3.54193">
        <ele>324</ele>
        <time>2019-01-10T14:36:52Z</time>
      </trkpt>
      <trkpt lat="43.74382" lon="3.54193">
        <ele>324</ele>
        <time>2019-01-10T14:36:52Z</time>
      </trkpt>
      <trkpt lat="43.74377" lon="3.54193">
        <ele>324</ele>
        <time>2019-01-10T14:37:08Z</time>
      </trkpt>
      <trkpt lat="43.74374" lon="3.5419">
        <ele>315</ele>
        <time>2019-01-10T14:37:08Z</time>
      </trkpt>
      <trkpt lat="43.74369" lon="3.5419">
        <ele>315</ele>
        <time>2019-01-10T14:37:08Z</time>
      </trkpt>
      <trkpt lat="43.74366" lon="3.54188">
        <ele>315</ele>
        <time>2019-01-10T14:37:08Z</time>
      </trkpt>
      <trkpt lat="43.74362" lon="3.54188">
        <ele>315</ele>
        <time>2019-01-10T14:37:24Z</time>
      </trkpt>
      <trkpt lat="43.74357" lon="3.54189">
        <ele>315</ele>
        <time>2019-01-10T14:37:24Z</time>
      </trkpt>
      <trkpt lat="43.74354" lon="3.5419">
        <ele>315</ele>
        <time>2019-01-10T14:37:24Z</time>
      </trkpt>
      <trkpt lat="43.7435" lon="3.54192">
        <ele>315</ele>
        <time>2019-01-10T14:37:24Z</time>
      </trkpt>
      <trkpt lat="43.74346" lon="3.54196">
        <ele>315</ele>
        <time>2019-01-10T14:37:40Z</time>
      </trkpt>
      <trkpt lat="43.7434" lon="3.54199">
        <ele>315</ele>
        <time>2019-01-10T14:37:40Z</time>
      </trkpt>
      <trkpt lat="43.74337" lon="3.54203">
        <ele>315</ele>
        <time>2019-01-10T14:37:40Z</time>
      </trkpt>
      <trkpt lat="43.74333" lon="3.54209">
        <ele>317</ele>
        <time>2019-01-10T14:37:40Z</time>
      </trkpt>
      <trkpt lat="43.74328" lon="3.54214">
        <ele>317</ele>
        <time>2019-01-10T14:37:56Z</time>
      </trkpt>
      <trkpt lat="43.74326" lon="3.54219">
        <ele>317</ele>
        <time>2019-01-10T14:37:56Z</time>
      </trkpt>
      <trkpt lat="43.74324" lon="3.54222">
        <ele>317</ele>
        <time>2019-01-10T14:37:56Z</time>
      </trkpt>
      <trkpt lat="43.74322" lon="3.54224">
        <ele>317</ele>
        <time>2019-01-10T14:37:56Z</time>
      </trkpt>
      <trkpt lat="43.74319" lon="3.54226">
        <ele>317</ele>
        <time>2019-01-10T14:38:12Z</time>
      </trkpt>
      <trkpt lat="43.74315" lon="3.54229">
        <ele>317</ele>
        <time>2019-01-10T14:38:12Z</time>
      </trkpt>
      <trkpt lat="43.74311" lon="3.54231">
        <ele>317</ele>
        <time>2019-01-10T14:38:12Z</time>
      </trkpt>
      <trkpt lat="43.74308" lon="3.54234">
        <ele>317</ele>
        <time>2019-01-10T14:38:12Z</time>
      </trkpt>
      <trkpt lat="43.74305" lon="3.54236">
        <ele>317</ele>
        <time>2019-01-10T14:38:28Z</time>
      </trkpt>
      <trkpt lat="43.74302" lon="3.54239">
        <ele>317</ele>
        <time>2019-01-10T14:38:28Z</time>
      </trkpt>
      <trkpt lat="43.74298" lon="3.54243">
        <ele>317</ele>
        <time>2019-01-10T14:38:28Z</time>
      </trkpt>
      <trkpt lat="43.74295" lon="3.54246">
        <ele>317</ele>
        <time>2019-01-10T14:38:28Z</time>
      </trkpt>
      <trkpt lat="43.74291" lon="3.54251">
        <ele>294</ele>
        <time>2019-01-10T14:38:44Z</time>
      </trkpt>
      <trkpt lat="43.74288" lon="3.54254">
        <ele>294</ele>
        <time>2019-01-10T14:38:44Z</time>
      </trkpt>
      <trkpt lat="43.74285" lon="3.54258">
        <ele>294</ele>
        <time>2019-01-10T14:38:44Z</time>
      </trkpt>
      <trkpt lat="43.74282" lon="3.54261">
        <ele>294</ele>
        <time>2019-01-10T14:38:44Z</time>
      </trkpt>
      <trkpt lat="43.7428" lon="3.54265">
        <ele>294</ele>
        <time>2019-01-10T14:39:00Z</time>
      </trkpt>
      <trkpt lat="43.74277" lon="3.5427">
        <ele>294</ele>
        <time>2019-01-10T14:39:00Z</time>
      </trkpt>
      <trkpt lat="43.74273" lon="3.54274">
        <ele>294</ele>
        <time>2019-01-10T14:39:00Z</time>
      </trkpt>
      <trkpt lat="43.7427" lon="3.54278">
        <ele>294</ele>
        <time>2019-01-10T14:39:00Z</time>
      </trkpt>
      <trkpt lat="43.74267" lon="3.54281">
        <ele>294</ele>
        <time>2019-01-10T14:39:16Z</time>
      </trkpt>
      <trkpt lat="43.74265" lon="3.54285">
        <ele>294</ele>
        <time>2019-01-10T14:39:16Z</time>
      </trkpt>
      <trkpt lat="43.74262" lon="3.5429">
        <ele>294</ele>
        <time>2019-01-10T14:39:16Z</time>
      </trkpt>
      <trkpt lat="43.74259" lon="3.54295">
        <ele>299</ele>
        <time>2019-01-10T14:39:16Z</time>
      </trkpt>
      <trkpt lat="43.74256" lon="3.54301">
        <ele>299</ele>
        <time>2019-01-10T14:39:32Z</time>
      </trkpt>
      <trkpt lat="43.74254" lon="3.54306">
        <ele>299</ele>
        <time>2019-01-10T14:39:32Z</time>
      </trkpt>
      <trkpt lat="43.74254" lon="3.54311">
        <ele>299</ele>
        <time>2019-01-10T14:39:32Z</time>
      </trkpt>
      <trkpt lat="43.74252" lon="3.54316">
        <ele>299</ele>
        <time>2019-01-10T14:39:32Z</time>
      </trkpt>
      <trkpt lat="43.7425" lon="3.54321">
        <ele>299</ele>
        <time>2019-01-10T14:39:48Z</time>
      </trkpt>
      <trkpt lat="43.74247" lon="3.54327">
        <ele>299</ele>
        <time>2019-01-10T14:39:48Z</time>
      </trkpt>
      <trkpt lat="43.74245" lon="3.54333">
        <ele>299</ele>
        <time>2019-01-10T14:39:48Z</time>
      </trkpt>
      <trkpt lat="43.74244" lon="3.54338">
        <ele>299</ele>
        <time>2019-01-10T14:39:48Z</time>
      </trkpt>
      <trkpt lat="43.74242" lon="3.54342">
        <ele>299</ele>
        <time>2019-01-10T14:40:04Z</time>
      </trkpt>
      <trkpt lat="43.74239" lon="3.54347">
        <ele>299</ele>
        <time>2019-01-10T14:40:04Z</time>
      </trkpt>
      <trkpt lat="43.74237" lon="3.54353">
        <ele>299</ele>
        <time>2019-01-10T14:40:04Z</time>
      </trkpt>
      <trkpt lat="43.74238" lon="3.54358">
        <ele>299</ele>
        <time>2019-01-10T14:40:04Z</time>
      </trkpt>
      <trkpt lat="43.74236" lon="3.54364">
        <ele>299</ele>
        <time>2019-01-10T14:40:20Z</time>
      </trkpt>
      <trkpt lat="43.74235" lon="3.54368">
        <ele>299</ele>
        <time>2019-01-10T14:40:20Z</time>
      </trkpt>
      <trkpt lat="43.74233" lon="3.54372">
        <ele>299</ele>
        <time>2019-01-10T14:40:20Z</time>
      </trkpt>
      <trkpt lat="43.74231" lon="3.54376">
        <ele>300</ele>
        <time>2019-01-10T14:40:20Z</time>
      </trkpt>
      <trkpt lat="43.74229" lon="3.54379">
        <ele>300</ele>
        <time>2019-01-10T14:40:36Z</time>
      </trkpt>
      <trkpt lat="43.74226" lon="3.54385">
        <ele>300</ele>
        <time>2019-01-10T14:40:36Z</time>
      </trkpt>
      <trkpt lat="43.74224" lon="3.5439">
        <ele>300</ele>
        <time>2019-01-10T14:40:36Z</time>
      </trkpt>
      <trkpt lat="43.7422" lon="3.54394">
        <ele>300</ele>
        <time>2019-01-10T14:40:36Z</time>
      </trkpt>
      <trkpt lat="43.74217" lon="3.54399">
        <ele>300</ele>
        <time>2019-01-10T14:40:52Z</time>
      </trkpt>
      <trkpt lat="43.74214" lon="3.54403">
        <ele>300</ele>
        <time>2019-01-10T14:40:52Z</time>
      </trkpt>
      <trkpt lat="43.7421" lon="3.54406">
        <ele>300</ele>
        <time>2019-01-10T14:40:52Z</time>
      </trkpt>
      <trkpt lat="43.74207" lon="3.5441">
        <ele>278</ele>
        <time>2019-01-10T14:40:52Z</time>
      </trkpt>
      <trkpt lat="43.74203" lon="3.54414">
        <ele>278</ele>
        <time>2019-01-10T14:41:08Z</time>
      </trkpt>
      <trkpt lat="43.74202" lon="3.5442">
        <ele>278</ele>
        <time>2019-01-10T14:41:08Z</time>
      </trkpt>
      <trkpt lat="43.74199" lon="3.54424">
        <ele>278</ele>
        <time>2019-01-10T14:41:08Z</time>
      </trkpt>
      <trkpt lat="43.74199" lon="3.54429">
        <ele>278</ele>
        <time>2019-01-10T14:41:08Z</time>
      </trkpt>
      <trkpt lat="43.74198" lon="3.54432">
        <ele>278</ele>
        <time>2019-01-10T14:41:28Z</time>
      </trkpt>
      <trkpt lat="43.74194" lon="3.54434">
        <ele>278</ele>
        <time>2019-01-10T14:41:28Z</time>
      </trkpt>
      <trkpt lat="43.74195" lon="3.54428">
        <ele>278</ele>
        <time>2019-01-10T14:41:28Z</time>
      </trkpt>
      <trkpt lat="43.74196" lon="3.54422">
        <ele>278</ele>
        <time>2019-01-10T14:41:28Z</time>
      </trkpt>
      <trkpt lat="43.74197" lon="3.54418">
        <ele>278</ele>
        <time>2019-01-10T14:41:28Z</time>
      </trkpt>
      <trkpt lat="43.74199" lon="3.54414">
        <ele>278</ele>
        <time>2019-01-10T14:41:44Z</time>
      </trkpt>
      <trkpt lat="43.74201" lon="3.54409">
        <ele>278</ele>
        <time>2019-01-10T14:41:44Z</time>
      </trkpt>
      <trkpt lat="43.74203" lon="3.54406">
        <ele>278</ele>
        <time>2019-01-10T14:41:44Z</time>
      </trkpt>
      <trkpt lat="43.74204" lon="3.544">
        <ele>278</ele>
        <time>2019-01-10T14:41:44Z</time>
      </trkpt>
      <trkpt lat="43.74202" lon="3.54395">
        <ele>278</ele>
        <time>2019-01-10T14:42:00Z</time>
      </trkpt>
      <trkpt lat="43.74202" lon="3.5439">
        <ele>278</ele>
        <time>2019-01-10T14:42:00Z</time>
      </trkpt>
      <trkpt lat="43.74201" lon="3.54383">
        <ele>278</ele>
        <time>2019-01-10T14:42:00Z</time>
      </trkpt>
      <trkpt lat="43.74199" lon="3.54378">
        <ele>278</ele>
        <time>2019-01-10T14:42:00Z</time>
      </trkpt>
      <trkpt lat="43.74197" lon="3.54373">
        <ele>277</ele>
        <time>2019-01-10T14:42:16Z</time>
      </trkpt>
      <trkpt lat="43.74196" lon="3.54367">
        <ele>277</ele>
        <time>2019-01-10T14:42:16Z</time>
      </trkpt>
      <trkpt lat="43.74195" lon="3.54363">
        <ele>277</ele>
        <time>2019-01-10T14:42:16Z</time>
      </trkpt>
      <trkpt lat="43.74194" lon="3.54357">
        <ele>277</ele>
        <time>2019-01-10T14:42:16Z</time>
      </trkpt>
      <trkpt lat="43.74195" lon="3.54351">
        <ele>277</ele>
        <time>2019-01-10T14:42:32Z</time>
      </trkpt>
      <trkpt lat="43.74198" lon="3.54345">
        <ele>277</ele>
        <time>2019-01-10T14:42:32Z</time>
      </trkpt>
      <trkpt lat="43.74198" lon="3.5434">
        <ele>277</ele>
        <time>2019-01-10T14:42:32Z</time>
      </trkpt>
      <trkpt lat="43.74196" lon="3.54334">
        <ele>277</ele>
        <time>2019-01-10T14:42:32Z</time>
      </trkpt>
      <trkpt lat="43.74194" lon="3.54329">
        <ele>277</ele>
        <time>2019-01-10T14:42:48Z</time>
      </trkpt>
      <trkpt lat="43.74193" lon="3.54324">
        <ele>277</ele>
        <time>2019-01-10T14:42:48Z</time>
      </trkpt>
      <trkpt lat="43.74193" lon="3.5432">
        <ele>277</ele>
        <time>2019-01-10T14:42:48Z</time>
      </trkpt>
      <trkpt lat="43.74194" lon="3.54313">
        <ele>277</ele>
        <time>2019-01-10T14:42:48Z</time>
      </trkpt>
      <trkpt lat="43.74192" lon="3.54309">
        <ele>277</ele>
        <time>2019-01-10T14:43:08Z</time>
      </trkpt>
      <trkpt lat="43.7419" lon="3.54305">
        <ele>277</ele>
        <time>2019-01-10T14:43:08Z</time>
      </trkpt>
      <trkpt lat="43.74187" lon="3.54304">
        <ele>277</ele>
        <time>2019-01-10T14:43:08Z</time>
      </trkpt>
      <trkpt lat="43.74184" lon="3.54306">
        <ele>277</ele>
        <time>2019-01-10T14:43:08Z</time>
      </trkpt>
      <trkpt lat="43.74182" lon="3.54308">
        <ele>277</ele>
        <time>2019-01-10T14:43:08Z</time>
      </trkpt>
      <trkpt lat="43.74181" lon="3.54309">
        <ele>277</ele>
        <time>2019-01-10T14:43:24Z</time>
      </trkpt>
      <trkpt lat="43.74177" lon="3.54313">
        <ele>277</ele>
        <time>2019-01-10T14:43:24Z</time>
      </trkpt>
      <trkpt lat="43.74174" lon="3.54317">
        <ele>277</ele>
        <time>2019-01-10T14:43:24Z</time>
      </trkpt>
      <trkpt lat="43.7417" lon="3.54322">
        <ele>277</ele>
        <time>2019-01-10T14:43:24Z</time>
      </trkpt>
      <trkpt lat="43.74168" lon="3.54326">
        <ele>277</ele>
        <time>2019-01-10T14:43:40Z</time>
      </trkpt>
      <trkpt lat="43.74163" lon="3.54331">
        <ele>277</ele>
        <time>2019-01-10T14:43:40Z</time>
      </trkpt>
      <trkpt lat="43.7416" lon="3.54336">
        <ele>277</ele>
        <time>2019-01-10T14:43:40Z</time>
      </trkpt>
      <trkpt lat="43.74158" lon="3.54339">
        <ele>277</ele>
        <time>2019-01-10T14:43:40Z</time>
      </trkpt>
      <trkpt lat="43.74158" lon="3.54344">
        <ele>277</ele>
        <time>2019-01-10T14:44:32Z</time>
      </trkpt>
      <trkpt lat="43.74159" lon="3.54349">
        <ele>277</ele>
        <time>2019-01-10T14:44:32Z</time>
      </trkpt>
      <trkpt lat="43.74159" lon="3.54355">
        <ele>277</ele>
        <time>2019-01-10T14:44:32Z</time>
      </trkpt>
      <trkpt lat="43.74161" lon="3.54362">
        <ele>277</ele>
        <time>2019-01-10T14:44:32Z</time>
      </trkpt>
      <trkpt lat="43.74166" lon="3.54367">
        <ele>277</ele>
        <time>2019-01-10T14:44:56Z</time>
      </trkpt>
      <trkpt lat="43.74166" lon="3.5437">
        <ele>277</ele>
        <time>2019-01-10T14:44:56Z</time>
      </trkpt>
      <trkpt lat="43.74168" lon="3.54371">
        <ele>277</ele>
        <time>2019-01-10T14:44:56Z</time>
      </trkpt>
      <trkpt lat="43.74169" lon="3.54374">
        <ele>277</ele>
        <time>2019-01-10T14:44:56Z</time>
      </trkpt>
      <trkpt lat="43.7417" lon="3.54376">
        <ele>278</ele>
        <time>2019-01-10T14:44:56Z</time>
      </trkpt>
      <trkpt lat="43.74172" lon="3.54383">
        <ele>278</ele>
        <time>2019-01-10T14:45:24Z</time>
      </trkpt>
      <trkpt lat="43.74173" lon="3.54386">
        <ele>278</ele>
        <time>2019-01-10T14:45:24Z</time>
      </trkpt>
      <trkpt lat="43.74173" lon="3.54387">
        <ele>278</ele>
        <time>2019-01-10T14:45:24Z</time>
      </trkpt>
      <trkpt lat="43.74174" lon="3.54388">
        <ele>278</ele>
        <time>2019-01-10T14:45:24Z</time>
      </trkpt>
      <trkpt lat="43.74177" lon="3.54392">
        <ele>278</ele>
        <time>2019-01-10T14:45:24Z</time>
      </trkpt>
      <trkpt lat="43.74178" lon="3.54392">
        <ele>278</ele>
        <time>2019-01-10T14:46:08Z</time>
      </trkpt>
      <trkpt lat="43.74176" lon="3.54391">
        <ele>278</ele>
        <time>2019-01-10T14:46:08Z</time>
      </trkpt>
      <trkpt lat="43.74176" lon="3.54389">
        <ele>278</ele>
        <time>2019-01-10T14:46:08Z</time>
      </trkpt>
      <trkpt lat="43.74175" lon="3.54384">
        <ele>278</ele>
        <time>2019-01-10T14:46:08Z</time>
      </trkpt>
      <trkpt lat="43.74172" lon="3.54381">
        <ele>278</ele>
        <time>2019-01-10T14:46:08Z</time>
      </trkpt>
      <trkpt lat="43.7417" lon="3.5438">
        <ele>278</ele>
        <time>2019-01-10T14:46:24Z</time>
      </trkpt>
      <trkpt lat="43.74168" lon="3.54376">
        <ele>278</ele>
        <time>2019-01-10T14:46:24Z</time>
      </trkpt>
      <trkpt lat="43.74165" lon="3.54374">
        <ele>277</ele>
        <time>2019-01-10T14:46:24Z</time>
      </trkpt>
      <trkpt lat="43.74164" lon="3.54369">
        <ele>277</ele>
        <time>2019-01-10T14:46:24Z</time>
      </trkpt>
      <trkpt lat="43.74162" lon="3.54367">
        <ele>277</ele>
        <time>2019-01-10T14:46:44Z</time>
      </trkpt>
      <trkpt lat="43.7416" lon="3.54363">
        <ele>277</ele>
        <time>2019-01-10T14:46:44Z</time>
      </trkpt>
      <trkpt lat="43.74159" lon="3.54362">
        <ele>277</ele>
        <time>2019-01-10T14:46:44Z</time>
      </trkpt>
      <trkpt lat="43.74156" lon="3.5436">
        <ele>277</ele>
        <time>2019-01-10T14:46:44Z</time>
      </trkpt>
      <trkpt lat="43.74153" lon="3.5436">
        <ele>277</ele>
        <time>2019-01-10T14:46:44Z</time>
      </trkpt>
      <trkpt lat="43.74148" lon="3.54362">
        <ele>277</ele>
        <time>2019-01-10T14:47:00Z</time>
      </trkpt>
      <trkpt lat="43.74146" lon="3.54362">
        <ele>277</ele>
        <time>2019-01-10T14:47:00Z</time>
      </trkpt>
      <trkpt lat="43.74142" lon="3.54361">
        <ele>277</ele>
        <time>2019-01-10T14:47:00Z</time>
      </trkpt>
      <trkpt lat="43.74138" lon="3.54362">
        <ele>277</ele>
        <time>2019-01-10T14:47:00Z</time>
      </trkpt>
      <trkpt lat="43.74136" lon="3.54365">
        <ele>277</ele>
        <time>2019-01-10T14:47:16Z</time>
      </trkpt>
      <trkpt lat="43.74134" lon="3.5437">
        <ele>277</ele>
        <time>2019-01-10T14:47:16Z</time>
      </trkpt>
      <trkpt lat="43.74132" lon="3.54375">
        <ele>278</ele>
        <time>2019-01-10T14:47:16Z</time>
      </trkpt>
      <trkpt lat="43.7413" lon="3.54381">
        <ele>278</ele>
        <time>2019-01-10T14:47:16Z</time>
      </trkpt>
      <trkpt lat="43.7413" lon="3.54382">
        <ele>278</ele>
        <time>2019-01-10T14:48:04Z</time>
      </trkpt>
      <trkpt lat="43.7413" lon="3.54386">
        <ele>278</ele>
        <time>2019-01-10T14:48:04Z</time>
      </trkpt>
      <trkpt lat="43.74133" lon="3.54394">
        <ele>278</ele>
        <time>2019-01-10T14:48:04Z</time>
      </trkpt>
      <trkpt lat="43.74135" lon="3.54402">
        <ele>278</ele>
        <time>2019-01-10T14:48:04Z</time>
      </trkpt>
      <trkpt lat="43.74136" lon="3.5441">
        <ele>278</ele>
        <time>2019-01-10T14:48:20Z</time>
      </trkpt>
      <trkpt lat="43.74139" lon="3.54416">
        <ele>278</ele>
        <time>2019-01-10T14:48:20Z</time>
      </trkpt>
      <trkpt lat="43.7414" lon="3.54421">
        <ele>278</ele>
        <time>2019-01-10T14:48:20Z</time>
      </trkpt>
      <trkpt lat="43.7414" lon="3.54426">
        <ele>278</ele>
        <time>2019-01-10T14:48:20Z</time>
      </trkpt>
      <trkpt lat="43.7414" lon="3.54431">
        <ele>278</ele>
        <time>2019-01-10T14:48:36Z</time>
      </trkpt>
      <trkpt lat="43.74142" lon="3.54436">
        <ele>278</ele>
        <time>2019-01-10T14:48:36Z</time>
      </trkpt>
      <trkpt lat="43.74144" lon="3.54439">
        <ele>278</ele>
        <time>2019-01-10T14:48:36Z</time>
      </trkpt>
      <trkpt lat="43.74147" lon="3.54444">
        <ele>278</ele>
        <time>2019-01-10T14:48:36Z</time>
      </trkpt>
      <trkpt lat="43.7415" lon="3.54449">
        <ele>278</ele>
        <time>2019-01-10T14:48:52Z</time>
      </trkpt>
      <trkpt lat="43.74151" lon="3.54453">
        <ele>278</ele>
        <time>2019-01-10T14:48:52Z</time>
      </trkpt>
      <trkpt lat="43.74152" lon="3.5446">
        <ele>279</ele>
        <time>2019-01-10T14:48:52Z</time>
      </trkpt>
      <trkpt lat="43.74153" lon="3.54467">
        <ele>279</ele>
        <time>2019-01-10T14:48:52Z</time>
      </trkpt>
      <trkpt lat="43.74154" lon="3.54472">
        <ele>279</ele>
        <time>2019-01-10T14:49:08Z</time>
      </trkpt>
      <trkpt lat="43.74155" lon="3.54478">
        <ele>279</ele>
        <time>2019-01-10T14:49:08Z</time>
      </trkpt>
      <trkpt lat="43.74154" lon="3.54484">
        <ele>279</ele>
        <time>2019-01-10T14:49:08Z</time>
      </trkpt>
      <trkpt lat="43.74154" lon="3.54487">
        <ele>279</ele>
        <time>2019-01-10T14:49:08Z</time>
      </trkpt>
      <trkpt lat="43.74154" lon="3.54492">
        <ele>279</ele>
        <time>2019-01-10T14:49:24Z</time>
      </trkpt>
      <trkpt lat="43.74151" lon="3.54497">
        <ele>279</ele>
        <time>2019-01-10T14:49:24Z</time>
      </trkpt>
      <trkpt lat="43.74149" lon="3.54503">
        <ele>279</ele>
        <time>2019-01-10T14:49:24Z</time>
      </trkpt>
      <trkpt lat="43.74148" lon="3.54509">
        <ele>279</ele>
        <time>2019-01-10T14:49:24Z</time>
      </trkpt>
      <trkpt lat="43.74149" lon="3.54515">
        <ele>279</ele>
        <time>2019-01-10T14:49:40Z</time>
      </trkpt>
      <trkpt lat="43.74151" lon="3.5452">
        <ele>279</ele>
        <time>2019-01-10T14:49:40Z</time>
      </trkpt>
      <trkpt lat="43.74154" lon="3.54524">
        <ele>279</ele>
        <time>2019-01-10T14:49:40Z</time>
      </trkpt>
      <trkpt lat="43.74156" lon="3.54528">
        <ele>279</ele>
        <time>2019-01-10T14:49:40Z</time>
      </trkpt>
      <trkpt lat="43.74158" lon="3.54533">
        <ele>279</ele>
        <time>2019-01-10T14:49:56Z</time>
      </trkpt>
      <trkpt lat="43.7416" lon="3.54538">
        <ele>279</ele>
        <time>2019-01-10T14:49:56Z</time>
      </trkpt>
      <trkpt lat="43.74161" lon="3.54541">
        <ele>279</ele>
        <time>2019-01-10T14:49:56Z</time>
      </trkpt>
      <trkpt lat="43.74162" lon="3.54547">
        <ele>279</ele>
        <time>2019-01-10T14:49:56Z</time>
      </trkpt>
      <trkpt lat="43.74165" lon="3.5455">
        <ele>279</ele>
        <time>2019-01-10T14:50:12Z</time>
      </trkpt>
      <trkpt lat="43.74166" lon="3.54551">
        <ele>279</ele>
        <time>2019-01-10T14:50:12Z</time>
      </trkpt>
      <trkpt lat="43.74167" lon="3.54556">
        <ele>279</ele>
        <time>2019-01-10T14:50:12Z</time>
      </trkpt>
      <trkpt lat="43.7417" lon="3.54561">
        <ele>279</ele>
        <time>2019-01-10T14:50:12Z</time>
      </trkpt>
      <trkpt lat="43.74172" lon="3.54564">
        <ele>279</ele>
        <time>2019-01-10T14:50:32Z</time>
      </trkpt>
      <trkpt lat="43.74173" lon="3.54566">
        <ele>279</ele>
        <time>2019-01-10T14:50:32Z</time>
      </trkpt>
      <trkpt lat="43.74175" lon="3.54571">
        <ele>279</ele>
        <time>2019-01-10T14:50:32Z</time>
      </trkpt>
      <trkpt lat="43.74177" lon="3.54573">
        <ele>279</ele>
        <time>2019-01-10T14:50:32Z</time>
      </trkpt>
      <trkpt lat="43.74178" lon="3.54578">
        <ele>279</ele>
        <time>2019-01-10T14:50:32Z</time>
      </trkpt>
      <trkpt lat="43.74179" lon="3.54582">
        <ele>279</ele>
        <time>2019-01-10T14:50:48Z</time>
      </trkpt>
      <trkpt lat="43.74182" lon="3.54586">
        <ele>279</ele>
        <time>2019-01-10T14:50:48Z</time>
      </trkpt>
      <trkpt lat="43.74185" lon="3.54591">
        <ele>279</ele>
        <time>2019-01-10T14:50:48Z</time>
      </trkpt>
      <trkpt lat="43.74188" lon="3.54594">
        <ele>279</ele>
        <time>2019-01-10T14:50:48Z</time>
      </trkpt>
      <trkpt lat="43.74192" lon="3.54597">
        <ele>279</ele>
        <time>2019-01-10T14:51:04Z</time>
      </trkpt>
      <trkpt lat="43.74196" lon="3.54602">
        <ele>279</ele>
        <time>2019-01-10T14:51:04Z</time>
      </trkpt>
      <trkpt lat="43.742" lon="3.54605">
        <ele>279</ele>
        <time>2019-01-10T14:51:04Z</time>
      </trkpt>
      <trkpt lat="43.74201" lon="3.54608">
        <ele>279</ele>
        <time>2019-01-10T14:51:04Z</time>
      </trkpt>
      <trkpt lat="43.74204" lon="3.54611">
        <ele>279</ele>
        <time>2019-01-10T14:51:20Z</time>
      </trkpt>
      <trkpt lat="43.74208" lon="3.54615">
        <ele>279</ele>
        <time>2019-01-10T14:51:20Z</time>
      </trkpt>
      <trkpt lat="43.74213" lon="3.54618">
        <ele>296</ele>
        <time>2019-01-10T14:51:20Z</time>
      </trkpt>
      <trkpt lat="43.74217" lon="3.54622">
        <ele>296</ele>
        <time>2019-01-10T14:51:20Z</time>
      </trkpt>
      <trkpt lat="43.74221" lon="3.54622">
        <ele>296</ele>
        <time>2019-01-10T14:51:36Z</time>
      </trkpt>
      <trkpt lat="43.74224" lon="3.54622">
        <ele>296</ele>
        <time>2019-01-10T14:51:36Z</time>
      </trkpt>
      <trkpt lat="43.74228" lon="3.54624">
        <ele>296</ele>
        <time>2019-01-10T14:51:36Z</time>
      </trkpt>
      <trkpt lat="43.74231" lon="3.54626">
        <ele>286</ele>
        <time>2019-01-10T14:51:36Z</time>
      </trkpt>
      <trkpt lat="43.74235" lon="3.54628">
        <ele>286</ele>
        <time>2019-01-10T14:51:56Z</time>
      </trkpt>
      <trkpt lat="43.74239" lon="3.54628">
        <ele>286</ele>
        <time>2019-01-10T14:51:56Z</time>
      </trkpt>
      <trkpt lat="43.74244" lon="3.54628">
        <ele>286</ele>
        <time>2019-01-10T14:51:56Z</time>
      </trkpt>
      <trkpt lat="43.74249" lon="3.54628">
        <ele>286</ele>
        <time>2019-01-10T14:51:56Z</time>
      </trkpt>
      <trkpt lat="43.74253" lon="3.54629">
        <ele>286</ele>
        <time>2019-01-10T14:52:12Z</time>
      </trkpt>
      <trkpt lat="43.74258" lon="3.5463">
        <ele>286</ele>
        <time>2019-01-10T14:52:12Z</time>
      </trkpt>
      <trkpt lat="43.74263" lon="3.54632">
        <ele>286</ele>
        <time>2019-01-10T14:52:12Z</time>
      </trkpt>
      <trkpt lat="43.74268" lon="3.54633">
        <ele>286</ele>
        <time>2019-01-10T14:52:12Z</time>
      </trkpt>
      <trkpt lat="43.74273" lon="3.54634">
        <ele>286</ele>
        <time>2019-01-10T14:52:28Z</time>
      </trkpt>
      <trkpt lat="43.7428" lon="3.54634">
        <ele>286</ele>
        <time>2019-01-10T14:52:28Z</time>
      </trkpt>
      <trkpt lat="43.74286" lon="3.54636">
        <ele>286</ele>
        <time>2019-01-10T14:52:28Z</time>
      </trkpt>
      <trkpt lat="43.74289" lon="3.54636">
        <ele>286</ele>
        <time>2019-01-10T14:52:28Z</time>
      </trkpt>
      <trkpt lat="43.74293" lon="3.54638">
        <ele>286</ele>
        <time>2019-01-10T14:52:44Z</time>
      </trkpt>
      <trkpt lat="43.74297" lon="3.54638">
        <ele>286</ele>
        <time>2019-01-10T14:52:44Z</time>
      </trkpt>
      <trkpt lat="43.74302" lon="3.54638">
        <ele>286</ele>
        <time>2019-01-10T14:52:44Z</time>
      </trkpt>
      <trkpt lat="43.74306" lon="3.5464">
        <ele>286</ele>
        <time>2019-01-10T14:52:44Z</time>
      </trkpt>
      <trkpt lat="43.7431" lon="3.54643">
        <ele>286</ele>
        <time>2019-01-10T14:53:00Z</time>
      </trkpt>
      <trkpt lat="43.74315" lon="3.54645">
        <ele>286</ele>
        <time>2019-01-10T14:53:00Z</time>
      </trkpt>
      <trkpt lat="43.7432" lon="3.54648">
        <ele>286</ele>
        <time>2019-01-10T14:53:00Z</time>
      </trkpt>
      <trkpt lat="43.74324" lon="3.5465">
        <ele>286</ele>
        <time>2019-01-10T14:53:00Z</time>
      </trkpt>
      <trkpt lat="43.74328" lon="3.54651">
        <ele>286</ele>
        <time>2019-01-10T14:53:16Z</time>
      </trkpt>
      <trkpt lat="43.74332" lon="3.54652">
        <ele>286</ele>
        <time>2019-01-10T14:53:16Z</time>
      </trkpt>
      <trkpt lat="43.74336" lon="3.54654">
        <ele>286</ele>
        <time>2019-01-10T14:53:16Z</time>
      </trkpt>
      <trkpt lat="43.7434" lon="3.54654">
        <ele>286</ele>
        <time>2019-01-10T14:53:16Z</time>
      </trkpt>
      <trkpt lat="43.74344" lon="3.54655">
        <ele>286</ele>
        <time>2019-01-10T14:53:32Z</time>
      </trkpt>
      <trkpt lat="43.74349" lon="3.54658">
        <ele>286</ele>
        <time>2019-01-10T14:53:32Z</time>
      </trkpt>
      <trkpt lat="43.74352" lon="3.54659">
        <ele>286</ele>
        <time>2019-01-10T14:53:32Z</time>
      </trkpt>
      <trkpt lat="43.74356" lon="3.54662">
        <ele>286</ele>
        <time>2019-01-10T14:53:32Z</time>
      </trkpt>
      <trkpt lat="43.7436" lon="3.54665">
        <ele>286</ele>
        <time>2019-01-10T14:53:48Z</time>
      </trkpt>
      <trkpt lat="43.74364" lon="3.54666">
        <ele>286</ele>
        <time>2019-01-10T14:53:48Z</time>
      </trkpt>
      <trkpt lat="43.74369" lon="3.5467">
        <ele>286</ele>
        <time>2019-01-10T14:53:48Z</time>
      </trkpt>
      <trkpt lat="43.74372" lon="3.54674">
        <ele>286</ele>
        <time>2019-01-10T14:53:48Z</time>
      </trkpt>
      <trkpt lat="43.74373" lon="3.54675">
        <ele>286</ele>
        <time>2019-01-10T14:54:04Z</time>
      </trkpt>
      <trkpt lat="43.74378" lon="3.54678">
        <ele>284</ele>
        <time>2019-01-10T14:54:04Z</time>
      </trkpt>
      <trkpt lat="43.74383" lon="3.54682">
        <ele>284</ele>
        <time>2019-01-10T14:54:04Z</time>
      </trkpt>
      <trkpt lat="43.74389" lon="3.54686">
        <ele>284</ele>
        <time>2019-01-10T14:54:04Z</time>
      </trkpt>
      <trkpt lat="43.74393" lon="3.54687">
        <ele>284</ele>
        <time>2019-01-10T14:54:20Z</time>
      </trkpt>
      <trkpt lat="43.74397" lon="3.54689">
        <ele>284</ele>
        <time>2019-01-10T14:54:20Z</time>
      </trkpt>
      <trkpt lat="43.74401" lon="3.54692">
        <ele>284</ele>
        <time>2019-01-10T14:54:20Z</time>
      </trkpt>
      <trkpt lat="43.74405" lon="3.54694">
        <ele>284</ele>
        <time>2019-01-10T14:54:20Z</time>
      </trkpt>
      <trkpt lat="43.74406" lon="3.54695">
        <ele>284</ele>
        <time>2019-01-10T14:54:40Z</time>
      </trkpt>
      <trkpt lat="43.74406" lon="3.54697">
        <ele>284</ele>
        <time>2019-01-10T14:54:40Z</time>
      </trkpt>
      <trkpt lat="43.74408" lon="3.54701">
        <ele>284</ele>
        <time>2019-01-10T14:54:40Z</time>
      </trkpt>
      <trkpt lat="43.74411" lon="3.54702">
        <ele>284</ele>
        <time>2019-01-10T14:54:40Z</time>
      </trkpt>
      <trkpt lat="43.74415" lon="3.54705">
        <ele>284</ele>
        <time>2019-01-10T14:54:40Z</time>
      </trkpt>
      <trkpt lat="43.74418" lon="3.54705">
        <ele>284</ele>
        <time>2019-01-10T14:54:56Z</time>
      </trkpt>
      <trkpt lat="43.74421" lon="3.54704">
        <ele>284</ele>
        <time>2019-01-10T14:54:56Z</time>
      </trkpt>
      <trkpt lat="43.74424" lon="3.54703">
        <ele>284</ele>
        <time>2019-01-10T14:54:56Z</time>
      </trkpt>
      <trkpt lat="43.74428" lon="3.54702">
        <ele>284</ele>
        <time>2019-01-10T14:54:56Z</time>
      </trkpt>
      <trkpt lat="43.74429" lon="3.54701">
        <ele>284</ele>
        <time>2019-01-10T14:55:12Z</time>
      </trkpt>
      <trkpt lat="43.74433" lon="3.54698">
        <ele>284</ele>
        <time>2019-01-10T14:55:12Z</time>
      </trkpt>
      <trkpt lat="43.74436" lon="3.54694">
        <ele>284</ele>
        <time>2019-01-10T14:55:12Z</time>
      </trkpt>
      <trkpt lat="43.74439" lon="3.54692">
        <ele>284</ele>
        <time>2019-01-10T14:55:12Z</time>
      </trkpt>
      <trkpt lat="43.74441" lon="3.54689">
        <ele>284</ele>
        <time>2019-01-10T14:55:28Z</time>
      </trkpt>
      <trkpt lat="43.74445" lon="3.54684">
        <ele>284</ele>
        <time>2019-01-10T14:55:28Z</time>
      </trkpt>
      <trkpt lat="43.74448" lon="3.5468">
        <ele>284</ele>
        <time>2019-01-10T14:55:28Z</time>
      </trkpt>
      <trkpt lat="43.74452" lon="3.54676">
        <ele>284</ele>
        <time>2019-01-10T14:55:28Z</time>
      </trkpt>
      <trkpt lat="43.74458" lon="3.54673">
        <ele>284</ele>
        <time>2019-01-10T14:55:44Z</time>
      </trkpt>
      <trkpt lat="43.74461" lon="3.54668">
        <ele>270</ele>
        <time>2019-01-10T14:55:44Z</time>
      </trkpt>
      <trkpt lat="43.74464" lon="3.54664">
        <ele>270</ele>
        <time>2019-01-10T14:55:44Z</time>
      </trkpt>
      <trkpt lat="43.74466" lon="3.5466">
        <ele>270</ele>
        <time>2019-01-10T14:55:44Z</time>
      </trkpt>
      <trkpt lat="43.74469" lon="3.54659">
        <ele>270</ele>
        <time>2019-01-10T14:56:00Z</time>
      </trkpt>
      <trkpt lat="43.74473" lon="3.54657">
        <ele>270</ele>
        <time>2019-01-10T14:56:00Z</time>
      </trkpt>
      <trkpt lat="43.74476" lon="3.54655">
        <ele>270</ele>
        <time>2019-01-10T14:56:00Z</time>
      </trkpt>
      <trkpt lat="43.74479" lon="3.54654">
        <ele>270</ele>
        <time>2019-01-10T14:56:00Z</time>
      </trkpt>
      <trkpt lat="43.74483" lon="3.54649">
        <ele>270</ele>
        <time>2019-01-10T14:56:16Z</time>
      </trkpt>
      <trkpt lat="43.74486" lon="3.54646">
        <ele>270</ele>
        <time>2019-01-10T14:56:16Z</time>
      </trkpt>
      <trkpt lat="43.74488" lon="3.54647">
        <ele>270</ele>
        <time>2019-01-10T14:56:16Z</time>
      </trkpt>
      <trkpt lat="43.74492" lon="3.54649">
        <ele>270</ele>
        <time>2019-01-10T14:56:16Z</time>
      </trkpt>
      <trkpt lat="43.74495" lon="3.54652">
        <ele>270</ele>
        <time>2019-01-10T14:56:44Z</time>
      </trkpt>
      <trkpt lat="43.74494" lon="3.54655">
        <ele>270</ele>
        <time>2019-01-10T14:56:44Z</time>
      </trkpt>
      <trkpt lat="43.74493" lon="3.54658">
        <ele>270</ele>
        <time>2019-01-10T14:56:44Z</time>
      </trkpt>
      <trkpt lat="43.74493" lon="3.54662">
        <ele>270</ele>
        <time>2019-01-10T14:56:44Z</time>
      </trkpt>
      <trkpt lat="43.74494" lon="3.54668">
        <ele>270</ele>
        <time>2019-01-10T14:56:44Z</time>
      </trkpt>
      <trkpt lat="43.74497" lon="3.54676">
        <ele>270</ele>
        <time>2019-01-10T14:57:00Z</time>
      </trkpt>
      <trkpt lat="43.74499" lon="3.54684">
        <ele>270</ele>
        <time>2019-01-10T14:57:00Z</time>
      </trkpt>
      <trkpt lat="43.745" lon="3.54689">
        <ele>270</ele>
        <time>2019-01-10T14:57:00Z</time>
      </trkpt>
      <trkpt lat="43.74501" lon="3.54691">
        <ele>270</ele>
        <time>2019-01-10T14:57:00Z</time>
      </trkpt>
      <trkpt lat="43.74502" lon="3.54695">
        <ele>270</ele>
        <time>2019-01-10T14:57:20Z</time>
      </trkpt>
      <trkpt lat="43.74503" lon="3.54696">
        <ele>270</ele>
        <time>2019-01-10T14:57:20Z</time>
      </trkpt>
      <trkpt lat="43.74505" lon="3.54699">
        <ele>270</ele>
        <time>2019-01-10T14:57:20Z</time>
      </trkpt>
      <trkpt lat="43.74508" lon="3.54704">
        <ele>270</ele>
        <time>2019-01-10T14:57:20Z</time>
      </trkpt>
      <trkpt lat="43.74511" lon="3.54711">
        <ele>268</ele>
        <time>2019-01-10T14:57:20Z</time>
      </trkpt>
      <trkpt lat="43.74513" lon="3.54715">
        <ele>268</ele>
        <time>2019-01-10T14:57:44Z</time>
      </trkpt>
      <trkpt lat="43.74514" lon="3.54719">
        <ele>268</ele>
        <time>2019-01-10T14:57:44Z</time>
      </trkpt>
      <trkpt lat="43.74517" lon="3.54725">
        <ele>268</ele>
        <time>2019-01-10T14:57:44Z</time>
      </trkpt>
      <trkpt lat="43.74519" lon="3.54731">
        <ele>268</ele>
        <time>2019-01-10T14:57:44Z</time>
      </trkpt>
      <trkpt lat="43.74521" lon="3.54736">
        <ele>268</ele>
        <time>2019-01-10T14:58:04Z</time>
      </trkpt>
      <trkpt lat="43.74523" lon="3.54742">
        <ele>268</ele>
        <time>2019-01-10T14:58:04Z</time>
      </trkpt>
      <trkpt lat="43.74523" lon="3.54747">
        <ele>268</ele>
        <time>2019-01-10T14:58:04Z</time>
      </trkpt>
      <trkpt lat="43.74523" lon="3.54749">
        <ele>268</ele>
        <time>2019-01-10T14:58:04Z</time>
      </trkpt>
      <trkpt lat="43.74523" lon="3.54753">
        <ele>268</ele>
        <time>2019-01-10T14:58:04Z</time>
      </trkpt>
      <trkpt lat="43.74523" lon="3.54758">
        <ele>268</ele>
        <time>2019-01-10T14:58:28Z</time>
      </trkpt>
      <trkpt lat="43.74523" lon="3.54759">
        <ele>268</ele>
        <time>2019-01-10T14:58:28Z</time>
      </trkpt>
      <trkpt lat="43.74522" lon="3.54763">
        <ele>268</ele>
        <time>2019-01-10T14:58:28Z</time>
      </trkpt>
      <trkpt lat="43.74523" lon="3.54768">
        <ele>268</ele>
        <time>2019-01-10T14:58:28Z</time>
      </trkpt>
      <trkpt lat="43.74523" lon="3.54772">
        <ele>268</ele>
        <time>2019-01-10T14:58:28Z</time>
      </trkpt>
      <trkpt lat="43.74523" lon="3.54776">
        <ele>268</ele>
        <time>2019-01-10T14:58:44Z</time>
      </trkpt>
      <trkpt lat="43.74521" lon="3.54783">
        <ele>268</ele>
        <time>2019-01-10T14:58:44Z</time>
      </trkpt>
      <trkpt lat="43.74521" lon="3.54788">
        <ele>268</ele>
        <time>2019-01-10T14:58:44Z</time>
      </trkpt>
      <trkpt lat="43.7452" lon="3.54794">
        <ele>273</ele>
        <time>2019-01-10T14:58:44Z</time>
      </trkpt>
      <trkpt lat="43.7452" lon="3.54795">
        <ele>273</ele>
        <time>2019-01-10T14:59:00Z</time>
      </trkpt>
      <trkpt lat="43.74521" lon="3.548">
        <ele>273</ele>
        <time>2019-01-10T14:59:00Z</time>
      </trkpt>
      <trkpt lat="43.7452" lon="3.54806">
        <ele>273</ele>
        <time>2019-01-10T14:59:00Z</time>
      </trkpt>
      <trkpt lat="43.7452" lon="3.54811">
        <ele>273</ele>
        <time>2019-01-10T14:59:00Z</time>
      </trkpt>
      <trkpt lat="43.7452" lon="3.54813">
        <ele>273</ele>
        <time>2019-01-10T14:59:16Z</time>
      </trkpt>
      <trkpt lat="43.74518" lon="3.5482">
        <ele>273</ele>
        <time>2019-01-10T14:59:16Z</time>
      </trkpt>
      <trkpt lat="43.74517" lon="3.54827">
        <ele>273</ele>
        <time>2019-01-10T14:59:16Z</time>
      </trkpt>
      <trkpt lat="43.74518" lon="3.5483">
        <ele>273</ele>
        <time>2019-01-10T14:59:16Z</time>
      </trkpt>
      <trkpt lat="43.74518" lon="3.54831">
        <ele>273</ele>
        <time>2019-01-10T14:59:32Z</time>
      </trkpt>
      <trkpt lat="43.74519" lon="3.54836">
        <ele>273</ele>
        <time>2019-01-10T14:59:32Z</time>
      </trkpt>
      <trkpt lat="43.7452" lon="3.54839">
        <ele>273</ele>
        <time>2019-01-10T14:59:32Z</time>
      </trkpt>
      <trkpt lat="43.74522" lon="3.54843">
        <ele>273</ele>
        <time>2019-01-10T14:59:32Z</time>
      </trkpt>
      <trkpt lat="43.74524" lon="3.54847">
        <ele>273</ele>
        <time>2019-01-10T14:59:48Z</time>
      </trkpt>
      <trkpt lat="43.74526" lon="3.54851">
        <ele>273</ele>
        <time>2019-01-10T14:59:48Z</time>
      </trkpt>
      <trkpt lat="43.74527" lon="3.54857">
        <ele>273</ele>
        <time>2019-01-10T14:59:48Z</time>
      </trkpt>
      <trkpt lat="43.7453" lon="3.54862">
        <ele>273</ele>
        <time>2019-01-10T14:59:48Z</time>
      </trkpt>
      <trkpt lat="43.74533" lon="3.54866">
        <ele>273</ele>
        <time>2019-01-10T15:00:04Z</time>
      </trkpt>
      <trkpt lat="43.74536" lon="3.5487">
        <ele>273</ele>
        <time>2019-01-10T15:00:04Z</time>
      </trkpt>
      <trkpt lat="43.7454" lon="3.54873">
        <ele>273</ele>
        <time>2019-01-10T15:00:04Z</time>
      </trkpt>
      <trkpt lat="43.74543" lon="3.54875">
        <ele>290</ele>
        <time>2019-01-10T15:00:04Z</time>
      </trkpt>
      <trkpt lat="43.74546" lon="3.54877">
        <ele>282</ele>
        <time>2019-01-10T15:00:20Z</time>
      </trkpt>
      <trkpt lat="43.74549" lon="3.54877">
        <ele>282</ele>
        <time>2019-01-10T15:00:20Z</time>
      </trkpt>
      <trkpt lat="43.74552" lon="3.54875">
        <ele>282</ele>
        <time>2019-01-10T15:00:20Z</time>
      </trkpt>
      <trkpt lat="43.74556" lon="3.54876">
        <ele>282</ele>
        <time>2019-01-10T15:00:20Z</time>
      </trkpt>
      <trkpt lat="43.7456" lon="3.54875">
        <ele>282</ele>
        <time>2019-01-10T15:00:36Z</time>
      </trkpt>
      <trkpt lat="43.74564" lon="3.54874">
        <ele>290</ele>
        <time>2019-01-10T15:00:36Z</time>
      </trkpt>
      <trkpt lat="43.74568" lon="3.54873">
        <ele>290</ele>
        <time>2019-01-10T15:00:36Z</time>
      </trkpt>
      <trkpt lat="43.74572" lon="3.54871">
        <ele>290</ele>
        <time>2019-01-10T15:00:36Z</time>
      </trkpt>
      <trkpt lat="43.74576" lon="3.54868">
        <ele>290</ele>
        <time>2019-01-10T15:00:52Z</time>
      </trkpt>
      <trkpt lat="43.7458" lon="3.54866">
        <ele>290</ele>
        <time>2019-01-10T15:00:52Z</time>
      </trkpt>
      <trkpt lat="43.74583" lon="3.54864">
        <ele>290</ele>
        <time>2019-01-10T15:00:52Z</time>
      </trkpt>
      <trkpt lat="43.74587" lon="3.54863">
        <ele>290</ele>
        <time>2019-01-10T15:00:52Z</time>
      </trkpt>
      <trkpt lat="43.74591" lon="3.54866">
        <ele>290</ele>
        <time>2019-01-10T15:01:08Z</time>
      </trkpt>
      <trkpt lat="43.74594" lon="3.54868">
        <ele>290</ele>
        <time>2019-01-10T15:01:08Z</time>
      </trkpt>
      <trkpt lat="43.74597" lon="3.54868">
        <ele>290</ele>
        <time>2019-01-10T15:01:08Z</time>
      </trkpt>
      <trkpt lat="43.746" lon="3.5487">
        <ele>290</ele>
        <time>2019-01-10T15:01:08Z</time>
      </trkpt>
      <trkpt lat="43.74602" lon="3.54871">
        <ele>290</ele>
        <time>2019-01-10T15:01:24Z</time>
      </trkpt>
      <trkpt lat="43.74606" lon="3.54875">
        <ele>282</ele>
        <time>2019-01-10T15:01:24Z</time>
      </trkpt>
      <trkpt lat="43.74609" lon="3.5488">
        <ele>282</ele>
        <time>2019-01-10T15:01:24Z</time>
      </trkpt>
      <trkpt lat="43.74612" lon="3.54884">
        <ele>282</ele>
        <time>2019-01-10T15:01:24Z</time>
      </trkpt>
      <trkpt lat="43.74615" lon="3.5489">
        <ele>282</ele>
        <time>2019-01-10T15:01:52Z</time>
      </trkpt>
      <trkpt lat="43.74617" lon="3.54892">
        <ele>282</ele>
        <time>2019-01-10T15:01:52Z</time>
      </trkpt>
      <trkpt lat="43.74618" lon="3.54893">
        <ele>282</ele>
        <time>2019-01-10T15:01:52Z</time>
      </trkpt>
      <trkpt lat="43.7462" lon="3.54895">
        <ele>282</ele>
        <time>2019-01-10T15:01:52Z</time>
      </trkpt>
      <trkpt lat="43.74623" lon="3.54897">
        <ele>282</ele>
        <time>2019-01-10T15:01:52Z</time>
      </trkpt>
      <trkpt lat="43.74627" lon="3.54899">
        <ele>298</ele>
        <time>2019-01-10T15:02:16Z</time>
      </trkpt>
      <trkpt lat="43.74631" lon="3.54902">
        <ele>298</ele>
        <time>2019-01-10T15:02:16Z</time>
      </trkpt>
      <trkpt lat="43.74639" lon="3.54905">
        <ele>298</ele>
        <time>2019-01-10T15:02:16Z</time>
      </trkpt>
      <trkpt lat="43.74641" lon="3.54905">
        <ele>298</ele>
        <time>2019-01-10T15:02:16Z</time>
      </trkpt>
      <trkpt lat="43.74644" lon="3.54907">
        <ele>298</ele>
        <time>2019-01-10T15:02:36Z</time>
      </trkpt>
      <trkpt lat="43.74647" lon="3.54908">
        <ele>298</ele>
        <time>2019-01-10T15:02:36Z</time>
      </trkpt>
      <trkpt lat="43.7465" lon="3.5491">
        <ele>298</ele>
        <time>2019-01-10T15:02:36Z</time>
      </trkpt>
      <trkpt lat="43.74652" lon="3.5491">
        <ele>298</ele>
        <time>2019-01-10T15:02:36Z</time>
      </trkpt>
      <trkpt lat="43.74657" lon="3.54908">
        <ele>298</ele>
        <time>2019-01-10T15:02:36Z</time>
      </trkpt>
      <trkpt lat="43.74661" lon="3.54908">
        <ele>298</ele>
        <time>2019-01-10T15:02:56Z</time>
      </trkpt>
      <trkpt lat="43.74665" lon="3.54909">
        <ele>298</ele>
        <time>2019-01-10T15:02:56Z</time>
      </trkpt>
      <trkpt lat="43.74667" lon="3.54909">
        <ele>298</ele>
        <time>2019-01-10T15:02:56Z</time>
      </trkpt>
      <trkpt lat="43.74669" lon="3.54909">
        <ele>298</ele>
        <time>2019-01-10T15:02:56Z</time>
      </trkpt>
      <trkpt lat="43.74673" lon="3.54909">
        <ele>298</ele>
        <time>2019-01-10T15:02:56Z</time>
      </trkpt>
      <trkpt lat="43.74677" lon="3.54908">
        <ele>298</ele>
        <time>2019-01-10T15:03:12Z</time>
      </trkpt>
      <trkpt lat="43.7468" lon="3.54907">
        <ele>298</ele>
        <time>2019-01-10T15:03:12Z</time>
      </trkpt>
      <trkpt lat="43.74682" lon="3.54906">
        <ele>298</ele>
        <time>2019-01-10T15:03:12Z</time>
      </trkpt>
      <trkpt lat="43.74686" lon="3.54905">
        <ele>298</ele>
        <time>2019-01-10T15:03:12Z</time>
      </trkpt>
      <trkpt lat="43.7469" lon="3.54905">
        <ele>298</ele>
        <time>2019-01-10T15:03:28Z</time>
      </trkpt>
      <trkpt lat="43.74694" lon="3.54906">
        <ele>298</ele>
        <time>2019-01-10T15:03:28Z</time>
      </trkpt>
      <trkpt lat="43.74696" lon="3.54906">
        <ele>298</ele>
        <time>2019-01-10T15:03:28Z</time>
      </trkpt>
      <trkpt lat="43.74701" lon="3.54908">
        <ele>298</ele>
        <time>2019-01-10T15:03:28Z</time>
      </trkpt>
      <trkpt lat="43.74707" lon="3.54907">
        <ele>298</ele>
        <time>2019-01-10T15:03:52Z</time>
      </trkpt>
      <trkpt lat="43.74707" lon="3.54907">
        <ele>298</ele>
        <time>2019-01-10T15:03:52Z</time>
      </trkpt>
      <trkpt lat="43.74709" lon="3.54906">
        <ele>311</ele>
        <time>2019-01-10T15:03:52Z</time>
      </trkpt>
      <trkpt lat="43.74711" lon="3.54903">
        <ele>311</ele>
        <time>2019-01-10T15:03:52Z</time>
      </trkpt>
      <trkpt lat="43.74715" lon="3.549">
        <ele>311</ele>
        <time>2019-01-10T15:03:52Z</time>
      </trkpt>
      <trkpt lat="43.74717" lon="3.54899">
        <ele>311</ele>
        <time>2019-01-10T15:04:08Z</time>
      </trkpt>
      <trkpt lat="43.7472" lon="3.54895">
        <ele>311</ele>
        <time>2019-01-10T15:04:08Z</time>
      </trkpt>
      <trkpt lat="43.74725" lon="3.54895">
        <ele>311</ele>
        <time>2019-01-10T15:04:08Z</time>
      </trkpt>
      <trkpt lat="43.7473" lon="3.54895">
        <ele>311</ele>
        <time>2019-01-10T15:04:08Z</time>
      </trkpt>
      <trkpt lat="43.74734" lon="3.54893">
        <ele>311</ele>
        <time>2019-01-10T15:04:24Z</time>
      </trkpt>
      <trkpt lat="43.74739" lon="3.5489">
        <ele>311</ele>
        <time>2019-01-10T15:04:24Z</time>
      </trkpt>
      <trkpt lat="43.7474" lon="3.54889">
        <ele>311</ele>
        <time>2019-01-10T15:04:24Z</time>
      </trkpt>
      <trkpt lat="43.74746" lon="3.54888">
        <ele>311</ele>
        <time>2019-01-10T15:04:24Z</time>
      </trkpt>
      <trkpt lat="43.7475" lon="3.5489">
        <ele>311</ele>
        <time>2019-01-10T15:04:40Z</time>
      </trkpt>
      <trkpt lat="43.74754" lon="3.54891">
        <ele>311</ele>
        <time>2019-01-10T15:04:40Z</time>
      </trkpt>
      <trkpt lat="43.74757" lon="3.54892">
        <ele>311</ele>
        <time>2019-01-10T15:04:40Z</time>
      </trkpt>
      <trkpt lat="43.7476" lon="3.54893">
        <ele>311</ele>
        <time>2019-01-10T15:04:40Z</time>
      </trkpt>
      <trkpt lat="43.74764" lon="3.54894">
        <ele>311</ele>
        <time>2019-01-10T15:04:56Z</time>
      </trkpt>
      <trkpt lat="43.74768" lon="3.54893">
        <ele>311</ele>
        <time>2019-01-10T15:04:56Z</time>
      </trkpt>
      <trkpt lat="43.74773" lon="3.54893">
        <ele>311</ele>
        <time>2019-01-10T15:04:56Z</time>
      </trkpt>
      <trkpt lat="43.74778" lon="3.54894">
        <ele>311</ele>
        <time>2019-01-10T15:04:56Z</time>
      </trkpt>
      <trkpt lat="43.74782" lon="3.54893">
        <ele>311</ele>
        <time>2019-01-10T15:05:12Z</time>
      </trkpt>
      <trkpt lat="43.74784" lon="3.54894">
        <ele>311</ele>
        <time>2019-01-10T15:05:12Z</time>
      </trkpt>
      <trkpt lat="43.74789" lon="3.54895">
        <ele>311</ele>
        <time>2019-01-10T15:05:12Z</time>
      </trkpt>
      <trkpt lat="43.74795" lon="3.54896">
        <ele>311</ele>
        <time>2019-01-10T15:05:12Z</time>
      </trkpt>
      <trkpt lat="43.74799" lon="3.54896">
        <ele>311</ele>
        <time>2019-01-10T15:05:28Z</time>
      </trkpt>
      <trkpt lat="43.74804" lon="3.54895">
        <ele>311</ele>
        <time>2019-01-10T15:05:28Z</time>
      </trkpt>
      <trkpt lat="43.74808" lon="3.54896">
        <ele>311</ele>
        <time>2019-01-10T15:05:28Z</time>
      </trkpt>
      <trkpt lat="43.74813" lon="3.54898">
        <ele>311</ele>
        <time>2019-01-10T15:05:28Z</time>
      </trkpt>
      <trkpt lat="43.74817" lon="3.54895">
        <ele>311</ele>
        <time>2019-01-10T15:05:44Z</time>
      </trkpt>
      <trkpt lat="43.74821" lon="3.54897">
        <ele>311</ele>
        <time>2019-01-10T15:05:44Z</time>
      </trkpt>
      <trkpt lat="43.74825" lon="3.54896">
        <ele>311</ele>
        <time>2019-01-10T15:05:44Z</time>
      </trkpt>
      <trkpt lat="43.74826" lon="3.54896">
        <ele>311</ele>
        <time>2019-01-10T15:05:44Z</time>
      </trkpt>
      <trkpt lat="43.74828" lon="3.54895">
        <ele>311</ele>
        <time>2019-01-10T15:06:00Z</time>
      </trkpt>
      <trkpt lat="43.74834" lon="3.54895">
        <ele>311</ele>
        <time>2019-01-10T15:06:00Z</time>
      </trkpt>
      <trkpt lat="43.74838" lon="3.54895">
        <ele>311</ele>
        <time>2019-01-10T15:06:00Z</time>
      </trkpt>
      <trkpt lat="43.74841" lon="3.54896">
        <ele>311</ele>
        <time>2019-01-10T15:06:00Z</time>
      </trkpt>
      <trkpt lat="43.74844" lon="3.54897">
        <ele>311</ele>
        <time>2019-01-10T15:06:16Z</time>
      </trkpt>
      <trkpt lat="43.74848" lon="3.54896">
        <ele>311</ele>
        <time>2019-01-10T15:06:16Z</time>
      </trkpt>
      <trkpt lat="43.74853" lon="3.54897">
        <ele>311</ele>
        <time>2019-01-10T15:06:16Z</time>
      </trkpt>
      <trkpt lat="43.74854" lon="3.54898">
        <ele>311</ele>
        <time>2019-01-10T15:06:16Z</time>
      </trkpt>
      <trkpt lat="43.74856" lon="3.54899">
        <ele>311</ele>
        <time>2019-01-10T15:06:32Z</time>
      </trkpt>
      <trkpt lat="43.74863" lon="3.54902">
        <ele>311</ele>
        <time>2019-01-10T15:06:32Z</time>
      </trkpt>
      <trkpt lat="43.74869" lon="3.54902">
        <ele>311</ele>
        <time>2019-01-10T15:06:32Z</time>
      </trkpt>
      <trkpt lat="43.74873" lon="3.54903">
        <ele>311</ele>
        <time>2019-01-10T15:06:32Z</time>
      </trkpt>
      <trkpt lat="43.74876" lon="3.54904">
        <ele>297</ele>
        <time>2019-01-10T15:06:48Z</time>
      </trkpt>
      <trkpt lat="43.74881" lon="3.54907">
        <ele>297</ele>
        <time>2019-01-10T15:06:48Z</time>
      </trkpt>
      <trkpt lat="43.74886" lon="3.54913">
        <ele>297</ele>
        <time>2019-01-10T15:06:48Z</time>
      </trkpt>
      <trkpt lat="43.7489" lon="3.54917">
        <ele>297</ele>
        <time>2019-01-10T15:06:48Z</time>
      </trkpt>
      <trkpt lat="43.74894" lon="3.54918">
        <ele>297</ele>
        <time>2019-01-10T15:07:04Z</time>
      </trkpt>
      <trkpt lat="43.74897" lon="3.5492">
        <ele>297</ele>
        <time>2019-01-10T15:07:04Z</time>
      </trkpt>
      <trkpt lat="43.74901" lon="3.54923">
        <ele>297</ele>
        <time>2019-01-10T15:07:04Z</time>
      </trkpt>
      <trkpt lat="43.74903" lon="3.54925">
        <ele>297</ele>
        <time>2019-01-10T15:07:04Z</time>
      </trkpt>
      <trkpt lat="43.74907" lon="3.54928">
        <ele>297</ele>
        <time>2019-01-10T15:07:20Z</time>
      </trkpt>
      <trkpt lat="43.7491" lon="3.54934">
        <ele>297</ele>
        <time>2019-01-10T15:07:20Z</time>
      </trkpt>
      <trkpt lat="43.74912" lon="3.54938">
        <ele>297</ele>
        <time>2019-01-10T15:07:20Z</time>
      </trkpt>
      <trkpt lat="43.74915" lon="3.54944">
        <ele>297</ele>
        <time>2019-01-10T15:07:20Z</time>
      </trkpt>
      <trkpt lat="43.74917" lon="3.54945">
        <ele>297</ele>
        <time>2019-01-10T15:07:40Z</time>
      </trkpt>
      <trkpt lat="43.74918" lon="3.54946">
        <ele>297</ele>
        <time>2019-01-10T15:07:40Z</time>
      </trkpt>
      <trkpt lat="43.74922" lon="3.54947">
        <ele>297</ele>
        <time>2019-01-10T15:07:40Z</time>
      </trkpt>
      <trkpt lat="43.74923" lon="3.54949">
        <ele>297</ele>
        <time>2019-01-10T15:07:40Z</time>
      </trkpt>
      <trkpt lat="43.74926" lon="3.54957">
        <ele>297</ele>
        <time>2019-01-10T15:07:40Z</time>
      </trkpt>
      <trkpt lat="43.74927" lon="3.54959">
        <ele>291</ele>
        <time>2019-01-10T15:07:56Z</time>
      </trkpt>
      <trkpt lat="43.74932" lon="3.54961">
        <ele>291</ele>
        <time>2019-01-10T15:07:56Z</time>
      </trkpt>
      <trkpt lat="43.74937" lon="3.54968">
        <ele>291</ele>
        <time>2019-01-10T15:07:56Z</time>
      </trkpt>
      <trkpt lat="43.74941" lon="3.54972">
        <ele>291</ele>
        <time>2019-01-10T15:07:56Z</time>
      </trkpt>
      <trkpt lat="43.74946" lon="3.54974">
        <ele>291</ele>
        <time>2019-01-10T15:08:12Z</time>
      </trkpt>
      <trkpt lat="43.7495" lon="3.54974">
        <ele>291</ele>
        <time>2019-01-10T15:08:12Z</time>
      </trkpt>
      <trkpt lat="43.74953" lon="3.54973">
        <ele>291</ele>
        <time>2019-01-10T15:08:12Z</time>
      </trkpt>
      <trkpt lat="43.74956" lon="3.54972">
        <ele>291</ele>
        <time>2019-01-10T15:08:12Z</time>
      </trkpt>
      <trkpt lat="43.74961" lon="3.54969">
        <ele>291</ele>
        <time>2019-01-10T15:08:28Z</time>
      </trkpt>
      <trkpt lat="43.74967" lon="3.54965">
        <ele>291</ele>
        <time>2019-01-10T15:08:28Z</time>
      </trkpt>
      <trkpt lat="43.74971" lon="3.54963">
        <ele>291</ele>
        <time>2019-01-10T15:08:28Z</time>
      </trkpt>
      <trkpt lat="43.74974" lon="3.54961">
        <ele>291</ele>
        <time>2019-01-10T15:08:28Z</time>
      </trkpt>
      <trkpt lat="43.74978" lon="3.54961">
        <ele>291</ele>
        <time>2019-01-10T15:08:44Z</time>
      </trkpt>
      <trkpt lat="43.74981" lon="3.5496">
        <ele>291</ele>
        <time>2019-01-10T15:08:44Z</time>
      </trkpt>
      <trkpt lat="43.74985" lon="3.54957">
        <ele>291</ele>
        <time>2019-01-10T15:08:44Z</time>
      </trkpt>
      <trkpt lat="43.7499" lon="3.54957">
        <ele>291</ele>
        <time>2019-01-10T15:08:44Z</time>
      </trkpt>
      <trkpt lat="43.74994" lon="3.54957">
        <ele>291</ele>
        <time>2019-01-10T15:09:04Z</time>
      </trkpt>
      <trkpt lat="43.74996" lon="3.54963">
        <ele>291</ele>
        <time>2019-01-10T15:09:04Z</time>
      </trkpt>
      <trkpt lat="43.74999" lon="3.54965">
        <ele>291</ele>
        <time>2019-01-10T15:09:04Z</time>
      </trkpt>
      <trkpt lat="43.74999" lon="3.54967">
        <ele>291</ele>
        <time>2019-01-10T15:09:04Z</time>
      </trkpt>
      <trkpt lat="43.74998" lon="3.54971">
        <ele>291</ele>
        <time>2019-01-10T15:09:04Z</time>
      </trkpt>
      <trkpt lat="43.74997" lon="3.54975">
        <ele>291</ele>
        <time>2019-01-10T15:09:24Z</time>
      </trkpt>
      <trkpt lat="43.74995" lon="3.54978">
        <ele>291</ele>
        <time>2019-01-10T15:09:24Z</time>
      </trkpt>
      <trkpt lat="43.74995" lon="3.5498">
        <ele>291</ele>
        <time>2019-01-10T15:09:24Z</time>
      </trkpt>
      <trkpt lat="43.74994" lon="3.54981">
        <ele>291</ele>
        <time>2019-01-10T15:09:24Z</time>
      </trkpt>
      <trkpt lat="43.74991" lon="3.54986">
        <ele>291</ele>
        <time>2019-01-10T15:09:24Z</time>
      </trkpt>
      <trkpt lat="43.7499" lon="3.54992">
        <ele>291</ele>
        <time>2019-01-10T15:09:40Z</time>
      </trkpt>
      <trkpt lat="43.74989" lon="3.54997">
        <ele>291</ele>
        <time>2019-01-10T15:09:40Z</time>
      </trkpt>
      <trkpt lat="43.74989" lon="3.55003">
        <ele>291</ele>
        <time>2019-01-10T15:09:40Z</time>
      </trkpt>
      <trkpt lat="43.74987" lon="3.55008">
        <ele>291</ele>
        <time>2019-01-10T15:09:40Z</time>
      </trkpt>
      <trkpt lat="43.74986" lon="3.55018">
        <ele>291</ele>
        <time>2019-01-10T15:10:56Z</time>
      </trkpt>
      <trkpt lat="43.74988" lon="3.5502">
        <ele>291</ele>
        <time>2019-01-10T15:10:56Z</time>
      </trkpt>
      <trkpt lat="43.74991" lon="3.55022">
        <ele>291</ele>
        <time>2019-01-10T15:10:56Z</time>
      </trkpt>
      <trkpt lat="43.74996" lon="3.55027">
        <ele>291</ele>
        <time>2019-01-10T15:10:56Z</time>
      </trkpt>
      <trkpt lat="43.75" lon="3.5503">
        <ele>291</ele>
        <time>2019-01-10T15:10:56Z</time>
      </trkpt>
      <trkpt lat="43.75002" lon="3.55032">
        <ele>291</ele>
        <time>2019-01-10T15:11:12Z</time>
      </trkpt>
      <trkpt lat="43.75005" lon="3.55037">
        <ele>291</ele>
        <time>2019-01-10T15:11:12Z</time>
      </trkpt>
      <trkpt lat="43.7501" lon="3.55038">
        <ele>291</ele>
        <time>2019-01-10T15:11:12Z</time>
      </trkpt>
      <trkpt lat="43.75013" lon="3.55043">
        <ele>277</ele>
        <time>2019-01-10T15:11:12Z</time>
      </trkpt>
      <trkpt lat="43.75016" lon="3.55048">
        <ele>277</ele>
        <time>2019-01-10T15:11:28Z</time>
      </trkpt>
      <trkpt lat="43.75019" lon="3.55053">
        <ele>277</ele>
        <time>2019-01-10T15:11:28Z</time>
      </trkpt>
      <trkpt lat="43.7502" lon="3.55054">
        <ele>277</ele>
        <time>2019-01-10T15:11:28Z</time>
      </trkpt>
      <trkpt lat="43.75024" lon="3.55058">
        <ele>277</ele>
        <time>2019-01-10T15:11:28Z</time>
      </trkpt>
      <trkpt lat="43.75025" lon="3.55062">
        <ele>277</ele>
        <time>2019-01-10T15:11:48Z</time>
      </trkpt>
      <trkpt lat="43.75026" lon="3.55063">
        <ele>277</ele>
        <time>2019-01-10T15:11:48Z</time>
      </trkpt>
      <trkpt lat="43.75027" lon="3.55068">
        <ele>277</ele>
        <time>2019-01-10T15:11:48Z</time>
      </trkpt>
      <trkpt lat="43.75029" lon="3.55074">
        <ele>277</ele>
        <time>2019-01-10T15:11:48Z</time>
      </trkpt>
      <trkpt lat="43.7503" lon="3.55078">
        <ele>277</ele>
        <time>2019-01-10T15:11:48Z</time>
      </trkpt>
      <trkpt lat="43.75031" lon="3.55079">
        <ele>277</ele>
        <time>2019-01-10T15:12:04Z</time>
      </trkpt>
      <trkpt lat="43.75032" lon="3.55084">
        <ele>277</ele>
        <time>2019-01-10T15:12:04Z</time>
      </trkpt>
      <trkpt lat="43.75034" lon="3.5509">
        <ele>277</ele>
        <time>2019-01-10T15:12:04Z</time>
      </trkpt>
      <trkpt lat="43.75036" lon="3.55096">
        <ele>277</ele>
        <time>2019-01-10T15:12:04Z</time>
      </trkpt>
      <trkpt lat="43.75041" lon="3.55102">
        <ele>277</ele>
        <time>2019-01-10T15:12:32Z</time>
      </trkpt>
      <trkpt lat="43.75044" lon="3.55104">
        <ele>320</ele>
        <time>2019-01-10T15:12:32Z</time>
      </trkpt>
      <trkpt lat="43.75045" lon="3.55103">
        <ele>320</ele>
        <time>2019-01-10T15:12:32Z</time>
      </trkpt>
      <trkpt lat="43.75045" lon="3.55107">
        <ele>320</ele>
        <time>2019-01-10T15:12:32Z</time>
      </trkpt>
      <trkpt lat="43.75046" lon="3.55108">
        <ele>320</ele>
        <time>2019-01-10T15:12:32Z</time>
      </trkpt>
      <trkpt lat="43.7505" lon="3.55113">
        <ele>320</ele>
        <time>2019-01-10T15:14:04Z</time>
      </trkpt>
      <trkpt lat="43.7505" lon="3.55112">
        <ele>320</ele>
        <time>2019-01-10T15:14:04Z</time>
      </trkpt>
      <trkpt lat="43.75051" lon="3.55114">
        <ele>320</ele>
        <time>2019-01-10T15:14:04Z</time>
      </trkpt>
      <trkpt lat="43.7505" lon="3.55118">
        <ele>320</ele>
        <time>2019-01-10T15:14:04Z</time>
      </trkpt>
      <trkpt lat="43.7505" lon="3.55124">
        <ele>320</ele>
        <time>2019-01-10T15:14:04Z</time>
      </trkpt>
      <trkpt lat="43.75055" lon="3.55133">
        <ele>287</ele>
        <time>2019-01-10T15:16:32Z</time>
      </trkpt>
      <trkpt lat="43.75057" lon="3.55134">
        <ele>287</ele>
        <time>2019-01-10T15:16:32Z</time>
      </trkpt>
      <trkpt lat="43.75057" lon="3.55135">
        <ele>287</ele>
        <time>2019-01-10T15:16:32Z</time>
      </trkpt>
      <trkpt lat="43.75061" lon="3.55134">
        <ele>287</ele>
        <time>2019-01-10T15:16:32Z</time>
      </trkpt>
      <trkpt lat="43.75063" lon="3.55135">
        <ele>287</ele>
        <time>2019-01-10T15:16:32Z</time>
      </trkpt>
      <trkpt lat="43.75064" lon="3.55136">
        <ele>287</ele>
        <time>2019-01-10T15:16:48Z</time>
      </trkpt>
      <trkpt lat="43.75067" lon="3.5514">
        <ele>287</ele>
        <time>2019-01-10T15:16:48Z</time>
      </trkpt>
      <trkpt lat="43.75069" lon="3.55144">
        <ele>287</ele>
        <time>2019-01-10T15:16:48Z</time>
      </trkpt>
      <trkpt lat="43.75069" lon="3.55147">
        <ele>287</ele>
        <time>2019-01-10T15:16:48Z</time>
      </trkpt>
      <trkpt lat="43.75069" lon="3.55152">
        <ele>287</ele>
        <time>2019-01-10T15:17:04Z</time>
      </trkpt>
      <trkpt lat="43.75071" lon="3.55156">
        <ele>287</ele>
        <time>2019-01-10T15:17:04Z</time>
      </trkpt>
      <trkpt lat="43.75074" lon="3.55157">
        <ele>287</ele>
        <time>2019-01-10T15:17:04Z</time>
      </trkpt>
      <trkpt lat="43.75078" lon="3.55158">
        <ele>287</ele>
        <time>2019-01-10T15:17:04Z</time>
      </trkpt>
      <trkpt lat="43.75083" lon="3.5516">
        <ele>287</ele>
        <time>2019-01-10T15:17:20Z</time>
      </trkpt>
      <trkpt lat="43.75087" lon="3.55162">
        <ele>287</ele>
        <time>2019-01-10T15:17:20Z</time>
      </trkpt>
      <trkpt lat="43.75089" lon="3.55165">
        <ele>287</ele>
        <time>2019-01-10T15:17:20Z</time>
      </trkpt>
      <trkpt lat="43.7509" lon="3.55169">
        <ele>287</ele>
        <time>2019-01-10T15:17:20Z</time>
      </trkpt>
      <trkpt lat="43.7509" lon="3.55171">
        <ele>287</ele>
        <time>2019-01-10T15:19:48Z</time>
      </trkpt>
      <trkpt lat="43.75091" lon="3.55177">
        <ele>287</ele>
        <time>2019-01-10T15:19:48Z</time>
      </trkpt>
      <trkpt lat="43.7509" lon="3.55184">
        <ele>287</ele>
        <time>2019-01-10T15:19:48Z</time>
      </trkpt>
      <trkpt lat="43.7509" lon="3.55187">
        <ele>287</ele>
        <time>2019-01-10T15:19:48Z</time>
      </trkpt>
      <trkpt lat="43.75089" lon="3.55189">
        <ele>287</ele>
        <time>2019-01-10T15:20:08Z</time>
      </trkpt>
      <trkpt lat="43.7509" lon="3.55196">
        <ele>287</ele>
        <time>2019-01-10T15:20:08Z</time>
      </trkpt>
      <trkpt lat="43.75092" lon="3.552">
        <ele>287</ele>
        <time>2019-01-10T15:20:08Z</time>
      </trkpt>
      <trkpt lat="43.75092" lon="3.55207">
        <ele>287</ele>
        <time>2019-01-10T15:20:08Z</time>
      </trkpt>
      <trkpt lat="43.75093" lon="3.55214">
        <ele>268</ele>
        <time>2019-01-10T15:20:24Z</time>
      </trkpt>
      <trkpt lat="43.75094" lon="3.55219">
        <ele>268</ele>
        <time>2019-01-10T15:20:24Z</time>
      </trkpt>
      <trkpt lat="43.75095" lon="3.55224">
        <ele>268</ele>
        <time>2019-01-10T15:20:24Z</time>
      </trkpt>
      <trkpt lat="43.75097" lon="3.55228">
        <ele>268</ele>
        <time>2019-01-10T15:20:24Z</time>
      </trkpt>
      <trkpt lat="43.751" lon="3.55233">
        <ele>268</ele>
        <time>2019-01-10T15:20:40Z</time>
      </trkpt>
      <trkpt lat="43.75104" lon="3.55235">
        <ele>268</ele>
        <time>2019-01-10T15:20:40Z</time>
      </trkpt>
      <trkpt lat="43.75106" lon="3.55236">
        <ele>268</ele>
        <time>2019-01-10T15:20:40Z</time>
      </trkpt>
      <trkpt lat="43.75109" lon="3.55237">
        <ele>268</ele>
        <time>2019-01-10T15:20:40Z</time>
      </trkpt>
      <trkpt lat="43.75113" lon="3.55238">
        <ele>268</ele>
        <time>2019-01-10T15:20:56Z</time>
      </trkpt>
      <trkpt lat="43.75117" lon="3.55241">
        <ele>268</ele>
        <time>2019-01-10T15:20:56Z</time>
      </trkpt>
      <trkpt lat="43.75121" lon="3.55242">
        <ele>268</ele>
        <time>2019-01-10T15:20:56Z</time>
      </trkpt>
      <trkpt lat="43.75124" lon="3.55244">
        <ele>268</ele>
        <time>2019-01-10T15:20:56Z</time>
      </trkpt>
      <trkpt lat="43.75128" lon="3.55247">
        <ele>310</ele>
        <time>2019-01-10T15:21:12Z</time>
      </trkpt>
      <trkpt lat="43.75131" lon="3.55249">
        <ele>310</ele>
        <time>2019-01-10T15:21:12Z</time>
      </trkpt>
      <trkpt lat="43.75134" lon="3.55253">
        <ele>310</ele>
        <time>2019-01-10T15:21:12Z</time>
      </trkpt>
      <trkpt lat="43.75138" lon="3.55254">
        <ele>310</ele>
        <time>2019-01-10T15:21:12Z</time>
      </trkpt>
      <trkpt lat="43.75142" lon="3.55256">
        <ele>310</ele>
        <time>2019-01-10T15:21:28Z</time>
      </trkpt>
      <trkpt lat="43.75145" lon="3.55261">
        <ele>310</ele>
        <time>2019-01-10T15:21:28Z</time>
      </trkpt>
      <trkpt lat="43.75149" lon="3.55264">
        <ele>310</ele>
        <time>2019-01-10T15:21:28Z</time>
      </trkpt>
      <trkpt lat="43.75153" lon="3.55265">
        <ele>310</ele>
        <time>2019-01-10T15:21:28Z</time>
      </trkpt>
      <trkpt lat="43.75157" lon="3.55267">
        <ele>310</ele>
        <time>2019-01-10T15:21:44Z</time>
      </trkpt>
      <trkpt lat="43.7516" lon="3.55269">
        <ele>310</ele>
        <time>2019-01-10T15:21:44Z</time>
      </trkpt>
      <trkpt lat="43.75164" lon="3.5527">
        <ele>310</ele>
        <time>2019-01-10T15:21:44Z</time>
      </trkpt>
      <trkpt lat="43.75168" lon="3.55271">
        <ele>310</ele>
        <time>2019-01-10T15:21:44Z</time>
      </trkpt>
      <trkpt lat="43.75172" lon="3.55271">
        <ele>310</ele>
        <time>2019-01-10T15:22:00Z</time>
      </trkpt>
      <trkpt lat="43.75176" lon="3.5527">
        <ele>310</ele>
        <time>2019-01-10T15:22:00Z</time>
      </trkpt>
      <trkpt lat="43.75179" lon="3.55271">
        <ele>310</ele>
        <time>2019-01-10T15:22:00Z</time>
      </trkpt>
      <trkpt lat="43.75183" lon="3.55271">
        <ele>310</ele>
        <time>2019-01-10T15:22:00Z</time>
      </trkpt>
      <trkpt lat="43.75187" lon="3.55269">
        <ele>310</ele>
        <time>2019-01-10T15:22:16Z</time>
      </trkpt>
      <trkpt lat="43.75192" lon="3.55266">
        <ele>310</ele>
        <time>2019-01-10T15:22:16Z</time>
      </trkpt>
      <trkpt lat="43.75196" lon="3.55264">
        <ele>310</ele>
        <time>2019-01-10T15:22:16Z</time>
      </trkpt>
      <trkpt lat="43.75198" lon="3.55262">
        <ele>310</ele>
        <time>2019-01-10T15:22:16Z</time>
      </trkpt>
      <trkpt lat="43.75201" lon="3.55257">
        <ele>310</ele>
        <time>2019-01-10T15:22:32Z</time>
      </trkpt>
      <trkpt lat="43.75203" lon="3.55255">
        <ele>310</ele>
        <time>2019-01-10T15:22:32Z</time>
      </trkpt>
      <trkpt lat="43.75207" lon="3.55254">
        <ele>310</ele>
        <time>2019-01-10T15:22:32Z</time>
      </trkpt>
      <trkpt lat="43.75211" lon="3.55254">
        <ele>310</ele>
        <time>2019-01-10T15:22:32Z</time>
      </trkpt>
      <trkpt lat="43.75214" lon="3.55254">
        <ele>310</ele>
        <time>2019-01-10T15:22:48Z</time>
      </trkpt>
      <trkpt lat="43.75218" lon="3.55254">
        <ele>310</ele>
        <time>2019-01-10T15:22:48Z</time>
      </trkpt>
      <trkpt lat="43.75222" lon="3.55255">
        <ele>310</ele>
        <time>2019-01-10T15:22:48Z</time>
      </trkpt>
      <trkpt lat="43.75225" lon="3.55254">
        <ele>310</ele>
        <time>2019-01-10T15:22:48Z</time>
      </trkpt>
      <trkpt lat="43.75231" lon="3.55254">
        <ele>310</ele>
        <time>2019-01-10T15:23:04Z</time>
      </trkpt>
      <trkpt lat="43.75238" lon="3.55253">
        <ele>310</ele>
        <time>2019-01-10T15:23:04Z</time>
      </trkpt>
      <trkpt lat="43.75244" lon="3.5525">
        <ele>310</ele>
        <time>2019-01-10T15:23:04Z</time>
      </trkpt>
      <trkpt lat="43.75249" lon="3.55248">
        <ele>310</ele>
        <time>2019-01-10T15:23:04Z</time>
      </trkpt>
      <trkpt lat="43.75253" lon="3.55244">
        <ele>310</ele>
        <time>2019-01-10T15:23:24Z</time>
      </trkpt>
      <trkpt lat="43.75256" lon="3.5524">
        <ele>310</ele>
        <time>2019-01-10T15:23:24Z</time>
      </trkpt>
      <trkpt lat="43.75258" lon="3.55237">
        <ele>310</ele>
        <time>2019-01-10T15:23:24Z</time>
      </trkpt>
      <trkpt lat="43.7526" lon="3.55232">
        <ele>310</ele>
        <time>2019-01-10T15:23:24Z</time>
      </trkpt>
      <trkpt lat="43.75263" lon="3.55228">
        <ele>310</ele>
        <time>2019-01-10T15:23:40Z</time>
      </trkpt>
      <trkpt lat="43.75266" lon="3.55226">
        <ele>310</ele>
        <time>2019-01-10T15:23:40Z</time>
      </trkpt>
      <trkpt lat="43.75268" lon="3.55225">
        <ele>310</ele>
        <time>2019-01-10T15:23:40Z</time>
      </trkpt>
      <trkpt lat="43.75271" lon="3.5522">
        <ele>310</ele>
        <time>2019-01-10T15:23:40Z</time>
      </trkpt>
      <trkpt lat="43.75275" lon="3.55216">
        <ele>310</ele>
        <time>2019-01-10T15:24:00Z</time>
      </trkpt>
      <trkpt lat="43.75278" lon="3.55214">
        <ele>310</ele>
        <time>2019-01-10T15:24:00Z</time>
      </trkpt>
      <trkpt lat="43.75281" lon="3.55215">
        <ele>310</ele>
        <time>2019-01-10T15:24:00Z</time>
      </trkpt>
      <trkpt lat="43.75285" lon="3.55216">
        <ele>310</ele>
        <time>2019-01-10T15:24:00Z</time>
      </trkpt>
      <trkpt lat="43.7529" lon="3.55217">
        <ele>310</ele>
        <time>2019-01-10T15:24:16Z</time>
      </trkpt>
      <trkpt lat="43.75295" lon="3.55219">
        <ele>316</ele>
        <time>2019-01-10T15:24:16Z</time>
      </trkpt>
      <trkpt lat="43.75298" lon="3.55218">
        <ele>316</ele>
        <time>2019-01-10T15:24:16Z</time>
      </trkpt>
      <trkpt lat="43.75304" lon="3.55219">
        <ele>316</ele>
        <time>2019-01-10T15:24:16Z</time>
      </trkpt>
      <trkpt lat="43.75308" lon="3.5522">
        <ele>316</ele>
        <time>2019-01-10T15:24:32Z</time>
      </trkpt>
      <trkpt lat="43.75311" lon="3.55221">
        <ele>316</ele>
        <time>2019-01-10T15:24:32Z</time>
      </trkpt>
      <trkpt lat="43.75315" lon="3.55222">
        <ele>316</ele>
        <time>2019-01-10T15:24:32Z</time>
      </trkpt>
      <trkpt lat="43.75318" lon="3.55223">
        <ele>316</ele>
        <time>2019-01-10T15:24:32Z</time>
      </trkpt>
      <trkpt lat="43.75321" lon="3.55225">
        <ele>316</ele>
        <time>2019-01-10T15:24:48Z</time>
      </trkpt>
      <trkpt lat="43.75323" lon="3.55229">
        <ele>316</ele>
        <time>2019-01-10T15:24:48Z</time>
      </trkpt>
      <trkpt lat="43.75326" lon="3.55235">
        <ele>316</ele>
        <time>2019-01-10T15:24:48Z</time>
      </trkpt>
      <trkpt lat="43.75327" lon="3.5524">
        <ele>316</ele>
        <time>2019-01-10T15:24:48Z</time>
      </trkpt>
      <trkpt lat="43.7533" lon="3.55244">
        <ele>316</ele>
        <time>2019-01-10T15:25:04Z</time>
      </trkpt>
      <trkpt lat="43.75333" lon="3.55247">
        <ele>316</ele>
        <time>2019-01-10T15:25:04Z</time>
      </trkpt>
      <trkpt lat="43.75335" lon="3.55249">
        <ele>316</ele>
        <time>2019-01-10T15:25:04Z</time>
      </trkpt>
      <trkpt lat="43.75336" lon="3.55254">
        <ele>316</ele>
        <time>2019-01-10T15:25:04Z</time>
      </trkpt>
      <trkpt lat="43.75337" lon="3.55259">
        <ele>316</ele>
        <time>2019-01-10T15:25:20Z</time>
      </trkpt>
      <trkpt lat="43.75338" lon="3.55262">
        <ele>316</ele>
        <time>2019-01-10T15:25:20Z</time>
      </trkpt>
      <trkpt lat="43.75339" lon="3.55268">
        <ele>316</ele>
        <time>2019-01-10T15:25:20Z</time>
      </trkpt>
      <trkpt lat="43.75338" lon="3.55273">
        <ele>316</ele>
        <time>2019-01-10T15:25:20Z</time>
      </trkpt>
      <trkpt lat="43.75341" lon="3.55284">
        <ele>316</ele>
        <time>2019-01-10T15:26:04Z</time>
      </trkpt>
      <trkpt lat="43.75341" lon="3.55284">
        <ele>316</ele>
        <time>2019-01-10T15:26:04Z</time>
      </trkpt>
      <trkpt lat="43.75343" lon="3.55289">
        <ele>316</ele>
        <time>2019-01-10T15:26:04Z</time>
      </trkpt>
      <trkpt lat="43.75343" lon="3.5529">
        <ele>316</ele>
        <time>2019-01-10T15:26:04Z</time>
      </trkpt>
      <trkpt lat="43.75344" lon="3.55291">
        <ele>316</ele>
        <time>2019-01-10T15:26:04Z</time>
      </trkpt>
      <trkpt lat="43.75345" lon="3.55292">
        <ele>313</ele>
        <time>2019-01-10T15:26:40Z</time>
      </trkpt>
      <trkpt lat="43.7535" lon="3.55301">
        <ele>313</ele>
        <time>2019-01-10T15:26:40Z</time>
      </trkpt>
      <trkpt lat="43.75355" lon="3.55308">
        <ele>313</ele>
        <time>2019-01-10T15:26:40Z</time>
      </trkpt>
      <trkpt lat="43.75356" lon="3.55311">
        <ele>313</ele>
        <time>2019-01-10T15:26:40Z</time>
      </trkpt>
      <trkpt lat="43.75357" lon="3.55313">
        <ele>313</ele>
        <time>2019-01-10T15:27:00Z</time>
      </trkpt>
      <trkpt lat="43.75359" lon="3.55317">
        <ele>313</ele>
        <time>2019-01-10T15:27:00Z</time>
      </trkpt>
      <trkpt lat="43.75361" lon="3.55321">
        <ele>313</ele>
        <time>2019-01-10T15:27:00Z</time>
      </trkpt>
      <trkpt lat="43.75367" lon="3.55334">
        <ele>313</ele>
        <time>2019-01-10T15:27:00Z</time>
      </trkpt>
      <trkpt lat="43.7537" lon="3.55341">
        <ele>313</ele>
        <time>2019-01-10T15:27:16Z</time>
      </trkpt>
      <trkpt lat="43.75373" lon="3.55346">
        <ele>313</ele>
        <time>2019-01-10T15:27:16Z</time>
      </trkpt>
      <trkpt lat="43.75376" lon="3.55351">
        <ele>346</ele>
        <time>2019-01-10T15:27:16Z</time>
      </trkpt>
      <trkpt lat="43.75378" lon="3.55354">
        <ele>346</ele>
        <time>2019-01-10T15:27:16Z</time>
      </trkpt>
      <trkpt lat="43.75381" lon="3.55359">
        <ele>346</ele>
        <time>2019-01-10T15:27:36Z</time>
      </trkpt>
      <trkpt lat="43.75383" lon="3.55361">
        <ele>346</ele>
        <time>2019-01-10T15:27:36Z</time>
      </trkpt>
      <trkpt lat="43.75386" lon="3.55362">
        <ele>346</ele>
        <time>2019-01-10T15:27:36Z</time>
      </trkpt>
      <trkpt lat="43.75389" lon="3.55363">
        <ele>346</ele>
        <time>2019-01-10T15:27:36Z</time>
      </trkpt>
      <trkpt lat="43.75391" lon="3.55363">
        <ele>346</ele>
        <time>2019-01-10T15:27:36Z</time>
      </trkpt>
      <trkpt lat="43.75395" lon="3.55363">
        <ele>346</ele>
        <time>2019-01-10T15:27:52Z</time>
      </trkpt>
      <trkpt lat="43.75399" lon="3.55367">
        <ele>346</ele>
        <time>2019-01-10T15:27:52Z</time>
      </trkpt>
      <trkpt lat="43.75401" lon="3.55368">
        <ele>346</ele>
        <time>2019-01-10T15:27:52Z</time>
      </trkpt>
      <trkpt lat="43.75404" lon="3.5537">
        <ele>346</ele>
        <time>2019-01-10T15:27:52Z</time>
      </trkpt>
      <trkpt lat="43.75406" lon="3.55371">
        <ele>346</ele>
        <time>2019-01-10T15:28:12Z</time>
      </trkpt>
      <trkpt lat="43.75409" lon="3.55371">
        <ele>346</ele>
        <time>2019-01-10T15:28:12Z</time>
      </trkpt>
      <trkpt lat="43.75412" lon="3.55372">
        <ele>346</ele>
        <time>2019-01-10T15:28:12Z</time>
      </trkpt>
      <trkpt lat="43.75413" lon="3.55372">
        <ele>346</ele>
        <time>2019-01-10T15:28:12Z</time>
      </trkpt>
      <trkpt lat="43.75417" lon="3.55373">
        <ele>346</ele>
        <time>2019-01-10T15:28:12Z</time>
      </trkpt>
      <trkpt lat="43.75421" lon="3.55375">
        <ele>346</ele>
        <time>2019-01-10T15:28:28Z</time>
      </trkpt>
      <trkpt lat="43.75423" lon="3.55375">
        <ele>319</ele>
        <time>2019-01-10T15:28:28Z</time>
      </trkpt>
      <trkpt lat="43.75427" lon="3.55378">
        <ele>319</ele>
        <time>2019-01-10T15:28:28Z</time>
      </trkpt>
      <trkpt lat="43.7543" lon="3.55382">
        <ele>319</ele>
        <time>2019-01-10T15:28:28Z</time>
      </trkpt>
      <trkpt lat="43.75434" lon="3.55384">
        <ele>319</ele>
        <time>2019-01-10T15:28:44Z</time>
      </trkpt>
      <trkpt lat="43.75438" lon="3.55386">
        <ele>319</ele>
        <time>2019-01-10T15:28:44Z</time>
      </trkpt>
      <trkpt lat="43.75443" lon="3.55388">
        <ele>319</ele>
        <time>2019-01-10T15:28:44Z</time>
      </trkpt>
      <trkpt lat="43.75446" lon="3.55392">
        <ele>319</ele>
        <time>2019-01-10T15:28:44Z</time>
      </trkpt>
      <trkpt lat="43.7545" lon="3.55394">
        <ele>319</ele>
        <time>2019-01-10T15:29:00Z</time>
      </trkpt>
      <trkpt lat="43.75455" lon="3.55397">
        <ele>319</ele>
        <time>2019-01-10T15:29:00Z</time>
      </trkpt>
      <trkpt lat="43.75458" lon="3.554">
        <ele>324</ele>
        <time>2019-01-10T15:29:00Z</time>
      </trkpt>
      <trkpt lat="43.75459" lon="3.554">
        <ele>324</ele>
        <time>2019-01-10T15:29:00Z</time>
      </trkpt>
      <trkpt lat="43.75463" lon="3.55401">
        <ele>324</ele>
        <time>2019-01-10T15:29:16Z</time>
      </trkpt>
      <trkpt lat="43.75468" lon="3.55402">
        <ele>324</ele>
        <time>2019-01-10T15:29:16Z</time>
      </trkpt>
      <trkpt lat="43.75471" lon="3.55402">
        <ele>324</ele>
        <time>2019-01-10T15:29:16Z</time>
      </trkpt>
      <trkpt lat="43.75475" lon="3.55401">
        <ele>324</ele>
        <time>2019-01-10T15:29:16Z</time>
      </trkpt>
      <trkpt lat="43.75479" lon="3.554">
        <ele>324</ele>
        <time>2019-01-10T15:29:32Z</time>
      </trkpt>
      <trkpt lat="43.75483" lon="3.554">
        <ele>324</ele>
        <time>2019-01-10T15:29:32Z</time>
      </trkpt>
      <trkpt lat="43.75486" lon="3.55399">
        <ele>324</ele>
        <time>2019-01-10T15:29:32Z</time>
      </trkpt>
      <trkpt lat="43.7549" lon="3.55397">
        <ele>324</ele>
        <time>2019-01-10T15:29:32Z</time>
      </trkpt>
      <trkpt lat="43.75492" lon="3.55397">
        <ele>324</ele>
        <time>2019-01-10T15:29:48Z</time>
      </trkpt>
      <trkpt lat="43.75494" lon="3.55395">
        <ele>324</ele>
        <time>2019-01-10T15:29:48Z</time>
      </trkpt>
      <trkpt lat="43.75498" lon="3.55392">
        <ele>324</ele>
        <time>2019-01-10T15:29:48Z</time>
      </trkpt>
      <trkpt lat="43.75502" lon="3.55391">
        <ele>324</ele>
        <time>2019-01-10T15:29:48Z</time>
      </trkpt>
      <trkpt lat="43.75503" lon="3.55391">
        <ele>324</ele>
        <time>2019-01-10T15:30:12Z</time>
      </trkpt>
      <trkpt lat="43.75506" lon="3.55391">
        <ele>324</ele>
        <time>2019-01-10T15:30:12Z</time>
      </trkpt>
      <trkpt lat="43.75507" lon="3.55391">
        <ele>324</ele>
        <time>2019-01-10T15:30:12Z</time>
      </trkpt>
      <trkpt lat="43.75509" lon="3.55391">
        <ele>324</ele>
        <time>2019-01-10T15:30:12Z</time>
      </trkpt>
      <trkpt lat="43.75513" lon="3.55391">
        <ele>324</ele>
        <time>2019-01-10T15:30:12Z</time>
      </trkpt>
      <trkpt lat="43.75515" lon="3.5539">
        <ele>324</ele>
        <time>2019-01-10T15:30:28Z</time>
      </trkpt>
      <trkpt lat="43.75517" lon="3.5539">
        <ele>324</ele>
        <time>2019-01-10T15:30:28Z</time>
      </trkpt>
      <trkpt lat="43.75524" lon="3.55386">
        <ele>324</ele>
        <time>2019-01-10T15:30:28Z</time>
      </trkpt>
      <trkpt lat="43.75529" lon="3.55384">
        <ele>324</ele>
        <time>2019-01-10T15:30:28Z</time>
      </trkpt>
      <trkpt lat="43.7553" lon="3.55384">
        <ele>324</ele>
        <time>2019-01-10T15:30:44Z</time>
      </trkpt>
      <trkpt lat="43.75536" lon="3.55385">
        <ele>324</ele>
        <time>2019-01-10T15:30:44Z</time>
      </trkpt>
      <trkpt lat="43.75542" lon="3.55386">
        <ele>308</ele>
        <time>2019-01-10T15:30:44Z</time>
      </trkpt>
      <trkpt lat="43.75547" lon="3.55384">
        <ele>308</ele>
        <time>2019-01-10T15:30:44Z</time>
      </trkpt>
      <trkpt lat="43.75548" lon="3.55383">
        <ele>308</ele>
        <time>2019-01-10T15:31:00Z</time>
      </trkpt>
      <trkpt lat="43.75552" lon="3.5538">
        <ele>308</ele>
        <time>2019-01-10T15:31:00Z</time>
      </trkpt>
      <trkpt lat="43.75555" lon="3.55378">
        <ele>308</ele>
        <time>2019-01-10T15:31:00Z</time>
      </trkpt>
      <trkpt lat="43.75557" lon="3.55374">
        <ele>346</ele>
        <time>2019-01-10T15:31:00Z</time>
      </trkpt>
      <trkpt lat="43.75561" lon="3.55372">
        <ele>346</ele>
        <time>2019-01-10T15:31:20Z</time>
      </trkpt>
      <trkpt lat="43.75564" lon="3.5537">
        <ele>346</ele>
        <time>2019-01-10T15:31:20Z</time>
      </trkpt>
      <trkpt lat="43.75566" lon="3.55369">
        <ele>346</ele>
        <time>2019-01-10T15:31:20Z</time>
      </trkpt>
      <trkpt lat="43.75567" lon="3.55368">
        <ele>346</ele>
        <time>2019-01-10T15:31:20Z</time>
      </trkpt>
      <trkpt lat="43.7557" lon="3.55367">
        <ele>346</ele>
        <time>2019-01-10T15:31:20Z</time>
      </trkpt>
      <trkpt lat="43.75573" lon="3.55366">
        <ele>346</ele>
        <time>2019-01-10T15:31:40Z</time>
      </trkpt>
      <trkpt lat="43.75579" lon="3.55365">
        <ele>346</ele>
        <time>2019-01-10T15:31:40Z</time>
      </trkpt>
      <trkpt lat="43.75585" lon="3.55364">
        <ele>346</ele>
        <time>2019-01-10T15:31:40Z</time>
      </trkpt>
      <trkpt lat="43.7559" lon="3.55363">
        <ele>346</ele>
        <time>2019-01-10T15:31:40Z</time>
      </trkpt>
      <trkpt lat="43.75593" lon="3.55362">
        <ele>346</ele>
        <time>2019-01-10T15:31:56Z</time>
      </trkpt>
      <trkpt lat="43.75596" lon="3.55363">
        <ele>346</ele>
        <time>2019-01-10T15:31:56Z</time>
      </trkpt>
      <trkpt lat="43.756" lon="3.55363">
        <ele>346</ele>
        <time>2019-01-10T15:31:56Z</time>
      </trkpt>
      <trkpt lat="43.75604" lon="3.55363">
        <ele>346</ele>
        <time>2019-01-10T15:31:56Z</time>
      </trkpt>
      <trkpt lat="43.75607" lon="3.55363">
        <ele>346</ele>
        <time>2019-01-10T15:32:16Z</time>
      </trkpt>
      <trkpt lat="43.75609" lon="3.55362">
        <ele>346</ele>
        <time>2019-01-10T15:32:16Z</time>
      </trkpt>
      <trkpt lat="43.75613" lon="3.55361">
        <ele>346</ele>
        <time>2019-01-10T15:32:16Z</time>
      </trkpt>
      <trkpt lat="43.75615" lon="3.55361">
        <ele>346</ele>
        <time>2019-01-10T15:32:16Z</time>
      </trkpt>
      <trkpt lat="43.75621" lon="3.5536">
        <ele>346</ele>
        <time>2019-01-10T15:32:16Z</time>
      </trkpt>
      <trkpt lat="43.75625" lon="3.5536">
        <ele>335</ele>
        <time>2019-01-10T15:32:32Z</time>
      </trkpt>
      <trkpt lat="43.7563" lon="3.55358">
        <ele>335</ele>
        <time>2019-01-10T15:32:32Z</time>
      </trkpt>
      <trkpt lat="43.75635" lon="3.55355">
        <ele>335</ele>
        <time>2019-01-10T15:32:32Z</time>
      </trkpt>
      <trkpt lat="43.75639" lon="3.55355">
        <ele>335</ele>
        <time>2019-01-10T15:32:32Z</time>
      </trkpt>
      <trkpt lat="43.75642" lon="3.55354">
        <ele>335</ele>
        <time>2019-01-10T15:32:48Z</time>
      </trkpt>
      <trkpt lat="43.75646" lon="3.55353">
        <ele>335</ele>
        <time>2019-01-10T15:32:48Z</time>
      </trkpt>
      <trkpt lat="43.7565" lon="3.55353">
        <ele>335</ele>
        <time>2019-01-10T15:32:48Z</time>
      </trkpt>
      <trkpt lat="43.75652" lon="3.55353">
        <ele>335</ele>
        <time>2019-01-10T15:32:48Z</time>
      </trkpt>
      <trkpt lat="43.75657" lon="3.55353">
        <ele>335</ele>
        <time>2019-01-10T15:33:12Z</time>
      </trkpt>
      <trkpt lat="43.75659" lon="3.55354">
        <ele>335</ele>
        <time>2019-01-10T15:33:12Z</time>
      </trkpt>
      <trkpt lat="43.75662" lon="3.55356">
        <ele>335</ele>
        <time>2019-01-10T15:33:12Z</time>
      </trkpt>
      <trkpt lat="43.75664" lon="3.5536">
        <ele>335</ele>
        <time>2019-01-10T15:33:12Z</time>
      </trkpt>
      <trkpt lat="43.75668" lon="3.55365">
        <ele>335</ele>
        <time>2019-01-10T15:33:12Z</time>
      </trkpt>
      <trkpt lat="43.7567" lon="3.55371">
        <ele>335</ele>
        <time>2019-01-10T15:33:32Z</time>
      </trkpt>
      <trkpt lat="43.75671" lon="3.55375">
        <ele>335</ele>
        <time>2019-01-10T15:33:32Z</time>
      </trkpt>
      <trkpt lat="43.75671" lon="3.55381">
        <ele>322</ele>
        <time>2019-01-10T15:33:32Z</time>
      </trkpt>
      <trkpt lat="43.75672" lon="3.55387">
        <ele>322</ele>
        <time>2019-01-10T15:33:32Z</time>
      </trkpt>
      <trkpt lat="43.75673" lon="3.55391">
        <ele>322</ele>
        <time>2019-01-10T15:33:48Z</time>
      </trkpt>
      <trkpt lat="43.75673" lon="3.55398">
        <ele>322</ele>
        <time>2019-01-10T15:33:48Z</time>
      </trkpt>
      <trkpt lat="43.75673" lon="3.55399">
        <ele>322</ele>
        <time>2019-01-10T15:33:48Z</time>
      </trkpt>
      <trkpt lat="43.75673" lon="3.55407">
        <ele>322</ele>
        <time>2019-01-10T15:33:48Z</time>
      </trkpt>
      <trkpt lat="43.75673" lon="3.55416">
        <ele>322</ele>
        <time>2019-01-10T15:34:08Z</time>
      </trkpt>
      <trkpt lat="43.75674" lon="3.55423">
        <ele>322</ele>
        <time>2019-01-10T15:34:08Z</time>
      </trkpt>
      <trkpt lat="43.75675" lon="3.55427">
        <ele>322</ele>
        <time>2019-01-10T15:34:08Z</time>
      </trkpt>
      <trkpt lat="43.75675" lon="3.55428">
        <ele>322</ele>
        <time>2019-01-10T15:34:08Z</time>
      </trkpt>
      <trkpt lat="43.75676" lon="3.55431">
        <ele>322</ele>
        <time>2019-01-10T15:34:08Z</time>
      </trkpt>
      <trkpt lat="43.75676" lon="3.55435">
        <ele>322</ele>
        <time>2019-01-10T15:34:40Z</time>
      </trkpt>
      <trkpt lat="43.75675" lon="3.5544">
        <ele>322</ele>
        <time>2019-01-10T15:34:40Z</time>
      </trkpt>
      <trkpt lat="43.75675" lon="3.55446">
        <ele>322</ele>
        <time>2019-01-10T15:34:40Z</time>
      </trkpt>
      <trkpt lat="43.75676" lon="3.55453">
        <ele>322</ele>
        <time>2019-01-10T15:34:40Z</time>
      </trkpt>
      <trkpt lat="43.75676" lon="3.55459">
        <ele>325</ele>
        <time>2019-01-10T15:34:56Z</time>
      </trkpt>
      <trkpt lat="43.75674" lon="3.55465">
        <ele>325</ele>
        <time>2019-01-10T15:34:56Z</time>
      </trkpt>
      <trkpt lat="43.75674" lon="3.55466">
        <ele>325</ele>
        <time>2019-01-10T15:34:56Z</time>
      </trkpt>
      <trkpt lat="43.75674" lon="3.55472">
        <ele>325</ele>
        <time>2019-01-10T15:34:56Z</time>
      </trkpt>
      <trkpt lat="43.75673" lon="3.55479">
        <ele>325</ele>
        <time>2019-01-10T15:35:12Z</time>
      </trkpt>
      <trkpt lat="43.75672" lon="3.55484">
        <ele>325</ele>
        <time>2019-01-10T15:35:12Z</time>
      </trkpt>
      <trkpt lat="43.75671" lon="3.5549">
        <ele>325</ele>
        <time>2019-01-10T15:35:12Z</time>
      </trkpt>
      <trkpt lat="43.7567" lon="3.55495">
        <ele>325</ele>
        <time>2019-01-10T15:35:12Z</time>
      </trkpt>
      <trkpt lat="43.75671" lon="3.55498">
        <ele>325</ele>
        <time>2019-01-10T15:35:28Z</time>
      </trkpt>
      <trkpt lat="43.75674" lon="3.55501">
        <ele>325</ele>
        <time>2019-01-10T15:35:28Z</time>
      </trkpt>
      <trkpt lat="43.75674" lon="3.55502">
        <ele>325</ele>
        <time>2019-01-10T15:35:28Z</time>
      </trkpt>
      <trkpt lat="43.75679" lon="3.55509">
        <ele>325</ele>
        <time>2019-01-10T15:35:28Z</time>
      </trkpt>
      <trkpt lat="43.75682" lon="3.55516">
        <ele>325</ele>
        <time>2019-01-10T15:35:48Z</time>
      </trkpt>
      <trkpt lat="43.75683" lon="3.55521">
        <ele>325</ele>
        <time>2019-01-10T15:35:48Z</time>
      </trkpt>
      <trkpt lat="43.75684" lon="3.55526">
        <ele>325</ele>
        <time>2019-01-10T15:35:48Z</time>
      </trkpt>
      <trkpt lat="43.75684" lon="3.55527">
        <ele>325</ele>
        <time>2019-01-10T15:35:48Z</time>
      </trkpt>
      <trkpt lat="43.75685" lon="3.55529">
        <ele>325</ele>
        <time>2019-01-10T15:35:48Z</time>
      </trkpt>
      <trkpt lat="43.75686" lon="3.55533">
        <ele>325</ele>
        <time>2019-01-10T15:36:04Z</time>
      </trkpt>
      <trkpt lat="43.75686" lon="3.55538">
        <ele>325</ele>
        <time>2019-01-10T15:36:04Z</time>
      </trkpt>
      <trkpt lat="43.75685" lon="3.5554">
        <ele>325</ele>
        <time>2019-01-10T15:36:04Z</time>
      </trkpt>
      <trkpt lat="43.75685" lon="3.55545">
        <ele>332</ele>
        <time>2019-01-10T15:36:04Z</time>
      </trkpt>
      <trkpt lat="43.75685" lon="3.55546">
        <ele>332</ele>
        <time>2019-01-10T15:36:24Z</time>
      </trkpt>
      <trkpt lat="43.75685" lon="3.55548">
        <ele>332</ele>
        <time>2019-01-10T15:36:24Z</time>
      </trkpt>
      <trkpt lat="43.75684" lon="3.55554">
        <ele>332</ele>
        <time>2019-01-10T15:36:24Z</time>
      </trkpt>
      <trkpt lat="43.75684" lon="3.55555">
        <ele>332</ele>
        <time>2019-01-10T15:36:24Z</time>
      </trkpt>
      <trkpt lat="43.75686" lon="3.5556">
        <ele>332</ele>
        <time>2019-01-10T15:36:24Z</time>
      </trkpt>
      <trkpt lat="43.75685" lon="3.55564">
        <ele>332</ele>
        <time>2019-01-10T15:36:40Z</time>
      </trkpt>
      <trkpt lat="43.75684" lon="3.55572">
        <ele>332</ele>
        <time>2019-01-10T15:36:40Z</time>
      </trkpt>
      <trkpt lat="43.75685" lon="3.55578">
        <ele>332</ele>
        <time>2019-01-10T15:36:40Z</time>
      </trkpt>
      <trkpt lat="43.75685" lon="3.55584">
        <ele>332</ele>
        <time>2019-01-10T15:36:40Z</time>
      </trkpt>
      <trkpt lat="43.75686" lon="3.55589">
        <ele>332</ele>
        <time>2019-01-10T15:36:56Z</time>
      </trkpt>
      <trkpt lat="43.75687" lon="3.55594">
        <ele>332</ele>
        <time>2019-01-10T15:36:56Z</time>
      </trkpt>
      <trkpt lat="43.75687" lon="3.556">
        <ele>332</ele>
        <time>2019-01-10T15:36:56Z</time>
      </trkpt>
      <trkpt lat="43.75687" lon="3.55605">
        <ele>332</ele>
        <time>2019-01-10T15:36:56Z</time>
      </trkpt>
      <trkpt lat="43.75687" lon="3.55611">
        <ele>332</ele>
        <time>2019-01-10T15:37:12Z</time>
      </trkpt>
      <trkpt lat="43.75686" lon="3.55618">
        <ele>332</ele>
        <time>2019-01-10T15:37:12Z</time>
      </trkpt>
      <trkpt lat="43.75686" lon="3.55621">
        <ele>332</ele>
        <time>2019-01-10T15:37:12Z</time>
      </trkpt>
      <trkpt lat="43.75686" lon="3.55626">
        <ele>339</ele>
        <time>2019-01-10T15:37:12Z</time>
      </trkpt>
      <trkpt lat="43.75685" lon="3.55632">
        <ele>339</ele>
        <time>2019-01-10T15:37:28Z</time>
      </trkpt>
      <trkpt lat="43.75686" lon="3.55637">
        <ele>339</ele>
        <time>2019-01-10T15:37:28Z</time>
      </trkpt>
      <trkpt lat="43.75685" lon="3.55642">
        <ele>339</ele>
        <time>2019-01-10T15:37:28Z</time>
      </trkpt>
      <trkpt lat="43.75682" lon="3.55647">
        <ele>339</ele>
        <time>2019-01-10T15:37:28Z</time>
      </trkpt>
      <trkpt lat="43.75684" lon="3.55652">
        <ele>339</ele>
        <time>2019-01-10T15:37:44Z</time>
      </trkpt>
      <trkpt lat="43.75685" lon="3.55657">
        <ele>339</ele>
        <time>2019-01-10T15:37:44Z</time>
      </trkpt>
      <trkpt lat="43.75686" lon="3.55661">
        <ele>339</ele>
        <time>2019-01-10T15:37:44Z</time>
      </trkpt>
      <trkpt lat="43.75685" lon="3.55668">
        <ele>339</ele>
        <time>2019-01-10T15:37:44Z</time>
      </trkpt>
      <trkpt lat="43.75685" lon="3.55673">
        <ele>339</ele>
        <time>2019-01-10T15:38:00Z</time>
      </trkpt>
      <trkpt lat="43.75686" lon="3.5568">
        <ele>339</ele>
        <time>2019-01-10T15:38:00Z</time>
      </trkpt>
      <trkpt lat="43.75686" lon="3.55687">
        <ele>339</ele>
        <time>2019-01-10T15:38:00Z</time>
      </trkpt>
      <trkpt lat="43.75687" lon="3.55692">
        <ele>339</ele>
        <time>2019-01-10T15:38:00Z</time>
      </trkpt>
      <trkpt lat="43.7569" lon="3.55697">
        <ele>339</ele>
        <time>2019-01-10T15:38:16Z</time>
      </trkpt>
      <trkpt lat="43.75691" lon="3.55703">
        <ele>339</ele>
        <time>2019-01-10T15:38:16Z</time>
      </trkpt>
      <trkpt lat="43.75693" lon="3.55708">
        <ele>339</ele>
        <time>2019-01-10T15:38:16Z</time>
      </trkpt>
      <trkpt lat="43.75695" lon="3.55712">
        <ele>340</ele>
        <time>2019-01-10T15:38:16Z</time>
      </trkpt>
      <trkpt lat="43.75696" lon="3.55719">
        <ele>340</ele>
        <time>2019-01-10T15:38:32Z</time>
      </trkpt>
      <trkpt lat="43.75698" lon="3.55722">
        <ele>340</ele>
        <time>2019-01-10T15:38:32Z</time>
      </trkpt>
      <trkpt lat="43.75701" lon="3.55727">
        <ele>340</ele>
        <time>2019-01-10T15:38:32Z</time>
      </trkpt>
      <trkpt lat="43.75702" lon="3.55732">
        <ele>340</ele>
        <time>2019-01-10T15:38:32Z</time>
      </trkpt>
      <trkpt lat="43.75704" lon="3.55739">
        <ele>340</ele>
        <time>2019-01-10T15:38:48Z</time>
      </trkpt>
      <trkpt lat="43.75705" lon="3.55745">
        <ele>340</ele>
        <time>2019-01-10T15:38:48Z</time>
      </trkpt>
      <trkpt lat="43.75706" lon="3.55753">
        <ele>340</ele>
        <time>2019-01-10T15:38:48Z</time>
      </trkpt>
      <trkpt lat="43.75706" lon="3.55758">
        <ele>340</ele>
        <time>2019-01-10T15:38:48Z</time>
      </trkpt>
      <trkpt lat="43.75705" lon="3.55764">
        <ele>340</ele>
        <time>2019-01-10T15:39:04Z</time>
      </trkpt>
      <trkpt lat="43.75705" lon="3.5577">
        <ele>340</ele>
        <time>2019-01-10T15:39:04Z</time>
      </trkpt>
      <trkpt lat="43.75703" lon="3.55777">
        <ele>340</ele>
        <time>2019-01-10T15:39:04Z</time>
      </trkpt>
      <trkpt lat="43.75701" lon="3.55783">
        <ele>340</ele>
        <time>2019-01-10T15:39:04Z</time>
      </trkpt>
      <trkpt lat="43.75702" lon="3.5579">
        <ele>340</ele>
        <time>2019-01-10T15:39:20Z</time>
      </trkpt>
      <trkpt lat="43.757" lon="3.55796">
        <ele>339</ele>
        <time>2019-01-10T15:39:20Z</time>
      </trkpt>
      <trkpt lat="43.75699" lon="3.55801">
        <ele>339</ele>
        <time>2019-01-10T15:39:20Z</time>
      </trkpt>
      <trkpt lat="43.757" lon="3.55807">
        <ele>339</ele>
        <time>2019-01-10T15:39:20Z</time>
      </trkpt>
      <trkpt lat="43.75702" lon="3.55811">
        <ele>339</ele>
        <time>2019-01-10T15:39:36Z</time>
      </trkpt>
      <trkpt lat="43.75701" lon="3.55817">
        <ele>339</ele>
        <time>2019-01-10T15:39:36Z</time>
      </trkpt>
      <trkpt lat="43.757" lon="3.55822">
        <ele>339</ele>
        <time>2019-01-10T15:39:36Z</time>
      </trkpt>
      <trkpt lat="43.757" lon="3.55828">
        <ele>339</ele>
        <time>2019-01-10T15:39:36Z</time>
      </trkpt>
      <trkpt lat="43.75699" lon="3.55833">
        <ele>339</ele>
        <time>2019-01-10T15:39:52Z</time>
      </trkpt>
      <trkpt lat="43.75699" lon="3.55839">
        <ele>339</ele>
        <time>2019-01-10T15:39:52Z</time>
      </trkpt>
      <trkpt lat="43.757" lon="3.55844">
        <ele>339</ele>
        <time>2019-01-10T15:39:52Z</time>
      </trkpt>
      <trkpt lat="43.75701" lon="3.55849">
        <ele>339</ele>
        <time>2019-01-10T15:39:52Z</time>
      </trkpt>
      <trkpt lat="43.75704" lon="3.55854">
        <ele>339</ele>
        <time>2019-01-10T15:40:08Z</time>
      </trkpt>
      <trkpt lat="43.75706" lon="3.55859">
        <ele>339</ele>
        <time>2019-01-10T15:40:08Z</time>
      </trkpt>
      <trkpt lat="43.75708" lon="3.55866">
        <ele>339</ele>
        <time>2019-01-10T15:40:08Z</time>
      </trkpt>
      <trkpt lat="43.7571" lon="3.55869">
        <ele>348</ele>
        <time>2019-01-10T15:40:08Z</time>
      </trkpt>
      <trkpt lat="43.75711" lon="3.55874">
        <ele>348</ele>
        <time>2019-01-10T15:40:24Z</time>
      </trkpt>
      <trkpt lat="43.75714" lon="3.5588">
        <ele>344</ele>
        <time>2019-01-10T15:40:24Z</time>
      </trkpt>
      <trkpt lat="43.75718" lon="3.55884">
        <ele>344</ele>
        <time>2019-01-10T15:40:24Z</time>
      </trkpt>
      <trkpt lat="43.7572" lon="3.5589">
        <ele>344</ele>
        <time>2019-01-10T15:40:24Z</time>
      </trkpt>
      <trkpt lat="43.75722" lon="3.55894">
        <ele>344</ele>
        <time>2019-01-10T15:40:40Z</time>
      </trkpt>
      <trkpt lat="43.75723" lon="3.559">
        <ele>344</ele>
        <time>2019-01-10T15:40:40Z</time>
      </trkpt>
      <trkpt lat="43.75724" lon="3.55905">
        <ele>344</ele>
        <time>2019-01-10T15:40:40Z</time>
      </trkpt>
      <trkpt lat="43.75727" lon="3.55911">
        <ele>344</ele>
        <time>2019-01-10T15:40:40Z</time>
      </trkpt>
      <trkpt lat="43.75731" lon="3.55916">
        <ele>344</ele>
        <time>2019-01-10T15:40:56Z</time>
      </trkpt>
      <trkpt lat="43.75734" lon="3.55922">
        <ele>344</ele>
        <time>2019-01-10T15:40:56Z</time>
      </trkpt>
      <trkpt lat="43.75738" lon="3.55927">
        <ele>344</ele>
        <time>2019-01-10T15:40:56Z</time>
      </trkpt>
      <trkpt lat="43.75741" lon="3.55932">
        <ele>344</ele>
        <time>2019-01-10T15:40:56Z</time>
      </trkpt>
      <trkpt lat="43.75744" lon="3.55938">
        <ele>344</ele>
        <time>2019-01-10T15:41:12Z</time>
      </trkpt>
      <trkpt lat="43.75747" lon="3.55941">
        <ele>344</ele>
        <time>2019-01-10T15:41:12Z</time>
      </trkpt>
      <trkpt lat="43.75749" lon="3.55947">
        <ele>344</ele>
        <time>2019-01-10T15:41:12Z</time>
      </trkpt>
      <trkpt lat="43.75751" lon="3.5595">
        <ele>344</ele>
        <time>2019-01-10T15:41:12Z</time>
      </trkpt>
      <trkpt lat="43.75755" lon="3.55953">
        <ele>344</ele>
        <time>2019-01-10T15:41:28Z</time>
      </trkpt>
      <trkpt lat="43.75757" lon="3.55957">
        <ele>344</ele>
        <time>2019-01-10T15:41:28Z</time>
      </trkpt>
      <trkpt lat="43.7576" lon="3.55963">
        <ele>335</ele>
        <time>2019-01-10T15:41:28Z</time>
      </trkpt>
      <trkpt lat="43.75763" lon="3.55968">
        <ele>335</ele>
        <time>2019-01-10T15:41:28Z</time>
      </trkpt>
      <trkpt lat="43.75766" lon="3.55972">
        <ele>335</ele>
        <time>2019-01-10T15:41:44Z</time>
      </trkpt>
      <trkpt lat="43.75768" lon="3.55978">
        <ele>335</ele>
        <time>2019-01-10T15:41:44Z</time>
      </trkpt>
      <trkpt lat="43.75771" lon="3.55983">
        <ele>335</ele>
        <time>2019-01-10T15:41:44Z</time>
      </trkpt>
      <trkpt lat="43.75774" lon="3.55988">
        <ele>335</ele>
        <time>2019-01-10T15:41:44Z</time>
      </trkpt>
      <trkpt lat="43.75777" lon="3.55992">
        <ele>335</ele>
        <time>2019-01-10T15:42:00Z</time>
      </trkpt>
      <trkpt lat="43.75779" lon="3.55997">
        <ele>335</ele>
        <time>2019-01-10T15:42:00Z</time>
      </trkpt>
      <trkpt lat="43.75781" lon="3.56003">
        <ele>335</ele>
        <time>2019-01-10T15:42:00Z</time>
      </trkpt>
      <trkpt lat="43.75783" lon="3.56008">
        <ele>335</ele>
        <time>2019-01-10T15:42:00Z</time>
      </trkpt>
      <trkpt lat="43.75786" lon="3.56012">
        <ele>335</ele>
        <time>2019-01-10T15:42:16Z</time>
      </trkpt>
      <trkpt lat="43.75789" lon="3.56017">
        <ele>335</ele>
        <time>2019-01-10T15:42:16Z</time>
      </trkpt>
      <trkpt lat="43.75792" lon="3.56023">
        <ele>352</ele>
        <time>2019-01-10T15:42:16Z</time>
      </trkpt>
      <trkpt lat="43.75793" lon="3.56029">
        <ele>352</ele>
        <time>2019-01-10T15:42:16Z</time>
      </trkpt>
      <trkpt lat="43.75793" lon="3.56035">
        <ele>352</ele>
        <time>2019-01-10T15:42:32Z</time>
      </trkpt>
      <trkpt lat="43.75795" lon="3.5604">
        <ele>352</ele>
        <time>2019-01-10T15:42:32Z</time>
      </trkpt>
      <trkpt lat="43.75796" lon="3.56046">
        <ele>345</ele>
        <time>2019-01-10T15:42:32Z</time>
      </trkpt>
      <trkpt lat="43.75796" lon="3.56053">
        <ele>345</ele>
        <time>2019-01-10T15:42:32Z</time>
      </trkpt>
      <trkpt lat="43.75798" lon="3.56058">
        <ele>345</ele>
        <time>2019-01-10T15:42:48Z</time>
      </trkpt>
      <trkpt lat="43.75801" lon="3.56062">
        <ele>345</ele>
        <time>2019-01-10T15:42:48Z</time>
      </trkpt>
      <trkpt lat="43.75802" lon="3.56068">
        <ele>345</ele>
        <time>2019-01-10T15:42:48Z</time>
      </trkpt>
      <trkpt lat="43.75805" lon="3.56073">
        <ele>345</ele>
        <time>2019-01-10T15:42:48Z</time>
      </trkpt>
      <trkpt lat="43.75806" lon="3.56079">
        <ele>345</ele>
        <time>2019-01-10T15:43:04Z</time>
      </trkpt>
      <trkpt lat="43.75807" lon="3.56086">
        <ele>345</ele>
        <time>2019-01-10T15:43:04Z</time>
      </trkpt>
      <trkpt lat="43.75808" lon="3.56092">
        <ele>345</ele>
        <time>2019-01-10T15:43:04Z</time>
      </trkpt>
      <trkpt lat="43.75811" lon="3.56097">
        <ele>345</ele>
        <time>2019-01-10T15:43:04Z</time>
      </trkpt>
      <trkpt lat="43.75813" lon="3.56102">
        <ele>345</ele>
        <time>2019-01-10T15:43:20Z</time>
      </trkpt>
      <trkpt lat="43.75814" lon="3.56105">
        <ele>345</ele>
        <time>2019-01-10T15:43:20Z</time>
      </trkpt>
      <trkpt lat="43.75815" lon="3.5611">
        <ele>345</ele>
        <time>2019-01-10T15:43:20Z</time>
      </trkpt>
      <trkpt lat="43.75816" lon="3.56115">
        <ele>345</ele>
        <time>2019-01-10T15:43:20Z</time>
      </trkpt>
      <trkpt lat="43.75818" lon="3.5612">
        <ele>345</ele>
        <time>2019-01-10T15:43:36Z</time>
      </trkpt>
      <trkpt lat="43.75821" lon="3.56124">
        <ele>345</ele>
        <time>2019-01-10T15:43:36Z</time>
      </trkpt>
      <trkpt lat="43.75821" lon="3.56132">
        <ele>333</ele>
        <time>2019-01-10T15:43:36Z</time>
      </trkpt>
      <trkpt lat="43.75819" lon="3.56138">
        <ele>333</ele>
        <time>2019-01-10T15:43:36Z</time>
      </trkpt>
      <trkpt lat="43.75822" lon="3.56145">
        <ele>333</ele>
        <time>2019-01-10T15:43:52Z</time>
      </trkpt>
      <trkpt lat="43.75823" lon="3.56152">
        <ele>333</ele>
        <time>2019-01-10T15:43:52Z</time>
      </trkpt>
      <trkpt lat="43.75824" lon="3.56159">
        <ele>333</ele>
        <time>2019-01-10T15:43:52Z</time>
      </trkpt>
      <trkpt lat="43.75825" lon="3.56164">
        <ele>333</ele>
        <time>2019-01-10T15:43:52Z</time>
      </trkpt>
      <trkpt lat="43.75824" lon="3.56171">
        <ele>333</ele>
        <time>2019-01-10T15:44:08Z</time>
      </trkpt>
      <trkpt lat="43.75824" lon="3.56176">
        <ele>333</ele>
        <time>2019-01-10T15:44:08Z</time>
      </trkpt>
      <trkpt lat="43.75824" lon="3.5618">
        <ele>333</ele>
        <time>2019-01-10T15:44:08Z</time>
      </trkpt>
      <trkpt lat="43.75823" lon="3.56187">
        <ele>333</ele>
        <time>2019-01-10T15:44:08Z</time>
      </trkpt>
      <trkpt lat="43.75822" lon="3.56193">
        <ele>333</ele>
        <time>2019-01-10T15:44:24Z</time>
      </trkpt>
      <trkpt lat="43.7582" lon="3.56198">
        <ele>333</ele>
        <time>2019-01-10T15:44:24Z</time>
      </trkpt>
      <trkpt lat="43.7582" lon="3.56203">
        <ele>333</ele>
        <time>2019-01-10T15:44:24Z</time>
      </trkpt>
      <trkpt lat="43.75818" lon="3.56207">
        <ele>333</ele>
        <time>2019-01-10T15:44:24Z</time>
      </trkpt>
      <trkpt lat="43.75818" lon="3.56209">
        <ele>330</ele>
        <time>2019-01-10T15:44:52Z</time>
      </trkpt>
      <trkpt lat="43.75817" lon="3.5621">
        <ele>330</ele>
        <time>2019-01-10T15:44:52Z</time>
      </trkpt>
      <trkpt lat="43.75815" lon="3.56214">
        <ele>330</ele>
        <time>2019-01-10T15:44:52Z</time>
      </trkpt>
      <trkpt lat="43.75814" lon="3.56219">
        <ele>330</ele>
        <time>2019-01-10T15:44:52Z</time>
      </trkpt>
      <trkpt lat="43.75813" lon="3.56227">
        <ele>330</ele>
        <time>2019-01-10T15:44:52Z</time>
      </trkpt>
      <trkpt lat="43.75812" lon="3.56233">
        <ele>330</ele>
        <time>2019-01-10T15:45:08Z</time>
      </trkpt>
      <trkpt lat="43.75809" lon="3.56239">
        <ele>330</ele>
        <time>2019-01-10T15:45:08Z</time>
      </trkpt>
      <trkpt lat="43.75806" lon="3.56244">
        <ele>330</ele>
        <time>2019-01-10T15:45:08Z</time>
      </trkpt>
      <trkpt lat="43.75803" lon="3.56248">
        <ele>330</ele>
        <time>2019-01-10T15:45:08Z</time>
      </trkpt>
      <trkpt lat="43.758" lon="3.56251">
        <ele>330</ele>
        <time>2019-01-10T15:45:24Z</time>
      </trkpt>
      <trkpt lat="43.75798" lon="3.56254">
        <ele>330</ele>
        <time>2019-01-10T15:45:24Z</time>
      </trkpt>
      <trkpt lat="43.75793" lon="3.56258">
        <ele>330</ele>
        <time>2019-01-10T15:45:24Z</time>
      </trkpt>
      <trkpt lat="43.75789" lon="3.5626">
        <ele>318</ele>
        <time>2019-01-10T15:45:24Z</time>
      </trkpt>
      <trkpt lat="43.75784" lon="3.56264">
        <ele>318</ele>
        <time>2019-01-10T15:45:40Z</time>
      </trkpt>
      <trkpt lat="43.7578" lon="3.56268">
        <ele>318</ele>
        <time>2019-01-10T15:45:40Z</time>
      </trkpt>
      <trkpt lat="43.75775" lon="3.5627">
        <ele>318</ele>
        <time>2019-01-10T15:45:40Z</time>
      </trkpt>
      <trkpt lat="43.7577" lon="3.56269">
        <ele>318</ele>
        <time>2019-01-10T15:45:40Z</time>
      </trkpt>
      <trkpt lat="43.75767" lon="3.56268">
        <ele>318</ele>
        <time>2019-01-10T15:45:56Z</time>
      </trkpt>
      <trkpt lat="43.75762" lon="3.56266">
        <ele>318</ele>
        <time>2019-01-10T15:45:56Z</time>
      </trkpt>
      <trkpt lat="43.75757" lon="3.56264">
        <ele>318</ele>
        <time>2019-01-10T15:45:56Z</time>
      </trkpt>
      <trkpt lat="43.75753" lon="3.56263">
        <ele>318</ele>
        <time>2019-01-10T15:45:56Z</time>
      </trkpt>
      <trkpt lat="43.7575" lon="3.56262">
        <ele>318</ele>
        <time>2019-01-10T15:46:12Z</time>
      </trkpt>
      <trkpt lat="43.75746" lon="3.56262">
        <ele>318</ele>
        <time>2019-01-10T15:46:12Z</time>
      </trkpt>
      <trkpt lat="43.75743" lon="3.56266">
        <ele>318</ele>
        <time>2019-01-10T15:46:12Z</time>
      </trkpt>
      <trkpt lat="43.75739" lon="3.56269">
        <ele>318</ele>
        <time>2019-01-10T15:46:12Z</time>
      </trkpt>
      <trkpt lat="43.75737" lon="3.56273">
        <ele>318</ele>
        <time>2019-01-10T15:46:28Z</time>
      </trkpt>
      <trkpt lat="43.75735" lon="3.56278">
        <ele>318</ele>
        <time>2019-01-10T15:46:28Z</time>
      </trkpt>
      <trkpt lat="43.75732" lon="3.56283">
        <ele>318</ele>
        <time>2019-01-10T15:46:28Z</time>
      </trkpt>
      <trkpt lat="43.75727" lon="3.56285">
        <ele>318</ele>
        <time>2019-01-10T15:46:28Z</time>
      </trkpt>
      <trkpt lat="43.75724" lon="3.56282">
        <ele>318</ele>
        <time>2019-01-10T15:46:44Z</time>
      </trkpt>
      <trkpt lat="43.75723" lon="3.56278">
        <ele>318</ele>
        <time>2019-01-10T15:46:44Z</time>
      </trkpt>
      <trkpt lat="43.75721" lon="3.56273">
        <ele>318</ele>
        <time>2019-01-10T15:46:44Z</time>
      </trkpt>
      <trkpt lat="43.75721" lon="3.56268">
        <ele>318</ele>
        <time>2019-01-10T15:46:44Z</time>
      </trkpt>
      <trkpt lat="43.75722" lon="3.56263">
        <ele>318</ele>
        <time>2019-01-10T15:47:00Z</time>
      </trkpt>
      <trkpt lat="43.75722" lon="3.56257">
        <ele>318</ele>
        <time>2019-01-10T15:47:00Z</time>
      </trkpt>
      <trkpt lat="43.75724" lon="3.5625">
        <ele>318</ele>
        <time>2019-01-10T15:47:00Z</time>
      </trkpt>
      <trkpt lat="43.75724" lon="3.56244">
        <ele>318</ele>
        <time>2019-01-10T15:47:00Z</time>
      </trkpt>
      <trkpt lat="43.75723" lon="3.5624">
        <ele>318</ele>
        <time>2019-01-10T15:47:16Z</time>
      </trkpt>
      <trkpt lat="43.75719" lon="3.56235">
        <ele>318</ele>
        <time>2019-01-10T15:47:16Z</time>
      </trkpt>
      <trkpt lat="43.75715" lon="3.5623">
        <ele>318</ele>
        <time>2019-01-10T15:47:16Z</time>
      </trkpt>
      <trkpt lat="43.7571" lon="3.56226">
        <ele>318</ele>
        <time>2019-01-10T15:47:16Z</time>
      </trkpt>
      <trkpt lat="43.75703" lon="3.56223">
        <ele>307</ele>
        <time>2019-01-10T15:47:32Z</time>
      </trkpt>
      <trkpt lat="43.75697" lon="3.5622">
        <ele>307</ele>
        <time>2019-01-10T15:47:32Z</time>
      </trkpt>
      <trkpt lat="43.75692" lon="3.56217">
        <ele>307</ele>
        <time>2019-01-10T15:47:32Z</time>
      </trkpt>
      <trkpt lat="43.75687" lon="3.56216">
        <ele>307</ele>
        <time>2019-01-10T15:47:32Z</time>
      </trkpt>
      <trkpt lat="43.75683" lon="3.56216">
        <ele>307</ele>
        <time>2019-01-10T15:47:48Z</time>
      </trkpt>
      <trkpt lat="43.75679" lon="3.56215">
        <ele>307</ele>
        <time>2019-01-10T15:47:48Z</time>
      </trkpt>
      <trkpt lat="43.75675" lon="3.56217">
        <ele>307</ele>
        <time>2019-01-10T15:47:48Z</time>
      </trkpt>
      <trkpt lat="43.75671" lon="3.56219">
        <ele>307</ele>
        <time>2019-01-10T15:47:48Z</time>
      </trkpt>
      <trkpt lat="43.75667" lon="3.56221">
        <ele>307</ele>
        <time>2019-01-10T15:48:04Z</time>
      </trkpt>
      <trkpt lat="43.75661" lon="3.5622">
        <ele>307</ele>
        <time>2019-01-10T15:48:04Z</time>
      </trkpt>
      <trkpt lat="43.75658" lon="3.5622">
        <ele>307</ele>
        <time>2019-01-10T15:48:04Z</time>
      </trkpt>
      <trkpt lat="43.75654" lon="3.56221">
        <ele>307</ele>
        <time>2019-01-10T15:48:04Z</time>
      </trkpt>
      <trkpt lat="43.7565" lon="3.56221">
        <ele>307</ele>
        <time>2019-01-10T15:48:20Z</time>
      </trkpt>
      <trkpt lat="43.75647" lon="3.56221">
        <ele>307</ele>
        <time>2019-01-10T15:48:20Z</time>
      </trkpt>
      <trkpt lat="43.75644" lon="3.56224">
        <ele>307</ele>
        <time>2019-01-10T15:48:20Z</time>
      </trkpt>
      <trkpt lat="43.75639" lon="3.56227">
        <ele>307</ele>
        <time>2019-01-10T15:48:20Z</time>
      </trkpt>
      <trkpt lat="43.75634" lon="3.56226">
        <ele>307</ele>
        <time>2019-01-10T15:48:36Z</time>
      </trkpt>
      <trkpt lat="43.7563" lon="3.56229">
        <ele>307</ele>
        <time>2019-01-10T15:48:36Z</time>
      </trkpt>
      <trkpt lat="43.75627" lon="3.56233">
        <ele>307</ele>
        <time>2019-01-10T15:48:36Z</time>
      </trkpt>
      <trkpt lat="43.75628" lon="3.56239">
        <ele>307</ele>
        <time>2019-01-10T15:48:36Z</time>
      </trkpt>
      <trkpt lat="43.75629" lon="3.56245">
        <ele>307</ele>
        <time>2019-01-10T15:48:52Z</time>
      </trkpt>
      <trkpt lat="43.75633" lon="3.56248">
        <ele>307</ele>
        <time>2019-01-10T15:48:52Z</time>
      </trkpt>
      <trkpt lat="43.75636" lon="3.56252">
        <ele>307</ele>
        <time>2019-01-10T15:48:52Z</time>
      </trkpt>
      <trkpt lat="43.75637" lon="3.56256">
        <ele>307</ele>
        <time>2019-01-10T15:48:52Z</time>
      </trkpt>
      <trkpt lat="43.75639" lon="3.56258">
        <ele>307</ele>
        <time>2019-01-10T15:49:08Z</time>
      </trkpt>
      <trkpt lat="43.75643" lon="3.56262">
        <ele>307</ele>
        <time>2019-01-10T15:49:08Z</time>
      </trkpt>
      <trkpt lat="43.75645" lon="3.56267">
        <ele>307</ele>
        <time>2019-01-10T15:49:08Z</time>
      </trkpt>
      <trkpt lat="43.75648" lon="3.56273">
        <ele>307</ele>
        <time>2019-01-10T15:49:08Z</time>
      </trkpt>
      <trkpt lat="43.75648" lon="3.5628">
        <ele>307</ele>
        <time>2019-01-10T15:49:24Z</time>
      </trkpt>
      <trkpt lat="43.75647" lon="3.56286">
        <ele>307</ele>
        <time>2019-01-10T15:49:24Z</time>
      </trkpt>
      <trkpt lat="43.75645" lon="3.56291">
        <ele>307</ele>
        <time>2019-01-10T15:49:24Z</time>
      </trkpt>
      <trkpt lat="43.75643" lon="3.56296">
        <ele>303</ele>
        <time>2019-01-10T15:49:24Z</time>
      </trkpt>
      <trkpt lat="43.75639" lon="3.56301">
        <ele>303</ele>
        <time>2019-01-10T15:49:40Z</time>
      </trkpt>
      <trkpt lat="43.75636" lon="3.56305">
        <ele>303</ele>
        <time>2019-01-10T15:49:40Z</time>
      </trkpt>
      <trkpt lat="43.75633" lon="3.56311">
        <ele>303</ele>
        <time>2019-01-10T15:49:40Z</time>
      </trkpt>
      <trkpt lat="43.7563" lon="3.56315">
        <ele>303</ele>
        <time>2019-01-10T15:49:40Z</time>
      </trkpt>
      <trkpt lat="43.75626" lon="3.5632">
        <ele>303</ele>
        <time>2019-01-10T15:49:56Z</time>
      </trkpt>
      <trkpt lat="43.75623" lon="3.56323">
        <ele>275</ele>
        <time>2019-01-10T15:49:56Z</time>
      </trkpt>
      <trkpt lat="43.7562" lon="3.56329">
        <ele>275</ele>
        <time>2019-01-10T15:49:56Z</time>
      </trkpt>
      <trkpt lat="43.75618" lon="3.56336">
        <ele>275</ele>
        <time>2019-01-10T15:49:56Z</time>
      </trkpt>
      <trkpt lat="43.75617" lon="3.56343">
        <ele>275</ele>
        <time>2019-01-10T15:50:12Z</time>
      </trkpt>
      <trkpt lat="43.75616" lon="3.56348">
        <ele>275</ele>
        <time>2019-01-10T15:50:12Z</time>
      </trkpt>
      <trkpt lat="43.75616" lon="3.56355">
        <ele>275</ele>
        <time>2019-01-10T15:50:12Z</time>
      </trkpt>
      <trkpt lat="43.75613" lon="3.56361">
        <ele>275</ele>
        <time>2019-01-10T15:50:12Z</time>
      </trkpt>
      <trkpt lat="43.7561" lon="3.56364">
        <ele>275</ele>
        <time>2019-01-10T15:50:28Z</time>
      </trkpt>
      <trkpt lat="43.75611" lon="3.56368">
        <ele>275</ele>
        <time>2019-01-10T15:50:28Z</time>
      </trkpt>
      <trkpt lat="43.75614" lon="3.56372">
        <ele>275</ele>
        <time>2019-01-10T15:50:28Z</time>
      </trkpt>
      <trkpt lat="43.75615" lon="3.56378">
        <ele>261</ele>
        <time>2019-01-10T15:50:28Z</time>
      </trkpt>
      <trkpt lat="43.75612" lon="3.56389">
        <ele>261</ele>
        <time>2019-01-10T15:51:00Z</time>
      </trkpt>
      <trkpt lat="43.7561" lon="3.56387">
        <ele>261</ele>
        <time>2019-01-10T15:51:00Z</time>
      </trkpt>
      <trkpt lat="43.75608" lon="3.56383">
        <ele>261</ele>
        <time>2019-01-10T15:51:00Z</time>
      </trkpt>
      <trkpt lat="43.75605" lon="3.56379">
        <ele>261</ele>
        <time>2019-01-10T15:51:00Z</time>
      </trkpt>
      <trkpt lat="43.75602" lon="3.56378">
        <ele>261</ele>
        <time>2019-01-10T15:51:00Z</time>
      </trkpt>
      <trkpt lat="43.75599" lon="3.56376">
        <ele>261</ele>
        <time>2019-01-10T15:51:16Z</time>
      </trkpt>
      <trkpt lat="43.75595" lon="3.56373">
        <ele>275</ele>
        <time>2019-01-10T15:51:16Z</time>
      </trkpt>
      <trkpt lat="43.75593" lon="3.5637">
        <ele>275</ele>
        <time>2019-01-10T15:51:16Z</time>
      </trkpt>
      <trkpt lat="43.7559" lon="3.56366">
        <ele>275</ele>
        <time>2019-01-10T15:51:16Z</time>
      </trkpt>
      <trkpt lat="43.75587" lon="3.56363">
        <ele>275</ele>
        <time>2019-01-10T15:51:36Z</time>
      </trkpt>
      <trkpt lat="43.75583" lon="3.5636">
        <ele>275</ele>
        <time>2019-01-10T15:51:36Z</time>
      </trkpt>
      <trkpt lat="43.75581" lon="3.56362">
        <ele>275</ele>
        <time>2019-01-10T15:51:36Z</time>
      </trkpt>
      <trkpt lat="43.75579" lon="3.56367">
        <ele>275</ele>
        <time>2019-01-10T15:51:36Z</time>
      </trkpt>
      <trkpt lat="43.75578" lon="3.5637">
        <ele>275</ele>
        <time>2019-01-10T15:51:36Z</time>
      </trkpt>
      <trkpt lat="43.75578" lon="3.56373">
        <ele>275</ele>
        <time>2019-01-10T15:51:56Z</time>
      </trkpt>
      <trkpt lat="43.75577" lon="3.56379">
        <ele>261</ele>
        <time>2019-01-10T15:51:56Z</time>
      </trkpt>
      <trkpt lat="43.75573" lon="3.5638">
        <ele>261</ele>
        <time>2019-01-10T15:51:56Z</time>
      </trkpt>
      <trkpt lat="43.75571" lon="3.56378">
        <ele>261</ele>
        <time>2019-01-10T15:51:56Z</time>
      </trkpt>
      <trkpt lat="43.75569" lon="3.56375">
        <ele>261</ele>
        <time>2019-01-10T15:51:56Z</time>
      </trkpt>
      <trkpt lat="43.75566" lon="3.56373">
        <ele>275</ele>
        <time>2019-01-10T15:52:12Z</time>
      </trkpt>
      <trkpt lat="43.75565" lon="3.56377">
        <ele>261</ele>
        <time>2019-01-10T15:52:12Z</time>
      </trkpt>
      <trkpt lat="43.75568" lon="3.56381">
        <ele>261</ele>
        <time>2019-01-10T15:52:12Z</time>
      </trkpt>
      <trkpt lat="43.7557" lon="3.56385">
        <ele>261</ele>
        <time>2019-01-10T15:52:12Z</time>
      </trkpt>
      <trkpt lat="43.75573" lon="3.56388">
        <ele>261</ele>
        <time>2019-01-10T15:52:28Z</time>
      </trkpt>
      <trkpt lat="43.75576" lon="3.56393">
        <ele>261</ele>
        <time>2019-01-10T15:52:28Z</time>
      </trkpt>
      <trkpt lat="43.75579" lon="3.56397">
        <ele>261</ele>
        <time>2019-01-10T15:52:28Z</time>
      </trkpt>
      <trkpt lat="43.75583" lon="3.56401">
        <ele>261</ele>
        <time>2019-01-10T15:52:28Z</time>
      </trkpt>
      <trkpt lat="43.75586" lon="3.56404">
        <ele>261</ele>
        <time>2019-01-10T15:52:44Z</time>
      </trkpt>
      <trkpt lat="43.7559" lon="3.56408">
        <ele>261</ele>
        <time>2019-01-10T15:52:44Z</time>
      </trkpt>
      <trkpt lat="43.75594" lon="3.56413">
        <ele>261</ele>
        <time>2019-01-10T15:52:44Z</time>
      </trkpt>
      <trkpt lat="43.75598" lon="3.56417">
        <ele>261</ele>
        <time>2019-01-10T15:52:44Z</time>
      </trkpt>
      <trkpt lat="43.75601" lon="3.56422">
        <ele>261</ele>
        <time>2019-01-10T15:53:00Z</time>
      </trkpt>
      <trkpt lat="43.75602" lon="3.56429">
        <ele>261</ele>
        <time>2019-01-10T15:53:00Z</time>
      </trkpt>
      <trkpt lat="43.75604" lon="3.56435">
        <ele>261</ele>
        <time>2019-01-10T15:53:00Z</time>
      </trkpt>
      <trkpt lat="43.75604" lon="3.5644">
        <ele>261</ele>
        <time>2019-01-10T15:53:00Z</time>
      </trkpt>
      <trkpt lat="43.75604" lon="3.56446">
        <ele>261</ele>
        <time>2019-01-10T15:53:20Z</time>
      </trkpt>
      <trkpt lat="43.75602" lon="3.56449">
        <ele>261</ele>
        <time>2019-01-10T15:53:20Z</time>
      </trkpt>
      <trkpt lat="43.756" lon="3.56446">
        <ele>261</ele>
        <time>2019-01-10T15:53:20Z</time>
      </trkpt>
      <trkpt lat="43.75598" lon="3.56441">
        <ele>261</ele>
        <time>2019-01-10T15:53:20Z</time>
      </trkpt>
      <trkpt lat="43.75594" lon="3.56436">
        <ele>261</ele>
        <time>2019-01-10T15:53:20Z</time>
      </trkpt>
      <trkpt lat="43.75592" lon="3.56431">
        <ele>261</ele>
        <time>2019-01-10T15:53:36Z</time>
      </trkpt>
      <trkpt lat="43.7559" lon="3.56427">
        <ele>261</ele>
        <time>2019-01-10T15:53:36Z</time>
      </trkpt>
      <trkpt lat="43.75585" lon="3.56424">
        <ele>261</ele>
        <time>2019-01-10T15:53:36Z</time>
      </trkpt>
      <trkpt lat="43.75582" lon="3.56422">
        <ele>261</ele>
        <time>2019-01-10T15:53:36Z</time>
      </trkpt>
      <trkpt lat="43.75578" lon="3.56419">
        <ele>261</ele>
        <time>2019-01-10T15:53:52Z</time>
      </trkpt>
      <trkpt lat="43.75575" lon="3.56416">
        <ele>261</ele>
        <time>2019-01-10T15:53:52Z</time>
      </trkpt>
      <trkpt lat="43.75571" lon="3.56414">
        <ele>261</ele>
        <time>2019-01-10T15:53:52Z</time>
      </trkpt>
      <trkpt lat="43.75568" lon="3.56412">
        <ele>261</ele>
        <time>2019-01-10T15:53:52Z</time>
      </trkpt>
      <trkpt lat="43.75568" lon="3.56412">
        <ele>261</ele>
        <time>2019-01-10T15:54:08Z</time>
      </trkpt>
      <trkpt lat="43.75568" lon="3.56415">
        <ele>261</ele>
        <time>2019-01-10T15:54:08Z</time>
      </trkpt>
      <trkpt lat="43.75571" lon="3.56418">
        <ele>261</ele>
        <time>2019-01-10T15:54:08Z</time>
      </trkpt>
      <trkpt lat="43.75574" lon="3.56422">
        <ele>261</ele>
        <time>2019-01-10T15:54:08Z</time>
      </trkpt>
      <trkpt lat="43.75577" lon="3.56427">
        <ele>261</ele>
        <time>2019-01-10T15:54:24Z</time>
      </trkpt>
      <trkpt lat="43.75579" lon="3.56432">
        <ele>261</ele>
        <time>2019-01-10T15:54:24Z</time>
      </trkpt>
      <trkpt lat="43.75581" lon="3.56436">
        <ele>261</ele>
        <time>2019-01-10T15:54:24Z</time>
      </trkpt>
      <trkpt lat="43.75581" lon="3.56442">
        <ele>261</ele>
        <time>2019-01-10T15:54:24Z</time>
      </trkpt>
      <trkpt lat="43.75576" lon="3.56451">
        <ele>261</ele>
        <time>2019-01-10T15:55:04Z</time>
      </trkpt>
      <trkpt lat="43.75572" lon="3.56448">
        <ele>261</ele>
        <time>2019-01-10T15:55:04Z</time>
      </trkpt>
      <trkpt lat="43.75569" lon="3.56446">
        <ele>261</ele>
        <time>2019-01-10T15:55:04Z</time>
      </trkpt>
      <trkpt lat="43.75566" lon="3.56444">
        <ele>261</ele>
        <time>2019-01-10T15:55:04Z</time>
      </trkpt>
      <trkpt lat="43.75565" lon="3.56448">
        <ele>261</ele>
        <time>2019-01-10T15:55:04Z</time>
      </trkpt>
      <trkpt lat="43.75567" lon="3.56451">
        <ele>261</ele>
        <time>2019-01-10T15:55:20Z</time>
      </trkpt>
      <trkpt lat="43.75568" lon="3.56454">
        <ele>261</ele>
        <time>2019-01-10T15:55:20Z</time>
      </trkpt>
      <trkpt lat="43.75569" lon="3.56458">
        <ele>261</ele>
        <time>2019-01-10T15:55:20Z</time>
      </trkpt>
      <trkpt lat="43.75568" lon="3.56464">
        <ele>242</ele>
        <time>2019-01-10T15:55:20Z</time>
      </trkpt>
      <trkpt lat="43.75563" lon="3.56474">
        <ele>242</ele>
        <time>2019-01-10T15:56:32Z</time>
      </trkpt>
      <trkpt lat="43.75563" lon="3.56477">
        <ele>242</ele>
        <time>2019-01-10T15:56:32Z</time>
      </trkpt>
      <trkpt lat="43.75563" lon="3.56479">
        <ele>242</ele>
        <time>2019-01-10T15:56:32Z</time>
      </trkpt>
      <trkpt lat="43.75562" lon="3.56483">
        <ele>242</ele>
        <time>2019-01-10T15:56:32Z</time>
      </trkpt>
      <trkpt lat="43.7556" lon="3.56487">
        <ele>242</ele>
        <time>2019-01-10T15:56:32Z</time>
      </trkpt>
      <trkpt lat="43.75556" lon="3.56492">
        <ele>242</ele>
        <time>2019-01-10T15:56:56Z</time>
      </trkpt>
      <trkpt lat="43.75556" lon="3.56489">
        <ele>242</ele>
        <time>2019-01-10T15:56:56Z</time>
      </trkpt>
      <trkpt lat="43.75555" lon="3.56486">
        <ele>242</ele>
        <time>2019-01-10T15:56:56Z</time>
      </trkpt>
      <trkpt lat="43.75553" lon="3.56485">
        <ele>242</ele>
        <time>2019-01-10T15:56:56Z</time>
      </trkpt>
      <trkpt lat="43.75552" lon="3.56481">
        <ele>242</ele>
        <time>2019-01-10T15:56:56Z</time>
      </trkpt>
      <trkpt lat="43.75552" lon="3.56477">
        <ele>242</ele>
        <time>2019-01-10T15:57:12Z</time>
      </trkpt>
      <trkpt lat="43.75551" lon="3.56475">
        <ele>242</ele>
        <time>2019-01-10T15:57:12Z</time>
      </trkpt>
      <trkpt lat="43.75548" lon="3.56472">
        <ele>242</ele>
        <time>2019-01-10T15:57:12Z</time>
      </trkpt>
      <trkpt lat="43.75544" lon="3.5647">
        <ele>242</ele>
        <time>2019-01-10T15:57:12Z</time>
      </trkpt>
      <trkpt lat="43.75543" lon="3.56475">
        <ele>242</ele>
        <time>2019-01-10T15:57:56Z</time>
      </trkpt>
      <trkpt lat="43.75541" lon="3.56475">
        <ele>221</ele>
        <time>2019-01-10T15:57:56Z</time>
      </trkpt>
      <trkpt lat="43.75541" lon="3.56479">
        <ele>221</ele>
        <time>2019-01-10T15:57:56Z</time>
      </trkpt>
      <trkpt lat="43.75541" lon="3.56484">
        <ele>221</ele>
        <time>2019-01-10T15:57:56Z</time>
      </trkpt>
      <trkpt lat="43.75539" lon="3.5649">
        <ele>221</ele>
        <time>2019-01-10T15:57:56Z</time>
      </trkpt>
      <trkpt lat="43.75537" lon="3.56495">
        <ele>221</ele>
        <time>2019-01-10T15:58:12Z</time>
      </trkpt>
      <trkpt lat="43.75537" lon="3.56501">
        <ele>221</ele>
        <time>2019-01-10T15:58:12Z</time>
      </trkpt>
      <trkpt lat="43.75537" lon="3.56508">
        <ele>221</ele>
        <time>2019-01-10T15:58:12Z</time>
      </trkpt>
      <trkpt lat="43.75538" lon="3.56512">
        <ele>221</ele>
        <time>2019-01-10T15:58:12Z</time>
      </trkpt>
      <trkpt lat="43.7554" lon="3.56516">
        <ele>221</ele>
        <time>2019-01-10T15:58:28Z</time>
      </trkpt>
      <trkpt lat="43.75541" lon="3.56522">
        <ele>221</ele>
        <time>2019-01-10T15:58:28Z</time>
      </trkpt>
      <trkpt lat="43.75542" lon="3.56527">
        <ele>242</ele>
        <time>2019-01-10T15:58:28Z</time>
      </trkpt>
      <trkpt lat="43.75543" lon="3.56532">
        <ele>242</ele>
        <time>2019-01-10T15:58:28Z</time>
      </trkpt>
      <trkpt lat="43.75544" lon="3.56537">
        <ele>242</ele>
        <time>2019-01-10T15:58:52Z</time>
      </trkpt>
      <trkpt lat="43.75543" lon="3.56536">
        <ele>242</ele>
        <time>2019-01-10T15:58:52Z</time>
      </trkpt>
      <trkpt lat="43.75541" lon="3.56534">
        <ele>221</ele>
        <time>2019-01-10T15:58:52Z</time>
      </trkpt>
      <trkpt lat="43.75539" lon="3.56531">
        <ele>221</ele>
        <time>2019-01-10T15:58:52Z</time>
      </trkpt>
      <trkpt lat="43.75536" lon="3.56527">
        <ele>221</ele>
        <time>2019-01-10T15:58:52Z</time>
      </trkpt>
      <trkpt lat="43.75533" lon="3.56522">
        <ele>221</ele>
        <time>2019-01-10T15:59:08Z</time>
      </trkpt>
      <trkpt lat="43.7553" lon="3.56518">
        <ele>221</ele>
        <time>2019-01-10T15:59:08Z</time>
      </trkpt>
      <trkpt lat="43.75529" lon="3.56513">
        <ele>221</ele>
        <time>2019-01-10T15:59:08Z</time>
      </trkpt>
      <trkpt lat="43.75526" lon="3.56508">
        <ele>221</ele>
        <time>2019-01-10T15:59:08Z</time>
      </trkpt>
      <trkpt lat="43.75523" lon="3.56504">
        <ele>221</ele>
        <time>2019-01-10T15:59:24Z</time>
      </trkpt>
      <trkpt lat="43.7552" lon="3.56501">
        <ele>221</ele>
        <time>2019-01-10T15:59:24Z</time>
      </trkpt>
      <trkpt lat="43.75516" lon="3.56498">
        <ele>221</ele>
        <time>2019-01-10T15:59:24Z</time>
      </trkpt>
      <trkpt lat="43.75513" lon="3.56493">
        <ele>221</ele>
        <time>2019-01-10T15:59:24Z</time>
      </trkpt>
      <trkpt lat="43.75509" lon="3.56491">
        <ele>221</ele>
        <time>2019-01-10T15:59:48Z</time>
      </trkpt>
      <trkpt lat="43.75507" lon="3.56486">
        <ele>221</ele>
        <time>2019-01-10T15:59:48Z</time>
      </trkpt>
      <trkpt lat="43.75503" lon="3.56481">
        <ele>221</ele>
        <time>2019-01-10T15:59:48Z</time>
      </trkpt>
      <trkpt lat="43.75502" lon="3.56481">
        <ele>221</ele>
        <time>2019-01-10T15:59:48Z</time>
      </trkpt>
      <trkpt lat="43.75498" lon="3.56475">
        <ele>221</ele>
        <time>2019-01-10T16:00:04Z</time>
      </trkpt>
      <trkpt lat="43.75491" lon="3.5647">
        <ele>221</ele>
        <time>2019-01-10T16:00:04Z</time>
      </trkpt>
      <trkpt lat="43.75487" lon="3.56465">
        <ele>221</ele>
        <time>2019-01-10T16:00:04Z</time>
      </trkpt>
      <trkpt lat="43.75484" lon="3.56462">
        <ele>221</ele>
        <time>2019-01-10T16:00:04Z</time>
      </trkpt>
      <trkpt lat="43.75482" lon="3.56458">
        <ele>224</ele>
        <time>2019-01-10T16:00:24Z</time>
      </trkpt>
      <trkpt lat="43.75478" lon="3.56457">
        <ele>224</ele>
        <time>2019-01-10T16:00:24Z</time>
      </trkpt>
      <trkpt lat="43.75475" lon="3.56455">
        <ele>224</ele>
        <time>2019-01-10T16:00:24Z</time>
      </trkpt>
      <trkpt lat="43.75475" lon="3.56454">
        <ele>224</ele>
        <time>2019-01-10T16:00:24Z</time>
      </trkpt>
      <trkpt lat="43.75473" lon="3.56452">
        <ele>224</ele>
        <time>2019-01-10T16:00:24Z</time>
      </trkpt>
      <trkpt lat="43.75467" lon="3.56447">
        <ele>224</ele>
        <time>2019-01-10T16:00:40Z</time>
      </trkpt>
      <trkpt lat="43.75464" lon="3.56444">
        <ele>224</ele>
        <time>2019-01-10T16:00:40Z</time>
      </trkpt>
      <trkpt lat="43.75461" lon="3.56439">
        <ele>224</ele>
        <time>2019-01-10T16:00:40Z</time>
      </trkpt>
      <trkpt lat="43.75462" lon="3.56431">
        <ele>224</ele>
        <time>2019-01-10T16:00:40Z</time>
      </trkpt>
      <trkpt lat="43.75462" lon="3.56424">
        <ele>224</ele>
        <time>2019-01-10T16:00:56Z</time>
      </trkpt>
      <trkpt lat="43.75458" lon="3.5642">
        <ele>212</ele>
        <time>2019-01-10T16:00:56Z</time>
      </trkpt>
      <trkpt lat="43.75455" lon="3.56415">
        <ele>212</ele>
        <time>2019-01-10T16:00:56Z</time>
      </trkpt>
      <trkpt lat="43.7545" lon="3.5641">
        <ele>212</ele>
        <time>2019-01-10T16:00:56Z</time>
      </trkpt>
      <trkpt lat="43.75448" lon="3.56404">
        <ele>212</ele>
        <time>2019-01-10T16:01:12Z</time>
      </trkpt>
      <trkpt lat="43.75445" lon="3.56399">
        <ele>212</ele>
        <time>2019-01-10T16:01:12Z</time>
      </trkpt>
      <trkpt lat="43.7544" lon="3.56394">
        <ele>212</ele>
        <time>2019-01-10T16:01:12Z</time>
      </trkpt>
      <trkpt lat="43.75435" lon="3.5639">
        <ele>212</ele>
        <time>2019-01-10T16:01:12Z</time>
      </trkpt>
      <trkpt lat="43.75431" lon="3.56386">
        <ele>212</ele>
        <time>2019-01-10T16:01:28Z</time>
      </trkpt>
      <trkpt lat="43.75426" lon="3.56383">
        <ele>212</ele>
        <time>2019-01-10T16:01:28Z</time>
      </trkpt>
      <trkpt lat="43.75424" lon="3.56379">
        <ele>212</ele>
        <time>2019-01-10T16:01:28Z</time>
      </trkpt>
      <trkpt lat="43.75419" lon="3.56373">
        <ele>205</ele>
        <time>2019-01-10T16:01:28Z</time>
      </trkpt>
      <trkpt lat="43.75417" lon="3.5637">
        <ele>205</ele>
        <time>2019-01-10T16:01:48Z</time>
      </trkpt>
      <trkpt lat="43.75416" lon="3.5637">
        <ele>205</ele>
        <time>2019-01-10T16:01:48Z</time>
      </trkpt>
      <trkpt lat="43.7541" lon="3.56367">
        <ele>205</ele>
        <time>2019-01-10T16:01:48Z</time>
      </trkpt>
      <trkpt lat="43.75409" lon="3.56366">
        <ele>205</ele>
        <time>2019-01-10T16:01:48Z</time>
      </trkpt>
      <trkpt lat="43.75404" lon="3.56362">
        <ele>205</ele>
        <time>2019-01-10T16:01:48Z</time>
      </trkpt>
      <trkpt lat="43.75399" lon="3.5636">
        <ele>205</ele>
        <time>2019-01-10T16:02:04Z</time>
      </trkpt>
      <trkpt lat="43.75394" lon="3.56362">
        <ele>205</ele>
        <time>2019-01-10T16:02:04Z</time>
      </trkpt>
      <trkpt lat="43.75389" lon="3.56362">
        <ele>205</ele>
        <time>2019-01-10T16:02:04Z</time>
      </trkpt>
      <trkpt lat="43.75384" lon="3.56361">
        <ele>205</ele>
        <time>2019-01-10T16:02:04Z</time>
      </trkpt>
      <trkpt lat="43.7538" lon="3.56359">
        <ele>205</ele>
        <time>2019-01-10T16:02:24Z</time>
      </trkpt>
      <trkpt lat="43.75374" lon="3.56356">
        <ele>203</ele>
        <time>2019-01-10T16:02:24Z</time>
      </trkpt>
      <trkpt lat="43.75368" lon="3.56351">
        <ele>203</ele>
        <time>2019-01-10T16:02:24Z</time>
      </trkpt>
      <trkpt lat="43.75364" lon="3.56347">
        <ele>203</ele>
        <time>2019-01-10T16:02:24Z</time>
      </trkpt>
      <trkpt lat="43.7536" lon="3.56343">
        <ele>203</ele>
        <time>2019-01-10T16:02:40Z</time>
      </trkpt>
      <trkpt lat="43.75357" lon="3.56339">
        <ele>203</ele>
        <time>2019-01-10T16:02:40Z</time>
      </trkpt>
      <trkpt lat="43.75355" lon="3.56333">
        <ele>203</ele>
        <time>2019-01-10T16:02:40Z</time>
      </trkpt>
      <trkpt lat="43.75353" lon="3.56329">
        <ele>203</ele>
        <time>2019-01-10T16:02:40Z</time>
      </trkpt>
      <trkpt lat="43.75352" lon="3.56326">
        <ele>203</ele>
        <time>2019-01-10T16:02:56Z</time>
      </trkpt>
      <trkpt lat="43.75353" lon="3.56321">
        <ele>203</ele>
        <time>2019-01-10T16:02:56Z</time>
      </trkpt>
      <trkpt lat="43.75352" lon="3.56315">
        <ele>203</ele>
        <time>2019-01-10T16:02:56Z</time>
      </trkpt>
      <trkpt lat="43.7535" lon="3.5631">
        <ele>203</ele>
        <time>2019-01-10T16:02:56Z</time>
      </trkpt>
      <trkpt lat="43.7535" lon="3.56302">
        <ele>203</ele>
        <time>2019-01-10T16:03:12Z</time>
      </trkpt>
      <trkpt lat="43.75348" lon="3.56296">
        <ele>203</ele>
        <time>2019-01-10T16:03:12Z</time>
      </trkpt>
      <trkpt lat="43.75345" lon="3.56291">
        <ele>183</ele>
        <time>2019-01-10T16:03:12Z</time>
      </trkpt>
      <trkpt lat="43.75339" lon="3.56284">
        <ele>183</ele>
        <time>2019-01-10T16:03:12Z</time>
      </trkpt>
      <trkpt lat="43.75335" lon="3.56282">
        <ele>183</ele>
        <time>2019-01-10T16:03:28Z</time>
      </trkpt>
      <trkpt lat="43.7533" lon="3.56284">
        <ele>183</ele>
        <time>2019-01-10T16:03:28Z</time>
      </trkpt>
      <trkpt lat="43.75326" lon="3.56285">
        <ele>183</ele>
        <time>2019-01-10T16:03:28Z</time>
      </trkpt>
      <trkpt lat="43.75324" lon="3.56286">
        <ele>183</ele>
        <time>2019-01-10T16:03:28Z</time>
      </trkpt>
      <trkpt lat="43.75321" lon="3.56287">
        <ele>183</ele>
        <time>2019-01-10T16:03:44Z</time>
      </trkpt>
      <trkpt lat="43.75317" lon="3.56286">
        <ele>183</ele>
        <time>2019-01-10T16:03:44Z</time>
      </trkpt>
      <trkpt lat="43.75312" lon="3.56287">
        <ele>183</ele>
        <time>2019-01-10T16:03:44Z</time>
      </trkpt>
      <trkpt lat="43.75306" lon="3.56285">
        <ele>183</ele>
        <time>2019-01-10T16:03:44Z</time>
      </trkpt>
      <trkpt lat="43.75302" lon="3.56285">
        <ele>183</ele>
        <time>2019-01-10T16:04:04Z</time>
      </trkpt>
      <trkpt lat="43.75299" lon="3.56285">
        <ele>183</ele>
        <time>2019-01-10T16:04:04Z</time>
      </trkpt>
      <trkpt lat="43.75296" lon="3.56287">
        <ele>183</ele>
        <time>2019-01-10T16:04:04Z</time>
      </trkpt>
      <trkpt lat="43.75295" lon="3.56288">
        <ele>183</ele>
        <time>2019-01-10T16:04:04Z</time>
      </trkpt>
      <trkpt lat="43.75292" lon="3.56288">
        <ele>183</ele>
        <time>2019-01-10T16:04:04Z</time>
      </trkpt>
      <trkpt lat="43.75287" lon="3.56286">
        <ele>172</ele>
        <time>2019-01-10T16:04:20Z</time>
      </trkpt>
      <trkpt lat="43.75283" lon="3.56284">
        <ele>172</ele>
        <time>2019-01-10T16:04:20Z</time>
      </trkpt>
      <trkpt lat="43.7528" lon="3.56283">
        <ele>172</ele>
        <time>2019-01-10T16:04:20Z</time>
      </trkpt>
      <trkpt lat="43.75276" lon="3.5628">
        <ele>172</ele>
        <time>2019-01-10T16:04:20Z</time>
      </trkpt>
      <trkpt lat="43.75273" lon="3.56279">
        <ele>172</ele>
        <time>2019-01-10T16:04:40Z</time>
      </trkpt>
      <trkpt lat="43.7527" lon="3.56279">
        <ele>172</ele>
        <time>2019-01-10T16:04:40Z</time>
      </trkpt>
      <trkpt lat="43.75267" lon="3.56279">
        <ele>172</ele>
        <time>2019-01-10T16:04:40Z</time>
      </trkpt>
      <trkpt lat="43.75266" lon="3.56277">
        <ele>172</ele>
        <time>2019-01-10T16:04:40Z</time>
      </trkpt>
      <trkpt lat="43.75263" lon="3.56274">
        <ele>172</ele>
        <time>2019-01-10T16:04:40Z</time>
      </trkpt>
      <trkpt lat="43.7526" lon="3.5627">
        <ele>172</ele>
        <time>2019-01-10T16:04:56Z</time>
      </trkpt>
      <trkpt lat="43.75257" lon="3.56268">
        <ele>172</ele>
        <time>2019-01-10T16:04:56Z</time>
      </trkpt>
      <trkpt lat="43.75253" lon="3.56265">
        <ele>172</ele>
        <time>2019-01-10T16:04:56Z</time>
      </trkpt>
      <trkpt lat="43.75249" lon="3.56263">
        <ele>172</ele>
        <time>2019-01-10T16:04:56Z</time>
      </trkpt>
      <trkpt lat="43.75245" lon="3.56261">
        <ele>172</ele>
        <time>2019-01-10T16:05:12Z</time>
      </trkpt>
      <trkpt lat="43.75242" lon="3.56257">
        <ele>172</ele>
        <time>2019-01-10T16:05:12Z</time>
      </trkpt>
      <trkpt lat="43.75239" lon="3.56254">
        <ele>172</ele>
        <time>2019-01-10T16:05:12Z</time>
      </trkpt>
      <trkpt lat="43.75236" lon="3.56251">
        <ele>172</ele>
        <time>2019-01-10T16:05:12Z</time>
      </trkpt>
      <trkpt lat="43.75232" lon="3.56248">
        <ele>172</ele>
        <time>2019-01-10T16:05:28Z</time>
      </trkpt>
      <trkpt lat="43.7523" lon="3.56245">
        <ele>172</ele>
        <time>2019-01-10T16:05:28Z</time>
      </trkpt>
      <trkpt lat="43.75228" lon="3.56243">
        <ele>172</ele>
        <time>2019-01-10T16:05:28Z</time>
      </trkpt>
      <trkpt lat="43.75223" lon="3.56241">
        <ele>172</ele>
        <time>2019-01-10T16:05:28Z</time>
      </trkpt>
      <trkpt lat="43.7522" lon="3.56238">
        <ele>172</ele>
        <time>2019-01-10T16:05:48Z</time>
      </trkpt>
      <trkpt lat="43.75217" lon="3.56235">
        <ele>172</ele>
        <time>2019-01-10T16:05:48Z</time>
      </trkpt>
      <trkpt lat="43.75217" lon="3.56234">
        <ele>172</ele>
        <time>2019-01-10T16:05:48Z</time>
      </trkpt>
      <trkpt lat="43.75215" lon="3.56231">
        <ele>172</ele>
        <time>2019-01-10T16:05:48Z</time>
      </trkpt>
      <trkpt lat="43.75212" lon="3.56227">
        <ele>172</ele>
        <time>2019-01-10T16:05:48Z</time>
      </trkpt>
      <trkpt lat="43.7521" lon="3.56222">
        <ele>172</ele>
        <time>2019-01-10T16:06:04Z</time>
      </trkpt>
      <trkpt lat="43.75207" lon="3.56218">
        <ele>183</ele>
        <time>2019-01-10T16:06:04Z</time>
      </trkpt>
      <trkpt lat="43.75204" lon="3.56215">
        <ele>183</ele>
        <time>2019-01-10T16:06:04Z</time>
      </trkpt>
      <trkpt lat="43.75201" lon="3.5621">
        <ele>183</ele>
        <time>2019-01-10T16:06:04Z</time>
      </trkpt>
      <trkpt lat="43.75198" lon="3.56207">
        <ele>153</ele>
        <time>2019-01-10T16:06:20Z</time>
      </trkpt>
      <trkpt lat="43.75197" lon="3.56205">
        <ele>153</ele>
        <time>2019-01-10T16:06:20Z</time>
      </trkpt>
      <trkpt lat="43.75194" lon="3.56201">
        <ele>153</ele>
        <time>2019-01-10T16:06:20Z</time>
      </trkpt>
      <trkpt lat="43.75191" lon="3.56198">
        <ele>153</ele>
        <time>2019-01-10T16:06:20Z</time>
      </trkpt>
      <trkpt lat="43.75188" lon="3.56195">
        <ele>153</ele>
        <time>2019-01-10T16:06:36Z</time>
      </trkpt>
      <trkpt lat="43.75185" lon="3.56191">
        <ele>153</ele>
        <time>2019-01-10T16:06:36Z</time>
      </trkpt>
      <trkpt lat="43.75181" lon="3.56187">
        <ele>153</ele>
        <time>2019-01-10T16:06:36Z</time>
      </trkpt>
      <trkpt lat="43.75177" lon="3.56185">
        <ele>153</ele>
        <time>2019-01-10T16:06:36Z</time>
      </trkpt>
      <trkpt lat="43.75173" lon="3.56183">
        <ele>153</ele>
        <time>2019-01-10T16:06:52Z</time>
      </trkpt>
      <trkpt lat="43.75171" lon="3.56178">
        <ele>153</ele>
        <time>2019-01-10T16:06:52Z</time>
      </trkpt>
      <trkpt lat="43.75168" lon="3.56173">
        <ele>153</ele>
        <time>2019-01-10T16:06:52Z</time>
      </trkpt>
      <trkpt lat="43.75165" lon="3.56167">
        <ele>153</ele>
        <time>2019-01-10T16:06:52Z</time>
      </trkpt>
      <trkpt lat="43.75162" lon="3.56163">
        <ele>153</ele>
        <time>2019-01-10T16:07:08Z</time>
      </trkpt>
      <trkpt lat="43.75159" lon="3.5616">
        <ele>153</ele>
        <time>2019-01-10T16:07:08Z</time>
      </trkpt>
      <trkpt lat="43.75156" lon="3.5616">
        <ele>153</ele>
        <time>2019-01-10T16:07:08Z</time>
      </trkpt>
      <trkpt lat="43.75152" lon="3.56158">
        <ele>153</ele>
        <time>2019-01-10T16:07:08Z</time>
      </trkpt>
      <trkpt lat="43.75148" lon="3.56156">
        <ele>153</ele>
        <time>2019-01-10T16:07:24Z</time>
      </trkpt>
      <trkpt lat="43.75143" lon="3.56154">
        <ele>153</ele>
        <time>2019-01-10T16:07:24Z</time>
      </trkpt>
      <trkpt lat="43.7514" lon="3.56154">
        <ele>153</ele>
        <time>2019-01-10T16:07:24Z</time>
      </trkpt>
      <trkpt lat="43.75136" lon="3.56152">
        <ele>153</ele>
        <time>2019-01-10T16:07:24Z</time>
      </trkpt>
      <trkpt lat="43.75132" lon="3.5615">
        <ele>153</ele>
        <time>2019-01-10T16:07:40Z</time>
      </trkpt>
      <trkpt lat="43.75127" lon="3.5615">
        <ele>153</ele>
        <time>2019-01-10T16:07:40Z</time>
      </trkpt>
      <trkpt lat="43.75123" lon="3.56149">
        <ele>140</ele>
        <time>2019-01-10T16:07:40Z</time>
      </trkpt>
      <trkpt lat="43.75119" lon="3.56147">
        <ele>140</ele>
        <time>2019-01-10T16:07:40Z</time>
      </trkpt>
      <trkpt lat="43.75115" lon="3.56145">
        <ele>140</ele>
        <time>2019-01-10T16:07:56Z</time>
      </trkpt>
      <trkpt lat="43.7511" lon="3.56144">
        <ele>140</ele>
        <time>2019-01-10T16:07:56Z</time>
      </trkpt>
      <trkpt lat="43.75106" lon="3.56142">
        <ele>140</ele>
        <time>2019-01-10T16:07:56Z</time>
      </trkpt>
      <trkpt lat="43.75102" lon="3.56142">
        <ele>140</ele>
        <time>2019-01-10T16:07:56Z</time>
      </trkpt>
      <trkpt lat="43.75097" lon="3.5614">
        <ele>140</ele>
        <time>2019-01-10T16:08:12Z</time>
      </trkpt>
      <trkpt lat="43.75092" lon="3.56139">
        <ele>140</ele>
        <time>2019-01-10T16:08:12Z</time>
      </trkpt>
      <trkpt lat="43.7509" lon="3.56139">
        <ele>140</ele>
        <time>2019-01-10T16:08:12Z</time>
      </trkpt>
      <trkpt lat="43.75086" lon="3.56137">
        <ele>140</ele>
        <time>2019-01-10T16:08:12Z</time>
      </trkpt>
      <trkpt lat="43.75082" lon="3.56135">
        <ele>140</ele>
        <time>2019-01-10T16:08:28Z</time>
      </trkpt>
      <trkpt lat="43.75078" lon="3.56131">
        <ele>140</ele>
        <time>2019-01-10T16:08:28Z</time>
      </trkpt>
      <trkpt lat="43.75073" lon="3.56129">
        <ele>140</ele>
        <time>2019-01-10T16:08:28Z</time>
      </trkpt>
      <trkpt lat="43.75069" lon="3.56129">
        <ele>140</ele>
        <time>2019-01-10T16:08:28Z</time>
      </trkpt>
      <trkpt lat="43.75066" lon="3.56133">
        <ele>140</ele>
        <time>2019-01-10T16:08:44Z</time>
      </trkpt>
      <trkpt lat="43.75064" lon="3.56139">
        <ele>140</ele>
        <time>2019-01-10T16:08:44Z</time>
      </trkpt>
      <trkpt lat="43.75063" lon="3.56142">
        <ele>140</ele>
        <time>2019-01-10T16:08:44Z</time>
      </trkpt>
      <trkpt lat="43.7506" lon="3.56144">
        <ele>140</ele>
        <time>2019-01-10T16:08:44Z</time>
      </trkpt>
      <trkpt lat="43.75054" lon="3.56147">
        <ele>140</ele>
        <time>2019-01-10T16:09:16Z</time>
      </trkpt>
      <trkpt lat="43.75053" lon="3.56143">
        <ele>140</ele>
        <time>2019-01-10T16:09:16Z</time>
      </trkpt>
      <trkpt lat="43.75052" lon="3.5614">
        <ele>140</ele>
        <time>2019-01-10T16:09:16Z</time>
      </trkpt>
      <trkpt lat="43.75052" lon="3.56139">
        <ele>140</ele>
        <time>2019-01-10T16:09:16Z</time>
      </trkpt>
      <trkpt lat="43.75051" lon="3.56132">
        <ele>140</ele>
        <time>2019-01-10T16:09:16Z</time>
      </trkpt>
      <trkpt lat="43.75048" lon="3.5612">
        <ele>134</ele>
        <time>2019-01-10T16:10:08Z</time>
      </trkpt>
      <trkpt lat="43.75047" lon="3.56121">
        <ele>134</ele>
        <time>2019-01-10T16:10:08Z</time>
      </trkpt>
      <trkpt lat="43.75047" lon="3.56115">
        <ele>134</ele>
        <time>2019-01-10T16:10:08Z</time>
      </trkpt>
      <trkpt lat="43.75048" lon="3.5611">
        <ele>134</ele>
        <time>2019-01-10T16:10:08Z</time>
      </trkpt>
      <trkpt lat="43.75048" lon="3.56106">
        <ele>134</ele>
        <time>2019-01-10T16:10:08Z</time>
      </trkpt>
      <trkpt lat="43.7505" lon="3.56104">
        <ele>134</ele>
        <time>2019-01-10T16:10:28Z</time>
      </trkpt>
      <trkpt lat="43.75051" lon="3.56101">
        <ele>134</ele>
        <time>2019-01-10T16:10:28Z</time>
      </trkpt>
      <trkpt lat="43.75047" lon="3.56102">
        <ele>134</ele>
        <time>2019-01-10T16:10:28Z</time>
      </trkpt>
      <trkpt lat="43.75043" lon="3.56103">
        <ele>134</ele>
        <time>2019-01-10T16:10:28Z</time>
      </trkpt>
      <trkpt lat="43.75041" lon="3.56105">
        <ele>139</ele>
        <time>2019-01-10T16:10:28Z</time>
      </trkpt>
      <trkpt lat="43.75039" lon="3.56105">
        <ele>139</ele>
        <time>2019-01-10T16:10:44Z</time>
      </trkpt>
      <trkpt lat="43.75036" lon="3.56107">
        <ele>139</ele>
        <time>2019-01-10T16:10:44Z</time>
      </trkpt>
      <trkpt lat="43.75034" lon="3.56109">
        <ele>139</ele>
        <time>2019-01-10T16:10:44Z</time>
      </trkpt>
      <trkpt lat="43.75031" lon="3.56113">
        <ele>139</ele>
        <time>2019-01-10T16:10:44Z</time>
      </trkpt>
      <trkpt lat="43.75028" lon="3.56116">
        <ele>139</ele>
        <time>2019-01-10T16:11:00Z</time>
      </trkpt>
      <trkpt lat="43.75024" lon="3.5612">
        <ele>139</ele>
        <time>2019-01-10T16:11:00Z</time>
      </trkpt>
      <trkpt lat="43.7502" lon="3.56124">
        <ele>139</ele>
        <time>2019-01-10T16:11:00Z</time>
      </trkpt>
      <trkpt lat="43.75019" lon="3.56125">
        <ele>139</ele>
        <time>2019-01-10T16:11:00Z</time>
      </trkpt>
      <trkpt lat="43.75017" lon="3.5613">
        <ele>114</ele>
        <time>2019-01-10T16:11:16Z</time>
      </trkpt>
      <trkpt lat="43.75016" lon="3.56137">
        <ele>114</ele>
        <time>2019-01-10T16:11:16Z</time>
      </trkpt>
      <trkpt lat="43.75016" lon="3.56142">
        <ele>114</ele>
        <time>2019-01-10T16:11:16Z</time>
      </trkpt>
      <trkpt lat="43.75019" lon="3.56149">
        <ele>114</ele>
        <time>2019-01-10T16:11:16Z</time>
      </trkpt>
      <trkpt lat="43.75019" lon="3.56154">
        <ele>114</ele>
        <time>2019-01-10T16:11:32Z</time>
      </trkpt>
      <trkpt lat="43.75019" lon="3.56162">
        <ele>114</ele>
        <time>2019-01-10T16:11:32Z</time>
      </trkpt>
      <trkpt lat="43.7502" lon="3.56168">
        <ele>114</ele>
        <time>2019-01-10T16:11:32Z</time>
      </trkpt>
      <trkpt lat="43.7502" lon="3.56175">
        <ele>114</ele>
        <time>2019-01-10T16:11:32Z</time>
      </trkpt>
      <trkpt lat="43.75018" lon="3.56178">
        <ele>114</ele>
        <time>2019-01-10T16:11:52Z</time>
      </trkpt>
      <trkpt lat="43.75017" lon="3.56181">
        <ele>114</ele>
        <time>2019-01-10T16:11:52Z</time>
      </trkpt>
      <trkpt lat="43.75016" lon="3.56183">
        <ele>114</ele>
        <time>2019-01-10T16:11:52Z</time>
      </trkpt>
      <trkpt lat="43.75012" lon="3.56187">
        <ele>114</ele>
        <time>2019-01-10T16:11:52Z</time>
      </trkpt>
      <trkpt lat="43.75008" lon="3.56189">
        <ele>114</ele>
        <time>2019-01-10T16:11:52Z</time>
      </trkpt>
      <trkpt lat="43.75005" lon="3.56192">
        <ele>114</ele>
        <time>2019-01-10T16:12:08Z</time>
      </trkpt>
      <trkpt lat="43.75005" lon="3.56196">
        <ele>114</ele>
        <time>2019-01-10T16:12:08Z</time>
      </trkpt>
      <trkpt lat="43.75002" lon="3.56198">
        <ele>114</ele>
        <time>2019-01-10T16:12:08Z</time>
      </trkpt>
      <trkpt lat="43.74998" lon="3.56201">
        <ele>114</ele>
        <time>2019-01-10T16:12:08Z</time>
      </trkpt>
      <trkpt lat="43.74995" lon="3.56204">
        <ele>114</ele>
        <time>2019-01-10T16:12:24Z</time>
      </trkpt>
      <trkpt lat="43.74992" lon="3.56206">
        <ele>114</ele>
        <time>2019-01-10T16:12:24Z</time>
      </trkpt>
      <trkpt lat="43.74989" lon="3.56207">
        <ele>114</ele>
        <time>2019-01-10T16:12:24Z</time>
      </trkpt>
      <trkpt lat="43.74984" lon="3.56208">
        <ele>114</ele>
        <time>2019-01-10T16:12:24Z</time>
      </trkpt>
      <trkpt lat="43.74978" lon="3.56207">
        <ele>114</ele>
        <time>2019-01-10T16:12:40Z</time>
      </trkpt>
      <trkpt lat="43.74974" lon="3.56209">
        <ele>132</ele>
        <time>2019-01-10T16:12:40Z</time>
      </trkpt>
      <trkpt lat="43.7497" lon="3.56208">
        <ele>114</ele>
        <time>2019-01-10T16:12:40Z</time>
      </trkpt>
      <trkpt lat="43.74967" lon="3.56208">
        <ele>114</ele>
        <time>2019-01-10T16:12:40Z</time>
      </trkpt>
      <trkpt lat="43.74961" lon="3.56205">
        <ele>114</ele>
        <time>2019-01-10T16:12:56Z</time>
      </trkpt>
      <trkpt lat="43.7496" lon="3.56205">
        <ele>114</ele>
        <time>2019-01-10T16:12:56Z</time>
      </trkpt>
      <trkpt lat="43.74955" lon="3.56204">
        <ele>109</ele>
        <time>2019-01-10T16:12:56Z</time>
      </trkpt>
      <trkpt lat="43.7495" lon="3.562">
        <ele>109</ele>
        <time>2019-01-10T16:12:56Z</time>
      </trkpt>
      <trkpt lat="43.74945" lon="3.56197">
        <ele>109</ele>
        <time>2019-01-10T16:13:16Z</time>
      </trkpt>
      <trkpt lat="43.74941" lon="3.56196">
        <ele>109</ele>
        <time>2019-01-10T16:13:16Z</time>
      </trkpt>
      <trkpt lat="43.74939" lon="3.56196">
        <ele>109</ele>
        <time>2019-01-10T16:13:16Z</time>
      </trkpt>
      <trkpt lat="43.74932" lon="3.56192">
        <ele>109</ele>
        <time>2019-01-10T16:13:16Z</time>
      </trkpt>
      <trkpt lat="43.74924" lon="3.56189">
        <ele>109</ele>
        <time>2019-01-10T16:13:32Z</time>
      </trkpt>
      <trkpt lat="43.74917" lon="3.56186">
        <ele>109</ele>
        <time>2019-01-10T16:13:32Z</time>
      </trkpt>
      <trkpt lat="43.74911" lon="3.56183">
        <ele>109</ele>
        <time>2019-01-10T16:13:32Z</time>
      </trkpt>
      <trkpt lat="43.74907" lon="3.56178">
        <ele>109</ele>
        <time>2019-01-10T16:13:32Z</time>
      </trkpt>
      <trkpt lat="43.74902" lon="3.56173">
        <ele>109</ele>
        <time>2019-01-10T16:13:48Z</time>
      </trkpt>
      <trkpt lat="43.74899" lon="3.5617">
        <ele>109</ele>
        <time>2019-01-10T16:13:48Z</time>
      </trkpt>
      <trkpt lat="43.74896" lon="3.56167">
        <ele>109</ele>
        <time>2019-01-10T16:13:48Z</time>
      </trkpt>
      <trkpt lat="43.74891" lon="3.56162">
        <ele>109</ele>
        <time>2019-01-10T16:13:48Z</time>
      </trkpt>
      <trkpt lat="43.74886" lon="3.56159">
        <ele>109</ele>
        <time>2019-01-10T16:14:04Z</time>
      </trkpt>
      <trkpt lat="43.74883" lon="3.56154">
        <ele>109</ele>
        <time>2019-01-10T16:14:04Z</time>
      </trkpt>
      <trkpt lat="43.7488" lon="3.56151">
        <ele>109</ele>
        <time>2019-01-10T16:14:04Z</time>
      </trkpt>
      <trkpt lat="43.74876" lon="3.56147">
        <ele>109</ele>
        <time>2019-01-10T16:14:04Z</time>
      </trkpt>
      <trkpt lat="43.74875" lon="3.56146">
        <ele>110</ele>
        <time>2019-01-10T16:14:28Z</time>
      </trkpt>
      <trkpt lat="43.74873" lon="3.56144">
        <ele>110</ele>
        <time>2019-01-10T16:14:28Z</time>
      </trkpt>
      <trkpt lat="43.74872" lon="3.56141">
        <ele>110</ele>
        <time>2019-01-10T16:14:28Z</time>
      </trkpt>
      <trkpt lat="43.74868" lon="3.56136">
        <ele>110</ele>
        <time>2019-01-10T16:14:28Z</time>
      </trkpt>
      <trkpt lat="43.74866" lon="3.56133">
        <ele>110</ele>
        <time>2019-01-10T16:14:48Z</time>
      </trkpt>
      <trkpt lat="43.74865" lon="3.56132">
        <ele>110</ele>
        <time>2019-01-10T16:14:48Z</time>
      </trkpt>
      <trkpt lat="43.74858" lon="3.56127">
        <ele>110</ele>
        <time>2019-01-10T16:14:48Z</time>
      </trkpt>
      <trkpt lat="43.74855" lon="3.56122">
        <ele>99</ele>
        <time>2019-01-10T16:14:48Z</time>
      </trkpt>
      <trkpt lat="43.74849" lon="3.56116">
        <ele>99</ele>
        <time>2019-01-10T16:15:08Z</time>
      </trkpt>
      <trkpt lat="43.74844" lon="3.5611">
        <ele>99</ele>
        <time>2019-01-10T16:15:08Z</time>
      </trkpt>
      <trkpt lat="43.74838" lon="3.56105">
        <ele>99</ele>
        <time>2019-01-10T16:15:08Z</time>
      </trkpt>
      <trkpt lat="43.74834" lon="3.56102">
        <ele>99</ele>
        <time>2019-01-10T16:15:08Z</time>
      </trkpt>
      <trkpt lat="43.74829" lon="3.56099">
        <ele>99</ele>
        <time>2019-01-10T16:15:24Z</time>
      </trkpt>
      <trkpt lat="43.74823" lon="3.56096">
        <ele>99</ele>
        <time>2019-01-10T16:15:24Z</time>
      </trkpt>
      <trkpt lat="43.74819" lon="3.56094">
        <ele>99</ele>
        <time>2019-01-10T16:15:24Z</time>
      </trkpt>
      <trkpt lat="43.74816" lon="3.56091">
        <ele>99</ele>
        <time>2019-01-10T16:15:24Z</time>
      </trkpt>
      <trkpt lat="43.74812" lon="3.5609">
        <ele>99</ele>
        <time>2019-01-10T16:15:44Z</time>
      </trkpt>
      <trkpt lat="43.74807" lon="3.56087">
        <ele>99</ele>
        <time>2019-01-10T16:15:44Z</time>
      </trkpt>
      <trkpt lat="43.74805" lon="3.56087">
        <ele>99</ele>
        <time>2019-01-10T16:15:44Z</time>
      </trkpt>
      <trkpt lat="43.74803" lon="3.56086">
        <ele>99</ele>
        <time>2019-01-10T16:15:44Z</time>
      </trkpt>
      <trkpt lat="43.74796" lon="3.56088">
        <ele>99</ele>
        <time>2019-01-10T16:16:00Z</time>
      </trkpt>
      <trkpt lat="43.74789" lon="3.5609">
        <ele>96</ele>
        <time>2019-01-10T16:16:00Z</time>
      </trkpt>
      <trkpt lat="43.74783" lon="3.5609">
        <ele>96</ele>
        <time>2019-01-10T16:16:00Z</time>
      </trkpt>
      <trkpt lat="43.74779" lon="3.5609">
        <ele>96</ele>
        <time>2019-01-10T16:16:00Z</time>
      </trkpt>
      <trkpt lat="43.74772" lon="3.56089">
        <ele>96</ele>
        <time>2019-01-10T16:16:16Z</time>
      </trkpt>
      <trkpt lat="43.74765" lon="3.5609">
        <ele>96</ele>
        <time>2019-01-10T16:16:16Z</time>
      </trkpt>
      <trkpt lat="43.7476" lon="3.56091">
        <ele>96</ele>
        <time>2019-01-10T16:16:16Z</time>
      </trkpt>
      <trkpt lat="43.74755" lon="3.56094">
        <ele>96</ele>
        <time>2019-01-10T16:16:16Z</time>
      </trkpt>
      <trkpt lat="43.74749" lon="3.56095">
        <ele>96</ele>
        <time>2019-01-10T16:16:32Z</time>
      </trkpt>
      <trkpt lat="43.74744" lon="3.56096">
        <ele>96</ele>
        <time>2019-01-10T16:16:32Z</time>
      </trkpt>
      <trkpt lat="43.74736" lon="3.56097">
        <ele>96</ele>
        <time>2019-01-10T16:16:32Z</time>
      </trkpt>
      <trkpt lat="43.74729" lon="3.56098">
        <ele>96</ele>
        <time>2019-01-10T16:16:32Z</time>
      </trkpt>
      <trkpt lat="43.74725" lon="3.56102">
        <ele>96</ele>
        <time>2019-01-10T16:16:48Z</time>
      </trkpt>
      <trkpt lat="43.74723" lon="3.56104">
        <ele>96</ele>
        <time>2019-01-10T16:16:48Z</time>
      </trkpt>
      <trkpt lat="43.74719" lon="3.56109">
        <ele>96</ele>
        <time>2019-01-10T16:16:48Z</time>
      </trkpt>
      <trkpt lat="43.74714" lon="3.56112">
        <ele>96</ele>
        <time>2019-01-10T16:16:48Z</time>
      </trkpt>
      <trkpt lat="43.74711" lon="3.56117">
        <ele>96</ele>
        <time>2019-01-10T16:17:04Z</time>
      </trkpt>
      <trkpt lat="43.74708" lon="3.56121">
        <ele>113</ele>
        <time>2019-01-10T16:17:04Z</time>
      </trkpt>
      <trkpt lat="43.74705" lon="3.56124">
        <ele>113</ele>
        <time>2019-01-10T16:17:04Z</time>
      </trkpt>
      <trkpt lat="43.74701" lon="3.56128">
        <ele>97</ele>
        <time>2019-01-10T16:17:04Z</time>
      </trkpt>
      <trkpt lat="43.74698" lon="3.56133">
        <ele>97</ele>
        <time>2019-01-10T16:17:20Z</time>
      </trkpt>
      <trkpt lat="43.74696" lon="3.56138">
        <ele>97</ele>
        <time>2019-01-10T16:17:20Z</time>
      </trkpt>
      <trkpt lat="43.74692" lon="3.56144">
        <ele>97</ele>
        <time>2019-01-10T16:17:20Z</time>
      </trkpt>
      <trkpt lat="43.74689" lon="3.56149">
        <ele>97</ele>
        <time>2019-01-10T16:17:20Z</time>
      </trkpt>
      <trkpt lat="43.74686" lon="3.56154">
        <ele>97</ele>
        <time>2019-01-10T16:17:36Z</time>
      </trkpt>
      <trkpt lat="43.74682" lon="3.56158">
        <ele>97</ele>
        <time>2019-01-10T16:17:36Z</time>
      </trkpt>
      <trkpt lat="43.74679" lon="3.56161">
        <ele>97</ele>
        <time>2019-01-10T16:17:36Z</time>
      </trkpt>
      <trkpt lat="43.74676" lon="3.56166">
        <ele>97</ele>
        <time>2019-01-10T16:17:36Z</time>
      </trkpt>
      <trkpt lat="43.74672" lon="3.5617">
        <ele>97</ele>
        <time>2019-01-10T16:17:52Z</time>
      </trkpt>
      <trkpt lat="43.74668" lon="3.56174">
        <ele>97</ele>
        <time>2019-01-10T16:17:52Z</time>
      </trkpt>
      <trkpt lat="43.74665" lon="3.56178">
        <ele>97</ele>
        <time>2019-01-10T16:17:52Z</time>
      </trkpt>
      <trkpt lat="43.74662" lon="3.56182">
        <ele>97</ele>
        <time>2019-01-10T16:17:52Z</time>
      </trkpt>
      <trkpt lat="43.74657" lon="3.56187">
        <ele>97</ele>
        <time>2019-01-10T16:18:08Z</time>
      </trkpt>
      <trkpt lat="43.74653" lon="3.5619">
        <ele>97</ele>
        <time>2019-01-10T16:18:08Z</time>
      </trkpt>
      <trkpt lat="43.74649" lon="3.56193">
        <ele>97</ele>
        <time>2019-01-10T16:18:08Z</time>
      </trkpt>
      <trkpt lat="43.74645" lon="3.56197">
        <ele>97</ele>
        <time>2019-01-10T16:18:08Z</time>
      </trkpt>
      <trkpt lat="43.74642" lon="3.56202">
        <ele>97</ele>
        <time>2019-01-10T16:18:24Z</time>
      </trkpt>
      <trkpt lat="43.74639" lon="3.56206">
        <ele>97</ele>
        <time>2019-01-10T16:18:24Z</time>
      </trkpt>
      <trkpt lat="43.74636" lon="3.56211">
        <ele>97</ele>
        <time>2019-01-10T16:18:24Z</time>
      </trkpt>
      <trkpt lat="43.74633" lon="3.56216">
        <ele>97</ele>
        <time>2019-01-10T16:18:24Z</time>
      </trkpt>
      <trkpt lat="43.74632" lon="3.56224">
        <ele>97</ele>
        <time>2019-01-10T16:18:40Z</time>
      </trkpt>
      <trkpt lat="43.74633" lon="3.56232">
        <ele>97</ele>
        <time>2019-01-10T16:18:40Z</time>
      </trkpt>
      <trkpt lat="43.74634" lon="3.56239">
        <ele>97</ele>
        <time>2019-01-10T16:18:40Z</time>
      </trkpt>
      <trkpt lat="43.74632" lon="3.56245">
        <ele>97</ele>
        <time>2019-01-10T16:18:40Z</time>
      </trkpt>
      <trkpt lat="43.74633" lon="3.56251">
        <ele>97</ele>
        <time>2019-01-10T16:18:56Z</time>
      </trkpt>
      <trkpt lat="43.74633" lon="3.56257">
        <ele>97</ele>
        <time>2019-01-10T16:18:56Z</time>
      </trkpt>
      <trkpt lat="43.74635" lon="3.56264">
        <ele>97</ele>
        <time>2019-01-10T16:18:56Z</time>
      </trkpt>
      <trkpt lat="43.74636" lon="3.56271">
        <ele>97</ele>
        <time>2019-01-10T16:18:56Z</time>
      </trkpt>
      <trkpt lat="43.74638" lon="3.56277">
        <ele>97</ele>
        <time>2019-01-10T16:19:12Z</time>
      </trkpt>
      <trkpt lat="43.74642" lon="3.56282">
        <ele>97</ele>
        <time>2019-01-10T16:19:12Z</time>
      </trkpt>
      <trkpt lat="43.74645" lon="3.56288">
        <ele>97</ele>
        <time>2019-01-10T16:19:12Z</time>
      </trkpt>
      <trkpt lat="43.74647" lon="3.56293">
        <ele>104</ele>
        <time>2019-01-10T16:19:12Z</time>
      </trkpt>
      <trkpt lat="43.74648" lon="3.56298">
        <ele>104</ele>
        <time>2019-01-10T16:19:28Z</time>
      </trkpt>
      <trkpt lat="43.7465" lon="3.56303">
        <ele>104</ele>
        <time>2019-01-10T16:19:28Z</time>
      </trkpt>
      <trkpt lat="43.74651" lon="3.5631">
        <ele>104</ele>
        <time>2019-01-10T16:19:28Z</time>
      </trkpt>
      <trkpt lat="43.74649" lon="3.56315">
        <ele>104</ele>
        <time>2019-01-10T16:19:28Z</time>
      </trkpt>
      <trkpt lat="43.74645" lon="3.56322">
        <ele>104</ele>
        <time>2019-01-10T16:19:44Z</time>
      </trkpt>
      <trkpt lat="43.74643" lon="3.56326">
        <ele>104</ele>
        <time>2019-01-10T16:19:44Z</time>
      </trkpt>
      <trkpt lat="43.74641" lon="3.5633">
        <ele>104</ele>
        <time>2019-01-10T16:19:44Z</time>
      </trkpt>
      <trkpt lat="43.74639" lon="3.56333">
        <ele>104</ele>
        <time>2019-01-10T16:19:44Z</time>
      </trkpt>
      <trkpt lat="43.74637" lon="3.56335">
        <ele>104</ele>
        <time>2019-01-10T16:20:00Z</time>
      </trkpt>
      <trkpt lat="43.74634" lon="3.56335">
        <ele>104</ele>
        <time>2019-01-10T16:20:00Z</time>
      </trkpt>
      <trkpt lat="43.74629" lon="3.56335">
        <ele>104</ele>
        <time>2019-01-10T16:20:00Z</time>
      </trkpt>
      <trkpt lat="43.74625" lon="3.56334">
        <ele>104</ele>
        <time>2019-01-10T16:20:00Z</time>
      </trkpt>
      <trkpt lat="43.74621" lon="3.56331">
        <ele>95</ele>
        <time>2019-01-10T16:20:16Z</time>
      </trkpt>
      <trkpt lat="43.74616" lon="3.56329">
        <ele>95</ele>
        <time>2019-01-10T16:20:16Z</time>
      </trkpt>
      <trkpt lat="43.74613" lon="3.56327">
        <ele>95</ele>
        <time>2019-01-10T16:20:16Z</time>
      </trkpt>
      <trkpt lat="43.7461" lon="3.56322">
        <ele>95</ele>
        <time>2019-01-10T16:20:16Z</time>
      </trkpt>
      <trkpt lat="43.74606" lon="3.5632">
        <ele>95</ele>
        <time>2019-01-10T16:20:32Z</time>
      </trkpt>
      <trkpt lat="43.746" lon="3.56319">
        <ele>95</ele>
        <time>2019-01-10T16:20:32Z</time>
      </trkpt>
      <trkpt lat="43.74598" lon="3.56317">
        <ele>95</ele>
        <time>2019-01-10T16:20:32Z</time>
      </trkpt>
      <trkpt lat="43.74595" lon="3.56315">
        <ele>95</ele>
        <time>2019-01-10T16:20:32Z</time>
      </trkpt>
      <trkpt lat="43.7459" lon="3.56312">
        <ele>95</ele>
        <time>2019-01-10T16:20:48Z</time>
      </trkpt>
      <trkpt lat="43.74584" lon="3.56308">
        <ele>95</ele>
        <time>2019-01-10T16:20:48Z</time>
      </trkpt>
      <trkpt lat="43.74579" lon="3.56308">
        <ele>95</ele>
        <time>2019-01-10T16:20:48Z</time>
      </trkpt>
      <trkpt lat="43.74574" lon="3.56306">
        <ele>95</ele>
        <time>2019-01-10T16:20:48Z</time>
      </trkpt>
      <trkpt lat="43.74567" lon="3.56302">
        <ele>95</ele>
        <time>2019-01-10T16:21:04Z</time>
      </trkpt>
      <trkpt lat="43.74562" lon="3.56301">
        <ele>95</ele>
        <time>2019-01-10T16:21:04Z</time>
      </trkpt>
      <trkpt lat="43.74556" lon="3.56302">
        <ele>95</ele>
        <time>2019-01-10T16:21:04Z</time>
      </trkpt>
      <trkpt lat="43.74552" lon="3.563">
        <ele>95</ele>
        <time>2019-01-10T16:21:04Z</time>
      </trkpt>
      <trkpt lat="43.74548" lon="3.56302">
        <ele>95</ele>
        <time>2019-01-10T16:21:24Z</time>
      </trkpt>
      <trkpt lat="43.74547" lon="3.56304">
        <ele>95</ele>
        <time>2019-01-10T16:21:24Z</time>
      </trkpt>
      <trkpt lat="43.74545" lon="3.56305">
        <ele>95</ele>
        <time>2019-01-10T16:21:24Z</time>
      </trkpt>
      <trkpt lat="43.7454" lon="3.56307">
        <ele>86</ele>
        <time>2019-01-10T16:21:24Z</time>
      </trkpt>
      <trkpt lat="43.74534" lon="3.56309">
        <ele>86</ele>
        <time>2019-01-10T16:21:24Z</time>
      </trkpt>
      <trkpt lat="43.7453" lon="3.5631">
        <ele>86</ele>
        <time>2019-01-10T16:21:40Z</time>
      </trkpt>
      <trkpt lat="43.74526" lon="3.56309">
        <ele>86</ele>
        <time>2019-01-10T16:21:40Z</time>
      </trkpt>
      <trkpt lat="43.74521" lon="3.56309">
        <ele>86</ele>
        <time>2019-01-10T16:21:40Z</time>
      </trkpt>
      <trkpt lat="43.74516" lon="3.56311">
        <ele>86</ele>
        <time>2019-01-10T16:21:40Z</time>
      </trkpt>
      <trkpt lat="43.74512" lon="3.5631">
        <ele>86</ele>
        <time>2019-01-10T16:21:56Z</time>
      </trkpt>
      <trkpt lat="43.74506" lon="3.56311">
        <ele>86</ele>
        <time>2019-01-10T16:21:56Z</time>
      </trkpt>
      <trkpt lat="43.745" lon="3.56312">
        <ele>86</ele>
        <time>2019-01-10T16:21:56Z</time>
      </trkpt>
      <trkpt lat="43.74496" lon="3.56313">
        <ele>86</ele>
        <time>2019-01-10T16:21:56Z</time>
      </trkpt>
      <trkpt lat="43.74493" lon="3.56314">
        <ele>86</ele>
        <time>2019-01-10T16:22:12Z</time>
      </trkpt>
      <trkpt lat="43.74491" lon="3.56314">
        <ele>86</ele>
        <time>2019-01-10T16:22:12Z</time>
      </trkpt>
      <trkpt lat="43.74485" lon="3.56314">
        <ele>86</ele>
        <time>2019-01-10T16:22:12Z</time>
      </trkpt>
      <trkpt lat="43.74478" lon="3.56314">
        <ele>86</ele>
        <time>2019-01-10T16:22:12Z</time>
      </trkpt>
      <trkpt lat="43.74472" lon="3.56313">
        <ele>86</ele>
        <time>2019-01-10T16:22:28Z</time>
      </trkpt>
      <trkpt lat="43.74468" lon="3.56309">
        <ele>86</ele>
        <time>2019-01-10T16:22:28Z</time>
      </trkpt>
      <trkpt lat="43.74462" lon="3.5631">
        <ele>86</ele>
        <time>2019-01-10T16:22:28Z</time>
      </trkpt>
      <trkpt lat="43.74455" lon="3.56312">
        <ele>70</ele>
        <time>2019-01-10T16:22:28Z</time>
      </trkpt>
      <trkpt lat="43.7445" lon="3.56313">
        <ele>70</ele>
        <time>2019-01-10T16:22:44Z</time>
      </trkpt>
      <trkpt lat="43.74447" lon="3.56311">
        <ele>70</ele>
        <time>2019-01-10T16:22:44Z</time>
      </trkpt>
      <trkpt lat="43.74443" lon="3.56312">
        <ele>70</ele>
        <time>2019-01-10T16:22:44Z</time>
      </trkpt>
      <trkpt lat="43.74439" lon="3.56314">
        <ele>70</ele>
        <time>2019-01-10T16:22:44Z</time>
      </trkpt>
      <trkpt lat="43.74435" lon="3.56313">
        <ele>70</ele>
        <time>2019-01-10T16:23:00Z</time>
      </trkpt>
      <trkpt lat="43.74432" lon="3.56318">
        <ele>70</ele>
        <time>2019-01-10T16:23:00Z</time>
      </trkpt>
      <trkpt lat="43.7443" lon="3.56327">
        <ele>70</ele>
        <time>2019-01-10T16:23:00Z</time>
      </trkpt>
      <trkpt lat="43.7443" lon="3.56335">
        <ele>70</ele>
        <time>2019-01-10T16:23:00Z</time>
      </trkpt>
      <trkpt lat="43.74429" lon="3.56344">
        <ele>70</ele>
        <time>2019-01-10T16:23:16Z</time>
      </trkpt>
      <trkpt lat="43.74429" lon="3.56352">
        <ele>70</ele>
        <time>2019-01-10T16:23:16Z</time>
      </trkpt>
      <trkpt lat="43.74427" lon="3.5636">
        <ele>70</ele>
        <time>2019-01-10T16:23:16Z</time>
      </trkpt>
      <trkpt lat="43.74427" lon="3.56368">
        <ele>70</ele>
        <time>2019-01-10T16:23:16Z</time>
      </trkpt>
      <trkpt lat="43.74425" lon="3.56374">
        <ele>70</ele>
        <time>2019-01-10T16:23:32Z</time>
      </trkpt>
      <trkpt lat="43.74426" lon="3.5638">
        <ele>78</ele>
        <time>2019-01-10T16:23:32Z</time>
      </trkpt>
      <trkpt lat="43.74427" lon="3.56386">
        <ele>78</ele>
        <time>2019-01-10T16:23:32Z</time>
      </trkpt>
      <trkpt lat="43.74427" lon="3.56392">
        <ele>78</ele>
        <time>2019-01-10T16:23:32Z</time>
      </trkpt>
      <trkpt lat="43.74427" lon="3.56399">
        <ele>78</ele>
        <time>2019-01-10T16:23:48Z</time>
      </trkpt>
      <trkpt lat="43.74426" lon="3.56406">
        <ele>78</ele>
        <time>2019-01-10T16:23:48Z</time>
      </trkpt>
      <trkpt lat="43.74424" lon="3.56414">
        <ele>78</ele>
        <time>2019-01-10T16:23:48Z</time>
      </trkpt>
      <trkpt lat="43.74424" lon="3.56419">
        <ele>78</ele>
        <time>2019-01-10T16:23:48Z</time>
      </trkpt>
      <trkpt lat="43.74424" lon="3.56425">
        <ele>78</ele>
        <time>2019-01-10T16:24:04Z</time>
      </trkpt>
      <trkpt lat="43.74422" lon="3.56432">
        <ele>78</ele>
        <time>2019-01-10T16:24:04Z</time>
      </trkpt>
      <trkpt lat="43.7442" lon="3.56438">
        <ele>78</ele>
        <time>2019-01-10T16:24:04Z</time>
      </trkpt>
      <trkpt lat="43.74418" lon="3.56444">
        <ele>78</ele>
        <time>2019-01-10T16:24:04Z</time>
      </trkpt>
      <trkpt lat="43.74415" lon="3.5645">
        <ele>78</ele>
        <time>2019-01-10T16:24:20Z</time>
      </trkpt>
      <trkpt lat="43.74413" lon="3.56455">
        <ele>78</ele>
        <time>2019-01-10T16:24:20Z</time>
      </trkpt>
      <trkpt lat="43.7441" lon="3.56461">
        <ele>87</ele>
        <time>2019-01-10T16:24:20Z</time>
      </trkpt>
      <trkpt lat="43.74407" lon="3.56466">
        <ele>87</ele>
        <time>2019-01-10T16:24:20Z</time>
      </trkpt>
      <trkpt lat="43.74403" lon="3.5647">
        <ele>87</ele>
        <time>2019-01-10T16:24:36Z</time>
      </trkpt>
      <trkpt lat="43.74401" lon="3.56473">
        <ele>87</ele>
        <time>2019-01-10T16:24:36Z</time>
      </trkpt>
      <trkpt lat="43.74397" lon="3.56476">
        <ele>87</ele>
        <time>2019-01-10T16:24:36Z</time>
      </trkpt>
      <trkpt lat="43.74393" lon="3.56481">
        <ele>87</ele>
        <time>2019-01-10T16:24:36Z</time>
      </trkpt>
      <trkpt lat="43.74388" lon="3.56484">
        <ele>87</ele>
        <time>2019-01-10T16:24:52Z</time>
      </trkpt>
      <trkpt lat="43.74383" lon="3.56486">
        <ele>87</ele>
        <time>2019-01-10T16:24:52Z</time>
      </trkpt>
      <trkpt lat="43.74379" lon="3.56488">
        <ele>87</ele>
        <time>2019-01-10T16:24:52Z</time>
      </trkpt>
      <trkpt lat="43.74374" lon="3.56491">
        <ele>77</ele>
        <time>2019-01-10T16:24:52Z</time>
      </trkpt>
      <trkpt lat="43.74369" lon="3.56495">
        <ele>77</ele>
        <time>2019-01-10T16:25:08Z</time>
      </trkpt>
      <trkpt lat="43.74365" lon="3.565">
        <ele>77</ele>
        <time>2019-01-10T16:25:08Z</time>
      </trkpt>
      <trkpt lat="43.74362" lon="3.56505">
        <ele>77</ele>
        <time>2019-01-10T16:25:08Z</time>
      </trkpt>
      <trkpt lat="43.74358" lon="3.56509">
        <ele>77</ele>
        <time>2019-01-10T16:25:08Z</time>
      </trkpt>
      <trkpt lat="43.74354" lon="3.56514">
        <ele>77</ele>
        <time>2019-01-10T16:25:24Z</time>
      </trkpt>
      <trkpt lat="43.74351" lon="3.56519">
        <ele>77</ele>
        <time>2019-01-10T16:25:24Z</time>
      </trkpt>
      <trkpt lat="43.74348" lon="3.56525">
        <ele>77</ele>
        <time>2019-01-10T16:25:24Z</time>
      </trkpt>
      <trkpt lat="43.74348" lon="3.56534">
        <ele>77</ele>
        <time>2019-01-10T16:25:24Z</time>
      </trkpt>
      <trkpt lat="43.74348" lon="3.56541">
        <ele>77</ele>
        <time>2019-01-10T16:25:40Z</time>
      </trkpt>
      <trkpt lat="43.74348" lon="3.56549">
        <ele>78</ele>
        <time>2019-01-10T16:25:40Z</time>
      </trkpt>
      <trkpt lat="43.74347" lon="3.56556">
        <ele>78</ele>
        <time>2019-01-10T16:25:40Z</time>
      </trkpt>
      <trkpt lat="43.74348" lon="3.56562">
        <ele>78</ele>
        <time>2019-01-10T16:25:40Z</time>
      </trkpt>
      <trkpt lat="43.74349" lon="3.56567">
        <ele>78</ele>
        <time>2019-01-10T16:25:56Z</time>
      </trkpt>
      <trkpt lat="43.74348" lon="3.56573">
        <ele>78</ele>
        <time>2019-01-10T16:25:56Z</time>
      </trkpt>
      <trkpt lat="43.7435" lon="3.56579">
        <ele>78</ele>
        <time>2019-01-10T16:25:56Z</time>
      </trkpt>
      <trkpt lat="43.74352" lon="3.56586">
        <ele>78</ele>
        <time>2019-01-10T16:25:56Z</time>
      </trkpt>
      <trkpt lat="43.74353" lon="3.56592">
        <ele>78</ele>
        <time>2019-01-10T16:26:12Z</time>
      </trkpt>
      <trkpt lat="43.7435" lon="3.56596">
        <ele>78</ele>
        <time>2019-01-10T16:26:12Z</time>
      </trkpt>
      <trkpt lat="43.74346" lon="3.566">
        <ele>78</ele>
        <time>2019-01-10T16:26:12Z</time>
      </trkpt>
      <trkpt lat="43.74344" lon="3.56605">
        <ele>78</ele>
        <time>2019-01-10T16:26:12Z</time>
      </trkpt>
    </trkseg>
  </trk>
</gpx>